<?xml version="1.0" encoding="UTF-8" standalone="no" ?>
<gpx xmlns="http://www.topografix.com/GPX/1/1" xmlns:xsi="http://www.w3.org/2001/XMLSchema-instance" xsi:schemaLocation="http://www.topografix.com/GPX/1/1 http://www.topografix.com/GPX/1/1/gpx.xsd" version="1.1" creator="VisuGPX - https://www.visugpx.com">
  <metadata>
    <name>Domfront Abbaye Lomlay</name>
    <desc><![CDATA[Réalisé Départ du camping de Domfront]]></desc>
  </metadata>
  <trk>
    <name><![CDATA[Domfront Abbaye Lomlay_1]]></name>
    <extensions>
      <line xmlns="http://www.topografix.com/GPX/gpx_style/0/2">
        <color>0000FF</color>
        <width>4</width>
      </line>
    </extensions>
    <trkseg>
      <trkpt lat="48.5879" lon="-0.65163">
        <ele>157.4</ele>
        <time>2025-05-10T15:06:26.000Z</time>
      </trkpt>
      <trkpt lat="48.58795" lon="-0.65165">
        <ele>157.6</ele>
        <time>2025-05-10T15:06:28.000Z</time>
      </trkpt>
      <trkpt lat="48.588" lon="-0.65166">
        <ele>157.8</ele>
        <time>2025-05-10T15:06:30.000Z</time>
      </trkpt>
      <trkpt lat="48.58805" lon="-0.65164">
        <ele>158</ele>
        <time>2025-05-10T15:06:32.000Z</time>
      </trkpt>
      <trkpt lat="48.5881" lon="-0.65161">
        <ele>158.3</ele>
        <time>2025-05-10T15:06:34.000Z</time>
      </trkpt>
      <trkpt lat="48.58815" lon="-0.65157">
        <ele>158.7</ele>
        <time>2025-05-10T15:06:36.000Z</time>
      </trkpt>
      <trkpt lat="48.58818" lon="-0.65154">
        <ele>150.3</ele>
        <time>2025-05-10T15:10:22.000Z</time>
      </trkpt>
      <trkpt lat="48.58824" lon="-0.65147">
        <ele>151</ele>
        <time>2025-05-10T15:10:24.000Z</time>
      </trkpt>
      <trkpt lat="48.58827" lon="-0.65136">
        <ele>158.6</ele>
        <time>2025-05-10T15:10:26.000Z</time>
      </trkpt>
      <trkpt lat="48.58832" lon="-0.65128">
        <ele>159.2</ele>
        <time>2025-05-10T15:10:28.000Z</time>
      </trkpt>
      <trkpt lat="48.58837" lon="-0.65119">
        <ele>159.8</ele>
        <time>2025-05-10T15:10:30.000Z</time>
      </trkpt>
      <trkpt lat="48.58842" lon="-0.65111">
        <ele>160.6</ele>
        <time>2025-05-10T15:10:32.000Z</time>
      </trkpt>
      <trkpt lat="48.58847" lon="-0.65102">
        <ele>154.1</ele>
        <time>2025-05-10T15:10:34.000Z</time>
      </trkpt>
      <trkpt lat="48.58849" lon="-0.65096">
        <ele>154.5</ele>
      </trkpt>
      <trkpt lat="48.58851" lon="-0.65092">
        <ele>154.9</ele>
        <time>2025-05-10T15:10:36.000Z</time>
      </trkpt>
      <trkpt lat="48.58853" lon="-0.65086">
        <ele>155.5</ele>
      </trkpt>
      <trkpt lat="48.58857" lon="-0.65081">
        <ele>156</ele>
        <time>2025-05-10T15:10:38.000Z</time>
      </trkpt>
      <trkpt lat="48.58859" lon="-0.65079">
        <ele>156.3</ele>
      </trkpt>
      <trkpt lat="48.58861" lon="-0.65074">
        <ele>156.4</ele>
        <time>2025-05-10T15:10:40.000Z</time>
      </trkpt>
      <trkpt lat="48.58864" lon="-0.65069">
        <ele>156.3</ele>
      </trkpt>
      <trkpt lat="48.58867" lon="-0.65067">
        <ele>156.6</ele>
        <time>2025-05-10T15:10:42.000Z</time>
      </trkpt>
      <trkpt lat="48.58881" lon="-0.65059">
        <ele>166.2</ele>
        <time>2025-05-10T15:10:46.000Z</time>
      </trkpt>
      <trkpt lat="48.58887" lon="-0.65062">
        <ele>167</ele>
        <time>2025-05-10T15:10:48.000Z</time>
      </trkpt>
      <trkpt lat="48.58892" lon="-0.65066">
        <ele>167.6</ele>
        <time>2025-05-10T15:10:50.000Z</time>
      </trkpt>
      <trkpt lat="48.58897" lon="-0.65069">
        <ele>168.2</ele>
        <time>2025-05-10T15:10:52.000Z</time>
      </trkpt>
      <trkpt lat="48.58901" lon="-0.65074">
        <ele>168.8</ele>
        <time>2025-05-10T15:10:54.000Z</time>
      </trkpt>
      <trkpt lat="48.58905" lon="-0.65083">
        <ele>169.3</ele>
        <time>2025-05-10T15:10:56.000Z</time>
      </trkpt>
      <trkpt lat="48.58907" lon="-0.65094">
        <ele>169.8</ele>
        <time>2025-05-10T15:10:58.000Z</time>
      </trkpt>
      <trkpt lat="48.58908" lon="-0.65106">
        <ele>170.2</ele>
        <time>2025-05-10T15:11:00.000Z</time>
      </trkpt>
      <trkpt lat="48.5891" lon="-0.65118">
        <ele>170.4</ele>
        <time>2025-05-10T15:11:02.000Z</time>
      </trkpt>
      <trkpt lat="48.58911" lon="-0.65132">
        <ele>170.6</ele>
        <time>2025-05-10T15:11:04.000Z</time>
      </trkpt>
      <trkpt lat="48.58912" lon="-0.65138">
        <ele>170.7</ele>
        <time>2025-05-10T15:11:05.000Z</time>
      </trkpt>
      <trkpt lat="48.58913" lon="-0.65145">
        <ele>170.8</ele>
        <time>2025-05-10T15:11:06.000Z</time>
      </trkpt>
      <trkpt lat="48.58914" lon="-0.65152">
        <ele>170.9</ele>
        <time>2025-05-10T15:11:07.000Z</time>
      </trkpt>
      <trkpt lat="48.58915" lon="-0.65159">
        <ele>171</ele>
        <time>2025-05-10T15:11:08.000Z</time>
      </trkpt>
      <trkpt lat="48.58916" lon="-0.65165">
        <ele>171.1</ele>
        <time>2025-05-10T15:11:09.000Z</time>
      </trkpt>
      <trkpt lat="48.58917" lon="-0.65172">
        <ele>171.1</ele>
        <time>2025-05-10T15:11:10.000Z</time>
      </trkpt>
      <trkpt lat="48.58919" lon="-0.65179">
        <ele>171.2</ele>
        <time>2025-05-10T15:11:11.000Z</time>
      </trkpt>
      <trkpt lat="48.5892" lon="-0.65186">
        <ele>171.3</ele>
        <time>2025-05-10T15:11:12.000Z</time>
      </trkpt>
      <trkpt lat="48.58921" lon="-0.65193">
        <ele>171.4</ele>
        <time>2025-05-10T15:11:13.000Z</time>
      </trkpt>
      <trkpt lat="48.58923" lon="-0.652">
        <ele>171.4</ele>
        <time>2025-05-10T15:11:14.000Z</time>
      </trkpt>
      <trkpt lat="48.58924" lon="-0.65206">
        <ele>171.5</ele>
        <time>2025-05-10T15:11:15.000Z</time>
      </trkpt>
      <trkpt lat="48.58926" lon="-0.65213">
        <ele>171.5</ele>
        <time>2025-05-10T15:11:16.000Z</time>
      </trkpt>
      <trkpt lat="48.58927" lon="-0.6522">
        <ele>171.6</ele>
        <time>2025-05-10T15:11:17.000Z</time>
      </trkpt>
      <trkpt lat="48.58928" lon="-0.65227">
        <ele>171.7</ele>
        <time>2025-05-10T15:11:18.000Z</time>
      </trkpt>
      <trkpt lat="48.58929" lon="-0.65233">
        <ele>171.7</ele>
        <time>2025-05-10T15:11:19.000Z</time>
      </trkpt>
      <trkpt lat="48.58931" lon="-0.6524">
        <ele>171.8</ele>
        <time>2025-05-10T15:11:20.000Z</time>
      </trkpt>
      <trkpt lat="48.58932" lon="-0.65247">
        <ele>171.8</ele>
        <time>2025-05-10T15:11:21.000Z</time>
      </trkpt>
      <trkpt lat="48.58934" lon="-0.65254">
        <ele>171.9</ele>
        <time>2025-05-10T15:11:22.000Z</time>
      </trkpt>
      <trkpt lat="48.58935" lon="-0.6526">
        <ele>171.9</ele>
        <time>2025-05-10T15:11:23.000Z</time>
      </trkpt>
      <trkpt lat="48.58937" lon="-0.65267">
        <ele>171.9</ele>
        <time>2025-05-10T15:11:24.000Z</time>
      </trkpt>
      <trkpt lat="48.58938" lon="-0.65274">
        <ele>172</ele>
        <time>2025-05-10T15:11:25.000Z</time>
      </trkpt>
      <trkpt lat="48.58939" lon="-0.65281">
        <ele>172</ele>
        <time>2025-05-10T15:11:26.000Z</time>
      </trkpt>
      <trkpt lat="48.58941" lon="-0.65288">
        <ele>172.1</ele>
        <time>2025-05-10T15:11:27.000Z</time>
      </trkpt>
      <trkpt lat="48.58943" lon="-0.653">
        <ele>172.1</ele>
        <time>2025-05-10T15:11:29.000Z</time>
      </trkpt>
      <trkpt lat="48.58945" lon="-0.65313">
        <ele>172.2</ele>
        <time>2025-05-10T15:11:31.000Z</time>
      </trkpt>
      <trkpt lat="48.58948" lon="-0.65324">
        <ele>172.2</ele>
        <time>2025-05-10T15:11:33.000Z</time>
      </trkpt>
      <trkpt lat="48.5895" lon="-0.65334">
        <ele>172.3</ele>
        <time>2025-05-10T15:11:35.000Z</time>
      </trkpt>
      <trkpt lat="48.58951" lon="-0.65342">
        <ele>172.3</ele>
        <time>2025-05-10T15:11:38.000Z</time>
      </trkpt>
      <trkpt lat="48.58949" lon="-0.65353">
        <ele>172.2</ele>
        <time>2025-05-10T15:11:42.000Z</time>
      </trkpt>
      <trkpt lat="48.58944" lon="-0.65361">
        <ele>172.2</ele>
        <time>2025-05-10T15:11:44.000Z</time>
      </trkpt>
      <trkpt lat="48.5894" lon="-0.65365">
        <ele>172.1</ele>
        <time>2025-05-10T15:11:45.000Z</time>
      </trkpt>
      <trkpt lat="48.58935" lon="-0.65369">
        <ele>172.1</ele>
        <time>2025-05-10T15:11:46.000Z</time>
      </trkpt>
      <trkpt lat="48.5893" lon="-0.65373">
        <ele>172.1</ele>
        <time>2025-05-10T15:11:47.000Z</time>
      </trkpt>
      <trkpt lat="48.58925" lon="-0.65377">
        <ele>172</ele>
        <time>2025-05-10T15:11:48.000Z</time>
      </trkpt>
      <trkpt lat="48.58919" lon="-0.65381">
        <ele>172</ele>
        <time>2025-05-10T15:11:49.000Z</time>
      </trkpt>
      <trkpt lat="48.58913" lon="-0.65385">
        <ele>171.9</ele>
        <time>2025-05-10T15:11:50.000Z</time>
      </trkpt>
      <trkpt lat="48.58907" lon="-0.6539">
        <ele>171.7</ele>
        <time>2025-05-10T15:11:51.000Z</time>
      </trkpt>
      <trkpt lat="48.58901" lon="-0.65395">
        <ele>171.6</ele>
        <time>2025-05-10T15:11:52.000Z</time>
      </trkpt>
      <trkpt lat="48.58894" lon="-0.654">
        <ele>171.4</ele>
        <time>2025-05-10T15:11:53.000Z</time>
      </trkpt>
      <trkpt lat="48.58887" lon="-0.65406">
        <ele>171.2</ele>
        <time>2025-05-10T15:11:54.000Z</time>
      </trkpt>
      <trkpt lat="48.58879" lon="-0.65411">
        <ele>170.9</ele>
        <time>2025-05-10T15:11:55.000Z</time>
      </trkpt>
      <trkpt lat="48.58872" lon="-0.65418">
        <ele>170.5</ele>
        <time>2025-05-10T15:11:56.000Z</time>
      </trkpt>
      <trkpt lat="48.58865" lon="-0.65425">
        <ele>170.1</ele>
        <time>2025-05-10T15:11:57.000Z</time>
      </trkpt>
      <trkpt lat="48.58859" lon="-0.65433">
        <ele>169.5</ele>
        <time>2025-05-10T15:11:58.000Z</time>
      </trkpt>
      <trkpt lat="48.58855" lon="-0.65444">
        <ele>168.9</ele>
        <time>2025-05-10T15:11:59.000Z</time>
      </trkpt>
      <trkpt lat="48.58854" lon="-0.65456">
        <ele>168.2</ele>
        <time>2025-05-10T15:12:00.000Z</time>
      </trkpt>
      <trkpt lat="48.58855" lon="-0.6547">
        <ele>167.5</ele>
        <time>2025-05-10T15:12:01.000Z</time>
      </trkpt>
      <trkpt lat="48.58858" lon="-0.65482">
        <ele>166.7</ele>
        <time>2025-05-10T15:12:02.000Z</time>
      </trkpt>
      <trkpt lat="48.58864" lon="-0.65493">
        <ele>165.8</ele>
        <time>2025-05-10T15:12:03.000Z</time>
      </trkpt>
      <trkpt lat="48.58872" lon="-0.65501">
        <ele>165</ele>
        <time>2025-05-10T15:12:04.000Z</time>
      </trkpt>
      <trkpt lat="48.58881" lon="-0.65507">
        <ele>164.2</ele>
        <time>2025-05-10T15:12:05.000Z</time>
      </trkpt>
      <trkpt lat="48.5889" lon="-0.65511">
        <ele>163.5</ele>
        <time>2025-05-10T15:12:06.000Z</time>
      </trkpt>
      <trkpt lat="48.58899" lon="-0.65516">
        <ele>162.9</ele>
        <time>2025-05-10T15:12:07.000Z</time>
      </trkpt>
      <trkpt lat="48.58908" lon="-0.65521">
        <ele>162.1</ele>
        <time>2025-05-10T15:12:08.000Z</time>
      </trkpt>
      <trkpt lat="48.58917" lon="-0.65525">
        <ele>161.5</ele>
        <time>2025-05-10T15:12:09.000Z</time>
      </trkpt>
      <trkpt lat="48.58926" lon="-0.65529">
        <ele>160.9</ele>
        <time>2025-05-10T15:12:10.000Z</time>
      </trkpt>
      <trkpt lat="48.58935" lon="-0.65533">
        <ele>160.4</ele>
        <time>2025-05-10T15:12:11.000Z</time>
      </trkpt>
      <trkpt lat="48.58944" lon="-0.65536">
        <ele>160</ele>
        <time>2025-05-10T15:12:12.000Z</time>
      </trkpt>
      <trkpt lat="48.58953" lon="-0.65539">
        <ele>159.4</ele>
        <time>2025-05-10T15:12:13.000Z</time>
      </trkpt>
      <trkpt lat="48.58962" lon="-0.65542">
        <ele>158.9</ele>
        <time>2025-05-10T15:12:14.000Z</time>
      </trkpt>
      <trkpt lat="48.58971" lon="-0.65546">
        <ele>158.4</ele>
        <time>2025-05-10T15:12:15.000Z</time>
      </trkpt>
      <trkpt lat="48.5898" lon="-0.65549">
        <ele>157.9</ele>
        <time>2025-05-10T15:12:16.000Z</time>
      </trkpt>
      <trkpt lat="48.5899" lon="-0.65552">
        <ele>157.4</ele>
        <time>2025-05-10T15:12:17.000Z</time>
      </trkpt>
      <trkpt lat="48.58999" lon="-0.65555">
        <ele>156.8</ele>
        <time>2025-05-10T15:12:18.000Z</time>
      </trkpt>
      <trkpt lat="48.59008" lon="-0.65558">
        <ele>156.3</ele>
        <time>2025-05-10T15:12:19.000Z</time>
      </trkpt>
      <trkpt lat="48.59017" lon="-0.65561">
        <ele>155.8</ele>
        <time>2025-05-10T15:12:20.000Z</time>
      </trkpt>
      <trkpt lat="48.59026" lon="-0.65563">
        <ele>155.4</ele>
        <time>2025-05-10T15:12:21.000Z</time>
      </trkpt>
      <trkpt lat="48.59035" lon="-0.65566">
        <ele>154.9</ele>
        <time>2025-05-10T15:12:22.000Z</time>
      </trkpt>
      <trkpt lat="48.59044" lon="-0.65569">
        <ele>154.2</ele>
        <time>2025-05-10T15:12:23.000Z</time>
      </trkpt>
      <trkpt lat="48.59051" lon="-0.65574">
        <ele>153.7</ele>
        <time>2025-05-10T15:12:24.000Z</time>
      </trkpt>
      <trkpt lat="48.59059" lon="-0.6558">
        <ele>153.2</ele>
        <time>2025-05-10T15:12:25.000Z</time>
      </trkpt>
      <trkpt lat="48.59065" lon="-0.6559">
        <ele>152.8</ele>
        <time>2025-05-10T15:12:26.000Z</time>
      </trkpt>
      <trkpt lat="48.59069" lon="-0.65601">
        <ele>152.3</ele>
        <time>2025-05-10T15:12:27.000Z</time>
      </trkpt>
      <trkpt lat="48.59071" lon="-0.65614">
        <ele>151.7</ele>
        <time>2025-05-10T15:12:28.000Z</time>
      </trkpt>
      <trkpt lat="48.59072" lon="-0.65628">
        <ele>151.2</ele>
        <time>2025-05-10T15:12:29.000Z</time>
      </trkpt>
      <trkpt lat="48.59073" lon="-0.65643">
        <ele>150.6</ele>
        <time>2025-05-10T15:12:30.000Z</time>
      </trkpt>
      <trkpt lat="48.59074" lon="-0.65657">
        <ele>150</ele>
        <time>2025-05-10T15:12:31.000Z</time>
      </trkpt>
      <trkpt lat="48.59075" lon="-0.65671">
        <ele>149.5</ele>
        <time>2025-05-10T15:12:32.000Z</time>
      </trkpt>
      <trkpt lat="48.59076" lon="-0.65685">
        <ele>148.8</ele>
        <time>2025-05-10T15:12:33.000Z</time>
      </trkpt>
      <trkpt lat="48.59076" lon="-0.65699">
        <ele>148.3</ele>
        <time>2025-05-10T15:12:34.000Z</time>
      </trkpt>
      <trkpt lat="48.59076" lon="-0.65712">
        <ele>147.9</ele>
        <time>2025-05-10T15:12:35.000Z</time>
      </trkpt>
      <trkpt lat="48.59076" lon="-0.65724">
        <ele>147.5</ele>
        <time>2025-05-10T15:12:36.000Z</time>
      </trkpt>
      <trkpt lat="48.59076" lon="-0.65736">
        <ele>147.1</ele>
        <time>2025-05-10T15:12:37.000Z</time>
      </trkpt>
      <trkpt lat="48.59076" lon="-0.65748">
        <ele>146.8</ele>
        <time>2025-05-10T15:12:38.000Z</time>
      </trkpt>
      <trkpt lat="48.59075" lon="-0.65759">
        <ele>146.5</ele>
        <time>2025-05-10T15:12:39.000Z</time>
      </trkpt>
      <trkpt lat="48.59074" lon="-0.6577">
        <ele>146.3</ele>
        <time>2025-05-10T15:12:40.000Z</time>
      </trkpt>
      <trkpt lat="48.59072" lon="-0.65781">
        <ele>146.1</ele>
        <time>2025-05-10T15:12:41.000Z</time>
      </trkpt>
      <trkpt lat="48.5907" lon="-0.65791">
        <ele>145.9</ele>
        <time>2025-05-10T15:12:42.000Z</time>
      </trkpt>
      <trkpt lat="48.59067" lon="-0.65801">
        <ele>145.7</ele>
        <time>2025-05-10T15:12:43.000Z</time>
      </trkpt>
      <trkpt lat="48.59064" lon="-0.65811">
        <ele>145.5</ele>
        <time>2025-05-10T15:12:44.000Z</time>
      </trkpt>
      <trkpt lat="48.59061" lon="-0.6582">
        <ele>145.4</ele>
        <time>2025-05-10T15:12:45.000Z</time>
      </trkpt>
      <trkpt lat="48.59057" lon="-0.65828">
        <ele>145.3</ele>
        <time>2025-05-10T15:12:46.000Z</time>
      </trkpt>
      <trkpt lat="48.59054" lon="-0.65837">
        <ele>145.2</ele>
        <time>2025-05-10T15:12:47.000Z</time>
      </trkpt>
      <trkpt lat="48.59051" lon="-0.65845">
        <ele>145.1</ele>
        <time>2025-05-10T15:12:48.000Z</time>
      </trkpt>
      <trkpt lat="48.59048" lon="-0.65852">
        <ele>145</ele>
        <time>2025-05-10T15:12:49.000Z</time>
      </trkpt>
      <trkpt lat="48.59045" lon="-0.65859">
        <ele>145</ele>
        <time>2025-05-10T15:12:50.000Z</time>
      </trkpt>
      <trkpt lat="48.59042" lon="-0.65866">
        <ele>144.9</ele>
        <time>2025-05-10T15:12:51.000Z</time>
      </trkpt>
      <trkpt lat="48.59039" lon="-0.65873">
        <ele>144.9</ele>
        <time>2025-05-10T15:12:52.000Z</time>
      </trkpt>
      <trkpt lat="48.59036" lon="-0.65879">
        <ele>144.8</ele>
        <time>2025-05-10T15:12:53.000Z</time>
      </trkpt>
      <trkpt lat="48.59034" lon="-0.65885">
        <ele>144.8</ele>
        <time>2025-05-10T15:12:54.000Z</time>
      </trkpt>
      <trkpt lat="48.59031" lon="-0.65891">
        <ele>144.8</ele>
        <time>2025-05-10T15:12:55.000Z</time>
      </trkpt>
      <trkpt lat="48.59029" lon="-0.65897">
        <ele>144.7</ele>
        <time>2025-05-10T15:12:56.000Z</time>
      </trkpt>
      <trkpt lat="48.59026" lon="-0.65903">
        <ele>144.7</ele>
        <time>2025-05-10T15:12:57.000Z</time>
      </trkpt>
      <trkpt lat="48.59024" lon="-0.65909">
        <ele>144.7</ele>
        <time>2025-05-10T15:12:58.000Z</time>
      </trkpt>
      <trkpt lat="48.59023" lon="-0.65916">
        <ele>144.7</ele>
        <time>2025-05-10T15:12:59.000Z</time>
      </trkpt>
      <trkpt lat="48.59022" lon="-0.65922">
        <ele>144.6</ele>
        <time>2025-05-10T15:13:00.000Z</time>
      </trkpt>
      <trkpt lat="48.59021" lon="-0.65929">
        <ele>144.6</ele>
        <time>2025-05-10T15:13:01.000Z</time>
      </trkpt>
      <trkpt lat="48.59021" lon="-0.65936">
        <ele>144.6</ele>
        <time>2025-05-10T15:13:02.000Z</time>
      </trkpt>
      <trkpt lat="48.59022" lon="-0.65943">
        <ele>144.6</ele>
        <time>2025-05-10T15:13:03.000Z</time>
      </trkpt>
      <trkpt lat="48.59024" lon="-0.65955">
        <ele>144.7</ele>
        <time>2025-05-10T15:13:05.000Z</time>
      </trkpt>
      <trkpt lat="48.59029" lon="-0.65966">
        <ele>144.7</ele>
        <time>2025-05-10T15:13:07.000Z</time>
      </trkpt>
      <trkpt lat="48.59035" lon="-0.65975">
        <ele>144.8</ele>
        <time>2025-05-10T15:13:09.000Z</time>
      </trkpt>
      <trkpt lat="48.59042" lon="-0.65983">
        <ele>144.8</ele>
        <time>2025-05-10T15:13:11.000Z</time>
      </trkpt>
      <trkpt lat="48.59048" lon="-0.65991">
        <ele>144.9</ele>
        <time>2025-05-10T15:13:13.000Z</time>
      </trkpt>
      <trkpt lat="48.59054" lon="-0.65999">
        <ele>145</ele>
        <time>2025-05-10T15:13:15.000Z</time>
      </trkpt>
      <trkpt lat="48.59064" lon="-0.66002">
        <ele>145.1</ele>
        <time>2025-05-10T15:14:15.000Z</time>
      </trkpt>
      <trkpt lat="48.59067" lon="-0.65994">
        <ele>145.1</ele>
        <time>2025-05-10T15:14:18.000Z</time>
      </trkpt>
      <trkpt lat="48.59071" lon="-0.65986">
        <ele>145</ele>
        <time>2025-05-10T15:14:20.000Z</time>
      </trkpt>
      <trkpt lat="48.59076" lon="-0.65978">
        <ele>145</ele>
        <time>2025-05-10T15:14:22.000Z</time>
      </trkpt>
      <trkpt lat="48.59081" lon="-0.65969">
        <ele>145.1</ele>
        <time>2025-05-10T15:14:24.000Z</time>
      </trkpt>
      <trkpt lat="48.59088" lon="-0.6596">
        <ele>145.1</ele>
        <time>2025-05-10T15:14:26.000Z</time>
      </trkpt>
      <trkpt lat="48.59094" lon="-0.65951">
        <ele>145.1</ele>
        <time>2025-05-10T15:14:28.000Z</time>
      </trkpt>
      <trkpt lat="48.59097" lon="-0.65946">
        <ele>145.1</ele>
        <time>2025-05-10T15:14:29.000Z</time>
      </trkpt>
      <trkpt lat="48.59101" lon="-0.65941">
        <ele>145.1</ele>
        <time>2025-05-10T15:14:30.000Z</time>
      </trkpt>
      <trkpt lat="48.59104" lon="-0.65936">
        <ele>145.1</ele>
        <time>2025-05-10T15:14:31.000Z</time>
      </trkpt>
      <trkpt lat="48.59108" lon="-0.65931">
        <ele>145.1</ele>
        <time>2025-05-10T15:14:32.000Z</time>
      </trkpt>
      <trkpt lat="48.59111" lon="-0.65927">
        <ele>145.1</ele>
        <time>2025-05-10T15:14:33.000Z</time>
      </trkpt>
      <trkpt lat="48.59115" lon="-0.65923">
        <ele>145.1</ele>
        <time>2025-05-10T15:14:34.000Z</time>
      </trkpt>
      <trkpt lat="48.59118" lon="-0.65918">
        <ele>145.1</ele>
        <time>2025-05-10T15:14:35.000Z</time>
      </trkpt>
      <trkpt lat="48.59122" lon="-0.65914">
        <ele>145.1</ele>
        <time>2025-05-10T15:14:36.000Z</time>
      </trkpt>
      <trkpt lat="48.59125" lon="-0.65909">
        <ele>145.1</ele>
        <time>2025-05-10T15:14:37.000Z</time>
      </trkpt>
      <trkpt lat="48.59129" lon="-0.65905">
        <ele>145.1</ele>
        <time>2025-05-10T15:14:38.000Z</time>
      </trkpt>
      <trkpt lat="48.59133" lon="-0.659">
        <ele>145.1</ele>
        <time>2025-05-10T15:14:39.000Z</time>
      </trkpt>
      <trkpt lat="48.59137" lon="-0.65895">
        <ele>145.1</ele>
        <time>2025-05-10T15:14:40.000Z</time>
      </trkpt>
      <trkpt lat="48.5914" lon="-0.65891">
        <ele>145.1</ele>
        <time>2025-05-10T15:14:41.000Z</time>
      </trkpt>
      <trkpt lat="48.59144" lon="-0.65886">
        <ele>145.2</ele>
        <time>2025-05-10T15:14:42.000Z</time>
      </trkpt>
      <trkpt lat="48.59148" lon="-0.65882">
        <ele>145.2</ele>
        <time>2025-05-10T15:14:43.000Z</time>
      </trkpt>
      <trkpt lat="48.59152" lon="-0.65878">
        <ele>145.2</ele>
        <time>2025-05-10T15:14:44.000Z</time>
      </trkpt>
      <trkpt lat="48.59156" lon="-0.65874">
        <ele>145.2</ele>
        <time>2025-05-10T15:14:45.000Z</time>
      </trkpt>
      <trkpt lat="48.5916" lon="-0.6587">
        <ele>145.3</ele>
        <time>2025-05-10T15:14:46.000Z</time>
      </trkpt>
      <trkpt lat="48.59164" lon="-0.65865">
        <ele>145.3</ele>
        <time>2025-05-10T15:14:47.000Z</time>
      </trkpt>
      <trkpt lat="48.59167" lon="-0.65861">
        <ele>145.3</ele>
        <time>2025-05-10T15:14:48.000Z</time>
      </trkpt>
      <trkpt lat="48.59171" lon="-0.65856">
        <ele>145.3</ele>
        <time>2025-05-10T15:14:49.000Z</time>
      </trkpt>
      <trkpt lat="48.59175" lon="-0.65852">
        <ele>145.3</ele>
        <time>2025-05-10T15:14:50.000Z</time>
      </trkpt>
      <trkpt lat="48.59179" lon="-0.65847">
        <ele>145.4</ele>
        <time>2025-05-10T15:14:51.000Z</time>
      </trkpt>
      <trkpt lat="48.59183" lon="-0.65843">
        <ele>145.4</ele>
        <time>2025-05-10T15:14:52.000Z</time>
      </trkpt>
      <trkpt lat="48.59187" lon="-0.65838">
        <ele>145.4</ele>
        <time>2025-05-10T15:14:53.000Z</time>
      </trkpt>
      <trkpt lat="48.59191" lon="-0.65834">
        <ele>145.4</ele>
        <time>2025-05-10T15:14:54.000Z</time>
      </trkpt>
      <trkpt lat="48.59195" lon="-0.65829">
        <ele>145.4</ele>
        <time>2025-05-10T15:14:55.000Z</time>
      </trkpt>
      <trkpt lat="48.59199" lon="-0.65825">
        <ele>145.4</ele>
        <time>2025-05-10T15:14:56.000Z</time>
      </trkpt>
      <trkpt lat="48.59203" lon="-0.65821">
        <ele>145.4</ele>
        <time>2025-05-10T15:14:57.000Z</time>
      </trkpt>
      <trkpt lat="48.59207" lon="-0.65816">
        <ele>145.4</ele>
        <time>2025-05-10T15:14:58.000Z</time>
      </trkpt>
      <trkpt lat="48.59211" lon="-0.65812">
        <ele>145.4</ele>
        <time>2025-05-10T15:14:59.000Z</time>
      </trkpt>
      <trkpt lat="48.59215" lon="-0.65808">
        <ele>145.4</ele>
        <time>2025-05-10T15:15:00.000Z</time>
      </trkpt>
      <trkpt lat="48.59221" lon="-0.658">
        <ele>145.4</ele>
        <time>2025-05-10T15:15:02.000Z</time>
      </trkpt>
      <trkpt lat="48.59227" lon="-0.65792">
        <ele>145.4</ele>
        <time>2025-05-10T15:15:04.000Z</time>
      </trkpt>
      <trkpt lat="48.59231" lon="-0.65787">
        <ele>145.5</ele>
        <time>2025-05-10T15:15:06.000Z</time>
      </trkpt>
      <trkpt lat="48.59234" lon="-0.65783">
        <ele>145.5</ele>
        <time>2025-05-10T15:15:11.000Z</time>
      </trkpt>
      <trkpt lat="48.59234" lon="-0.65783">
        <ele>145.6</ele>
        <time>2025-05-10T15:15:12.000Z</time>
      </trkpt>
      <trkpt lat="48.5924" lon="-0.65782">
        <ele>145.8</ele>
        <time>2025-05-10T15:15:26.000Z</time>
      </trkpt>
      <trkpt lat="48.59243" lon="-0.65786">
        <ele>145.9</ele>
        <time>2025-05-10T15:15:28.000Z</time>
      </trkpt>
      <trkpt lat="48.59245" lon="-0.65795">
        <ele>146.1</ele>
        <time>2025-05-10T15:15:31.000Z</time>
      </trkpt>
      <trkpt lat="48.59249" lon="-0.658">
        <ele>146.2</ele>
        <time>2025-05-10T15:15:33.000Z</time>
      </trkpt>
      <trkpt lat="48.59254" lon="-0.65804">
        <ele>146.4</ele>
        <time>2025-05-10T15:15:35.000Z</time>
      </trkpt>
      <trkpt lat="48.59259" lon="-0.65807">
        <ele>146.6</ele>
        <time>2025-05-10T15:15:37.000Z</time>
      </trkpt>
      <trkpt lat="48.59265" lon="-0.6581">
        <ele>146.8</ele>
        <time>2025-05-10T15:15:39.000Z</time>
      </trkpt>
      <trkpt lat="48.59272" lon="-0.65814">
        <ele>147</ele>
        <time>2025-05-10T15:15:41.000Z</time>
      </trkpt>
      <trkpt lat="48.59277" lon="-0.65819">
        <ele>147.2</ele>
        <time>2025-05-10T15:15:43.000Z</time>
      </trkpt>
      <trkpt lat="48.59282" lon="-0.65826">
        <ele>147.5</ele>
        <time>2025-05-10T15:15:45.000Z</time>
      </trkpt>
      <trkpt lat="48.59286" lon="-0.65834">
        <ele>147.9</ele>
        <time>2025-05-10T15:15:47.000Z</time>
      </trkpt>
      <trkpt lat="48.59289" lon="-0.65843">
        <ele>148.4</ele>
        <time>2025-05-10T15:15:49.000Z</time>
      </trkpt>
      <trkpt lat="48.59292" lon="-0.65852">
        <ele>149</ele>
        <time>2025-05-10T15:15:51.000Z</time>
      </trkpt>
      <trkpt lat="48.59296" lon="-0.6586">
        <ele>149.7</ele>
        <time>2025-05-10T15:15:53.000Z</time>
      </trkpt>
      <trkpt lat="48.59299" lon="-0.6587">
        <ele>150.4</ele>
        <time>2025-05-10T15:15:55.000Z</time>
      </trkpt>
      <trkpt lat="48.59303" lon="-0.65878">
        <ele>151.2</ele>
        <time>2025-05-10T15:15:57.000Z</time>
      </trkpt>
      <trkpt lat="48.59305" lon="-0.65886">
        <ele>152</ele>
        <time>2025-05-10T15:15:59.000Z</time>
      </trkpt>
      <trkpt lat="48.59309" lon="-0.65893">
        <ele>152.7</ele>
        <time>2025-05-10T15:16:01.000Z</time>
      </trkpt>
      <trkpt lat="48.59312" lon="-0.65901">
        <ele>153.5</ele>
        <time>2025-05-10T15:16:03.000Z</time>
      </trkpt>
      <trkpt lat="48.59315" lon="-0.65909">
        <ele>154.1</ele>
        <time>2025-05-10T15:16:05.000Z</time>
      </trkpt>
      <trkpt lat="48.59318" lon="-0.65918">
        <ele>154.8</ele>
        <time>2025-05-10T15:16:07.000Z</time>
      </trkpt>
      <trkpt lat="48.5932" lon="-0.65926">
        <ele>155.4</ele>
        <time>2025-05-10T15:16:09.000Z</time>
      </trkpt>
      <trkpt lat="48.59321" lon="-0.65935">
        <ele>155.9</ele>
        <time>2025-05-10T15:16:11.000Z</time>
      </trkpt>
      <trkpt lat="48.59322" lon="-0.65943">
        <ele>156.5</ele>
        <time>2025-05-10T15:16:13.000Z</time>
      </trkpt>
      <trkpt lat="48.59321" lon="-0.65953">
        <ele>157</ele>
        <time>2025-05-10T15:16:15.000Z</time>
      </trkpt>
      <trkpt lat="48.5932" lon="-0.65963">
        <ele>157.5</ele>
        <time>2025-05-10T15:16:17.000Z</time>
      </trkpt>
      <trkpt lat="48.59318" lon="-0.65973">
        <ele>158</ele>
        <time>2025-05-10T15:16:19.000Z</time>
      </trkpt>
      <trkpt lat="48.59316" lon="-0.65981">
        <ele>158.5</ele>
        <time>2025-05-10T15:16:21.000Z</time>
      </trkpt>
      <trkpt lat="48.59314" lon="-0.65991">
        <ele>159</ele>
        <time>2025-05-10T15:16:23.000Z</time>
      </trkpt>
      <trkpt lat="48.59312" lon="-0.66">
        <ele>159.4</ele>
        <time>2025-05-10T15:16:25.000Z</time>
      </trkpt>
      <trkpt lat="48.5931" lon="-0.66008">
        <ele>159.9</ele>
        <time>2025-05-10T15:16:27.000Z</time>
      </trkpt>
      <trkpt lat="48.5931" lon="-0.66017">
        <ele>160.3</ele>
        <time>2025-05-10T15:16:29.000Z</time>
      </trkpt>
      <trkpt lat="48.59308" lon="-0.66027">
        <ele>160.7</ele>
        <time>2025-05-10T15:16:31.000Z</time>
      </trkpt>
      <trkpt lat="48.59306" lon="-0.66035">
        <ele>161.2</ele>
        <time>2025-05-10T15:16:33.000Z</time>
      </trkpt>
      <trkpt lat="48.59304" lon="-0.66041">
        <ele>161.4</ele>
        <time>2025-05-10T15:16:34.000Z</time>
      </trkpt>
      <trkpt lat="48.59301" lon="-0.66051">
        <ele>161.8</ele>
        <time>2025-05-10T15:16:36.000Z</time>
      </trkpt>
      <trkpt lat="48.59299" lon="-0.66062">
        <ele>162.3</ele>
        <time>2025-05-10T15:16:38.000Z</time>
      </trkpt>
      <trkpt lat="48.59297" lon="-0.66072">
        <ele>162.7</ele>
        <time>2025-05-10T15:16:40.000Z</time>
      </trkpt>
      <trkpt lat="48.59294" lon="-0.66081">
        <ele>163.1</ele>
        <time>2025-05-10T15:16:42.000Z</time>
      </trkpt>
      <trkpt lat="48.59292" lon="-0.66088">
        <ele>163.7</ele>
        <time>2025-05-10T15:16:44.000Z</time>
      </trkpt>
      <trkpt lat="48.5929" lon="-0.66096">
        <ele>164.2</ele>
        <time>2025-05-10T15:16:46.000Z</time>
      </trkpt>
      <trkpt lat="48.59288" lon="-0.66104">
        <ele>164.8</ele>
        <time>2025-05-10T15:16:48.000Z</time>
      </trkpt>
      <trkpt lat="48.59284" lon="-0.66113">
        <ele>165.2</ele>
        <time>2025-05-10T15:16:50.000Z</time>
      </trkpt>
      <trkpt lat="48.5928" lon="-0.66122">
        <ele>165.7</ele>
        <time>2025-05-10T15:16:52.000Z</time>
      </trkpt>
      <trkpt lat="48.59276" lon="-0.66132">
        <ele>166.1</ele>
        <time>2025-05-10T15:16:54.000Z</time>
      </trkpt>
      <trkpt lat="48.59271" lon="-0.66142">
        <ele>166.4</ele>
        <time>2025-05-10T15:16:56.000Z</time>
      </trkpt>
      <trkpt lat="48.59266" lon="-0.66152">
        <ele>166.6</ele>
        <time>2025-05-10T15:16:58.000Z</time>
      </trkpt>
      <trkpt lat="48.59261" lon="-0.66162">
        <ele>166.7</ele>
        <time>2025-05-10T15:17:00.000Z</time>
      </trkpt>
      <trkpt lat="48.59256" lon="-0.66173">
        <ele>166.8</ele>
        <time>2025-05-10T15:17:02.000Z</time>
      </trkpt>
      <trkpt lat="48.59251" lon="-0.66183">
        <ele>166.8</ele>
        <time>2025-05-10T15:17:04.000Z</time>
      </trkpt>
      <trkpt lat="48.59248" lon="-0.66189">
        <ele>166.8</ele>
        <time>2025-05-10T15:17:05.000Z</time>
      </trkpt>
      <trkpt lat="48.59243" lon="-0.662">
        <ele>166.8</ele>
        <time>2025-05-10T15:17:07.000Z</time>
      </trkpt>
      <trkpt lat="48.5924" lon="-0.66206">
        <ele>166.7</ele>
        <time>2025-05-10T15:17:08.000Z</time>
      </trkpt>
      <trkpt lat="48.59235" lon="-0.66215">
        <ele>166.6</ele>
        <time>2025-05-10T15:17:10.000Z</time>
      </trkpt>
      <trkpt lat="48.59231" lon="-0.66223">
        <ele>166.5</ele>
        <time>2025-05-10T15:17:12.000Z</time>
      </trkpt>
      <trkpt lat="48.59229" lon="-0.6623">
        <ele>166.2</ele>
        <time>2025-05-10T15:17:15.000Z</time>
      </trkpt>
      <trkpt lat="48.59233" lon="-0.66233">
        <ele>165.7</ele>
        <time>2025-05-10T15:17:19.000Z</time>
      </trkpt>
      <trkpt lat="48.5924" lon="-0.66231">
        <ele>165.3</ele>
        <time>2025-05-10T15:17:22.000Z</time>
      </trkpt>
      <trkpt lat="48.59246" lon="-0.66234">
        <ele>164.9</ele>
        <time>2025-05-10T15:17:25.000Z</time>
      </trkpt>
      <trkpt lat="48.59251" lon="-0.66235">
        <ele>164.7</ele>
        <time>2025-05-10T15:17:28.000Z</time>
      </trkpt>
      <trkpt lat="48.59256" lon="-0.66238">
        <ele>164.5</ele>
        <time>2025-05-10T15:17:33.000Z</time>
      </trkpt>
      <trkpt lat="48.59256" lon="-0.66237">
        <ele>164.5</ele>
        <time>2025-05-10T15:17:38.000Z</time>
      </trkpt>
      <trkpt lat="48.59256" lon="-0.66237">
        <ele>164.5</ele>
        <time>2025-05-10T15:17:39.000Z</time>
      </trkpt>
      <trkpt lat="48.5926" lon="-0.6624">
        <ele>164.5</ele>
        <time>2025-05-10T15:17:58.000Z</time>
      </trkpt>
      <trkpt lat="48.59262" lon="-0.6624">
        <ele>164.5</ele>
        <time>2025-05-10T15:17:59.000Z</time>
      </trkpt>
      <trkpt lat="48.59268" lon="-0.66241">
        <ele>164.5</ele>
        <time>2025-05-10T15:18:01.000Z</time>
      </trkpt>
      <trkpt lat="48.59272" lon="-0.66243">
        <ele>164.5</ele>
        <time>2025-05-10T15:18:03.000Z</time>
      </trkpt>
      <trkpt lat="48.5928" lon="-0.66242">
        <ele>164.5</ele>
        <time>2025-05-10T15:18:05.000Z</time>
      </trkpt>
      <trkpt lat="48.59285" lon="-0.66241">
        <ele>164.5</ele>
        <time>2025-05-10T15:18:07.000Z</time>
      </trkpt>
      <trkpt lat="48.59289" lon="-0.66242">
        <ele>164.5</ele>
        <time>2025-05-10T15:18:09.000Z</time>
      </trkpt>
      <trkpt lat="48.59295" lon="-0.66243">
        <ele>164.6</ele>
        <time>2025-05-10T15:18:11.000Z</time>
      </trkpt>
      <trkpt lat="48.59301" lon="-0.66245">
        <ele>164.7</ele>
        <time>2025-05-10T15:18:14.000Z</time>
      </trkpt>
      <trkpt lat="48.59306" lon="-0.66246">
        <ele>165</ele>
        <time>2025-05-10T15:18:17.000Z</time>
      </trkpt>
      <trkpt lat="48.59309" lon="-0.66247">
        <ele>166.4</ele>
        <time>2025-05-10T15:18:28.000Z</time>
      </trkpt>
      <trkpt lat="48.5931" lon="-0.66247">
        <ele>166.5</ele>
        <time>2025-05-10T15:18:29.000Z</time>
      </trkpt>
      <trkpt lat="48.59311" lon="-0.66247">
        <ele>166.8</ele>
        <time>2025-05-10T15:18:33.000Z</time>
      </trkpt>
      <trkpt lat="48.59311" lon="-0.66247">
        <ele>166.8</ele>
        <time>2025-05-10T15:18:34.000Z</time>
      </trkpt>
      <trkpt lat="48.59317" lon="-0.66248">
        <ele>167</ele>
        <time>2025-05-10T15:18:40.000Z</time>
      </trkpt>
      <trkpt lat="48.59322" lon="-0.66248">
        <ele>167.1</ele>
        <time>2025-05-10T15:18:43.000Z</time>
      </trkpt>
      <trkpt lat="48.59327" lon="-0.66246">
        <ele>167.2</ele>
        <time>2025-05-10T15:18:45.000Z</time>
      </trkpt>
      <trkpt lat="48.59335" lon="-0.66246">
        <ele>167.3</ele>
        <time>2025-05-10T15:18:47.000Z</time>
      </trkpt>
      <trkpt lat="48.59339" lon="-0.66245">
        <ele>167.4</ele>
        <time>2025-05-10T15:18:49.000Z</time>
      </trkpt>
      <trkpt lat="48.59346" lon="-0.66242">
        <ele>167.7</ele>
        <time>2025-05-10T15:18:52.000Z</time>
      </trkpt>
      <trkpt lat="48.59352" lon="-0.66242">
        <ele>168.1</ele>
        <time>2025-05-10T15:18:55.000Z</time>
      </trkpt>
      <trkpt lat="48.59357" lon="-0.66241">
        <ele>168.4</ele>
        <time>2025-05-10T15:18:57.000Z</time>
      </trkpt>
      <trkpt lat="48.59363" lon="-0.6624">
        <ele>168.8</ele>
        <time>2025-05-10T15:18:59.000Z</time>
      </trkpt>
      <trkpt lat="48.59369" lon="-0.66237">
        <ele>169.2</ele>
        <time>2025-05-10T15:19:01.000Z</time>
      </trkpt>
      <trkpt lat="48.59377" lon="-0.66235">
        <ele>169.7</ele>
        <time>2025-05-10T15:19:04.000Z</time>
      </trkpt>
      <trkpt lat="48.59383" lon="-0.66232">
        <ele>170.2</ele>
        <time>2025-05-10T15:19:06.000Z</time>
      </trkpt>
      <trkpt lat="48.59389" lon="-0.66231">
        <ele>170.7</ele>
        <time>2025-05-10T15:19:08.000Z</time>
      </trkpt>
      <trkpt lat="48.59396" lon="-0.66227">
        <ele>171.3</ele>
        <time>2025-05-10T15:19:10.000Z</time>
      </trkpt>
      <trkpt lat="48.59401" lon="-0.66224">
        <ele>171.9</ele>
        <time>2025-05-10T15:19:12.000Z</time>
      </trkpt>
      <trkpt lat="48.59406" lon="-0.66222">
        <ele>172.5</ele>
        <time>2025-05-10T15:19:14.000Z</time>
      </trkpt>
      <trkpt lat="48.59412" lon="-0.66222">
        <ele>173.4</ele>
        <time>2025-05-10T15:19:17.000Z</time>
      </trkpt>
      <trkpt lat="48.59418" lon="-0.6622">
        <ele>174.1</ele>
        <time>2025-05-10T15:19:19.000Z</time>
      </trkpt>
      <trkpt lat="48.59423" lon="-0.66218">
        <ele>174.7</ele>
        <time>2025-05-10T15:19:21.000Z</time>
      </trkpt>
      <trkpt lat="48.59429" lon="-0.66216">
        <ele>175.5</ele>
        <time>2025-05-10T15:19:23.000Z</time>
      </trkpt>
      <trkpt lat="48.59435" lon="-0.66213">
        <ele>176.1</ele>
        <time>2025-05-10T15:19:25.000Z</time>
      </trkpt>
      <trkpt lat="48.59441" lon="-0.6621">
        <ele>176.8</ele>
        <time>2025-05-10T15:19:27.000Z</time>
      </trkpt>
      <trkpt lat="48.59447" lon="-0.66206">
        <ele>177.3</ele>
        <time>2025-05-10T15:19:29.000Z</time>
      </trkpt>
      <trkpt lat="48.59453" lon="-0.66202">
        <ele>178.2</ele>
        <time>2025-05-10T15:19:32.000Z</time>
      </trkpt>
      <trkpt lat="48.59458" lon="-0.66199">
        <ele>178.9</ele>
        <time>2025-05-10T15:19:35.000Z</time>
      </trkpt>
      <trkpt lat="48.59463" lon="-0.66195">
        <ele>179.4</ele>
        <time>2025-05-10T15:19:37.000Z</time>
      </trkpt>
      <trkpt lat="48.59467" lon="-0.66191">
        <ele>180</ele>
        <time>2025-05-10T15:19:39.000Z</time>
      </trkpt>
      <trkpt lat="48.59471" lon="-0.66187">
        <ele>180.5</ele>
        <time>2025-05-10T15:19:41.000Z</time>
      </trkpt>
      <trkpt lat="48.59475" lon="-0.66183">
        <ele>181</ele>
        <time>2025-05-10T15:19:43.000Z</time>
      </trkpt>
      <trkpt lat="48.59478" lon="-0.66178">
        <ele>182.1</ele>
        <time>2025-05-10T15:19:47.000Z</time>
      </trkpt>
      <trkpt lat="48.59484" lon="-0.66176">
        <ele>182.9</ele>
        <time>2025-05-10T15:19:49.000Z</time>
      </trkpt>
      <trkpt lat="48.59492" lon="-0.66175">
        <ele>185.1</ele>
        <time>2025-05-10T15:19:56.000Z</time>
      </trkpt>
      <trkpt lat="48.59497" lon="-0.66173">
        <ele>186.3</ele>
        <time>2025-05-10T15:20:02.000Z</time>
      </trkpt>
      <trkpt lat="48.59501" lon="-0.6617">
        <ele>186.9</ele>
        <time>2025-05-10T15:20:10.000Z</time>
      </trkpt>
      <trkpt lat="48.59506" lon="-0.66169">
        <ele>187.1</ele>
        <time>2025-05-10T15:20:35.000Z</time>
      </trkpt>
      <trkpt lat="48.59508" lon="-0.66172">
        <ele>187.1</ele>
        <time>2025-05-10T15:20:40.000Z</time>
      </trkpt>
      <trkpt lat="48.59511" lon="-0.66181">
        <ele>187.1</ele>
        <time>2025-05-10T15:20:43.000Z</time>
      </trkpt>
      <trkpt lat="48.59515" lon="-0.66187">
        <ele>187.2</ele>
        <time>2025-05-10T15:20:45.000Z</time>
      </trkpt>
      <trkpt lat="48.59516" lon="-0.66194">
        <ele>187.3</ele>
        <time>2025-05-10T15:20:47.000Z</time>
      </trkpt>
      <trkpt lat="48.5952" lon="-0.66202">
        <ele>187.5</ele>
        <time>2025-05-10T15:20:50.000Z</time>
      </trkpt>
      <trkpt lat="48.59523" lon="-0.66209">
        <ele>187.7</ele>
        <time>2025-05-10T15:20:52.000Z</time>
      </trkpt>
      <trkpt lat="48.59525" lon="-0.66217">
        <ele>188</ele>
        <time>2025-05-10T15:20:54.000Z</time>
      </trkpt>
      <trkpt lat="48.59527" lon="-0.66224">
        <ele>188.4</ele>
        <time>2025-05-10T15:20:56.000Z</time>
      </trkpt>
      <trkpt lat="48.5953" lon="-0.6623">
        <ele>188.9</ele>
        <time>2025-05-10T15:20:58.000Z</time>
      </trkpt>
      <trkpt lat="48.59532" lon="-0.66238">
        <ele>189.5</ele>
        <time>2025-05-10T15:21:00.000Z</time>
      </trkpt>
      <trkpt lat="48.59534" lon="-0.66246">
        <ele>190.1</ele>
        <time>2025-05-10T15:21:02.000Z</time>
      </trkpt>
      <trkpt lat="48.59536" lon="-0.66254">
        <ele>191</ele>
        <time>2025-05-10T15:21:05.000Z</time>
      </trkpt>
      <trkpt lat="48.59541" lon="-0.66253">
        <ele>191.9</ele>
        <time>2025-05-10T15:21:09.000Z</time>
      </trkpt>
      <trkpt lat="48.59543" lon="-0.66246">
        <ele>192.7</ele>
        <time>2025-05-10T15:21:13.000Z</time>
      </trkpt>
      <trkpt lat="48.59545" lon="-0.66239">
        <ele>193.3</ele>
        <time>2025-05-10T15:21:17.000Z</time>
      </trkpt>
      <trkpt lat="48.59547" lon="-0.66232">
        <ele>194.1</ele>
        <time>2025-05-10T15:21:21.000Z</time>
      </trkpt>
      <trkpt lat="48.5955" lon="-0.66225">
        <ele>194.8</ele>
        <time>2025-05-10T15:21:25.000Z</time>
      </trkpt>
      <trkpt lat="48.59553" lon="-0.66217">
        <ele>195.6</ele>
        <time>2025-05-10T15:21:29.000Z</time>
      </trkpt>
      <trkpt lat="48.59555" lon="-0.6621">
        <ele>196.3</ele>
        <time>2025-05-10T15:21:33.000Z</time>
      </trkpt>
      <trkpt lat="48.59555" lon="-0.66208">
        <ele>197</ele>
        <time>2025-05-10T15:21:38.000Z</time>
      </trkpt>
      <trkpt lat="48.59555" lon="-0.66208">
        <ele>197.1</ele>
        <time>2025-05-10T15:21:39.000Z</time>
      </trkpt>
      <trkpt lat="48.59556" lon="-0.66208">
        <ele>197.4</ele>
        <time>2025-05-10T15:21:53.000Z</time>
      </trkpt>
      <trkpt lat="48.59556" lon="-0.66208">
        <ele>197.4</ele>
        <time>2025-05-10T15:21:54.000Z</time>
      </trkpt>
      <trkpt lat="48.59556" lon="-0.66208">
        <ele>197.4</ele>
        <time>2025-05-10T15:21:55.000Z</time>
      </trkpt>
      <trkpt lat="48.59556" lon="-0.66208">
        <ele>197.4</ele>
        <time>2025-05-10T15:21:56.000Z</time>
      </trkpt>
      <trkpt lat="48.59556" lon="-0.66207">
        <ele>197.4</ele>
        <time>2025-05-10T15:21:57.000Z</time>
      </trkpt>
      <trkpt lat="48.59556" lon="-0.66201">
        <ele>197.4</ele>
        <time>2025-05-10T15:22:00.000Z</time>
      </trkpt>
      <trkpt lat="48.59559" lon="-0.66191">
        <ele>197.5</ele>
        <time>2025-05-10T15:22:03.000Z</time>
      </trkpt>
      <trkpt lat="48.5956" lon="-0.66185">
        <ele>197.6</ele>
        <time>2025-05-10T15:22:05.000Z</time>
      </trkpt>
      <trkpt lat="48.59563" lon="-0.66176">
        <ele>197.8</ele>
        <time>2025-05-10T15:22:08.000Z</time>
      </trkpt>
      <trkpt lat="48.59564" lon="-0.66168">
        <ele>198.2</ele>
        <time>2025-05-10T15:22:11.000Z</time>
      </trkpt>
      <trkpt lat="48.59566" lon="-0.6616">
        <ele>198.8</ele>
        <time>2025-05-10T15:22:13.000Z</time>
      </trkpt>
      <trkpt lat="48.59569" lon="-0.66153">
        <ele>199.4</ele>
        <time>2025-05-10T15:22:15.000Z</time>
      </trkpt>
      <trkpt lat="48.59572" lon="-0.66146">
        <ele>200.2</ele>
        <time>2025-05-10T15:22:17.000Z</time>
      </trkpt>
      <trkpt lat="48.59574" lon="-0.66139">
        <ele>201.1</ele>
        <time>2025-05-10T15:22:19.000Z</time>
      </trkpt>
      <trkpt lat="48.59575" lon="-0.66131">
        <ele>201.9</ele>
        <time>2025-05-10T15:22:21.000Z</time>
      </trkpt>
      <trkpt lat="48.59577" lon="-0.66124">
        <ele>202.8</ele>
        <time>2025-05-10T15:22:23.000Z</time>
      </trkpt>
      <trkpt lat="48.59578" lon="-0.66116">
        <ele>203.5</ele>
        <time>2025-05-10T15:22:25.000Z</time>
      </trkpt>
      <trkpt lat="48.5958" lon="-0.66108">
        <ele>204.2</ele>
        <time>2025-05-10T15:22:27.000Z</time>
      </trkpt>
      <trkpt lat="48.59582" lon="-0.66099">
        <ele>205.2</ele>
        <time>2025-05-10T15:22:30.000Z</time>
      </trkpt>
      <trkpt lat="48.59585" lon="-0.66093">
        <ele>205.7</ele>
        <time>2025-05-10T15:22:32.000Z</time>
      </trkpt>
      <trkpt lat="48.59589" lon="-0.66087">
        <ele>206.2</ele>
        <time>2025-05-10T15:22:34.000Z</time>
      </trkpt>
      <trkpt lat="48.59593" lon="-0.66082">
        <ele>206.6</ele>
        <time>2025-05-10T15:22:36.000Z</time>
      </trkpt>
      <trkpt lat="48.59597" lon="-0.66077">
        <ele>207.1</ele>
        <time>2025-05-10T15:22:38.000Z</time>
      </trkpt>
      <trkpt lat="48.596" lon="-0.66071">
        <ele>207.5</ele>
        <time>2025-05-10T15:22:40.000Z</time>
      </trkpt>
      <trkpt lat="48.59604" lon="-0.66065">
        <ele>207.9</ele>
        <time>2025-05-10T15:22:42.000Z</time>
      </trkpt>
      <trkpt lat="48.59608" lon="-0.6606">
        <ele>208.2</ele>
        <time>2025-05-10T15:22:45.000Z</time>
      </trkpt>
      <trkpt lat="48.59611" lon="-0.66055">
        <ele>208.5</ele>
        <time>2025-05-10T15:22:48.000Z</time>
      </trkpt>
      <trkpt lat="48.59615" lon="-0.6605">
        <ele>208.6</ele>
        <time>2025-05-10T15:22:52.000Z</time>
      </trkpt>
      <trkpt lat="48.59618" lon="-0.66048">
        <ele>208.6</ele>
        <time>2025-05-10T15:22:58.000Z</time>
      </trkpt>
      <trkpt lat="48.59618" lon="-0.66048">
        <ele>208.5</ele>
        <time>2025-05-10T15:22:59.000Z</time>
      </trkpt>
      <trkpt lat="48.59623" lon="-0.66041">
        <ele>208.3</ele>
        <time>2025-05-10T15:23:12.000Z</time>
      </trkpt>
      <trkpt lat="48.59625" lon="-0.66038">
        <ele>208.3</ele>
        <time>2025-05-10T15:23:13.000Z</time>
      </trkpt>
      <trkpt lat="48.59628" lon="-0.66035">
        <ele>208.3</ele>
        <time>2025-05-10T15:23:14.000Z</time>
      </trkpt>
      <trkpt lat="48.59633" lon="-0.66026">
        <ele>208.2</ele>
        <time>2025-05-10T15:23:16.000Z</time>
      </trkpt>
      <trkpt lat="48.59636" lon="-0.66021">
        <ele>208.2</ele>
        <time>2025-05-10T15:23:17.000Z</time>
      </trkpt>
      <trkpt lat="48.59642" lon="-0.66012">
        <ele>207.9</ele>
        <time>2025-05-10T15:23:19.000Z</time>
      </trkpt>
      <trkpt lat="48.59643" lon="-0.66003">
        <ele>207.5</ele>
        <time>2025-05-10T15:23:21.000Z</time>
      </trkpt>
      <trkpt lat="48.59646" lon="-0.65997">
        <ele>207.2</ele>
        <time>2025-05-10T15:23:22.000Z</time>
      </trkpt>
      <trkpt lat="48.59649" lon="-0.65992">
        <ele>206.8</ele>
        <time>2025-05-10T15:23:23.000Z</time>
      </trkpt>
      <trkpt lat="48.59654" lon="-0.65988">
        <ele>206.3</ele>
        <time>2025-05-10T15:23:24.000Z</time>
      </trkpt>
      <trkpt lat="48.5966" lon="-0.65983">
        <ele>205.8</ele>
        <time>2025-05-10T15:23:25.000Z</time>
      </trkpt>
      <trkpt lat="48.59665" lon="-0.65981">
        <ele>205.2</ele>
        <time>2025-05-10T15:23:26.000Z</time>
      </trkpt>
      <trkpt lat="48.59673" lon="-0.65976">
        <ele>204</ele>
        <time>2025-05-10T15:23:28.000Z</time>
      </trkpt>
      <trkpt lat="48.5968" lon="-0.65973">
        <ele>203</ele>
        <time>2025-05-10T15:23:30.000Z</time>
      </trkpt>
      <trkpt lat="48.59689" lon="-0.65969">
        <ele>202.1</ele>
        <time>2025-05-10T15:23:32.000Z</time>
      </trkpt>
      <trkpt lat="48.59697" lon="-0.65965">
        <ele>201.3</ele>
        <time>2025-05-10T15:23:34.000Z</time>
      </trkpt>
      <trkpt lat="48.59701" lon="-0.65964">
        <ele>201</ele>
        <time>2025-05-10T15:23:35.000Z</time>
      </trkpt>
      <trkpt lat="48.59706" lon="-0.65963">
        <ele>200.7</ele>
        <time>2025-05-10T15:23:36.000Z</time>
      </trkpt>
      <trkpt lat="48.59711" lon="-0.6596">
        <ele>200.4</ele>
        <time>2025-05-10T15:23:37.000Z</time>
      </trkpt>
      <trkpt lat="48.59716" lon="-0.65959">
        <ele>200</ele>
        <time>2025-05-10T15:23:38.000Z</time>
      </trkpt>
      <trkpt lat="48.5972" lon="-0.65958">
        <ele>199.7</ele>
        <time>2025-05-10T15:23:39.000Z</time>
      </trkpt>
      <trkpt lat="48.59725" lon="-0.65957">
        <ele>199.5</ele>
        <time>2025-05-10T15:23:40.000Z</time>
      </trkpt>
      <trkpt lat="48.5973" lon="-0.65956">
        <ele>199.2</ele>
        <time>2025-05-10T15:23:41.000Z</time>
      </trkpt>
      <trkpt lat="48.59736" lon="-0.65955">
        <ele>199</ele>
        <time>2025-05-10T15:23:42.000Z</time>
      </trkpt>
      <trkpt lat="48.59745" lon="-0.65954">
        <ele>198.6</ele>
        <time>2025-05-10T15:23:44.000Z</time>
      </trkpt>
      <trkpt lat="48.5975" lon="-0.65953">
        <ele>198.4</ele>
        <time>2025-05-10T15:23:45.000Z</time>
      </trkpt>
      <trkpt lat="48.59756" lon="-0.65951">
        <ele>198.2</ele>
        <time>2025-05-10T15:23:46.000Z</time>
      </trkpt>
      <trkpt lat="48.59761" lon="-0.65949">
        <ele>198.1</ele>
        <time>2025-05-10T15:23:47.000Z</time>
      </trkpt>
      <trkpt lat="48.59768" lon="-0.65945">
        <ele>197.8</ele>
        <time>2025-05-10T15:23:49.000Z</time>
      </trkpt>
      <trkpt lat="48.59772" lon="-0.65941">
        <ele>197.7</ele>
        <time>2025-05-10T15:23:50.000Z</time>
      </trkpt>
      <trkpt lat="48.59781" lon="-0.65937">
        <ele>197.4</ele>
        <time>2025-05-10T15:23:52.000Z</time>
      </trkpt>
      <trkpt lat="48.59788" lon="-0.65935">
        <ele>197.3</ele>
        <time>2025-05-10T15:23:54.000Z</time>
      </trkpt>
      <trkpt lat="48.59796" lon="-0.65932">
        <ele>197.2</ele>
        <time>2025-05-10T15:23:56.000Z</time>
      </trkpt>
      <trkpt lat="48.59803" lon="-0.65928">
        <ele>197.1</ele>
        <time>2025-05-10T15:23:58.000Z</time>
      </trkpt>
      <trkpt lat="48.59807" lon="-0.65925">
        <ele>197</ele>
        <time>2025-05-10T15:23:59.000Z</time>
      </trkpt>
      <trkpt lat="48.59812" lon="-0.65924">
        <ele>197</ele>
        <time>2025-05-10T15:24:00.000Z</time>
      </trkpt>
      <trkpt lat="48.59819" lon="-0.65921">
        <ele>197</ele>
        <time>2025-05-10T15:24:02.000Z</time>
      </trkpt>
      <trkpt lat="48.59827" lon="-0.6592">
        <ele>197</ele>
        <time>2025-05-10T15:24:04.000Z</time>
      </trkpt>
      <trkpt lat="48.59831" lon="-0.65919">
        <ele>197</ele>
        <time>2025-05-10T15:24:05.000Z</time>
      </trkpt>
      <trkpt lat="48.59836" lon="-0.65918">
        <ele>197</ele>
        <time>2025-05-10T15:24:06.000Z</time>
      </trkpt>
      <trkpt lat="48.59843" lon="-0.65914">
        <ele>197</ele>
        <time>2025-05-10T15:24:08.000Z</time>
      </trkpt>
      <trkpt lat="48.59848" lon="-0.65911">
        <ele>197</ele>
        <time>2025-05-10T15:24:10.000Z</time>
      </trkpt>
      <trkpt lat="48.59852" lon="-0.6591">
        <ele>197</ele>
        <time>2025-05-10T15:24:12.000Z</time>
      </trkpt>
      <trkpt lat="48.59858" lon="-0.65908">
        <ele>197.1</ele>
        <time>2025-05-10T15:24:14.000Z</time>
      </trkpt>
      <trkpt lat="48.59864" lon="-0.65905">
        <ele>197.2</ele>
        <time>2025-05-10T15:24:16.000Z</time>
      </trkpt>
      <trkpt lat="48.59869" lon="-0.65902">
        <ele>197.4</ele>
        <time>2025-05-10T15:24:19.000Z</time>
      </trkpt>
      <trkpt lat="48.59874" lon="-0.65899">
        <ele>197.6</ele>
        <time>2025-05-10T15:24:21.000Z</time>
      </trkpt>
      <trkpt lat="48.59879" lon="-0.65895">
        <ele>197.9</ele>
        <time>2025-05-10T15:24:24.000Z</time>
      </trkpt>
      <trkpt lat="48.59884" lon="-0.65894">
        <ele>198.2</ele>
        <time>2025-05-10T15:24:26.000Z</time>
      </trkpt>
      <trkpt lat="48.59891" lon="-0.65891">
        <ele>198.5</ele>
        <time>2025-05-10T15:24:28.000Z</time>
      </trkpt>
      <trkpt lat="48.59898" lon="-0.65891">
        <ele>199.1</ele>
        <time>2025-05-10T15:24:30.000Z</time>
      </trkpt>
      <trkpt lat="48.59905" lon="-0.65891">
        <ele>199.6</ele>
        <time>2025-05-10T15:24:32.000Z</time>
      </trkpt>
      <trkpt lat="48.59913" lon="-0.65888">
        <ele>200.3</ele>
        <time>2025-05-10T15:24:34.000Z</time>
      </trkpt>
      <trkpt lat="48.59922" lon="-0.65887">
        <ele>201</ele>
        <time>2025-05-10T15:24:36.000Z</time>
      </trkpt>
      <trkpt lat="48.5993" lon="-0.65886">
        <ele>201.5</ele>
        <time>2025-05-10T15:24:38.000Z</time>
      </trkpt>
      <trkpt lat="48.59937" lon="-0.65885">
        <ele>202</ele>
        <time>2025-05-10T15:24:40.000Z</time>
      </trkpt>
      <trkpt lat="48.59945" lon="-0.65884">
        <ele>202.5</ele>
        <time>2025-05-10T15:24:42.000Z</time>
      </trkpt>
      <trkpt lat="48.59953" lon="-0.65884">
        <ele>203</ele>
        <time>2025-05-10T15:24:44.000Z</time>
      </trkpt>
      <trkpt lat="48.59961" lon="-0.65884">
        <ele>203.5</ele>
        <time>2025-05-10T15:24:46.000Z</time>
      </trkpt>
      <trkpt lat="48.59969" lon="-0.65884">
        <ele>204.1</ele>
        <time>2025-05-10T15:24:48.000Z</time>
      </trkpt>
      <trkpt lat="48.59976" lon="-0.65884">
        <ele>204.6</ele>
        <time>2025-05-10T15:24:50.000Z</time>
      </trkpt>
      <trkpt lat="48.59983" lon="-0.65885">
        <ele>205.1</ele>
        <time>2025-05-10T15:24:52.000Z</time>
      </trkpt>
      <trkpt lat="48.5999" lon="-0.65887">
        <ele>205.6</ele>
        <time>2025-05-10T15:24:54.000Z</time>
      </trkpt>
      <trkpt lat="48.59996" lon="-0.65889">
        <ele>206</ele>
        <time>2025-05-10T15:24:56.000Z</time>
      </trkpt>
      <trkpt lat="48.60002" lon="-0.65891">
        <ele>206.4</ele>
        <time>2025-05-10T15:24:58.000Z</time>
      </trkpt>
      <trkpt lat="48.60009" lon="-0.65893">
        <ele>206.7</ele>
        <time>2025-05-10T15:25:00.000Z</time>
      </trkpt>
      <trkpt lat="48.60016" lon="-0.65896">
        <ele>207</ele>
        <time>2025-05-10T15:25:02.000Z</time>
      </trkpt>
      <trkpt lat="48.60022" lon="-0.65901">
        <ele>207.3</ele>
        <time>2025-05-10T15:25:04.000Z</time>
      </trkpt>
      <trkpt lat="48.60028" lon="-0.65905">
        <ele>207.6</ele>
        <time>2025-05-10T15:25:06.000Z</time>
      </trkpt>
      <trkpt lat="48.60034" lon="-0.65911">
        <ele>207.9</ele>
        <time>2025-05-10T15:25:08.000Z</time>
      </trkpt>
      <trkpt lat="48.60039" lon="-0.65918">
        <ele>208.2</ele>
        <time>2025-05-10T15:25:10.000Z</time>
      </trkpt>
      <trkpt lat="48.60045" lon="-0.65924">
        <ele>208.4</ele>
        <time>2025-05-10T15:25:12.000Z</time>
      </trkpt>
      <trkpt lat="48.60051" lon="-0.6593">
        <ele>208.8</ele>
        <time>2025-05-10T15:25:14.000Z</time>
      </trkpt>
      <trkpt lat="48.60056" lon="-0.65936">
        <ele>209.2</ele>
        <time>2025-05-10T15:25:16.000Z</time>
      </trkpt>
      <trkpt lat="48.60063" lon="-0.65941">
        <ele>209.6</ele>
        <time>2025-05-10T15:25:18.000Z</time>
      </trkpt>
      <trkpt lat="48.60069" lon="-0.65946">
        <ele>209.9</ele>
        <time>2025-05-10T15:25:20.000Z</time>
      </trkpt>
      <trkpt lat="48.60076" lon="-0.6595">
        <ele>210.3</ele>
        <time>2025-05-10T15:25:22.000Z</time>
      </trkpt>
      <trkpt lat="48.60083" lon="-0.65954">
        <ele>210.7</ele>
        <time>2025-05-10T15:25:24.000Z</time>
      </trkpt>
      <trkpt lat="48.60089" lon="-0.65957">
        <ele>211.2</ele>
        <time>2025-05-10T15:25:26.000Z</time>
      </trkpt>
      <trkpt lat="48.60095" lon="-0.6596">
        <ele>211.6</ele>
        <time>2025-05-10T15:25:28.000Z</time>
      </trkpt>
      <trkpt lat="48.60101" lon="-0.65965">
        <ele>212</ele>
        <time>2025-05-10T15:25:30.000Z</time>
      </trkpt>
      <trkpt lat="48.60106" lon="-0.6597">
        <ele>212.4</ele>
        <time>2025-05-10T15:25:32.000Z</time>
      </trkpt>
      <trkpt lat="48.60112" lon="-0.65975">
        <ele>212.8</ele>
        <time>2025-05-10T15:25:34.000Z</time>
      </trkpt>
      <trkpt lat="48.60117" lon="-0.65981">
        <ele>213.2</ele>
        <time>2025-05-10T15:25:36.000Z</time>
      </trkpt>
      <trkpt lat="48.60123" lon="-0.65986">
        <ele>213.6</ele>
        <time>2025-05-10T15:25:38.000Z</time>
      </trkpt>
      <trkpt lat="48.60129" lon="-0.65992">
        <ele>214</ele>
        <time>2025-05-10T15:25:40.000Z</time>
      </trkpt>
      <trkpt lat="48.60136" lon="-0.65997">
        <ele>214.3</ele>
        <time>2025-05-10T15:25:42.000Z</time>
      </trkpt>
      <trkpt lat="48.6014" lon="-0.66002">
        <ele>214.6</ele>
        <time>2025-05-10T15:25:44.000Z</time>
      </trkpt>
      <trkpt lat="48.60144" lon="-0.66006">
        <ele>214.9</ele>
        <time>2025-05-10T15:25:46.000Z</time>
      </trkpt>
      <trkpt lat="48.60148" lon="-0.66011">
        <ele>215.3</ele>
        <time>2025-05-10T15:25:49.000Z</time>
      </trkpt>
      <trkpt lat="48.60152" lon="-0.66018">
        <ele>215.6</ele>
        <time>2025-05-10T15:25:52.000Z</time>
      </trkpt>
      <trkpt lat="48.60155" lon="-0.66025">
        <ele>215.8</ele>
        <time>2025-05-10T15:25:55.000Z</time>
      </trkpt>
      <trkpt lat="48.60157" lon="-0.66033">
        <ele>216</ele>
        <time>2025-05-10T15:25:59.000Z</time>
      </trkpt>
      <trkpt lat="48.60159" lon="-0.66041">
        <ele>216.2</ele>
        <time>2025-05-10T15:26:03.000Z</time>
      </trkpt>
      <trkpt lat="48.6016" lon="-0.66047">
        <ele>216.4</ele>
        <time>2025-05-10T15:26:10.000Z</time>
      </trkpt>
      <trkpt lat="48.6016" lon="-0.66047">
        <ele>216.5</ele>
        <time>2025-05-10T15:26:11.000Z</time>
      </trkpt>
      <trkpt lat="48.60161" lon="-0.66051">
        <ele>216.5</ele>
        <time>2025-05-10T15:26:35.000Z</time>
      </trkpt>
      <trkpt lat="48.60162" lon="-0.6606">
        <ele>216.4</ele>
        <time>2025-05-10T15:26:38.000Z</time>
      </trkpt>
      <trkpt lat="48.60163" lon="-0.6607">
        <ele>216.4</ele>
        <time>2025-05-10T15:26:40.000Z</time>
      </trkpt>
      <trkpt lat="48.60164" lon="-0.6608">
        <ele>216.3</ele>
        <time>2025-05-10T15:26:42.000Z</time>
      </trkpt>
      <trkpt lat="48.60165" lon="-0.66092">
        <ele>216.3</ele>
        <time>2025-05-10T15:26:44.000Z</time>
      </trkpt>
      <trkpt lat="48.60167" lon="-0.66104">
        <ele>216.2</ele>
        <time>2025-05-10T15:26:46.000Z</time>
      </trkpt>
      <trkpt lat="48.6017" lon="-0.66115">
        <ele>216.2</ele>
        <time>2025-05-10T15:26:48.000Z</time>
      </trkpt>
      <trkpt lat="48.60176" lon="-0.66123">
        <ele>216.2</ele>
        <time>2025-05-10T15:26:50.000Z</time>
      </trkpt>
      <trkpt lat="48.60184" lon="-0.66128">
        <ele>216.2</ele>
        <time>2025-05-10T15:26:52.000Z</time>
      </trkpt>
      <trkpt lat="48.60189" lon="-0.6613">
        <ele>216.2</ele>
        <time>2025-05-10T15:26:53.000Z</time>
      </trkpt>
      <trkpt lat="48.60193" lon="-0.66131">
        <ele>216.1</ele>
        <time>2025-05-10T15:26:54.000Z</time>
      </trkpt>
      <trkpt lat="48.60198" lon="-0.66133">
        <ele>216.1</ele>
        <time>2025-05-10T15:26:55.000Z</time>
      </trkpt>
      <trkpt lat="48.60203" lon="-0.66135">
        <ele>216.1</ele>
        <time>2025-05-10T15:26:56.000Z</time>
      </trkpt>
      <trkpt lat="48.60209" lon="-0.66137">
        <ele>216.1</ele>
        <time>2025-05-10T15:26:57.000Z</time>
      </trkpt>
      <trkpt lat="48.60215" lon="-0.66138">
        <ele>216</ele>
        <time>2025-05-10T15:26:58.000Z</time>
      </trkpt>
      <trkpt lat="48.60221" lon="-0.6614">
        <ele>216</ele>
        <time>2025-05-10T15:26:59.000Z</time>
      </trkpt>
      <trkpt lat="48.60227" lon="-0.66142">
        <ele>215.9</ele>
        <time>2025-05-10T15:27:00.000Z</time>
      </trkpt>
      <trkpt lat="48.60233" lon="-0.66144">
        <ele>215.9</ele>
        <time>2025-05-10T15:27:01.000Z</time>
      </trkpt>
      <trkpt lat="48.6024" lon="-0.66147">
        <ele>215.8</ele>
        <time>2025-05-10T15:27:02.000Z</time>
      </trkpt>
      <trkpt lat="48.60246" lon="-0.66149">
        <ele>215.7</ele>
        <time>2025-05-10T15:27:03.000Z</time>
      </trkpt>
      <trkpt lat="48.60252" lon="-0.66153">
        <ele>215.6</ele>
        <time>2025-05-10T15:27:04.000Z</time>
      </trkpt>
      <trkpt lat="48.60258" lon="-0.66157">
        <ele>215.4</ele>
        <time>2025-05-10T15:27:05.000Z</time>
      </trkpt>
      <trkpt lat="48.60265" lon="-0.6616">
        <ele>215.2</ele>
        <time>2025-05-10T15:27:06.000Z</time>
      </trkpt>
      <trkpt lat="48.60271" lon="-0.66164">
        <ele>215</ele>
        <time>2025-05-10T15:27:07.000Z</time>
      </trkpt>
      <trkpt lat="48.60277" lon="-0.66168">
        <ele>214.7</ele>
        <time>2025-05-10T15:27:08.000Z</time>
      </trkpt>
      <trkpt lat="48.60282" lon="-0.66172">
        <ele>214.5</ele>
        <time>2025-05-10T15:27:09.000Z</time>
      </trkpt>
      <trkpt lat="48.60287" lon="-0.66175">
        <ele>214.2</ele>
        <time>2025-05-10T15:27:10.000Z</time>
      </trkpt>
      <trkpt lat="48.60292" lon="-0.66178">
        <ele>213.8</ele>
        <time>2025-05-10T15:27:11.000Z</time>
      </trkpt>
      <trkpt lat="48.60297" lon="-0.66182">
        <ele>213.5</ele>
        <time>2025-05-10T15:27:12.000Z</time>
      </trkpt>
      <trkpt lat="48.60302" lon="-0.66185">
        <ele>213.1</ele>
        <time>2025-05-10T15:27:13.000Z</time>
      </trkpt>
      <trkpt lat="48.60309" lon="-0.66189">
        <ele>212.4</ele>
        <time>2025-05-10T15:27:15.000Z</time>
      </trkpt>
      <trkpt lat="48.60314" lon="-0.66194">
        <ele>211.7</ele>
        <time>2025-05-10T15:27:17.000Z</time>
      </trkpt>
      <trkpt lat="48.60319" lon="-0.66201">
        <ele>211.2</ele>
        <time>2025-05-10T15:27:19.000Z</time>
      </trkpt>
      <trkpt lat="48.60324" lon="-0.66212">
        <ele>210.8</ele>
        <time>2025-05-10T15:27:21.000Z</time>
      </trkpt>
      <trkpt lat="48.60327" lon="-0.66219">
        <ele>210.6</ele>
        <time>2025-05-10T15:27:22.000Z</time>
      </trkpt>
      <trkpt lat="48.60331" lon="-0.66226">
        <ele>210.3</ele>
        <time>2025-05-10T15:27:23.000Z</time>
      </trkpt>
      <trkpt lat="48.60335" lon="-0.66234">
        <ele>210</ele>
        <time>2025-05-10T15:27:24.000Z</time>
      </trkpt>
      <trkpt lat="48.6034" lon="-0.66241">
        <ele>209.7</ele>
        <time>2025-05-10T15:27:25.000Z</time>
      </trkpt>
      <trkpt lat="48.60346" lon="-0.66247">
        <ele>209.4</ele>
        <time>2025-05-10T15:27:26.000Z</time>
      </trkpt>
      <trkpt lat="48.60352" lon="-0.66253">
        <ele>209</ele>
        <time>2025-05-10T15:27:27.000Z</time>
      </trkpt>
      <trkpt lat="48.60359" lon="-0.66259">
        <ele>208.6</ele>
        <time>2025-05-10T15:27:28.000Z</time>
      </trkpt>
      <trkpt lat="48.60365" lon="-0.66266">
        <ele>208.3</ele>
        <time>2025-05-10T15:27:29.000Z</time>
      </trkpt>
      <trkpt lat="48.60372" lon="-0.66272">
        <ele>207.9</ele>
        <time>2025-05-10T15:27:30.000Z</time>
      </trkpt>
      <trkpt lat="48.60378" lon="-0.66279">
        <ele>207.6</ele>
        <time>2025-05-10T15:27:31.000Z</time>
      </trkpt>
      <trkpt lat="48.60385" lon="-0.66285">
        <ele>207.2</ele>
        <time>2025-05-10T15:27:32.000Z</time>
      </trkpt>
      <trkpt lat="48.60392" lon="-0.6629">
        <ele>206.8</ele>
        <time>2025-05-10T15:27:33.000Z</time>
      </trkpt>
      <trkpt lat="48.604" lon="-0.66296">
        <ele>206.4</ele>
        <time>2025-05-10T15:27:34.000Z</time>
      </trkpt>
      <trkpt lat="48.60408" lon="-0.66301">
        <ele>206.1</ele>
        <time>2025-05-10T15:27:35.000Z</time>
      </trkpt>
      <trkpt lat="48.60415" lon="-0.66305">
        <ele>205.7</ele>
        <time>2025-05-10T15:27:36.000Z</time>
      </trkpt>
      <trkpt lat="48.60423" lon="-0.66308">
        <ele>205.4</ele>
        <time>2025-05-10T15:27:37.000Z</time>
      </trkpt>
      <trkpt lat="48.60431" lon="-0.6631">
        <ele>205</ele>
        <time>2025-05-10T15:27:38.000Z</time>
      </trkpt>
      <trkpt lat="48.60439" lon="-0.66312">
        <ele>204.7</ele>
        <time>2025-05-10T15:27:39.000Z</time>
      </trkpt>
      <trkpt lat="48.60447" lon="-0.66313">
        <ele>204.4</ele>
        <time>2025-05-10T15:27:40.000Z</time>
      </trkpt>
      <trkpt lat="48.60454" lon="-0.66314">
        <ele>204.1</ele>
        <time>2025-05-10T15:27:41.000Z</time>
      </trkpt>
      <trkpt lat="48.60462" lon="-0.66315">
        <ele>203.8</ele>
        <time>2025-05-10T15:27:42.000Z</time>
      </trkpt>
      <trkpt lat="48.6047" lon="-0.66317">
        <ele>203.4</ele>
        <time>2025-05-10T15:27:43.000Z</time>
      </trkpt>
      <trkpt lat="48.60477" lon="-0.66317">
        <ele>203.2</ele>
        <time>2025-05-10T15:27:44.000Z</time>
      </trkpt>
      <trkpt lat="48.60485" lon="-0.66319">
        <ele>202.9</ele>
        <time>2025-05-10T15:27:45.000Z</time>
      </trkpt>
      <trkpt lat="48.60492" lon="-0.6632">
        <ele>202.7</ele>
        <time>2025-05-10T15:27:46.000Z</time>
      </trkpt>
      <trkpt lat="48.60499" lon="-0.66322">
        <ele>202.5</ele>
        <time>2025-05-10T15:27:47.000Z</time>
      </trkpt>
      <trkpt lat="48.60507" lon="-0.66323">
        <ele>202.3</ele>
        <time>2025-05-10T15:27:48.000Z</time>
      </trkpt>
      <trkpt lat="48.60514" lon="-0.66325">
        <ele>202.2</ele>
        <time>2025-05-10T15:27:49.000Z</time>
      </trkpt>
      <trkpt lat="48.60522" lon="-0.66326">
        <ele>202</ele>
        <time>2025-05-10T15:27:50.000Z</time>
      </trkpt>
      <trkpt lat="48.60529" lon="-0.66327">
        <ele>201.9</ele>
        <time>2025-05-10T15:27:51.000Z</time>
      </trkpt>
      <trkpt lat="48.60536" lon="-0.66328">
        <ele>201.7</ele>
        <time>2025-05-10T15:27:52.000Z</time>
      </trkpt>
      <trkpt lat="48.60543" lon="-0.66329">
        <ele>201.6</ele>
        <time>2025-05-10T15:27:53.000Z</time>
      </trkpt>
      <trkpt lat="48.6055" lon="-0.66331">
        <ele>201.5</ele>
        <time>2025-05-10T15:27:54.000Z</time>
      </trkpt>
      <trkpt lat="48.60557" lon="-0.66334">
        <ele>201.4</ele>
        <time>2025-05-10T15:27:55.000Z</time>
      </trkpt>
      <trkpt lat="48.60563" lon="-0.66336">
        <ele>201.4</ele>
        <time>2025-05-10T15:27:56.000Z</time>
      </trkpt>
      <trkpt lat="48.60569" lon="-0.66339">
        <ele>201.3</ele>
        <time>2025-05-10T15:27:57.000Z</time>
      </trkpt>
      <trkpt lat="48.60575" lon="-0.66341">
        <ele>201.3</ele>
        <time>2025-05-10T15:27:58.000Z</time>
      </trkpt>
      <trkpt lat="48.60581" lon="-0.66342">
        <ele>201.2</ele>
        <time>2025-05-10T15:27:59.000Z</time>
      </trkpt>
      <trkpt lat="48.60586" lon="-0.66343">
        <ele>201.2</ele>
        <time>2025-05-10T15:28:00.000Z</time>
      </trkpt>
      <trkpt lat="48.60592" lon="-0.66344">
        <ele>201.2</ele>
        <time>2025-05-10T15:28:01.000Z</time>
      </trkpt>
      <trkpt lat="48.60598" lon="-0.66344">
        <ele>201.2</ele>
        <time>2025-05-10T15:28:02.000Z</time>
      </trkpt>
      <trkpt lat="48.60603" lon="-0.66345">
        <ele>201.2</ele>
        <time>2025-05-10T15:28:03.000Z</time>
      </trkpt>
      <trkpt lat="48.60609" lon="-0.66345">
        <ele>201.2</ele>
        <time>2025-05-10T15:28:04.000Z</time>
      </trkpt>
      <trkpt lat="48.60615" lon="-0.66346">
        <ele>201.2</ele>
        <time>2025-05-10T15:28:05.000Z</time>
      </trkpt>
      <trkpt lat="48.6062" lon="-0.66347">
        <ele>201.3</ele>
        <time>2025-05-10T15:28:06.000Z</time>
      </trkpt>
      <trkpt lat="48.60625" lon="-0.66348">
        <ele>201.3</ele>
        <time>2025-05-10T15:28:07.000Z</time>
      </trkpt>
      <trkpt lat="48.60632" lon="-0.66351">
        <ele>201.4</ele>
        <time>2025-05-10T15:28:09.000Z</time>
      </trkpt>
      <trkpt lat="48.60635" lon="-0.66358">
        <ele>201.5</ele>
        <time>2025-05-10T15:28:11.000Z</time>
      </trkpt>
      <trkpt lat="48.60641" lon="-0.66367">
        <ele>202.4</ele>
        <time>2025-05-10T15:28:53.000Z</time>
      </trkpt>
      <trkpt lat="48.60647" lon="-0.66367">
        <ele>202.3</ele>
        <time>2025-05-10T15:28:55.000Z</time>
      </trkpt>
      <trkpt lat="48.60653" lon="-0.66368">
        <ele>202.4</ele>
        <time>2025-05-10T15:28:57.000Z</time>
      </trkpt>
      <trkpt lat="48.60659" lon="-0.66365">
        <ele>202.4</ele>
        <time>2025-05-10T15:28:59.000Z</time>
      </trkpt>
      <trkpt lat="48.60665" lon="-0.66358">
        <ele>202.4</ele>
        <time>2025-05-10T15:29:01.000Z</time>
      </trkpt>
      <trkpt lat="48.60671" lon="-0.66353">
        <ele>202.4</ele>
        <time>2025-05-10T15:29:03.000Z</time>
      </trkpt>
      <trkpt lat="48.60679" lon="-0.66352">
        <ele>202.5</ele>
        <time>2025-05-10T15:29:05.000Z</time>
      </trkpt>
      <trkpt lat="48.60686" lon="-0.66354">
        <ele>202.5</ele>
        <time>2025-05-10T15:29:07.000Z</time>
      </trkpt>
      <trkpt lat="48.60694" lon="-0.66355">
        <ele>202.6</ele>
        <time>2025-05-10T15:29:09.000Z</time>
      </trkpt>
      <trkpt lat="48.60702" lon="-0.66355">
        <ele>202.7</ele>
        <time>2025-05-10T15:29:11.000Z</time>
      </trkpt>
      <trkpt lat="48.6071" lon="-0.66356">
        <ele>202.8</ele>
        <time>2025-05-10T15:29:13.000Z</time>
      </trkpt>
      <trkpt lat="48.60715" lon="-0.66362">
        <ele>202.9</ele>
        <time>2025-05-10T15:29:15.000Z</time>
      </trkpt>
      <trkpt lat="48.60717" lon="-0.66372">
        <ele>203.1</ele>
        <time>2025-05-10T15:29:17.000Z</time>
      </trkpt>
      <trkpt lat="48.60716" lon="-0.66384">
        <ele>203.3</ele>
        <time>2025-05-10T15:29:19.000Z</time>
      </trkpt>
      <trkpt lat="48.60714" lon="-0.66396">
        <ele>203.5</ele>
        <time>2025-05-10T15:29:21.000Z</time>
      </trkpt>
      <trkpt lat="48.60712" lon="-0.66409">
        <ele>203.8</ele>
        <time>2025-05-10T15:29:23.000Z</time>
      </trkpt>
      <trkpt lat="48.60711" lon="-0.66416">
        <ele>204</ele>
        <time>2025-05-10T15:29:24.000Z</time>
      </trkpt>
      <trkpt lat="48.60711" lon="-0.66423">
        <ele>204.1</ele>
        <time>2025-05-10T15:29:25.000Z</time>
      </trkpt>
      <trkpt lat="48.60711" lon="-0.66436">
        <ele>204.4</ele>
        <time>2025-05-10T15:29:27.000Z</time>
      </trkpt>
      <trkpt lat="48.6071" lon="-0.66444">
        <ele>204.6</ele>
        <time>2025-05-10T15:29:28.000Z</time>
      </trkpt>
      <trkpt lat="48.6071" lon="-0.66452">
        <ele>204.7</ele>
        <time>2025-05-10T15:29:29.000Z</time>
      </trkpt>
      <trkpt lat="48.6071" lon="-0.6646">
        <ele>204.8</ele>
        <time>2025-05-10T15:29:30.000Z</time>
      </trkpt>
      <trkpt lat="48.60711" lon="-0.66469">
        <ele>204.9</ele>
        <time>2025-05-10T15:29:31.000Z</time>
      </trkpt>
      <trkpt lat="48.60712" lon="-0.66477">
        <ele>205</ele>
        <time>2025-05-10T15:29:32.000Z</time>
      </trkpt>
      <trkpt lat="48.60712" lon="-0.66486">
        <ele>205</ele>
        <time>2025-05-10T15:29:33.000Z</time>
      </trkpt>
      <trkpt lat="48.60713" lon="-0.66495">
        <ele>205</ele>
        <time>2025-05-10T15:29:34.000Z</time>
      </trkpt>
      <trkpt lat="48.60714" lon="-0.66504">
        <ele>205.1</ele>
        <time>2025-05-10T15:29:35.000Z</time>
      </trkpt>
      <trkpt lat="48.60715" lon="-0.66514">
        <ele>205.1</ele>
        <time>2025-05-10T15:29:36.000Z</time>
      </trkpt>
      <trkpt lat="48.60715" lon="-0.66523">
        <ele>205.1</ele>
        <time>2025-05-10T15:29:37.000Z</time>
      </trkpt>
      <trkpt lat="48.60716" lon="-0.66532">
        <ele>205.1</ele>
        <time>2025-05-10T15:29:38.000Z</time>
      </trkpt>
      <trkpt lat="48.60716" lon="-0.66541">
        <ele>205.1</ele>
        <time>2025-05-10T15:29:39.000Z</time>
      </trkpt>
      <trkpt lat="48.60717" lon="-0.6655">
        <ele>205.1</ele>
        <time>2025-05-10T15:29:40.000Z</time>
      </trkpt>
      <trkpt lat="48.60718" lon="-0.66559">
        <ele>205.1</ele>
        <time>2025-05-10T15:29:41.000Z</time>
      </trkpt>
      <trkpt lat="48.60718" lon="-0.66568">
        <ele>205.1</ele>
        <time>2025-05-10T15:29:42.000Z</time>
      </trkpt>
      <trkpt lat="48.6072" lon="-0.66578">
        <ele>205.1</ele>
        <time>2025-05-10T15:29:43.000Z</time>
      </trkpt>
      <trkpt lat="48.60721" lon="-0.66587">
        <ele>205.1</ele>
        <time>2025-05-10T15:29:44.000Z</time>
      </trkpt>
      <trkpt lat="48.60722" lon="-0.66596">
        <ele>205</ele>
        <time>2025-05-10T15:29:45.000Z</time>
      </trkpt>
      <trkpt lat="48.60723" lon="-0.66605">
        <ele>205</ele>
        <time>2025-05-10T15:29:46.000Z</time>
      </trkpt>
      <trkpt lat="48.60724" lon="-0.66615">
        <ele>205</ele>
        <time>2025-05-10T15:29:47.000Z</time>
      </trkpt>
      <trkpt lat="48.60726" lon="-0.66624">
        <ele>204.9</ele>
        <time>2025-05-10T15:29:48.000Z</time>
      </trkpt>
      <trkpt lat="48.60727" lon="-0.66633">
        <ele>204.9</ele>
        <time>2025-05-10T15:29:49.000Z</time>
      </trkpt>
      <trkpt lat="48.60728" lon="-0.66643">
        <ele>204.9</ele>
        <time>2025-05-10T15:29:50.000Z</time>
      </trkpt>
      <trkpt lat="48.60729" lon="-0.66652">
        <ele>204.8</ele>
        <time>2025-05-10T15:29:51.000Z</time>
      </trkpt>
      <trkpt lat="48.6073" lon="-0.66661">
        <ele>204.8</ele>
        <time>2025-05-10T15:29:52.000Z</time>
      </trkpt>
      <trkpt lat="48.60731" lon="-0.6667">
        <ele>204.7</ele>
        <time>2025-05-10T15:29:53.000Z</time>
      </trkpt>
      <trkpt lat="48.60733" lon="-0.66679">
        <ele>204.7</ele>
        <time>2025-05-10T15:29:54.000Z</time>
      </trkpt>
      <trkpt lat="48.60734" lon="-0.66688">
        <ele>204.6</ele>
        <time>2025-05-10T15:29:55.000Z</time>
      </trkpt>
      <trkpt lat="48.60735" lon="-0.66696">
        <ele>204.6</ele>
        <time>2025-05-10T15:29:56.000Z</time>
      </trkpt>
      <trkpt lat="48.60737" lon="-0.66705">
        <ele>204.5</ele>
        <time>2025-05-10T15:29:57.000Z</time>
      </trkpt>
      <trkpt lat="48.60738" lon="-0.66714">
        <ele>204.4</ele>
        <time>2025-05-10T15:29:58.000Z</time>
      </trkpt>
      <trkpt lat="48.60739" lon="-0.66723">
        <ele>204.4</ele>
        <time>2025-05-10T15:29:59.000Z</time>
      </trkpt>
      <trkpt lat="48.6074" lon="-0.66732">
        <ele>204.3</ele>
        <time>2025-05-10T15:30:00.000Z</time>
      </trkpt>
      <trkpt lat="48.60741" lon="-0.66741">
        <ele>204.2</ele>
        <time>2025-05-10T15:30:01.000Z</time>
      </trkpt>
      <trkpt lat="48.60742" lon="-0.6675">
        <ele>204.1</ele>
        <time>2025-05-10T15:30:02.000Z</time>
      </trkpt>
      <trkpt lat="48.60743" lon="-0.66759">
        <ele>204</ele>
        <time>2025-05-10T15:30:03.000Z</time>
      </trkpt>
      <trkpt lat="48.60744" lon="-0.66768">
        <ele>204</ele>
        <time>2025-05-10T15:30:04.000Z</time>
      </trkpt>
      <trkpt lat="48.60745" lon="-0.66776">
        <ele>203.9</ele>
        <time>2025-05-10T15:30:05.000Z</time>
      </trkpt>
      <trkpt lat="48.60746" lon="-0.66785">
        <ele>203.8</ele>
        <time>2025-05-10T15:30:06.000Z</time>
      </trkpt>
      <trkpt lat="48.60747" lon="-0.66792">
        <ele>203.7</ele>
        <time>2025-05-10T15:30:07.000Z</time>
      </trkpt>
      <trkpt lat="48.60748" lon="-0.66802">
        <ele>203.5</ele>
        <time>2025-05-10T15:30:09.000Z</time>
      </trkpt>
      <trkpt lat="48.60747" lon="-0.6681">
        <ele>203.3</ele>
        <time>2025-05-10T15:30:11.000Z</time>
      </trkpt>
      <trkpt lat="48.60744" lon="-0.66817">
        <ele>203.2</ele>
        <time>2025-05-10T15:30:13.000Z</time>
      </trkpt>
      <trkpt lat="48.60738" lon="-0.66823">
        <ele>203.1</ele>
        <time>2025-05-10T15:30:15.000Z</time>
      </trkpt>
      <trkpt lat="48.60731" lon="-0.66828">
        <ele>203</ele>
        <time>2025-05-10T15:30:17.000Z</time>
      </trkpt>
      <trkpt lat="48.60723" lon="-0.66833">
        <ele>202.8</ele>
        <time>2025-05-10T15:30:19.000Z</time>
      </trkpt>
      <trkpt lat="48.60719" lon="-0.66836">
        <ele>202.8</ele>
        <time>2025-05-10T15:30:20.000Z</time>
      </trkpt>
      <trkpt lat="48.60715" lon="-0.6684">
        <ele>202.7</ele>
        <time>2025-05-10T15:30:21.000Z</time>
      </trkpt>
      <trkpt lat="48.6071" lon="-0.66843">
        <ele>202.6</ele>
        <time>2025-05-10T15:30:22.000Z</time>
      </trkpt>
      <trkpt lat="48.60704" lon="-0.66846">
        <ele>202.6</ele>
        <time>2025-05-10T15:30:23.000Z</time>
      </trkpt>
      <trkpt lat="48.60699" lon="-0.6685">
        <ele>202.5</ele>
        <time>2025-05-10T15:30:24.000Z</time>
      </trkpt>
      <trkpt lat="48.60693" lon="-0.66854">
        <ele>202.4</ele>
        <time>2025-05-10T15:30:25.000Z</time>
      </trkpt>
      <trkpt lat="48.60688" lon="-0.66857">
        <ele>202.3</ele>
        <time>2025-05-10T15:30:26.000Z</time>
      </trkpt>
      <trkpt lat="48.60682" lon="-0.66861">
        <ele>202.2</ele>
        <time>2025-05-10T15:30:27.000Z</time>
      </trkpt>
      <trkpt lat="48.60676" lon="-0.66864">
        <ele>202</ele>
        <time>2025-05-10T15:30:28.000Z</time>
      </trkpt>
      <trkpt lat="48.6067" lon="-0.66868">
        <ele>201.9</ele>
        <time>2025-05-10T15:30:29.000Z</time>
      </trkpt>
      <trkpt lat="48.60663" lon="-0.66871">
        <ele>201.7</ele>
        <time>2025-05-10T15:30:30.000Z</time>
      </trkpt>
      <trkpt lat="48.60657" lon="-0.66874">
        <ele>201.6</ele>
        <time>2025-05-10T15:30:31.000Z</time>
      </trkpt>
      <trkpt lat="48.60651" lon="-0.66877">
        <ele>201.4</ele>
        <time>2025-05-10T15:30:32.000Z</time>
      </trkpt>
      <trkpt lat="48.60644" lon="-0.6688">
        <ele>201.2</ele>
        <time>2025-05-10T15:30:33.000Z</time>
      </trkpt>
      <trkpt lat="48.60638" lon="-0.66883">
        <ele>201</ele>
        <time>2025-05-10T15:30:34.000Z</time>
      </trkpt>
      <trkpt lat="48.60632" lon="-0.66886">
        <ele>200.8</ele>
        <time>2025-05-10T15:30:35.000Z</time>
      </trkpt>
      <trkpt lat="48.60626" lon="-0.66889">
        <ele>200.6</ele>
        <time>2025-05-10T15:30:36.000Z</time>
      </trkpt>
      <trkpt lat="48.6062" lon="-0.66892">
        <ele>200.4</ele>
        <time>2025-05-10T15:30:37.000Z</time>
      </trkpt>
      <trkpt lat="48.60614" lon="-0.66895">
        <ele>200.2</ele>
        <time>2025-05-10T15:30:38.000Z</time>
      </trkpt>
      <trkpt lat="48.60609" lon="-0.66898">
        <ele>199.9</ele>
        <time>2025-05-10T15:30:39.000Z</time>
      </trkpt>
      <trkpt lat="48.60603" lon="-0.66902">
        <ele>199.8</ele>
        <time>2025-05-10T15:30:40.000Z</time>
      </trkpt>
      <trkpt lat="48.60598" lon="-0.66906">
        <ele>199.6</ele>
        <time>2025-05-10T15:30:41.000Z</time>
      </trkpt>
      <trkpt lat="48.60593" lon="-0.66911">
        <ele>199.5</ele>
        <time>2025-05-10T15:30:42.000Z</time>
      </trkpt>
      <trkpt lat="48.60588" lon="-0.66915">
        <ele>199.3</ele>
        <time>2025-05-10T15:30:43.000Z</time>
      </trkpt>
      <trkpt lat="48.60583" lon="-0.6692">
        <ele>199.2</ele>
        <time>2025-05-10T15:30:44.000Z</time>
      </trkpt>
      <trkpt lat="48.60577" lon="-0.66925">
        <ele>199.1</ele>
        <time>2025-05-10T15:30:45.000Z</time>
      </trkpt>
      <trkpt lat="48.60572" lon="-0.6693">
        <ele>199</ele>
        <time>2025-05-10T15:30:46.000Z</time>
      </trkpt>
      <trkpt lat="48.60567" lon="-0.66935">
        <ele>198.9</ele>
        <time>2025-05-10T15:30:47.000Z</time>
      </trkpt>
      <trkpt lat="48.60562" lon="-0.66939">
        <ele>198.8</ele>
        <time>2025-05-10T15:30:48.000Z</time>
      </trkpt>
      <trkpt lat="48.60557" lon="-0.66944">
        <ele>198.7</ele>
        <time>2025-05-10T15:30:49.000Z</time>
      </trkpt>
      <trkpt lat="48.60552" lon="-0.66948">
        <ele>198.7</ele>
        <time>2025-05-10T15:30:50.000Z</time>
      </trkpt>
      <trkpt lat="48.60547" lon="-0.66952">
        <ele>198.6</ele>
        <time>2025-05-10T15:30:51.000Z</time>
      </trkpt>
      <trkpt lat="48.60542" lon="-0.66955">
        <ele>198.6</ele>
        <time>2025-05-10T15:30:52.000Z</time>
      </trkpt>
      <trkpt lat="48.60537" lon="-0.66959">
        <ele>198.6</ele>
        <time>2025-05-10T15:30:53.000Z</time>
      </trkpt>
      <trkpt lat="48.60533" lon="-0.66962">
        <ele>198.5</ele>
        <time>2025-05-10T15:30:54.000Z</time>
      </trkpt>
      <trkpt lat="48.60529" lon="-0.66972">
        <ele>198.5</ele>
        <time>2025-05-10T15:30:56.000Z</time>
      </trkpt>
      <trkpt lat="48.60526" lon="-0.66985">
        <ele>198.5</ele>
        <time>2025-05-10T15:30:58.000Z</time>
      </trkpt>
      <trkpt lat="48.60525" lon="-0.66992">
        <ele>198.4</ele>
        <time>2025-05-10T15:30:59.000Z</time>
      </trkpt>
      <trkpt lat="48.60524" lon="-0.67">
        <ele>198.4</ele>
        <time>2025-05-10T15:31:00.000Z</time>
      </trkpt>
      <trkpt lat="48.60523" lon="-0.67007">
        <ele>198.4</ele>
        <time>2025-05-10T15:31:01.000Z</time>
      </trkpt>
      <trkpt lat="48.60523" lon="-0.67016">
        <ele>198.4</ele>
        <time>2025-05-10T15:31:02.000Z</time>
      </trkpt>
      <trkpt lat="48.60522" lon="-0.67024">
        <ele>198.3</ele>
        <time>2025-05-10T15:31:03.000Z</time>
      </trkpt>
      <trkpt lat="48.60521" lon="-0.67034">
        <ele>198.2</ele>
        <time>2025-05-10T15:31:04.000Z</time>
      </trkpt>
      <trkpt lat="48.6052" lon="-0.67044">
        <ele>198.1</ele>
        <time>2025-05-10T15:31:05.000Z</time>
      </trkpt>
      <trkpt lat="48.60519" lon="-0.67054">
        <ele>198</ele>
        <time>2025-05-10T15:31:06.000Z</time>
      </trkpt>
      <trkpt lat="48.60518" lon="-0.67065">
        <ele>197.9</ele>
        <time>2025-05-10T15:31:07.000Z</time>
      </trkpt>
      <trkpt lat="48.60516" lon="-0.67076">
        <ele>197.7</ele>
        <time>2025-05-10T15:31:08.000Z</time>
      </trkpt>
      <trkpt lat="48.60515" lon="-0.67088">
        <ele>197.5</ele>
        <time>2025-05-10T15:31:09.000Z</time>
      </trkpt>
      <trkpt lat="48.60515" lon="-0.671">
        <ele>197.3</ele>
        <time>2025-05-10T15:31:10.000Z</time>
      </trkpt>
      <trkpt lat="48.60514" lon="-0.67112">
        <ele>197</ele>
        <time>2025-05-10T15:31:11.000Z</time>
      </trkpt>
      <trkpt lat="48.60514" lon="-0.67124">
        <ele>196.7</ele>
        <time>2025-05-10T15:31:12.000Z</time>
      </trkpt>
      <trkpt lat="48.60513" lon="-0.67135">
        <ele>196.2</ele>
        <time>2025-05-10T15:31:13.000Z</time>
      </trkpt>
      <trkpt lat="48.60514" lon="-0.67145">
        <ele>195.7</ele>
        <time>2025-05-10T15:31:14.000Z</time>
      </trkpt>
      <trkpt lat="48.60515" lon="-0.67153">
        <ele>195.2</ele>
        <time>2025-05-10T15:31:15.000Z</time>
      </trkpt>
      <trkpt lat="48.60517" lon="-0.6716">
        <ele>194.7</ele>
        <time>2025-05-10T15:31:16.000Z</time>
      </trkpt>
      <trkpt lat="48.60518" lon="-0.67172">
        <ele>193.7</ele>
        <time>2025-05-10T15:31:18.000Z</time>
      </trkpt>
      <trkpt lat="48.60513" lon="-0.67182">
        <ele>192.9</ele>
        <time>2025-05-10T15:31:20.000Z</time>
      </trkpt>
      <trkpt lat="48.60505" lon="-0.67183">
        <ele>192.3</ele>
        <time>2025-05-10T15:31:22.000Z</time>
      </trkpt>
      <trkpt lat="48.60496" lon="-0.67182">
        <ele>191.7</ele>
        <time>2025-05-10T15:31:24.000Z</time>
      </trkpt>
      <trkpt lat="48.60491" lon="-0.67183">
        <ele>191.5</ele>
        <time>2025-05-10T15:31:25.000Z</time>
      </trkpt>
      <trkpt lat="48.60487" lon="-0.67185">
        <ele>191.3</ele>
        <time>2025-05-10T15:31:26.000Z</time>
      </trkpt>
      <trkpt lat="48.60482" lon="-0.67187">
        <ele>191.2</ele>
        <time>2025-05-10T15:31:27.000Z</time>
      </trkpt>
      <trkpt lat="48.60478" lon="-0.67189">
        <ele>191.1</ele>
        <time>2025-05-10T15:31:28.000Z</time>
      </trkpt>
      <trkpt lat="48.60473" lon="-0.67192">
        <ele>191</ele>
        <time>2025-05-10T15:31:29.000Z</time>
      </trkpt>
      <trkpt lat="48.60468" lon="-0.67195">
        <ele>191</ele>
        <time>2025-05-10T15:31:30.000Z</time>
      </trkpt>
      <trkpt lat="48.60463" lon="-0.67197">
        <ele>191</ele>
        <time>2025-05-10T15:31:31.000Z</time>
      </trkpt>
      <trkpt lat="48.60458" lon="-0.672">
        <ele>190.9</ele>
        <time>2025-05-10T15:31:32.000Z</time>
      </trkpt>
      <trkpt lat="48.60453" lon="-0.67203">
        <ele>190.9</ele>
        <time>2025-05-10T15:31:33.000Z</time>
      </trkpt>
      <trkpt lat="48.60447" lon="-0.67206">
        <ele>190.8</ele>
        <time>2025-05-10T15:31:34.000Z</time>
      </trkpt>
      <trkpt lat="48.60442" lon="-0.67209">
        <ele>190.8</ele>
        <time>2025-05-10T15:31:35.000Z</time>
      </trkpt>
      <trkpt lat="48.60436" lon="-0.67212">
        <ele>190.7</ele>
        <time>2025-05-10T15:31:36.000Z</time>
      </trkpt>
      <trkpt lat="48.6043" lon="-0.67216">
        <ele>190.7</ele>
        <time>2025-05-10T15:31:37.000Z</time>
      </trkpt>
      <trkpt lat="48.60424" lon="-0.67219">
        <ele>190.5</ele>
        <time>2025-05-10T15:31:38.000Z</time>
      </trkpt>
      <trkpt lat="48.60417" lon="-0.67223">
        <ele>190.3</ele>
        <time>2025-05-10T15:31:39.000Z</time>
      </trkpt>
      <trkpt lat="48.60411" lon="-0.6723">
        <ele>190.1</ele>
        <time>2025-05-10T15:31:40.000Z</time>
      </trkpt>
      <trkpt lat="48.60405" lon="-0.67239">
        <ele>189.9</ele>
        <time>2025-05-10T15:31:41.000Z</time>
      </trkpt>
      <trkpt lat="48.60401" lon="-0.6725">
        <ele>189.6</ele>
        <time>2025-05-10T15:31:42.000Z</time>
      </trkpt>
      <trkpt lat="48.60396" lon="-0.67263">
        <ele>189.1</ele>
        <time>2025-05-10T15:31:43.000Z</time>
      </trkpt>
      <trkpt lat="48.60392" lon="-0.67276">
        <ele>188.6</ele>
        <time>2025-05-10T15:31:44.000Z</time>
      </trkpt>
      <trkpt lat="48.60388" lon="-0.67289">
        <ele>188</ele>
        <time>2025-05-10T15:31:45.000Z</time>
      </trkpt>
      <trkpt lat="48.60384" lon="-0.67303">
        <ele>187.2</ele>
        <time>2025-05-10T15:31:46.000Z</time>
      </trkpt>
      <trkpt lat="48.60379" lon="-0.67318">
        <ele>186.4</ele>
        <time>2025-05-10T15:31:47.000Z</time>
      </trkpt>
      <trkpt lat="48.60375" lon="-0.67333">
        <ele>185.3</ele>
        <time>2025-05-10T15:31:48.000Z</time>
      </trkpt>
      <trkpt lat="48.60372" lon="-0.67349">
        <ele>184.3</ele>
        <time>2025-05-10T15:31:49.000Z</time>
      </trkpt>
      <trkpt lat="48.60369" lon="-0.67365">
        <ele>183.2</ele>
        <time>2025-05-10T15:31:50.000Z</time>
      </trkpt>
      <trkpt lat="48.60367" lon="-0.67382">
        <ele>182.2</ele>
        <time>2025-05-10T15:31:51.000Z</time>
      </trkpt>
      <trkpt lat="48.60366" lon="-0.67398">
        <ele>181.1</ele>
        <time>2025-05-10T15:31:52.000Z</time>
      </trkpt>
      <trkpt lat="48.60365" lon="-0.67412">
        <ele>179.8</ele>
        <time>2025-05-10T15:31:53.000Z</time>
      </trkpt>
      <trkpt lat="48.60364" lon="-0.67425">
        <ele>178.7</ele>
        <time>2025-05-10T15:31:54.000Z</time>
      </trkpt>
      <trkpt lat="48.60362" lon="-0.67437">
        <ele>177.7</ele>
        <time>2025-05-10T15:31:55.000Z</time>
      </trkpt>
      <trkpt lat="48.6036" lon="-0.67448">
        <ele>176.7</ele>
        <time>2025-05-10T15:31:56.000Z</time>
      </trkpt>
      <trkpt lat="48.60358" lon="-0.67457">
        <ele>175.8</ele>
        <time>2025-05-10T15:31:57.000Z</time>
      </trkpt>
      <trkpt lat="48.60355" lon="-0.67464">
        <ele>174.7</ele>
        <time>2025-05-10T15:31:58.000Z</time>
      </trkpt>
      <trkpt lat="48.60353" lon="-0.67472">
        <ele>173.8</ele>
        <time>2025-05-10T15:31:59.000Z</time>
      </trkpt>
      <trkpt lat="48.6035" lon="-0.67482">
        <ele>172.3</ele>
        <time>2025-05-10T15:32:01.000Z</time>
      </trkpt>
      <trkpt lat="48.60346" lon="-0.67488">
        <ele>170.4</ele>
        <time>2025-05-10T15:32:04.000Z</time>
      </trkpt>
      <trkpt lat="48.60342" lon="-0.67492">
        <ele>169.6</ele>
        <time>2025-05-10T15:32:06.000Z</time>
      </trkpt>
      <trkpt lat="48.60337" lon="-0.67498">
        <ele>168.8</ele>
        <time>2025-05-10T15:32:08.000Z</time>
      </trkpt>
      <trkpt lat="48.6033" lon="-0.67506">
        <ele>168.2</ele>
        <time>2025-05-10T15:32:10.000Z</time>
      </trkpt>
      <trkpt lat="48.60326" lon="-0.6751">
        <ele>167.9</ele>
        <time>2025-05-10T15:32:11.000Z</time>
      </trkpt>
      <trkpt lat="48.60321" lon="-0.67515">
        <ele>167.5</ele>
        <time>2025-05-10T15:32:12.000Z</time>
      </trkpt>
      <trkpt lat="48.60316" lon="-0.67521">
        <ele>167.1</ele>
        <time>2025-05-10T15:32:13.000Z</time>
      </trkpt>
      <trkpt lat="48.60311" lon="-0.67526">
        <ele>166.7</ele>
        <time>2025-05-10T15:32:14.000Z</time>
      </trkpt>
      <trkpt lat="48.60306" lon="-0.67531">
        <ele>166.3</ele>
        <time>2025-05-10T15:32:15.000Z</time>
      </trkpt>
      <trkpt lat="48.60303" lon="-0.67536">
        <ele>165.9</ele>
        <time>2025-05-10T15:32:16.000Z</time>
      </trkpt>
      <trkpt lat="48.60298" lon="-0.67544">
        <ele>165</ele>
        <time>2025-05-10T15:32:18.000Z</time>
      </trkpt>
      <trkpt lat="48.60295" lon="-0.67556">
        <ele>164.2</ele>
        <time>2025-05-10T15:32:20.000Z</time>
      </trkpt>
      <trkpt lat="48.60295" lon="-0.67563">
        <ele>163.8</ele>
        <time>2025-05-10T15:32:21.000Z</time>
      </trkpt>
      <trkpt lat="48.60294" lon="-0.67573">
        <ele>163.3</ele>
        <time>2025-05-10T15:32:22.000Z</time>
      </trkpt>
      <trkpt lat="48.60294" lon="-0.67583">
        <ele>162.7</ele>
        <time>2025-05-10T15:32:23.000Z</time>
      </trkpt>
      <trkpt lat="48.60295" lon="-0.67593">
        <ele>162.2</ele>
        <time>2025-05-10T15:32:24.000Z</time>
      </trkpt>
      <trkpt lat="48.60295" lon="-0.67603">
        <ele>161.7</ele>
        <time>2025-05-10T15:32:25.000Z</time>
      </trkpt>
      <trkpt lat="48.60296" lon="-0.67614">
        <ele>161.1</ele>
        <time>2025-05-10T15:32:26.000Z</time>
      </trkpt>
      <trkpt lat="48.60296" lon="-0.67625">
        <ele>160.5</ele>
        <time>2025-05-10T15:32:27.000Z</time>
      </trkpt>
      <trkpt lat="48.60296" lon="-0.67637">
        <ele>159.6</ele>
        <time>2025-05-10T15:32:28.000Z</time>
      </trkpt>
      <trkpt lat="48.60296" lon="-0.67649">
        <ele>158.9</ele>
        <time>2025-05-10T15:32:29.000Z</time>
      </trkpt>
      <trkpt lat="48.60297" lon="-0.67662">
        <ele>158.3</ele>
        <time>2025-05-10T15:32:30.000Z</time>
      </trkpt>
      <trkpt lat="48.60297" lon="-0.67676">
        <ele>157.5</ele>
        <time>2025-05-10T15:32:31.000Z</time>
      </trkpt>
      <trkpt lat="48.60298" lon="-0.67689">
        <ele>156.7</ele>
        <time>2025-05-10T15:32:32.000Z</time>
      </trkpt>
      <trkpt lat="48.60298" lon="-0.67703">
        <ele>155.9</ele>
        <time>2025-05-10T15:32:33.000Z</time>
      </trkpt>
      <trkpt lat="48.60298" lon="-0.67717">
        <ele>155.1</ele>
        <time>2025-05-10T15:32:34.000Z</time>
      </trkpt>
      <trkpt lat="48.60299" lon="-0.6773">
        <ele>154.5</ele>
        <time>2025-05-10T15:32:35.000Z</time>
      </trkpt>
      <trkpt lat="48.60299" lon="-0.67744">
        <ele>153.7</ele>
        <time>2025-05-10T15:32:36.000Z</time>
      </trkpt>
      <trkpt lat="48.603" lon="-0.67756">
        <ele>153.2</ele>
        <time>2025-05-10T15:32:37.000Z</time>
      </trkpt>
      <trkpt lat="48.603" lon="-0.67769">
        <ele>152.4</ele>
        <time>2025-05-10T15:32:38.000Z</time>
      </trkpt>
      <trkpt lat="48.603" lon="-0.67781">
        <ele>152</ele>
        <time>2025-05-10T15:32:39.000Z</time>
      </trkpt>
      <trkpt lat="48.60301" lon="-0.67794">
        <ele>151.4</ele>
        <time>2025-05-10T15:32:40.000Z</time>
      </trkpt>
      <trkpt lat="48.60302" lon="-0.67806">
        <ele>150.9</ele>
        <time>2025-05-10T15:32:41.000Z</time>
      </trkpt>
      <trkpt lat="48.60302" lon="-0.67817">
        <ele>150.4</ele>
        <time>2025-05-10T15:32:42.000Z</time>
      </trkpt>
      <trkpt lat="48.60303" lon="-0.67828">
        <ele>149.9</ele>
        <time>2025-05-10T15:32:43.000Z</time>
      </trkpt>
      <trkpt lat="48.60303" lon="-0.6784">
        <ele>149.6</ele>
        <time>2025-05-10T15:32:44.000Z</time>
      </trkpt>
      <trkpt lat="48.60304" lon="-0.6785">
        <ele>149.2</ele>
        <time>2025-05-10T15:32:45.000Z</time>
      </trkpt>
      <trkpt lat="48.60304" lon="-0.67859">
        <ele>148.9</ele>
        <time>2025-05-10T15:32:46.000Z</time>
      </trkpt>
      <trkpt lat="48.60304" lon="-0.67867">
        <ele>148.6</ele>
        <time>2025-05-10T15:32:47.000Z</time>
      </trkpt>
      <trkpt lat="48.60302" lon="-0.67878">
        <ele>148.1</ele>
        <time>2025-05-10T15:32:49.000Z</time>
      </trkpt>
      <trkpt lat="48.60298" lon="-0.67882">
        <ele>147.8</ele>
        <time>2025-05-10T15:32:51.000Z</time>
      </trkpt>
      <trkpt lat="48.60291" lon="-0.67882">
        <ele>147.4</ele>
        <time>2025-05-10T15:32:54.000Z</time>
      </trkpt>
      <trkpt lat="48.60286" lon="-0.67881">
        <ele>147.2</ele>
        <time>2025-05-10T15:32:56.000Z</time>
      </trkpt>
      <trkpt lat="48.6028" lon="-0.67881">
        <ele>147</ele>
        <time>2025-05-10T15:32:58.000Z</time>
      </trkpt>
      <trkpt lat="48.60273" lon="-0.6788">
        <ele>146.9</ele>
        <time>2025-05-10T15:33:00.000Z</time>
      </trkpt>
      <trkpt lat="48.60265" lon="-0.67878">
        <ele>146.8</ele>
        <time>2025-05-10T15:33:02.000Z</time>
      </trkpt>
      <trkpt lat="48.60261" lon="-0.67877">
        <ele>146.7</ele>
        <time>2025-05-10T15:33:03.000Z</time>
      </trkpt>
      <trkpt lat="48.60256" lon="-0.67875">
        <ele>146.6</ele>
        <time>2025-05-10T15:33:04.000Z</time>
      </trkpt>
      <trkpt lat="48.60252" lon="-0.67873">
        <ele>146.5</ele>
        <time>2025-05-10T15:33:05.000Z</time>
      </trkpt>
      <trkpt lat="48.60247" lon="-0.67872">
        <ele>146.4</ele>
        <time>2025-05-10T15:33:06.000Z</time>
      </trkpt>
      <trkpt lat="48.60242" lon="-0.67872">
        <ele>146.4</ele>
        <time>2025-05-10T15:33:07.000Z</time>
      </trkpt>
      <trkpt lat="48.60234" lon="-0.67873">
        <ele>146.3</ele>
        <time>2025-05-10T15:33:09.000Z</time>
      </trkpt>
      <trkpt lat="48.60226" lon="-0.67874">
        <ele>146.2</ele>
        <time>2025-05-10T15:33:11.000Z</time>
      </trkpt>
      <trkpt lat="48.60217" lon="-0.67875">
        <ele>146.1</ele>
        <time>2025-05-10T15:33:13.000Z</time>
      </trkpt>
      <trkpt lat="48.60208" lon="-0.67875">
        <ele>146.1</ele>
        <time>2025-05-10T15:33:15.000Z</time>
      </trkpt>
      <trkpt lat="48.60203" lon="-0.67875">
        <ele>146.1</ele>
        <time>2025-05-10T15:33:16.000Z</time>
      </trkpt>
      <trkpt lat="48.60199" lon="-0.67875">
        <ele>146</ele>
        <time>2025-05-10T15:33:17.000Z</time>
      </trkpt>
      <trkpt lat="48.60194" lon="-0.67875">
        <ele>146</ele>
        <time>2025-05-10T15:33:18.000Z</time>
      </trkpt>
      <trkpt lat="48.60189" lon="-0.67875">
        <ele>145.9</ele>
        <time>2025-05-10T15:33:19.000Z</time>
      </trkpt>
      <trkpt lat="48.60185" lon="-0.67875">
        <ele>145.9</ele>
        <time>2025-05-10T15:33:20.000Z</time>
      </trkpt>
      <trkpt lat="48.60176" lon="-0.67875">
        <ele>145.8</ele>
        <time>2025-05-10T15:33:22.000Z</time>
      </trkpt>
      <trkpt lat="48.60168" lon="-0.67874">
        <ele>145.7</ele>
        <time>2025-05-10T15:33:24.000Z</time>
      </trkpt>
      <trkpt lat="48.6016" lon="-0.67872">
        <ele>145.5</ele>
        <time>2025-05-10T15:33:26.000Z</time>
      </trkpt>
      <trkpt lat="48.60151" lon="-0.67871">
        <ele>145.4</ele>
        <time>2025-05-10T15:33:28.000Z</time>
      </trkpt>
      <trkpt lat="48.60147" lon="-0.67871">
        <ele>145.3</ele>
        <time>2025-05-10T15:33:29.000Z</time>
      </trkpt>
      <trkpt lat="48.60139" lon="-0.67871">
        <ele>145.2</ele>
        <time>2025-05-10T15:33:31.000Z</time>
      </trkpt>
      <trkpt lat="48.60132" lon="-0.6787">
        <ele>145</ele>
        <time>2025-05-10T15:33:33.000Z</time>
      </trkpt>
      <trkpt lat="48.60125" lon="-0.6787">
        <ele>144.9</ele>
        <time>2025-05-10T15:33:35.000Z</time>
      </trkpt>
      <trkpt lat="48.60118" lon="-0.6787">
        <ele>144.8</ele>
        <time>2025-05-10T15:33:37.000Z</time>
      </trkpt>
      <trkpt lat="48.60111" lon="-0.67871">
        <ele>144.7</ele>
        <time>2025-05-10T15:33:39.000Z</time>
      </trkpt>
      <trkpt lat="48.60106" lon="-0.67876">
        <ele>144.5</ele>
        <time>2025-05-10T15:33:41.000Z</time>
      </trkpt>
      <trkpt lat="48.60105" lon="-0.67885">
        <ele>144.3</ele>
        <time>2025-05-10T15:33:44.000Z</time>
      </trkpt>
      <trkpt lat="48.60106" lon="-0.67892">
        <ele>144.2</ele>
        <time>2025-05-10T15:33:46.000Z</time>
      </trkpt>
      <trkpt lat="48.60108" lon="-0.67902">
        <ele>144.1</ele>
        <time>2025-05-10T15:33:48.000Z</time>
      </trkpt>
      <trkpt lat="48.6011" lon="-0.67913">
        <ele>144</ele>
        <time>2025-05-10T15:33:50.000Z</time>
      </trkpt>
      <trkpt lat="48.60111" lon="-0.67924">
        <ele>143.9</ele>
        <time>2025-05-10T15:33:52.000Z</time>
      </trkpt>
      <trkpt lat="48.60112" lon="-0.67935">
        <ele>143.7</ele>
        <time>2025-05-10T15:33:54.000Z</time>
      </trkpt>
      <trkpt lat="48.60114" lon="-0.67946">
        <ele>143.6</ele>
        <time>2025-05-10T15:33:56.000Z</time>
      </trkpt>
      <trkpt lat="48.60116" lon="-0.67959">
        <ele>143.5</ele>
        <time>2025-05-10T15:33:58.000Z</time>
      </trkpt>
      <trkpt lat="48.60117" lon="-0.67966">
        <ele>143.5</ele>
        <time>2025-05-10T15:33:59.000Z</time>
      </trkpt>
      <trkpt lat="48.60118" lon="-0.67973">
        <ele>143.5</ele>
        <time>2025-05-10T15:34:00.000Z</time>
      </trkpt>
      <trkpt lat="48.60119" lon="-0.6798">
        <ele>143.4</ele>
        <time>2025-05-10T15:34:01.000Z</time>
      </trkpt>
      <trkpt lat="48.6012" lon="-0.67987">
        <ele>143.4</ele>
        <time>2025-05-10T15:34:02.000Z</time>
      </trkpt>
      <trkpt lat="48.60122" lon="-0.67994">
        <ele>143.3</ele>
        <time>2025-05-10T15:34:03.000Z</time>
      </trkpt>
      <trkpt lat="48.60124" lon="-0.68007">
        <ele>143.2</ele>
        <time>2025-05-10T15:34:05.000Z</time>
      </trkpt>
      <trkpt lat="48.60126" lon="-0.68019">
        <ele>143.2</ele>
        <time>2025-05-10T15:34:07.000Z</time>
      </trkpt>
      <trkpt lat="48.60128" lon="-0.68032">
        <ele>143</ele>
        <time>2025-05-10T15:34:09.000Z</time>
      </trkpt>
      <trkpt lat="48.60129" lon="-0.68038">
        <ele>143</ele>
        <time>2025-05-10T15:34:10.000Z</time>
      </trkpt>
      <trkpt lat="48.60131" lon="-0.68052">
        <ele>142.9</ele>
        <time>2025-05-10T15:34:12.000Z</time>
      </trkpt>
      <trkpt lat="48.60132" lon="-0.68058">
        <ele>142.8</ele>
        <time>2025-05-10T15:34:13.000Z</time>
      </trkpt>
      <trkpt lat="48.60133" lon="-0.68065">
        <ele>142.8</ele>
        <time>2025-05-10T15:34:14.000Z</time>
      </trkpt>
      <trkpt lat="48.60135" lon="-0.68073">
        <ele>142.7</ele>
        <time>2025-05-10T15:34:15.000Z</time>
      </trkpt>
      <trkpt lat="48.60136" lon="-0.6808">
        <ele>142.7</ele>
        <time>2025-05-10T15:34:16.000Z</time>
      </trkpt>
      <trkpt lat="48.60137" lon="-0.68087">
        <ele>142.6</ele>
        <time>2025-05-10T15:34:17.000Z</time>
      </trkpt>
      <trkpt lat="48.60139" lon="-0.68098">
        <ele>142.6</ele>
        <time>2025-05-10T15:34:19.000Z</time>
      </trkpt>
      <trkpt lat="48.6014" lon="-0.6811">
        <ele>142.5</ele>
        <time>2025-05-10T15:34:21.000Z</time>
      </trkpt>
      <trkpt lat="48.60141" lon="-0.68117">
        <ele>142.5</ele>
        <time>2025-05-10T15:34:22.000Z</time>
      </trkpt>
      <trkpt lat="48.60142" lon="-0.68123">
        <ele>142.4</ele>
        <time>2025-05-10T15:34:23.000Z</time>
      </trkpt>
      <trkpt lat="48.60144" lon="-0.6813">
        <ele>142.4</ele>
        <time>2025-05-10T15:34:24.000Z</time>
      </trkpt>
      <trkpt lat="48.60146" lon="-0.68143">
        <ele>142.3</ele>
        <time>2025-05-10T15:34:26.000Z</time>
      </trkpt>
      <trkpt lat="48.60148" lon="-0.68156">
        <ele>142.2</ele>
        <time>2025-05-10T15:34:28.000Z</time>
      </trkpt>
      <trkpt lat="48.60149" lon="-0.68163">
        <ele>142.2</ele>
        <time>2025-05-10T15:34:29.000Z</time>
      </trkpt>
      <trkpt lat="48.60151" lon="-0.6817">
        <ele>142.1</ele>
        <time>2025-05-10T15:34:30.000Z</time>
      </trkpt>
      <trkpt lat="48.60152" lon="-0.68177">
        <ele>142.1</ele>
        <time>2025-05-10T15:34:31.000Z</time>
      </trkpt>
      <trkpt lat="48.60154" lon="-0.68189">
        <ele>142</ele>
        <time>2025-05-10T15:34:33.000Z</time>
      </trkpt>
      <trkpt lat="48.60155" lon="-0.682">
        <ele>141.9</ele>
        <time>2025-05-10T15:34:35.000Z</time>
      </trkpt>
      <trkpt lat="48.60157" lon="-0.68211">
        <ele>141.8</ele>
        <time>2025-05-10T15:34:37.000Z</time>
      </trkpt>
      <trkpt lat="48.60159" lon="-0.68223">
        <ele>141.7</ele>
        <time>2025-05-10T15:34:39.000Z</time>
      </trkpt>
      <trkpt lat="48.60161" lon="-0.68235">
        <ele>141.6</ele>
        <time>2025-05-10T15:34:41.000Z</time>
      </trkpt>
      <trkpt lat="48.60163" lon="-0.68242">
        <ele>141.5</ele>
        <time>2025-05-10T15:34:42.000Z</time>
      </trkpt>
      <trkpt lat="48.60164" lon="-0.68249">
        <ele>141.5</ele>
        <time>2025-05-10T15:34:43.000Z</time>
      </trkpt>
      <trkpt lat="48.60165" lon="-0.68256">
        <ele>141.5</ele>
        <time>2025-05-10T15:34:44.000Z</time>
      </trkpt>
      <trkpt lat="48.60166" lon="-0.68264">
        <ele>141.4</ele>
        <time>2025-05-10T15:34:45.000Z</time>
      </trkpt>
      <trkpt lat="48.60168" lon="-0.68271">
        <ele>141.4</ele>
        <time>2025-05-10T15:34:46.000Z</time>
      </trkpt>
      <trkpt lat="48.60169" lon="-0.68278">
        <ele>141.4</ele>
        <time>2025-05-10T15:34:47.000Z</time>
      </trkpt>
      <trkpt lat="48.60171" lon="-0.68285">
        <ele>141.3</ele>
        <time>2025-05-10T15:34:48.000Z</time>
      </trkpt>
      <trkpt lat="48.60173" lon="-0.68292">
        <ele>141.3</ele>
        <time>2025-05-10T15:34:49.000Z</time>
      </trkpt>
      <trkpt lat="48.60175" lon="-0.68299">
        <ele>141.2</ele>
        <time>2025-05-10T15:34:50.000Z</time>
      </trkpt>
      <trkpt lat="48.60177" lon="-0.68305">
        <ele>141.2</ele>
        <time>2025-05-10T15:34:51.000Z</time>
      </trkpt>
      <trkpt lat="48.60179" lon="-0.68311">
        <ele>141.2</ele>
        <time>2025-05-10T15:34:52.000Z</time>
      </trkpt>
      <trkpt lat="48.60181" lon="-0.68318">
        <ele>141.1</ele>
        <time>2025-05-10T15:34:53.000Z</time>
      </trkpt>
      <trkpt lat="48.60185" lon="-0.68329">
        <ele>141</ele>
        <time>2025-05-10T15:34:55.000Z</time>
      </trkpt>
      <trkpt lat="48.6019" lon="-0.6834">
        <ele>140.9</ele>
        <time>2025-05-10T15:34:57.000Z</time>
      </trkpt>
      <trkpt lat="48.60196" lon="-0.6835">
        <ele>140.8</ele>
        <time>2025-05-10T15:34:59.000Z</time>
      </trkpt>
      <trkpt lat="48.60202" lon="-0.68361">
        <ele>140.7</ele>
        <time>2025-05-10T15:35:01.000Z</time>
      </trkpt>
      <trkpt lat="48.60205" lon="-0.68366">
        <ele>140.6</ele>
        <time>2025-05-10T15:35:02.000Z</time>
      </trkpt>
      <trkpt lat="48.60208" lon="-0.68372">
        <ele>140.5</ele>
        <time>2025-05-10T15:35:03.000Z</time>
      </trkpt>
      <trkpt lat="48.60212" lon="-0.68378">
        <ele>140.4</ele>
        <time>2025-05-10T15:35:04.000Z</time>
      </trkpt>
      <trkpt lat="48.60215" lon="-0.68384">
        <ele>140.3</ele>
        <time>2025-05-10T15:35:05.000Z</time>
      </trkpt>
      <trkpt lat="48.60219" lon="-0.6839">
        <ele>140.3</ele>
        <time>2025-05-10T15:35:06.000Z</time>
      </trkpt>
      <trkpt lat="48.60222" lon="-0.68396">
        <ele>140.2</ele>
        <time>2025-05-10T15:35:07.000Z</time>
      </trkpt>
      <trkpt lat="48.60225" lon="-0.68402">
        <ele>140.1</ele>
        <time>2025-05-10T15:35:08.000Z</time>
      </trkpt>
      <trkpt lat="48.60229" lon="-0.68408">
        <ele>140</ele>
        <time>2025-05-10T15:35:09.000Z</time>
      </trkpt>
      <trkpt lat="48.60232" lon="-0.68414">
        <ele>139.9</ele>
        <time>2025-05-10T15:35:10.000Z</time>
      </trkpt>
      <trkpt lat="48.60235" lon="-0.6842">
        <ele>139.8</ele>
        <time>2025-05-10T15:35:11.000Z</time>
      </trkpt>
      <trkpt lat="48.60238" lon="-0.68426">
        <ele>139.8</ele>
        <time>2025-05-10T15:35:12.000Z</time>
      </trkpt>
      <trkpt lat="48.60241" lon="-0.68431">
        <ele>139.7</ele>
        <time>2025-05-10T15:35:13.000Z</time>
      </trkpt>
      <trkpt lat="48.60246" lon="-0.68442">
        <ele>139.6</ele>
        <time>2025-05-10T15:35:15.000Z</time>
      </trkpt>
      <trkpt lat="48.60249" lon="-0.68448">
        <ele>139.5</ele>
        <time>2025-05-10T15:35:16.000Z</time>
      </trkpt>
      <trkpt lat="48.60251" lon="-0.68454">
        <ele>139.5</ele>
        <time>2025-05-10T15:35:17.000Z</time>
      </trkpt>
      <trkpt lat="48.60253" lon="-0.6846">
        <ele>139.5</ele>
        <time>2025-05-10T15:35:18.000Z</time>
      </trkpt>
      <trkpt lat="48.60255" lon="-0.68467">
        <ele>139.4</ele>
        <time>2025-05-10T15:35:19.000Z</time>
      </trkpt>
      <trkpt lat="48.60257" lon="-0.68473">
        <ele>139.4</ele>
        <time>2025-05-10T15:35:20.000Z</time>
      </trkpt>
      <trkpt lat="48.60258" lon="-0.6848">
        <ele>139.4</ele>
        <time>2025-05-10T15:35:21.000Z</time>
      </trkpt>
      <trkpt lat="48.60261" lon="-0.68493">
        <ele>139.4</ele>
        <time>2025-05-10T15:35:23.000Z</time>
      </trkpt>
      <trkpt lat="48.60264" lon="-0.68502">
        <ele>139.4</ele>
        <time>2025-05-10T15:35:25.000Z</time>
      </trkpt>
      <trkpt lat="48.60265" lon="-0.68509">
        <ele>139.4</ele>
        <time>2025-05-10T15:35:27.000Z</time>
      </trkpt>
      <trkpt lat="48.60266" lon="-0.68512">
        <ele>139.4</ele>
        <time>2025-05-10T15:35:34.000Z</time>
      </trkpt>
      <trkpt lat="48.60266" lon="-0.68512">
        <ele>139.4</ele>
        <time>2025-05-10T15:35:35.000Z</time>
      </trkpt>
      <trkpt lat="48.60266" lon="-0.68512">
        <ele>139.4</ele>
        <time>2025-05-10T15:35:36.000Z</time>
      </trkpt>
      <trkpt lat="48.60266" lon="-0.68521">
        <ele>139.4</ele>
        <time>2025-05-10T15:35:48.000Z</time>
      </trkpt>
      <trkpt lat="48.60267" lon="-0.68525">
        <ele>139.4</ele>
        <time>2025-05-10T15:35:49.000Z</time>
      </trkpt>
      <trkpt lat="48.60268" lon="-0.68535">
        <ele>139.4</ele>
        <time>2025-05-10T15:35:51.000Z</time>
      </trkpt>
      <trkpt lat="48.60269" lon="-0.68547">
        <ele>139.4</ele>
        <time>2025-05-10T15:35:53.000Z</time>
      </trkpt>
      <trkpt lat="48.6027" lon="-0.6856">
        <ele>139.4</ele>
        <time>2025-05-10T15:35:55.000Z</time>
      </trkpt>
      <trkpt lat="48.6027" lon="-0.68567">
        <ele>139.4</ele>
        <time>2025-05-10T15:35:56.000Z</time>
      </trkpt>
      <trkpt lat="48.6027" lon="-0.68574">
        <ele>139.4</ele>
        <time>2025-05-10T15:35:57.000Z</time>
      </trkpt>
      <trkpt lat="48.6027" lon="-0.68582">
        <ele>139.4</ele>
        <time>2025-05-10T15:35:58.000Z</time>
      </trkpt>
      <trkpt lat="48.60269" lon="-0.6859">
        <ele>139.4</ele>
        <time>2025-05-10T15:35:59.000Z</time>
      </trkpt>
      <trkpt lat="48.60269" lon="-0.68597">
        <ele>139.4</ele>
        <time>2025-05-10T15:36:00.000Z</time>
      </trkpt>
      <trkpt lat="48.60269" lon="-0.68605">
        <ele>139.4</ele>
        <time>2025-05-10T15:36:01.000Z</time>
      </trkpt>
      <trkpt lat="48.60268" lon="-0.68612">
        <ele>139.5</ele>
        <time>2025-05-10T15:36:02.000Z</time>
      </trkpt>
      <trkpt lat="48.60268" lon="-0.6862">
        <ele>139.5</ele>
        <time>2025-05-10T15:36:03.000Z</time>
      </trkpt>
      <trkpt lat="48.60267" lon="-0.68627">
        <ele>139.5</ele>
        <time>2025-05-10T15:36:04.000Z</time>
      </trkpt>
      <trkpt lat="48.60267" lon="-0.68635">
        <ele>139.5</ele>
        <time>2025-05-10T15:36:05.000Z</time>
      </trkpt>
      <trkpt lat="48.60267" lon="-0.68642">
        <ele>139.5</ele>
        <time>2025-05-10T15:36:06.000Z</time>
      </trkpt>
      <trkpt lat="48.60267" lon="-0.6865">
        <ele>139.6</ele>
        <time>2025-05-10T15:36:07.000Z</time>
      </trkpt>
      <trkpt lat="48.60269" lon="-0.68661">
        <ele>139.6</ele>
        <time>2025-05-10T15:36:09.000Z</time>
      </trkpt>
      <trkpt lat="48.60273" lon="-0.68665">
        <ele>139.6</ele>
        <time>2025-05-10T15:36:11.000Z</time>
      </trkpt>
      <trkpt lat="48.60279" lon="-0.68665">
        <ele>139.7</ele>
        <time>2025-05-10T15:36:13.000Z</time>
      </trkpt>
      <trkpt lat="48.60286" lon="-0.68663">
        <ele>139.7</ele>
        <time>2025-05-10T15:36:15.000Z</time>
      </trkpt>
      <trkpt lat="48.60294" lon="-0.68661">
        <ele>139.7</ele>
        <time>2025-05-10T15:36:17.000Z</time>
      </trkpt>
      <trkpt lat="48.60301" lon="-0.68658">
        <ele>139.7</ele>
        <time>2025-05-10T15:36:19.000Z</time>
      </trkpt>
      <trkpt lat="48.60309" lon="-0.68656">
        <ele>139.7</ele>
        <time>2025-05-10T15:36:21.000Z</time>
      </trkpt>
      <trkpt lat="48.60318" lon="-0.68653">
        <ele>139.8</ele>
        <time>2025-05-10T15:36:23.000Z</time>
      </trkpt>
      <trkpt lat="48.60323" lon="-0.68651">
        <ele>139.8</ele>
        <time>2025-05-10T15:36:24.000Z</time>
      </trkpt>
      <trkpt lat="48.60328" lon="-0.68649">
        <ele>139.8</ele>
        <time>2025-05-10T15:36:25.000Z</time>
      </trkpt>
      <trkpt lat="48.60333" lon="-0.68647">
        <ele>139.9</ele>
        <time>2025-05-10T15:36:26.000Z</time>
      </trkpt>
      <trkpt lat="48.60338" lon="-0.68646">
        <ele>139.9</ele>
        <time>2025-05-10T15:36:27.000Z</time>
      </trkpt>
      <trkpt lat="48.60343" lon="-0.68644">
        <ele>139.9</ele>
        <time>2025-05-10T15:36:28.000Z</time>
      </trkpt>
      <trkpt lat="48.60348" lon="-0.68642">
        <ele>140</ele>
        <time>2025-05-10T15:36:29.000Z</time>
      </trkpt>
      <trkpt lat="48.60354" lon="-0.68641">
        <ele>140</ele>
        <time>2025-05-10T15:36:30.000Z</time>
      </trkpt>
      <trkpt lat="48.60359" lon="-0.6864">
        <ele>140</ele>
        <time>2025-05-10T15:36:31.000Z</time>
      </trkpt>
      <trkpt lat="48.60365" lon="-0.68639">
        <ele>140.1</ele>
        <time>2025-05-10T15:36:32.000Z</time>
      </trkpt>
      <trkpt lat="48.60371" lon="-0.68638">
        <ele>140.1</ele>
        <time>2025-05-10T15:36:33.000Z</time>
      </trkpt>
      <trkpt lat="48.60377" lon="-0.68637">
        <ele>140.1</ele>
        <time>2025-05-10T15:36:34.000Z</time>
      </trkpt>
      <trkpt lat="48.60383" lon="-0.68637">
        <ele>140.2</ele>
        <time>2025-05-10T15:36:35.000Z</time>
      </trkpt>
      <trkpt lat="48.60388" lon="-0.68636">
        <ele>140.2</ele>
        <time>2025-05-10T15:36:36.000Z</time>
      </trkpt>
      <trkpt lat="48.60394" lon="-0.68636">
        <ele>140.3</ele>
        <time>2025-05-10T15:36:37.000Z</time>
      </trkpt>
      <trkpt lat="48.60399" lon="-0.68635">
        <ele>140.3</ele>
        <time>2025-05-10T15:36:38.000Z</time>
      </trkpt>
      <trkpt lat="48.60405" lon="-0.68635">
        <ele>140.4</ele>
        <time>2025-05-10T15:36:39.000Z</time>
      </trkpt>
      <trkpt lat="48.60411" lon="-0.68634">
        <ele>140.4</ele>
        <time>2025-05-10T15:36:40.000Z</time>
      </trkpt>
      <trkpt lat="48.60417" lon="-0.68633">
        <ele>140.5</ele>
        <time>2025-05-10T15:36:41.000Z</time>
      </trkpt>
      <trkpt lat="48.60422" lon="-0.68633">
        <ele>140.6</ele>
        <time>2025-05-10T15:36:42.000Z</time>
      </trkpt>
      <trkpt lat="48.60428" lon="-0.68632">
        <ele>140.6</ele>
        <time>2025-05-10T15:36:43.000Z</time>
      </trkpt>
      <trkpt lat="48.60434" lon="-0.68632">
        <ele>140.7</ele>
        <time>2025-05-10T15:36:44.000Z</time>
      </trkpt>
      <trkpt lat="48.60439" lon="-0.68631">
        <ele>140.8</ele>
        <time>2025-05-10T15:36:45.000Z</time>
      </trkpt>
      <trkpt lat="48.60445" lon="-0.68631">
        <ele>140.9</ele>
        <time>2025-05-10T15:36:46.000Z</time>
      </trkpt>
      <trkpt lat="48.60451" lon="-0.6863">
        <ele>141</ele>
        <time>2025-05-10T15:36:47.000Z</time>
      </trkpt>
      <trkpt lat="48.60456" lon="-0.6863">
        <ele>141.1</ele>
        <time>2025-05-10T15:36:48.000Z</time>
      </trkpt>
      <trkpt lat="48.60462" lon="-0.68629">
        <ele>141.2</ele>
        <time>2025-05-10T15:36:49.000Z</time>
      </trkpt>
      <trkpt lat="48.60467" lon="-0.68628">
        <ele>141.3</ele>
        <time>2025-05-10T15:36:50.000Z</time>
      </trkpt>
      <trkpt lat="48.60473" lon="-0.68627">
        <ele>141.4</ele>
        <time>2025-05-10T15:36:51.000Z</time>
      </trkpt>
      <trkpt lat="48.60479" lon="-0.68626">
        <ele>141.5</ele>
        <time>2025-05-10T15:36:52.000Z</time>
      </trkpt>
      <trkpt lat="48.60484" lon="-0.68625">
        <ele>141.6</ele>
        <time>2025-05-10T15:36:53.000Z</time>
      </trkpt>
      <trkpt lat="48.60489" lon="-0.68625">
        <ele>141.7</ele>
        <time>2025-05-10T15:36:54.000Z</time>
      </trkpt>
      <trkpt lat="48.60494" lon="-0.68624">
        <ele>141.8</ele>
        <time>2025-05-10T15:36:55.000Z</time>
      </trkpt>
      <trkpt lat="48.60503" lon="-0.68623">
        <ele>142</ele>
        <time>2025-05-10T15:36:57.000Z</time>
      </trkpt>
      <trkpt lat="48.60511" lon="-0.68623">
        <ele>142.2</ele>
        <time>2025-05-10T15:36:59.000Z</time>
      </trkpt>
      <trkpt lat="48.60518" lon="-0.68624">
        <ele>142.4</ele>
        <time>2025-05-10T15:37:01.000Z</time>
      </trkpt>
      <trkpt lat="48.60526" lon="-0.68627">
        <ele>142.6</ele>
        <time>2025-05-10T15:37:03.000Z</time>
      </trkpt>
      <trkpt lat="48.60533" lon="-0.68633">
        <ele>142.8</ele>
        <time>2025-05-10T15:37:05.000Z</time>
      </trkpt>
      <trkpt lat="48.6054" lon="-0.68639">
        <ele>142.9</ele>
        <time>2025-05-10T15:37:07.000Z</time>
      </trkpt>
      <trkpt lat="48.60548" lon="-0.68644">
        <ele>143.1</ele>
        <time>2025-05-10T15:37:09.000Z</time>
      </trkpt>
      <trkpt lat="48.60556" lon="-0.68649">
        <ele>143.3</ele>
        <time>2025-05-10T15:37:11.000Z</time>
      </trkpt>
      <trkpt lat="48.60564" lon="-0.68654">
        <ele>143.4</ele>
        <time>2025-05-10T15:37:13.000Z</time>
      </trkpt>
      <trkpt lat="48.60572" lon="-0.68658">
        <ele>143.6</ele>
        <time>2025-05-10T15:37:15.000Z</time>
      </trkpt>
      <trkpt lat="48.60581" lon="-0.68659">
        <ele>143.7</ele>
        <time>2025-05-10T15:37:17.000Z</time>
      </trkpt>
      <trkpt lat="48.60588" lon="-0.68663">
        <ele>143.8</ele>
        <time>2025-05-10T15:37:19.000Z</time>
      </trkpt>
      <trkpt lat="48.60591" lon="-0.68671">
        <ele>143.9</ele>
        <time>2025-05-10T15:37:21.000Z</time>
      </trkpt>
      <trkpt lat="48.60592" lon="-0.6868">
        <ele>144</ele>
        <time>2025-05-10T15:37:23.000Z</time>
      </trkpt>
      <trkpt lat="48.60592" lon="-0.68692">
        <ele>144</ele>
        <time>2025-05-10T15:37:25.000Z</time>
      </trkpt>
      <trkpt lat="48.60592" lon="-0.68704">
        <ele>144.1</ele>
        <time>2025-05-10T15:37:27.000Z</time>
      </trkpt>
      <trkpt lat="48.60592" lon="-0.68715">
        <ele>144.2</ele>
        <time>2025-05-10T15:37:29.000Z</time>
      </trkpt>
      <trkpt lat="48.60593" lon="-0.68727">
        <ele>144.3</ele>
        <time>2025-05-10T15:37:31.000Z</time>
      </trkpt>
      <trkpt lat="48.60593" lon="-0.68734">
        <ele>144.4</ele>
        <time>2025-05-10T15:37:32.000Z</time>
      </trkpt>
      <trkpt lat="48.60595" lon="-0.68747">
        <ele>144.5</ele>
        <time>2025-05-10T15:37:34.000Z</time>
      </trkpt>
      <trkpt lat="48.60596" lon="-0.68753">
        <ele>144.5</ele>
        <time>2025-05-10T15:37:35.000Z</time>
      </trkpt>
      <trkpt lat="48.60599" lon="-0.68767">
        <ele>144.6</ele>
        <time>2025-05-10T15:37:37.000Z</time>
      </trkpt>
      <trkpt lat="48.606" lon="-0.68774">
        <ele>144.6</ele>
        <time>2025-05-10T15:37:38.000Z</time>
      </trkpt>
      <trkpt lat="48.60601" lon="-0.68781">
        <ele>144.5</ele>
        <time>2025-05-10T15:37:39.000Z</time>
      </trkpt>
      <trkpt lat="48.60603" lon="-0.68793">
        <ele>144.5</ele>
        <time>2025-05-10T15:37:41.000Z</time>
      </trkpt>
      <trkpt lat="48.60607" lon="-0.68802">
        <ele>144.5</ele>
        <time>2025-05-10T15:37:43.000Z</time>
      </trkpt>
      <trkpt lat="48.60613" lon="-0.68807">
        <ele>144.5</ele>
        <time>2025-05-10T15:37:45.000Z</time>
      </trkpt>
      <trkpt lat="48.6062" lon="-0.68806">
        <ele>144.4</ele>
        <time>2025-05-10T15:37:47.000Z</time>
      </trkpt>
      <trkpt lat="48.60626" lon="-0.68805">
        <ele>144.5</ele>
        <time>2025-05-10T15:37:49.000Z</time>
      </trkpt>
      <trkpt lat="48.60632" lon="-0.68803">
        <ele>144.5</ele>
        <time>2025-05-10T15:37:51.000Z</time>
      </trkpt>
      <trkpt lat="48.6064" lon="-0.68801">
        <ele>144.5</ele>
        <time>2025-05-10T15:37:53.000Z</time>
      </trkpt>
      <trkpt lat="48.60649" lon="-0.688">
        <ele>144.5</ele>
        <time>2025-05-10T15:37:55.000Z</time>
      </trkpt>
      <trkpt lat="48.60657" lon="-0.68798">
        <ele>144.5</ele>
        <time>2025-05-10T15:37:57.000Z</time>
      </trkpt>
      <trkpt lat="48.60662" lon="-0.68797">
        <ele>144.5</ele>
        <time>2025-05-10T15:37:59.000Z</time>
      </trkpt>
      <trkpt lat="48.6067" lon="-0.68796">
        <ele>144.5</ele>
        <time>2025-05-10T15:38:01.000Z</time>
      </trkpt>
      <trkpt lat="48.60677" lon="-0.68794">
        <ele>144.6</ele>
        <time>2025-05-10T15:38:03.000Z</time>
      </trkpt>
      <trkpt lat="48.60685" lon="-0.68793">
        <ele>144.6</ele>
        <time>2025-05-10T15:38:05.000Z</time>
      </trkpt>
      <trkpt lat="48.60692" lon="-0.68792">
        <ele>144.7</ele>
        <time>2025-05-10T15:38:07.000Z</time>
      </trkpt>
      <trkpt lat="48.607" lon="-0.6879">
        <ele>144.7</ele>
        <time>2025-05-10T15:38:09.000Z</time>
      </trkpt>
      <trkpt lat="48.60706" lon="-0.68789">
        <ele>144.8</ele>
        <time>2025-05-10T15:38:11.000Z</time>
      </trkpt>
      <trkpt lat="48.60714" lon="-0.68787">
        <ele>144.9</ele>
        <time>2025-05-10T15:38:13.000Z</time>
      </trkpt>
      <trkpt lat="48.60722" lon="-0.68784">
        <ele>145</ele>
        <time>2025-05-10T15:38:15.000Z</time>
      </trkpt>
      <trkpt lat="48.6073" lon="-0.68783">
        <ele>145.1</ele>
        <time>2025-05-10T15:38:17.000Z</time>
      </trkpt>
      <trkpt lat="48.60738" lon="-0.68781">
        <ele>145.2</ele>
        <time>2025-05-10T15:38:19.000Z</time>
      </trkpt>
      <trkpt lat="48.60745" lon="-0.6878">
        <ele>145.3</ele>
        <time>2025-05-10T15:38:21.000Z</time>
      </trkpt>
      <trkpt lat="48.60752" lon="-0.68779">
        <ele>145.4</ele>
        <time>2025-05-10T15:38:23.000Z</time>
      </trkpt>
      <trkpt lat="48.6076" lon="-0.68777">
        <ele>145.4</ele>
        <time>2025-05-10T15:38:25.000Z</time>
      </trkpt>
      <trkpt lat="48.60768" lon="-0.68775">
        <ele>145.4</ele>
        <time>2025-05-10T15:38:27.000Z</time>
      </trkpt>
      <trkpt lat="48.60775" lon="-0.68774">
        <ele>145.5</ele>
        <time>2025-05-10T15:38:29.000Z</time>
      </trkpt>
      <trkpt lat="48.60783" lon="-0.68772">
        <ele>145.5</ele>
        <time>2025-05-10T15:38:31.000Z</time>
      </trkpt>
      <trkpt lat="48.60792" lon="-0.68771">
        <ele>145.5</ele>
        <time>2025-05-10T15:38:33.000Z</time>
      </trkpt>
      <trkpt lat="48.60797" lon="-0.6877">
        <ele>145.5</ele>
        <time>2025-05-10T15:38:34.000Z</time>
      </trkpt>
      <trkpt lat="48.60802" lon="-0.6877">
        <ele>145.5</ele>
        <time>2025-05-10T15:38:35.000Z</time>
      </trkpt>
      <trkpt lat="48.60806" lon="-0.6877">
        <ele>145.5</ele>
        <time>2025-05-10T15:38:36.000Z</time>
      </trkpt>
      <trkpt lat="48.60814" lon="-0.68768">
        <ele>145.4</ele>
        <time>2025-05-10T15:38:38.000Z</time>
      </trkpt>
      <trkpt lat="48.60819" lon="-0.68767">
        <ele>145.4</ele>
        <time>2025-05-10T15:38:41.000Z</time>
      </trkpt>
      <trkpt lat="48.60824" lon="-0.68766">
        <ele>145.2</ele>
        <time>2025-05-10T15:38:45.000Z</time>
      </trkpt>
      <trkpt lat="48.6083" lon="-0.68764">
        <ele>145</ele>
        <time>2025-05-10T15:38:50.000Z</time>
      </trkpt>
      <trkpt lat="48.60835" lon="-0.68763">
        <ele>144.9</ele>
        <time>2025-05-10T15:38:53.000Z</time>
      </trkpt>
      <trkpt lat="48.60841" lon="-0.68763">
        <ele>144.9</ele>
        <time>2025-05-10T15:38:56.000Z</time>
      </trkpt>
      <trkpt lat="48.60846" lon="-0.68763">
        <ele>144.8</ele>
        <time>2025-05-10T15:38:58.000Z</time>
      </trkpt>
      <trkpt lat="48.60851" lon="-0.68762">
        <ele>144.8</ele>
        <time>2025-05-10T15:39:00.000Z</time>
      </trkpt>
      <trkpt lat="48.60857" lon="-0.68761">
        <ele>144.7</ele>
        <time>2025-05-10T15:39:02.000Z</time>
      </trkpt>
      <trkpt lat="48.60863" lon="-0.6876">
        <ele>144.7</ele>
        <time>2025-05-10T15:39:04.000Z</time>
      </trkpt>
      <trkpt lat="48.6087" lon="-0.68759">
        <ele>144.6</ele>
        <time>2025-05-10T15:39:06.000Z</time>
      </trkpt>
      <trkpt lat="48.60877" lon="-0.68756">
        <ele>144.6</ele>
        <time>2025-05-10T15:39:08.000Z</time>
      </trkpt>
      <trkpt lat="48.60883" lon="-0.68755">
        <ele>144.6</ele>
        <time>2025-05-10T15:39:10.000Z</time>
      </trkpt>
      <trkpt lat="48.6089" lon="-0.68752">
        <ele>144.5</ele>
        <time>2025-05-10T15:39:12.000Z</time>
      </trkpt>
      <trkpt lat="48.60896" lon="-0.68746">
        <ele>144.5</ele>
        <time>2025-05-10T15:39:14.000Z</time>
      </trkpt>
      <trkpt lat="48.60902" lon="-0.68738">
        <ele>144.5</ele>
        <time>2025-05-10T15:39:16.000Z</time>
      </trkpt>
      <trkpt lat="48.60909" lon="-0.68731">
        <ele>144.5</ele>
        <time>2025-05-10T15:39:18.000Z</time>
      </trkpt>
      <trkpt lat="48.60915" lon="-0.68725">
        <ele>144.5</ele>
        <time>2025-05-10T15:39:20.000Z</time>
      </trkpt>
      <trkpt lat="48.6092" lon="-0.6872">
        <ele>144.4</ele>
        <time>2025-05-10T15:39:22.000Z</time>
      </trkpt>
      <trkpt lat="48.60925" lon="-0.68718">
        <ele>144.4</ele>
        <time>2025-05-10T15:39:24.000Z</time>
      </trkpt>
      <trkpt lat="48.6093" lon="-0.68715">
        <ele>144.3</ele>
        <time>2025-05-10T15:39:26.000Z</time>
      </trkpt>
      <trkpt lat="48.60937" lon="-0.68713">
        <ele>144.3</ele>
        <time>2025-05-10T15:39:28.000Z</time>
      </trkpt>
      <trkpt lat="48.60945" lon="-0.68714">
        <ele>144.2</ele>
        <time>2025-05-10T15:39:30.000Z</time>
      </trkpt>
      <trkpt lat="48.60954" lon="-0.68715">
        <ele>144.2</ele>
        <time>2025-05-10T15:39:32.000Z</time>
      </trkpt>
      <trkpt lat="48.60963" lon="-0.68718">
        <ele>144.1</ele>
        <time>2025-05-10T15:39:34.000Z</time>
      </trkpt>
      <trkpt lat="48.60967" lon="-0.6872">
        <ele>144.1</ele>
        <time>2025-05-10T15:39:35.000Z</time>
      </trkpt>
      <trkpt lat="48.60976" lon="-0.68722">
        <ele>144</ele>
        <time>2025-05-10T15:39:37.000Z</time>
      </trkpt>
      <trkpt lat="48.60983" lon="-0.68725">
        <ele>144</ele>
        <time>2025-05-10T15:39:39.000Z</time>
      </trkpt>
      <trkpt lat="48.6099" lon="-0.68729">
        <ele>143.9</ele>
        <time>2025-05-10T15:39:41.000Z</time>
      </trkpt>
      <trkpt lat="48.60995" lon="-0.68732">
        <ele>143.8</ele>
        <time>2025-05-10T15:39:43.000Z</time>
      </trkpt>
      <trkpt lat="48.61" lon="-0.68735">
        <ele>143.8</ele>
        <time>2025-05-10T15:39:45.000Z</time>
      </trkpt>
      <trkpt lat="48.61005" lon="-0.68733">
        <ele>143.7</ele>
        <time>2025-05-10T15:39:47.000Z</time>
      </trkpt>
      <trkpt lat="48.6101" lon="-0.68733">
        <ele>143.5</ele>
        <time>2025-05-10T15:39:50.000Z</time>
      </trkpt>
      <trkpt lat="48.6101" lon="-0.68734">
        <ele>143.4</ele>
        <time>2025-05-10T15:39:53.000Z</time>
      </trkpt>
      <trkpt lat="48.6101" lon="-0.68734">
        <ele>143.3</ele>
        <time>2025-05-10T15:39:54.000Z</time>
      </trkpt>
      <trkpt lat="48.6101" lon="-0.68734">
        <ele>143.2</ele>
        <time>2025-05-10T15:39:55.000Z</time>
      </trkpt>
      <trkpt lat="48.61015" lon="-0.68735">
        <ele>142.8</ele>
        <time>2025-05-10T15:40:05.000Z</time>
      </trkpt>
      <trkpt lat="48.61018" lon="-0.68736">
        <ele>142.8</ele>
        <time>2025-05-10T15:40:06.000Z</time>
      </trkpt>
      <trkpt lat="48.61021" lon="-0.68737">
        <ele>142.8</ele>
        <time>2025-05-10T15:40:07.000Z</time>
      </trkpt>
      <trkpt lat="48.61028" lon="-0.68739">
        <ele>142.7</ele>
        <time>2025-05-10T15:40:09.000Z</time>
      </trkpt>
      <trkpt lat="48.61034" lon="-0.68742">
        <ele>142.7</ele>
        <time>2025-05-10T15:40:11.000Z</time>
      </trkpt>
      <trkpt lat="48.61041" lon="-0.68744">
        <ele>142.6</ele>
        <time>2025-05-10T15:40:13.000Z</time>
      </trkpt>
      <trkpt lat="48.61048" lon="-0.68747">
        <ele>142.6</ele>
        <time>2025-05-10T15:40:15.000Z</time>
      </trkpt>
      <trkpt lat="48.61056" lon="-0.6875">
        <ele>142.6</ele>
        <time>2025-05-10T15:40:17.000Z</time>
      </trkpt>
      <trkpt lat="48.61065" lon="-0.68753">
        <ele>142.5</ele>
        <time>2025-05-10T15:40:19.000Z</time>
      </trkpt>
      <trkpt lat="48.61073" lon="-0.68757">
        <ele>142.5</ele>
        <time>2025-05-10T15:40:21.000Z</time>
      </trkpt>
      <trkpt lat="48.61078" lon="-0.68759">
        <ele>142.5</ele>
        <time>2025-05-10T15:40:22.000Z</time>
      </trkpt>
      <trkpt lat="48.61082" lon="-0.6876">
        <ele>142.5</ele>
        <time>2025-05-10T15:40:23.000Z</time>
      </trkpt>
      <trkpt lat="48.61087" lon="-0.68762">
        <ele>142.5</ele>
        <time>2025-05-10T15:40:24.000Z</time>
      </trkpt>
      <trkpt lat="48.61092" lon="-0.68763">
        <ele>142.4</ele>
        <time>2025-05-10T15:40:25.000Z</time>
      </trkpt>
      <trkpt lat="48.61096" lon="-0.68764">
        <ele>142.4</ele>
        <time>2025-05-10T15:40:26.000Z</time>
      </trkpt>
      <trkpt lat="48.61101" lon="-0.68765">
        <ele>142.4</ele>
        <time>2025-05-10T15:40:27.000Z</time>
      </trkpt>
      <trkpt lat="48.61106" lon="-0.68766">
        <ele>142.4</ele>
        <time>2025-05-10T15:40:28.000Z</time>
      </trkpt>
      <trkpt lat="48.61111" lon="-0.68766">
        <ele>142.4</ele>
        <time>2025-05-10T15:40:29.000Z</time>
      </trkpt>
      <trkpt lat="48.61116" lon="-0.68766">
        <ele>142.4</ele>
        <time>2025-05-10T15:40:30.000Z</time>
      </trkpt>
      <trkpt lat="48.61121" lon="-0.68766">
        <ele>142.4</ele>
        <time>2025-05-10T15:40:31.000Z</time>
      </trkpt>
      <trkpt lat="48.61126" lon="-0.68765">
        <ele>142.4</ele>
        <time>2025-05-10T15:40:32.000Z</time>
      </trkpt>
      <trkpt lat="48.61131" lon="-0.68764">
        <ele>142.4</ele>
        <time>2025-05-10T15:40:33.000Z</time>
      </trkpt>
      <trkpt lat="48.61137" lon="-0.68764">
        <ele>142.3</ele>
        <time>2025-05-10T15:40:34.000Z</time>
      </trkpt>
      <trkpt lat="48.61142" lon="-0.68762">
        <ele>142.3</ele>
        <time>2025-05-10T15:40:35.000Z</time>
      </trkpt>
      <trkpt lat="48.61147" lon="-0.6876">
        <ele>142.3</ele>
        <time>2025-05-10T15:40:36.000Z</time>
      </trkpt>
      <trkpt lat="48.61152" lon="-0.68758">
        <ele>142.3</ele>
        <time>2025-05-10T15:40:37.000Z</time>
      </trkpt>
      <trkpt lat="48.61157" lon="-0.68756">
        <ele>142.3</ele>
        <time>2025-05-10T15:40:38.000Z</time>
      </trkpt>
      <trkpt lat="48.61162" lon="-0.68754">
        <ele>142.3</ele>
        <time>2025-05-10T15:40:39.000Z</time>
      </trkpt>
      <trkpt lat="48.61167" lon="-0.68752">
        <ele>142.3</ele>
        <time>2025-05-10T15:40:40.000Z</time>
      </trkpt>
      <trkpt lat="48.61172" lon="-0.6875">
        <ele>142.3</ele>
        <time>2025-05-10T15:40:41.000Z</time>
      </trkpt>
      <trkpt lat="48.61178" lon="-0.68749">
        <ele>142.3</ele>
        <time>2025-05-10T15:40:42.000Z</time>
      </trkpt>
      <trkpt lat="48.61183" lon="-0.68749">
        <ele>142.3</ele>
        <time>2025-05-10T15:40:43.000Z</time>
      </trkpt>
      <trkpt lat="48.61188" lon="-0.6875">
        <ele>142.3</ele>
        <time>2025-05-10T15:40:44.000Z</time>
      </trkpt>
      <trkpt lat="48.61192" lon="-0.68752">
        <ele>142.4</ele>
        <time>2025-05-10T15:40:45.000Z</time>
      </trkpt>
      <trkpt lat="48.61197" lon="-0.68753">
        <ele>142.4</ele>
        <time>2025-05-10T15:40:46.000Z</time>
      </trkpt>
      <trkpt lat="48.61202" lon="-0.68755">
        <ele>142.4</ele>
        <time>2025-05-10T15:40:47.000Z</time>
      </trkpt>
      <trkpt lat="48.61207" lon="-0.68757">
        <ele>142.4</ele>
        <time>2025-05-10T15:40:48.000Z</time>
      </trkpt>
      <trkpt lat="48.61212" lon="-0.68759">
        <ele>142.4</ele>
        <time>2025-05-10T15:40:49.000Z</time>
      </trkpt>
      <trkpt lat="48.61217" lon="-0.68761">
        <ele>142.4</ele>
        <time>2025-05-10T15:40:50.000Z</time>
      </trkpt>
      <trkpt lat="48.61222" lon="-0.68763">
        <ele>142.4</ele>
        <time>2025-05-10T15:40:51.000Z</time>
      </trkpt>
      <trkpt lat="48.61226" lon="-0.68765">
        <ele>142.4</ele>
        <time>2025-05-10T15:40:52.000Z</time>
      </trkpt>
      <trkpt lat="48.61231" lon="-0.68767">
        <ele>142.4</ele>
        <time>2025-05-10T15:40:53.000Z</time>
      </trkpt>
      <trkpt lat="48.61236" lon="-0.6877">
        <ele>142.4</ele>
        <time>2025-05-10T15:40:54.000Z</time>
      </trkpt>
      <trkpt lat="48.61241" lon="-0.68772">
        <ele>142.4</ele>
        <time>2025-05-10T15:40:55.000Z</time>
      </trkpt>
      <trkpt lat="48.61245" lon="-0.68775">
        <ele>142.5</ele>
        <time>2025-05-10T15:40:56.000Z</time>
      </trkpt>
      <trkpt lat="48.6125" lon="-0.68777">
        <ele>142.5</ele>
        <time>2025-05-10T15:40:57.000Z</time>
      </trkpt>
      <trkpt lat="48.61255" lon="-0.6878">
        <ele>142.5</ele>
        <time>2025-05-10T15:40:58.000Z</time>
      </trkpt>
      <trkpt lat="48.61259" lon="-0.68783">
        <ele>142.5</ele>
        <time>2025-05-10T15:40:59.000Z</time>
      </trkpt>
      <trkpt lat="48.61263" lon="-0.68787">
        <ele>142.5</ele>
        <time>2025-05-10T15:41:00.000Z</time>
      </trkpt>
      <trkpt lat="48.61268" lon="-0.6879">
        <ele>142.5</ele>
        <time>2025-05-10T15:41:01.000Z</time>
      </trkpt>
      <trkpt lat="48.61272" lon="-0.68792">
        <ele>142.6</ele>
        <time>2025-05-10T15:41:02.000Z</time>
      </trkpt>
      <trkpt lat="48.61277" lon="-0.68793">
        <ele>142.6</ele>
        <time>2025-05-10T15:41:03.000Z</time>
      </trkpt>
      <trkpt lat="48.61282" lon="-0.68792">
        <ele>142.6</ele>
        <time>2025-05-10T15:41:04.000Z</time>
      </trkpt>
      <trkpt lat="48.61286" lon="-0.6879">
        <ele>142.6</ele>
        <time>2025-05-10T15:41:05.000Z</time>
      </trkpt>
      <trkpt lat="48.6129" lon="-0.68786">
        <ele>142.6</ele>
        <time>2025-05-10T15:41:06.000Z</time>
      </trkpt>
      <trkpt lat="48.61294" lon="-0.68781">
        <ele>142.7</ele>
        <time>2025-05-10T15:41:07.000Z</time>
      </trkpt>
      <trkpt lat="48.61298" lon="-0.68777">
        <ele>142.7</ele>
        <time>2025-05-10T15:41:08.000Z</time>
      </trkpt>
      <trkpt lat="48.61301" lon="-0.68772">
        <ele>142.8</ele>
        <time>2025-05-10T15:41:09.000Z</time>
      </trkpt>
      <trkpt lat="48.61305" lon="-0.68768">
        <ele>142.8</ele>
        <time>2025-05-10T15:41:10.000Z</time>
      </trkpt>
      <trkpt lat="48.61309" lon="-0.68764">
        <ele>142.9</ele>
        <time>2025-05-10T15:41:11.000Z</time>
      </trkpt>
      <trkpt lat="48.61316" lon="-0.68756">
        <ele>143.1</ele>
        <time>2025-05-10T15:41:13.000Z</time>
      </trkpt>
      <trkpt lat="48.61322" lon="-0.6875">
        <ele>143.3</ele>
        <time>2025-05-10T15:41:15.000Z</time>
      </trkpt>
      <trkpt lat="48.61328" lon="-0.68743">
        <ele>143.6</ele>
        <time>2025-05-10T15:41:17.000Z</time>
      </trkpt>
      <trkpt lat="48.61335" lon="-0.68736">
        <ele>144.1</ele>
        <time>2025-05-10T15:41:19.000Z</time>
      </trkpt>
      <trkpt lat="48.61343" lon="-0.68729">
        <ele>144.5</ele>
        <time>2025-05-10T15:41:21.000Z</time>
      </trkpt>
      <trkpt lat="48.6135" lon="-0.68721">
        <ele>145</ele>
        <time>2025-05-10T15:41:23.000Z</time>
      </trkpt>
      <trkpt lat="48.61358" lon="-0.68714">
        <ele>145.5</ele>
        <time>2025-05-10T15:41:25.000Z</time>
      </trkpt>
      <trkpt lat="48.61362" lon="-0.6871">
        <ele>145.7</ele>
        <time>2025-05-10T15:41:26.000Z</time>
      </trkpt>
      <trkpt lat="48.61366" lon="-0.68707">
        <ele>145.9</ele>
        <time>2025-05-10T15:41:27.000Z</time>
      </trkpt>
      <trkpt lat="48.6137" lon="-0.68703">
        <ele>146.2</ele>
        <time>2025-05-10T15:41:28.000Z</time>
      </trkpt>
      <trkpt lat="48.61374" lon="-0.687">
        <ele>146.4</ele>
        <time>2025-05-10T15:41:29.000Z</time>
      </trkpt>
      <trkpt lat="48.61378" lon="-0.68696">
        <ele>146.6</ele>
        <time>2025-05-10T15:41:30.000Z</time>
      </trkpt>
      <trkpt lat="48.61382" lon="-0.68692">
        <ele>146.8</ele>
        <time>2025-05-10T15:41:31.000Z</time>
      </trkpt>
      <trkpt lat="48.61385" lon="-0.68689">
        <ele>146.9</ele>
        <time>2025-05-10T15:41:32.000Z</time>
      </trkpt>
      <trkpt lat="48.61393" lon="-0.68682">
        <ele>147.4</ele>
        <time>2025-05-10T15:41:34.000Z</time>
      </trkpt>
      <trkpt lat="48.61397" lon="-0.68679">
        <ele>147.6</ele>
        <time>2025-05-10T15:41:35.000Z</time>
      </trkpt>
      <trkpt lat="48.61401" lon="-0.68675">
        <ele>147.8</ele>
        <time>2025-05-10T15:41:36.000Z</time>
      </trkpt>
      <trkpt lat="48.61409" lon="-0.68668">
        <ele>148.3</ele>
        <time>2025-05-10T15:41:38.000Z</time>
      </trkpt>
      <trkpt lat="48.61416" lon="-0.68662">
        <ele>148.8</ele>
        <time>2025-05-10T15:41:40.000Z</time>
      </trkpt>
      <trkpt lat="48.61424" lon="-0.68655">
        <ele>149.3</ele>
        <time>2025-05-10T15:41:42.000Z</time>
      </trkpt>
      <trkpt lat="48.61431" lon="-0.68648">
        <ele>149.8</ele>
        <time>2025-05-10T15:41:44.000Z</time>
      </trkpt>
      <trkpt lat="48.61438" lon="-0.6864">
        <ele>150.3</ele>
        <time>2025-05-10T15:41:46.000Z</time>
      </trkpt>
      <trkpt lat="48.61445" lon="-0.68632">
        <ele>150.8</ele>
        <time>2025-05-10T15:41:48.000Z</time>
      </trkpt>
      <trkpt lat="48.61451" lon="-0.68624">
        <ele>151.3</ele>
        <time>2025-05-10T15:41:50.000Z</time>
      </trkpt>
      <trkpt lat="48.61458" lon="-0.68617">
        <ele>151.8</ele>
        <time>2025-05-10T15:41:52.000Z</time>
      </trkpt>
      <trkpt lat="48.61466" lon="-0.68611">
        <ele>152.4</ele>
        <time>2025-05-10T15:41:54.000Z</time>
      </trkpt>
      <trkpt lat="48.61473" lon="-0.68603">
        <ele>152.9</ele>
        <time>2025-05-10T15:41:56.000Z</time>
      </trkpt>
      <trkpt lat="48.61479" lon="-0.68595">
        <ele>153.5</ele>
        <time>2025-05-10T15:41:58.000Z</time>
      </trkpt>
      <trkpt lat="48.61485" lon="-0.68587">
        <ele>154</ele>
        <time>2025-05-10T15:42:00.000Z</time>
      </trkpt>
      <trkpt lat="48.61491" lon="-0.6858">
        <ele>154.5</ele>
        <time>2025-05-10T15:42:02.000Z</time>
      </trkpt>
      <trkpt lat="48.61496" lon="-0.68573">
        <ele>155.1</ele>
        <time>2025-05-10T15:42:04.000Z</time>
      </trkpt>
      <trkpt lat="48.61501" lon="-0.68566">
        <ele>155.6</ele>
        <time>2025-05-10T15:42:06.000Z</time>
      </trkpt>
      <trkpt lat="48.61505" lon="-0.68559">
        <ele>156</ele>
        <time>2025-05-10T15:42:08.000Z</time>
      </trkpt>
      <trkpt lat="48.61507" lon="-0.68553">
        <ele>156.4</ele>
        <time>2025-05-10T15:42:10.000Z</time>
      </trkpt>
      <trkpt lat="48.61512" lon="-0.68547">
        <ele>157.3</ele>
        <time>2025-05-10T15:42:14.000Z</time>
      </trkpt>
      <trkpt lat="48.61516" lon="-0.68548">
        <ele>157.7</ele>
        <time>2025-05-10T15:42:16.000Z</time>
      </trkpt>
      <trkpt lat="48.61521" lon="-0.68553">
        <ele>158.1</ele>
        <time>2025-05-10T15:42:19.000Z</time>
      </trkpt>
      <trkpt lat="48.61527" lon="-0.68557">
        <ele>158.4</ele>
        <time>2025-05-10T15:42:22.000Z</time>
      </trkpt>
      <trkpt lat="48.61532" lon="-0.68561">
        <ele>158.5</ele>
        <time>2025-05-10T15:42:24.000Z</time>
      </trkpt>
      <trkpt lat="48.61538" lon="-0.68565">
        <ele>158.7</ele>
        <time>2025-05-10T15:42:26.000Z</time>
      </trkpt>
      <trkpt lat="48.61545" lon="-0.6857">
        <ele>158.8</ele>
        <time>2025-05-10T15:42:28.000Z</time>
      </trkpt>
      <trkpt lat="48.61552" lon="-0.68575">
        <ele>158.8</ele>
        <time>2025-05-10T15:42:30.000Z</time>
      </trkpt>
      <trkpt lat="48.61559" lon="-0.6858">
        <ele>158.9</ele>
        <time>2025-05-10T15:42:32.000Z</time>
      </trkpt>
      <trkpt lat="48.61567" lon="-0.68585">
        <ele>159</ele>
        <time>2025-05-10T15:42:34.000Z</time>
      </trkpt>
      <trkpt lat="48.61572" lon="-0.68588">
        <ele>159</ele>
        <time>2025-05-10T15:42:35.000Z</time>
      </trkpt>
      <trkpt lat="48.61576" lon="-0.6859">
        <ele>159.1</ele>
        <time>2025-05-10T15:42:36.000Z</time>
      </trkpt>
      <trkpt lat="48.6158" lon="-0.68593">
        <ele>159.1</ele>
        <time>2025-05-10T15:42:37.000Z</time>
      </trkpt>
      <trkpt lat="48.61585" lon="-0.68596">
        <ele>159.1</ele>
        <time>2025-05-10T15:42:38.000Z</time>
      </trkpt>
      <trkpt lat="48.61589" lon="-0.68598">
        <ele>159.1</ele>
        <time>2025-05-10T15:42:39.000Z</time>
      </trkpt>
      <trkpt lat="48.61594" lon="-0.68601">
        <ele>159.2</ele>
        <time>2025-05-10T15:42:40.000Z</time>
      </trkpt>
      <trkpt lat="48.61599" lon="-0.68603">
        <ele>159.2</ele>
        <time>2025-05-10T15:42:41.000Z</time>
      </trkpt>
      <trkpt lat="48.61604" lon="-0.68606">
        <ele>159.2</ele>
        <time>2025-05-10T15:42:42.000Z</time>
      </trkpt>
      <trkpt lat="48.61609" lon="-0.68609">
        <ele>159.3</ele>
        <time>2025-05-10T15:42:43.000Z</time>
      </trkpt>
      <trkpt lat="48.61614" lon="-0.68612">
        <ele>159.3</ele>
        <time>2025-05-10T15:42:44.000Z</time>
      </trkpt>
      <trkpt lat="48.61619" lon="-0.68614">
        <ele>159.3</ele>
        <time>2025-05-10T15:42:45.000Z</time>
      </trkpt>
      <trkpt lat="48.61624" lon="-0.68617">
        <ele>159.3</ele>
        <time>2025-05-10T15:42:46.000Z</time>
      </trkpt>
      <trkpt lat="48.6163" lon="-0.68619">
        <ele>159.4</ele>
        <time>2025-05-10T15:42:47.000Z</time>
      </trkpt>
      <trkpt lat="48.61635" lon="-0.68622">
        <ele>159.4</ele>
        <time>2025-05-10T15:42:48.000Z</time>
      </trkpt>
      <trkpt lat="48.6164" lon="-0.68624">
        <ele>159.4</ele>
        <time>2025-05-10T15:42:49.000Z</time>
      </trkpt>
      <trkpt lat="48.61645" lon="-0.68627">
        <ele>159.5</ele>
        <time>2025-05-10T15:42:50.000Z</time>
      </trkpt>
      <trkpt lat="48.6165" lon="-0.68629">
        <ele>159.5</ele>
        <time>2025-05-10T15:42:51.000Z</time>
      </trkpt>
      <trkpt lat="48.61654" lon="-0.68631">
        <ele>159.5</ele>
        <time>2025-05-10T15:42:52.000Z</time>
      </trkpt>
      <trkpt lat="48.61659" lon="-0.68633">
        <ele>159.6</ele>
        <time>2025-05-10T15:42:53.000Z</time>
      </trkpt>
      <trkpt lat="48.61664" lon="-0.68634">
        <ele>159.6</ele>
        <time>2025-05-10T15:42:54.000Z</time>
      </trkpt>
      <trkpt lat="48.61669" lon="-0.68636">
        <ele>159.6</ele>
        <time>2025-05-10T15:42:55.000Z</time>
      </trkpt>
      <trkpt lat="48.61674" lon="-0.68638">
        <ele>159.7</ele>
        <time>2025-05-10T15:42:56.000Z</time>
      </trkpt>
      <trkpt lat="48.61679" lon="-0.68639">
        <ele>159.7</ele>
        <time>2025-05-10T15:42:57.000Z</time>
      </trkpt>
      <trkpt lat="48.61684" lon="-0.6864">
        <ele>159.8</ele>
        <time>2025-05-10T15:42:58.000Z</time>
      </trkpt>
      <trkpt lat="48.6169" lon="-0.6864">
        <ele>159.9</ele>
        <time>2025-05-10T15:42:59.000Z</time>
      </trkpt>
      <trkpt lat="48.61695" lon="-0.68641">
        <ele>159.9</ele>
        <time>2025-05-10T15:43:00.000Z</time>
      </trkpt>
      <trkpt lat="48.617" lon="-0.6864">
        <ele>160</ele>
        <time>2025-05-10T15:43:01.000Z</time>
      </trkpt>
      <trkpt lat="48.61705" lon="-0.68639">
        <ele>160</ele>
        <time>2025-05-10T15:43:02.000Z</time>
      </trkpt>
      <trkpt lat="48.6171" lon="-0.68638">
        <ele>160.1</ele>
        <time>2025-05-10T15:43:03.000Z</time>
      </trkpt>
      <trkpt lat="48.61715" lon="-0.68636">
        <ele>160.2</ele>
        <time>2025-05-10T15:43:04.000Z</time>
      </trkpt>
      <trkpt lat="48.6172" lon="-0.68634">
        <ele>160.3</ele>
        <time>2025-05-10T15:43:05.000Z</time>
      </trkpt>
      <trkpt lat="48.61725" lon="-0.68631">
        <ele>160.3</ele>
        <time>2025-05-10T15:43:06.000Z</time>
      </trkpt>
      <trkpt lat="48.6173" lon="-0.68628">
        <ele>160.4</ele>
        <time>2025-05-10T15:43:07.000Z</time>
      </trkpt>
      <trkpt lat="48.61735" lon="-0.68625">
        <ele>160.5</ele>
        <time>2025-05-10T15:43:08.000Z</time>
      </trkpt>
      <trkpt lat="48.61739" lon="-0.68621">
        <ele>160.6</ele>
        <time>2025-05-10T15:43:09.000Z</time>
      </trkpt>
      <trkpt lat="48.61743" lon="-0.68617">
        <ele>160.7</ele>
        <time>2025-05-10T15:43:10.000Z</time>
      </trkpt>
      <trkpt lat="48.61748" lon="-0.68613">
        <ele>160.8</ele>
        <time>2025-05-10T15:43:11.000Z</time>
      </trkpt>
      <trkpt lat="48.61752" lon="-0.68609">
        <ele>160.9</ele>
        <time>2025-05-10T15:43:12.000Z</time>
      </trkpt>
      <trkpt lat="48.61756" lon="-0.68605">
        <ele>161</ele>
        <time>2025-05-10T15:43:13.000Z</time>
      </trkpt>
      <trkpt lat="48.6176" lon="-0.686">
        <ele>161</ele>
        <time>2025-05-10T15:43:14.000Z</time>
      </trkpt>
      <trkpt lat="48.61765" lon="-0.68596">
        <ele>161.1</ele>
        <time>2025-05-10T15:43:15.000Z</time>
      </trkpt>
      <trkpt lat="48.61769" lon="-0.68592">
        <ele>161.2</ele>
        <time>2025-05-10T15:43:16.000Z</time>
      </trkpt>
      <trkpt lat="48.61774" lon="-0.68587">
        <ele>161.3</ele>
        <time>2025-05-10T15:43:17.000Z</time>
      </trkpt>
      <trkpt lat="48.61779" lon="-0.68583">
        <ele>161.3</ele>
        <time>2025-05-10T15:43:18.000Z</time>
      </trkpt>
      <trkpt lat="48.61783" lon="-0.68579">
        <ele>161.4</ele>
        <time>2025-05-10T15:43:19.000Z</time>
      </trkpt>
      <trkpt lat="48.61789" lon="-0.68576">
        <ele>161.4</ele>
        <time>2025-05-10T15:43:20.000Z</time>
      </trkpt>
      <trkpt lat="48.61794" lon="-0.68572">
        <ele>161.4</ele>
        <time>2025-05-10T15:43:21.000Z</time>
      </trkpt>
      <trkpt lat="48.618" lon="-0.68569">
        <ele>161.5</ele>
        <time>2025-05-10T15:43:22.000Z</time>
      </trkpt>
      <trkpt lat="48.61806" lon="-0.68566">
        <ele>161.5</ele>
        <time>2025-05-10T15:43:23.000Z</time>
      </trkpt>
      <trkpt lat="48.61812" lon="-0.68563">
        <ele>161.5</ele>
        <time>2025-05-10T15:43:24.000Z</time>
      </trkpt>
      <trkpt lat="48.61819" lon="-0.68561">
        <ele>161.4</ele>
        <time>2025-05-10T15:43:25.000Z</time>
      </trkpt>
      <trkpt lat="48.61826" lon="-0.6856">
        <ele>161.4</ele>
        <time>2025-05-10T15:43:26.000Z</time>
      </trkpt>
      <trkpt lat="48.61833" lon="-0.6856">
        <ele>161.4</ele>
        <time>2025-05-10T15:43:27.000Z</time>
      </trkpt>
      <trkpt lat="48.6184" lon="-0.6856">
        <ele>161.3</ele>
        <time>2025-05-10T15:43:28.000Z</time>
      </trkpt>
      <trkpt lat="48.61848" lon="-0.68561">
        <ele>161.2</ele>
        <time>2025-05-10T15:43:29.000Z</time>
      </trkpt>
      <trkpt lat="48.61855" lon="-0.68562">
        <ele>161.2</ele>
        <time>2025-05-10T15:43:30.000Z</time>
      </trkpt>
      <trkpt lat="48.61862" lon="-0.68565">
        <ele>161.1</ele>
        <time>2025-05-10T15:43:31.000Z</time>
      </trkpt>
      <trkpt lat="48.6187" lon="-0.68569">
        <ele>160.9</ele>
        <time>2025-05-10T15:43:32.000Z</time>
      </trkpt>
      <trkpt lat="48.61877" lon="-0.68573">
        <ele>160.7</ele>
        <time>2025-05-10T15:43:33.000Z</time>
      </trkpt>
      <trkpt lat="48.61885" lon="-0.68578">
        <ele>160.5</ele>
        <time>2025-05-10T15:43:34.000Z</time>
      </trkpt>
      <trkpt lat="48.61892" lon="-0.68584">
        <ele>160.2</ele>
        <time>2025-05-10T15:43:35.000Z</time>
      </trkpt>
      <trkpt lat="48.61899" lon="-0.68591">
        <ele>159.8</ele>
        <time>2025-05-10T15:43:36.000Z</time>
      </trkpt>
      <trkpt lat="48.61905" lon="-0.68599">
        <ele>159.4</ele>
        <time>2025-05-10T15:43:37.000Z</time>
      </trkpt>
      <trkpt lat="48.61912" lon="-0.68607">
        <ele>158.9</ele>
        <time>2025-05-10T15:43:38.000Z</time>
      </trkpt>
      <trkpt lat="48.61918" lon="-0.68617">
        <ele>158.4</ele>
        <time>2025-05-10T15:43:39.000Z</time>
      </trkpt>
      <trkpt lat="48.61923" lon="-0.68627">
        <ele>157.9</ele>
        <time>2025-05-10T15:43:40.000Z</time>
      </trkpt>
      <trkpt lat="48.61928" lon="-0.68637">
        <ele>157.4</ele>
        <time>2025-05-10T15:43:41.000Z</time>
      </trkpt>
      <trkpt lat="48.61933" lon="-0.68648">
        <ele>156.8</ele>
        <time>2025-05-10T15:43:42.000Z</time>
      </trkpt>
      <trkpt lat="48.61938" lon="-0.6866">
        <ele>156.2</ele>
        <time>2025-05-10T15:43:43.000Z</time>
      </trkpt>
      <trkpt lat="48.61942" lon="-0.68672">
        <ele>155.7</ele>
        <time>2025-05-10T15:43:44.000Z</time>
      </trkpt>
      <trkpt lat="48.61945" lon="-0.68685">
        <ele>155.2</ele>
        <time>2025-05-10T15:43:45.000Z</time>
      </trkpt>
      <trkpt lat="48.61949" lon="-0.68697">
        <ele>154.7</ele>
        <time>2025-05-10T15:43:46.000Z</time>
      </trkpt>
      <trkpt lat="48.61952" lon="-0.68709">
        <ele>154.1</ele>
        <time>2025-05-10T15:43:47.000Z</time>
      </trkpt>
      <trkpt lat="48.61955" lon="-0.68722">
        <ele>153.5</ele>
        <time>2025-05-10T15:43:48.000Z</time>
      </trkpt>
      <trkpt lat="48.61958" lon="-0.68736">
        <ele>152.9</ele>
        <time>2025-05-10T15:43:49.000Z</time>
      </trkpt>
      <trkpt lat="48.61961" lon="-0.6875">
        <ele>152.4</ele>
        <time>2025-05-10T15:43:50.000Z</time>
      </trkpt>
      <trkpt lat="48.61964" lon="-0.68764">
        <ele>151.9</ele>
        <time>2025-05-10T15:43:51.000Z</time>
      </trkpt>
      <trkpt lat="48.61966" lon="-0.68778">
        <ele>151.3</ele>
        <time>2025-05-10T15:43:52.000Z</time>
      </trkpt>
      <trkpt lat="48.61968" lon="-0.68791">
        <ele>150.6</ele>
        <time>2025-05-10T15:43:53.000Z</time>
      </trkpt>
      <trkpt lat="48.6197" lon="-0.68804">
        <ele>150</ele>
        <time>2025-05-10T15:43:54.000Z</time>
      </trkpt>
      <trkpt lat="48.61972" lon="-0.68816">
        <ele>149.4</ele>
        <time>2025-05-10T15:43:55.000Z</time>
      </trkpt>
      <trkpt lat="48.61975" lon="-0.68826">
        <ele>148.9</ele>
        <time>2025-05-10T15:43:56.000Z</time>
      </trkpt>
      <trkpt lat="48.61977" lon="-0.68836">
        <ele>148.3</ele>
        <time>2025-05-10T15:43:57.000Z</time>
      </trkpt>
      <trkpt lat="48.61979" lon="-0.68845">
        <ele>147.7</ele>
        <time>2025-05-10T15:43:58.000Z</time>
      </trkpt>
      <trkpt lat="48.61982" lon="-0.68854">
        <ele>147.1</ele>
        <time>2025-05-10T15:43:59.000Z</time>
      </trkpt>
      <trkpt lat="48.61984" lon="-0.68862">
        <ele>146.7</ele>
        <time>2025-05-10T15:44:00.000Z</time>
      </trkpt>
      <trkpt lat="48.61986" lon="-0.6887">
        <ele>146.2</ele>
        <time>2025-05-10T15:44:01.000Z</time>
      </trkpt>
      <trkpt lat="48.61988" lon="-0.68876">
        <ele>145.8</ele>
        <time>2025-05-10T15:44:02.000Z</time>
      </trkpt>
      <trkpt lat="48.61992" lon="-0.68887">
        <ele>145</ele>
        <time>2025-05-10T15:44:04.000Z</time>
      </trkpt>
      <trkpt lat="48.61996" lon="-0.68897">
        <ele>144.4</ele>
        <time>2025-05-10T15:44:06.000Z</time>
      </trkpt>
      <trkpt lat="48.61999" lon="-0.68905">
        <ele>143.7</ele>
        <time>2025-05-10T15:44:08.000Z</time>
      </trkpt>
      <trkpt lat="48.62002" lon="-0.68913">
        <ele>143</ele>
        <time>2025-05-10T15:44:11.000Z</time>
      </trkpt>
      <trkpt lat="48.62" lon="-0.6892">
        <ele>142.2</ele>
        <time>2025-05-10T15:44:15.000Z</time>
      </trkpt>
      <trkpt lat="48.61996" lon="-0.68929">
        <ele>141.4</ele>
        <time>2025-05-10T15:44:19.000Z</time>
      </trkpt>
      <trkpt lat="48.61995" lon="-0.68933">
        <ele>140.2</ele>
        <time>2025-05-10T15:44:26.000Z</time>
      </trkpt>
      <trkpt lat="48.61994" lon="-0.68937">
        <ele>139.4</ele>
        <time>2025-05-10T15:44:35.000Z</time>
      </trkpt>
      <trkpt lat="48.61993" lon="-0.68941">
        <ele>139.1</ele>
        <time>2025-05-10T15:44:42.000Z</time>
      </trkpt>
      <trkpt lat="48.61993" lon="-0.68945">
        <ele>139</ele>
        <time>2025-05-10T15:44:48.000Z</time>
      </trkpt>
      <trkpt lat="48.61993" lon="-0.68946">
        <ele>139</ele>
        <time>2025-05-10T15:44:49.000Z</time>
      </trkpt>
      <trkpt lat="48.61992" lon="-0.68954">
        <ele>138.9</ele>
        <time>2025-05-10T15:44:55.000Z</time>
      </trkpt>
      <trkpt lat="48.61992" lon="-0.68955">
        <ele>138.9</ele>
        <time>2025-05-10T15:45:00.000Z</time>
      </trkpt>
      <trkpt lat="48.6199" lon="-0.68959">
        <ele>138.8</ele>
        <time>2025-05-10T15:45:06.000Z</time>
      </trkpt>
      <trkpt lat="48.61981" lon="-0.68966">
        <ele>138.7</ele>
        <time>2025-05-10T15:45:12.000Z</time>
      </trkpt>
      <trkpt lat="48.61977" lon="-0.68973">
        <ele>138.8</ele>
        <time>2025-05-10T15:45:15.000Z</time>
      </trkpt>
      <trkpt lat="48.61977" lon="-0.68981">
        <ele>138.8</ele>
        <time>2025-05-10T15:45:18.000Z</time>
      </trkpt>
      <trkpt lat="48.61977" lon="-0.68989">
        <ele>138.8</ele>
        <time>2025-05-10T15:45:20.000Z</time>
      </trkpt>
      <trkpt lat="48.61978" lon="-0.68997">
        <ele>138.8</ele>
        <time>2025-05-10T15:45:24.000Z</time>
      </trkpt>
      <trkpt lat="48.61981" lon="-0.69004">
        <ele>138.8</ele>
        <time>2025-05-10T15:45:27.000Z</time>
      </trkpt>
      <trkpt lat="48.61983" lon="-0.69011">
        <ele>138.8</ele>
        <time>2025-05-10T15:45:30.000Z</time>
      </trkpt>
      <trkpt lat="48.61985" lon="-0.69018">
        <ele>138.8</ele>
        <time>2025-05-10T15:45:32.000Z</time>
      </trkpt>
      <trkpt lat="48.61985" lon="-0.69026">
        <ele>138.8</ele>
        <time>2025-05-10T15:45:35.000Z</time>
      </trkpt>
      <trkpt lat="48.6198" lon="-0.69032">
        <ele>138.8</ele>
        <time>2025-05-10T15:45:39.000Z</time>
      </trkpt>
      <trkpt lat="48.61975" lon="-0.69035">
        <ele>138.8</ele>
        <time>2025-05-10T15:45:41.000Z</time>
      </trkpt>
      <trkpt lat="48.6197" lon="-0.6904">
        <ele>138.9</ele>
        <time>2025-05-10T15:45:44.000Z</time>
      </trkpt>
      <trkpt lat="48.61965" lon="-0.69045">
        <ele>138.9</ele>
        <time>2025-05-10T15:45:47.000Z</time>
      </trkpt>
      <trkpt lat="48.61966" lon="-0.69055">
        <ele>138.9</ele>
        <time>2025-05-10T15:45:50.000Z</time>
      </trkpt>
      <trkpt lat="48.61969" lon="-0.69063">
        <ele>138.9</ele>
        <time>2025-05-10T15:45:52.000Z</time>
      </trkpt>
      <trkpt lat="48.61972" lon="-0.69068">
        <ele>138.9</ele>
        <time>2025-05-10T15:45:54.000Z</time>
      </trkpt>
      <trkpt lat="48.61977" lon="-0.69072">
        <ele>138.9</ele>
        <time>2025-05-10T15:45:56.000Z</time>
      </trkpt>
      <trkpt lat="48.61982" lon="-0.69074">
        <ele>138.9</ele>
        <time>2025-05-10T15:45:58.000Z</time>
      </trkpt>
      <trkpt lat="48.61989" lon="-0.69075">
        <ele>138.9</ele>
        <time>2025-05-10T15:46:01.000Z</time>
      </trkpt>
      <trkpt lat="48.61995" lon="-0.69074">
        <ele>138.9</ele>
        <time>2025-05-10T15:46:03.000Z</time>
      </trkpt>
      <trkpt lat="48.62" lon="-0.69074">
        <ele>138.9</ele>
        <time>2025-05-10T15:46:06.000Z</time>
      </trkpt>
      <trkpt lat="48.62005" lon="-0.69074">
        <ele>138.9</ele>
        <time>2025-05-10T15:46:09.000Z</time>
      </trkpt>
      <trkpt lat="48.6201" lon="-0.69076">
        <ele>138.9</ele>
        <time>2025-05-10T15:46:13.000Z</time>
      </trkpt>
      <trkpt lat="48.62013" lon="-0.69082">
        <ele>138.9</ele>
        <time>2025-05-10T15:46:15.000Z</time>
      </trkpt>
      <trkpt lat="48.62017" lon="-0.69087">
        <ele>138.9</ele>
        <time>2025-05-10T15:46:17.000Z</time>
      </trkpt>
      <trkpt lat="48.62023" lon="-0.69091">
        <ele>138.9</ele>
        <time>2025-05-10T15:46:19.000Z</time>
      </trkpt>
      <trkpt lat="48.62027" lon="-0.69096">
        <ele>138.9</ele>
        <time>2025-05-10T15:46:21.000Z</time>
      </trkpt>
      <trkpt lat="48.62032" lon="-0.69101">
        <ele>138.9</ele>
        <time>2025-05-10T15:46:23.000Z</time>
      </trkpt>
      <trkpt lat="48.62035" lon="-0.69107">
        <ele>138.9</ele>
        <time>2025-05-10T15:46:25.000Z</time>
      </trkpt>
      <trkpt lat="48.62038" lon="-0.69113">
        <ele>138.9</ele>
        <time>2025-05-10T15:46:27.000Z</time>
      </trkpt>
      <trkpt lat="48.62041" lon="-0.69121">
        <ele>138.9</ele>
        <time>2025-05-10T15:46:29.000Z</time>
      </trkpt>
      <trkpt lat="48.62045" lon="-0.69127">
        <ele>138.9</ele>
        <time>2025-05-10T15:46:31.000Z</time>
      </trkpt>
      <trkpt lat="48.62051" lon="-0.6913">
        <ele>138.9</ele>
        <time>2025-05-10T15:46:33.000Z</time>
      </trkpt>
      <trkpt lat="48.62057" lon="-0.69135">
        <ele>138.9</ele>
        <time>2025-05-10T15:46:35.000Z</time>
      </trkpt>
      <trkpt lat="48.62063" lon="-0.69142">
        <ele>138.9</ele>
        <time>2025-05-10T15:46:37.000Z</time>
      </trkpt>
      <trkpt lat="48.62068" lon="-0.69149">
        <ele>138.9</ele>
        <time>2025-05-10T15:46:39.000Z</time>
      </trkpt>
      <trkpt lat="48.62073" lon="-0.69151">
        <ele>138.9</ele>
        <time>2025-05-10T15:46:41.000Z</time>
      </trkpt>
      <trkpt lat="48.62077" lon="-0.69155">
        <ele>138.9</ele>
        <time>2025-05-10T15:46:44.000Z</time>
      </trkpt>
      <trkpt lat="48.62082" lon="-0.69158">
        <ele>138.9</ele>
        <time>2025-05-10T15:46:46.000Z</time>
      </trkpt>
      <trkpt lat="48.62087" lon="-0.69163">
        <ele>138.9</ele>
        <time>2025-05-10T15:46:48.000Z</time>
      </trkpt>
      <trkpt lat="48.62092" lon="-0.69169">
        <ele>138.9</ele>
        <time>2025-05-10T15:46:50.000Z</time>
      </trkpt>
      <trkpt lat="48.62097" lon="-0.69174">
        <ele>138.9</ele>
        <time>2025-05-10T15:46:52.000Z</time>
      </trkpt>
      <trkpt lat="48.62101" lon="-0.69176">
        <ele>138.9</ele>
        <time>2025-05-10T15:46:54.000Z</time>
      </trkpt>
      <trkpt lat="48.62106" lon="-0.69169">
        <ele>138.9</ele>
        <time>2025-05-10T15:46:58.000Z</time>
      </trkpt>
      <trkpt lat="48.62112" lon="-0.69167">
        <ele>138.9</ele>
        <time>2025-05-10T15:47:01.000Z</time>
      </trkpt>
      <trkpt lat="48.62117" lon="-0.69165">
        <ele>138.9</ele>
        <time>2025-05-10T15:47:03.000Z</time>
      </trkpt>
      <trkpt lat="48.62123" lon="-0.69168">
        <ele>138.9</ele>
        <time>2025-05-10T15:47:07.000Z</time>
      </trkpt>
      <trkpt lat="48.62129" lon="-0.69168">
        <ele>138.9</ele>
        <time>2025-05-10T15:47:09.000Z</time>
      </trkpt>
      <trkpt lat="48.62135" lon="-0.6917">
        <ele>138.9</ele>
        <time>2025-05-10T15:47:11.000Z</time>
      </trkpt>
      <trkpt lat="48.62139" lon="-0.69175">
        <ele>138.9</ele>
        <time>2025-05-10T15:47:13.000Z</time>
      </trkpt>
      <trkpt lat="48.62144" lon="-0.69174">
        <ele>138.9</ele>
        <time>2025-05-10T15:47:15.000Z</time>
      </trkpt>
      <trkpt lat="48.6215" lon="-0.69173">
        <ele>138.9</ele>
        <time>2025-05-10T15:47:19.000Z</time>
      </trkpt>
      <trkpt lat="48.62155" lon="-0.69173">
        <ele>139</ele>
        <time>2025-05-10T15:47:27.000Z</time>
      </trkpt>
      <trkpt lat="48.62161" lon="-0.69173">
        <ele>139</ele>
        <time>2025-05-10T15:47:32.000Z</time>
      </trkpt>
      <trkpt lat="48.62165" lon="-0.69175">
        <ele>139</ele>
        <time>2025-05-10T15:47:34.000Z</time>
      </trkpt>
      <trkpt lat="48.62171" lon="-0.69178">
        <ele>139</ele>
        <time>2025-05-10T15:47:36.000Z</time>
      </trkpt>
      <trkpt lat="48.62174" lon="-0.69186">
        <ele>139</ele>
        <time>2025-05-10T15:47:39.000Z</time>
      </trkpt>
      <trkpt lat="48.62175" lon="-0.69193">
        <ele>139</ele>
        <time>2025-05-10T15:47:41.000Z</time>
      </trkpt>
      <trkpt lat="48.62176" lon="-0.692">
        <ele>139</ele>
        <time>2025-05-10T15:47:43.000Z</time>
      </trkpt>
      <trkpt lat="48.6218" lon="-0.69205">
        <ele>139</ele>
        <time>2025-05-10T15:47:46.000Z</time>
      </trkpt>
      <trkpt lat="48.62186" lon="-0.69209">
        <ele>139.1</ele>
        <time>2025-05-10T15:47:49.000Z</time>
      </trkpt>
      <trkpt lat="48.62192" lon="-0.69208">
        <ele>139.1</ele>
        <time>2025-05-10T15:47:51.000Z</time>
      </trkpt>
      <trkpt lat="48.62197" lon="-0.69206">
        <ele>139.1</ele>
        <time>2025-05-10T15:47:53.000Z</time>
      </trkpt>
      <trkpt lat="48.62202" lon="-0.69203">
        <ele>139.1</ele>
        <time>2025-05-10T15:47:55.000Z</time>
      </trkpt>
      <trkpt lat="48.62207" lon="-0.69203">
        <ele>139.1</ele>
        <time>2025-05-10T15:47:58.000Z</time>
      </trkpt>
      <trkpt lat="48.62212" lon="-0.69203">
        <ele>139.2</ele>
        <time>2025-05-10T15:48:00.000Z</time>
      </trkpt>
      <trkpt lat="48.62215" lon="-0.69198">
        <ele>139.2</ele>
        <time>2025-05-10T15:48:03.000Z</time>
      </trkpt>
      <trkpt lat="48.62219" lon="-0.6919">
        <ele>139.2</ele>
        <time>2025-05-10T15:48:06.000Z</time>
      </trkpt>
      <trkpt lat="48.62225" lon="-0.69188">
        <ele>139.2</ele>
        <time>2025-05-10T15:48:08.000Z</time>
      </trkpt>
      <trkpt lat="48.6223" lon="-0.69189">
        <ele>139.2</ele>
        <time>2025-05-10T15:48:11.000Z</time>
      </trkpt>
      <trkpt lat="48.62235" lon="-0.69185">
        <ele>139.2</ele>
        <time>2025-05-10T15:48:14.000Z</time>
      </trkpt>
      <trkpt lat="48.6224" lon="-0.69183">
        <ele>139.2</ele>
        <time>2025-05-10T15:48:17.000Z</time>
      </trkpt>
      <trkpt lat="48.62246" lon="-0.69181">
        <ele>139.2</ele>
        <time>2025-05-10T15:48:20.000Z</time>
      </trkpt>
      <trkpt lat="48.62252" lon="-0.69178">
        <ele>139.2</ele>
        <time>2025-05-10T15:48:22.000Z</time>
      </trkpt>
      <trkpt lat="48.62258" lon="-0.69172">
        <ele>139.2</ele>
        <time>2025-05-10T15:48:24.000Z</time>
      </trkpt>
      <trkpt lat="48.62265" lon="-0.6917">
        <ele>139.2</ele>
        <time>2025-05-10T15:48:26.000Z</time>
      </trkpt>
      <trkpt lat="48.62271" lon="-0.69168">
        <ele>139.2</ele>
        <time>2025-05-10T15:48:28.000Z</time>
      </trkpt>
      <trkpt lat="48.62276" lon="-0.6917">
        <ele>139.2</ele>
        <time>2025-05-10T15:48:31.000Z</time>
      </trkpt>
      <trkpt lat="48.62282" lon="-0.69172">
        <ele>139.2</ele>
        <time>2025-05-10T15:48:33.000Z</time>
      </trkpt>
      <trkpt lat="48.62288" lon="-0.69174">
        <ele>139.2</ele>
        <time>2025-05-10T15:48:35.000Z</time>
      </trkpt>
      <trkpt lat="48.62293" lon="-0.69178">
        <ele>139.2</ele>
        <time>2025-05-10T15:48:37.000Z</time>
      </trkpt>
      <trkpt lat="48.623" lon="-0.69182">
        <ele>139.2</ele>
        <time>2025-05-10T15:48:39.000Z</time>
      </trkpt>
      <trkpt lat="48.62307" lon="-0.69184">
        <ele>139.2</ele>
        <time>2025-05-10T15:48:42.000Z</time>
      </trkpt>
      <trkpt lat="48.62312" lon="-0.69183">
        <ele>139.2</ele>
        <time>2025-05-10T15:48:44.000Z</time>
      </trkpt>
      <trkpt lat="48.62317" lon="-0.69183">
        <ele>139.2</ele>
        <time>2025-05-10T15:48:47.000Z</time>
      </trkpt>
      <trkpt lat="48.62322" lon="-0.69183">
        <ele>139.3</ele>
        <time>2025-05-10T15:48:50.000Z</time>
      </trkpt>
      <trkpt lat="48.62327" lon="-0.6918">
        <ele>139.3</ele>
        <time>2025-05-10T15:48:52.000Z</time>
      </trkpt>
      <trkpt lat="48.62332" lon="-0.69178">
        <ele>139.3</ele>
        <time>2025-05-10T15:48:54.000Z</time>
      </trkpt>
      <trkpt lat="48.62338" lon="-0.69178">
        <ele>139.3</ele>
        <time>2025-05-10T15:48:57.000Z</time>
      </trkpt>
      <trkpt lat="48.62343" lon="-0.69179">
        <ele>139.3</ele>
        <time>2025-05-10T15:48:59.000Z</time>
      </trkpt>
      <trkpt lat="48.62348" lon="-0.69183">
        <ele>139.3</ele>
        <time>2025-05-10T15:49:01.000Z</time>
      </trkpt>
      <trkpt lat="48.62349" lon="-0.6919">
        <ele>139.3</ele>
        <time>2025-05-10T15:49:05.000Z</time>
      </trkpt>
      <trkpt lat="48.62351" lon="-0.69193">
        <ele>139.3</ele>
        <time>2025-05-10T15:49:10.000Z</time>
      </trkpt>
      <trkpt lat="48.62355" lon="-0.69197">
        <ele>139.3</ele>
        <time>2025-05-10T15:49:14.000Z</time>
      </trkpt>
      <trkpt lat="48.62362" lon="-0.69205">
        <ele>139.3</ele>
        <time>2025-05-10T15:49:22.000Z</time>
      </trkpt>
      <trkpt lat="48.62368" lon="-0.69206">
        <ele>139.3</ele>
        <time>2025-05-10T15:49:29.000Z</time>
      </trkpt>
      <trkpt lat="48.62373" lon="-0.69203">
        <ele>139.3</ele>
        <time>2025-05-10T15:49:31.000Z</time>
      </trkpt>
      <trkpt lat="48.62379" lon="-0.69203">
        <ele>139.3</ele>
        <time>2025-05-10T15:49:34.000Z</time>
      </trkpt>
      <trkpt lat="48.62383" lon="-0.69208">
        <ele>139.2</ele>
        <time>2025-05-10T15:49:36.000Z</time>
      </trkpt>
      <trkpt lat="48.62387" lon="-0.69213">
        <ele>139.2</ele>
        <time>2025-05-10T15:49:38.000Z</time>
      </trkpt>
      <trkpt lat="48.6239" lon="-0.69219">
        <ele>139.2</ele>
        <time>2025-05-10T15:49:40.000Z</time>
      </trkpt>
      <trkpt lat="48.62391" lon="-0.69226">
        <ele>139.2</ele>
        <time>2025-05-10T15:49:42.000Z</time>
      </trkpt>
      <trkpt lat="48.62394" lon="-0.69232">
        <ele>139.2</ele>
        <time>2025-05-10T15:49:44.000Z</time>
      </trkpt>
      <trkpt lat="48.62398" lon="-0.69238">
        <ele>139.2</ele>
        <time>2025-05-10T15:49:46.000Z</time>
      </trkpt>
      <trkpt lat="48.62399" lon="-0.69249">
        <ele>139.2</ele>
        <time>2025-05-10T15:49:49.000Z</time>
      </trkpt>
      <trkpt lat="48.62399" lon="-0.6926">
        <ele>139.2</ele>
        <time>2025-05-10T15:49:51.000Z</time>
      </trkpt>
      <trkpt lat="48.624" lon="-0.69269">
        <ele>139.2</ele>
        <time>2025-05-10T15:49:53.000Z</time>
      </trkpt>
      <trkpt lat="48.62404" lon="-0.69278">
        <ele>139.3</ele>
        <time>2025-05-10T15:49:55.000Z</time>
      </trkpt>
      <trkpt lat="48.6241" lon="-0.69285">
        <ele>139.3</ele>
        <time>2025-05-10T15:49:57.000Z</time>
      </trkpt>
      <trkpt lat="48.62416" lon="-0.69291">
        <ele>139.3</ele>
        <time>2025-05-10T15:49:59.000Z</time>
      </trkpt>
      <trkpt lat="48.62422" lon="-0.69295">
        <ele>139.3</ele>
        <time>2025-05-10T15:50:01.000Z</time>
      </trkpt>
      <trkpt lat="48.62428" lon="-0.69299">
        <ele>139.3</ele>
        <time>2025-05-10T15:50:03.000Z</time>
      </trkpt>
      <trkpt lat="48.62435" lon="-0.69303">
        <ele>139.3</ele>
        <time>2025-05-10T15:50:05.000Z</time>
      </trkpt>
      <trkpt lat="48.62441" lon="-0.69305">
        <ele>139.3</ele>
        <time>2025-05-10T15:50:07.000Z</time>
      </trkpt>
      <trkpt lat="48.62446" lon="-0.69308">
        <ele>139.3</ele>
        <time>2025-05-10T15:50:09.000Z</time>
      </trkpt>
      <trkpt lat="48.6245" lon="-0.69312">
        <ele>139.4</ele>
        <time>2025-05-10T15:50:11.000Z</time>
      </trkpt>
      <trkpt lat="48.62456" lon="-0.69315">
        <ele>139.4</ele>
        <time>2025-05-10T15:50:13.000Z</time>
      </trkpt>
      <trkpt lat="48.62462" lon="-0.69319">
        <ele>139.4</ele>
        <time>2025-05-10T15:50:16.000Z</time>
      </trkpt>
      <trkpt lat="48.62467" lon="-0.69323">
        <ele>139.4</ele>
        <time>2025-05-10T15:50:18.000Z</time>
      </trkpt>
      <trkpt lat="48.62468" lon="-0.69334">
        <ele>139.5</ele>
        <time>2025-05-10T15:50:28.000Z</time>
      </trkpt>
      <trkpt lat="48.62467" lon="-0.69336">
        <ele>139.6</ele>
        <time>2025-05-10T15:50:29.000Z</time>
      </trkpt>
      <trkpt lat="48.62464" lon="-0.69343">
        <ele>139.6</ele>
        <time>2025-05-10T15:50:32.000Z</time>
      </trkpt>
      <trkpt lat="48.62461" lon="-0.69351">
        <ele>139.7</ele>
        <time>2025-05-10T15:50:35.000Z</time>
      </trkpt>
      <trkpt lat="48.62457" lon="-0.6936">
        <ele>139.7</ele>
        <time>2025-05-10T15:50:37.000Z</time>
      </trkpt>
      <trkpt lat="48.62453" lon="-0.69369">
        <ele>139.8</ele>
        <time>2025-05-10T15:50:39.000Z</time>
      </trkpt>
      <trkpt lat="48.62448" lon="-0.69379">
        <ele>139.8</ele>
        <time>2025-05-10T15:50:41.000Z</time>
      </trkpt>
      <trkpt lat="48.62443" lon="-0.6939">
        <ele>139.8</ele>
        <time>2025-05-10T15:50:43.000Z</time>
      </trkpt>
      <trkpt lat="48.6244" lon="-0.69395">
        <ele>139.8</ele>
        <time>2025-05-10T15:50:44.000Z</time>
      </trkpt>
      <trkpt lat="48.62438" lon="-0.69401">
        <ele>139.9</ele>
        <time>2025-05-10T15:50:45.000Z</time>
      </trkpt>
      <trkpt lat="48.62436" lon="-0.69407">
        <ele>139.9</ele>
        <time>2025-05-10T15:50:46.000Z</time>
      </trkpt>
      <trkpt lat="48.62431" lon="-0.69418">
        <ele>139.9</ele>
        <time>2025-05-10T15:50:48.000Z</time>
      </trkpt>
      <trkpt lat="48.62428" lon="-0.69424">
        <ele>139.9</ele>
        <time>2025-05-10T15:50:49.000Z</time>
      </trkpt>
      <trkpt lat="48.62425" lon="-0.69431">
        <ele>139.9</ele>
        <time>2025-05-10T15:50:50.000Z</time>
      </trkpt>
      <trkpt lat="48.62422" lon="-0.69438">
        <ele>139.9</ele>
        <time>2025-05-10T15:50:51.000Z</time>
      </trkpt>
      <trkpt lat="48.62419" lon="-0.69445">
        <ele>140</ele>
        <time>2025-05-10T15:50:52.000Z</time>
      </trkpt>
      <trkpt lat="48.62416" lon="-0.69452">
        <ele>140</ele>
        <time>2025-05-10T15:50:53.000Z</time>
      </trkpt>
      <trkpt lat="48.62412" lon="-0.69459">
        <ele>140</ele>
        <time>2025-05-10T15:50:54.000Z</time>
      </trkpt>
      <trkpt lat="48.62409" lon="-0.69467">
        <ele>140</ele>
        <time>2025-05-10T15:50:55.000Z</time>
      </trkpt>
      <trkpt lat="48.62406" lon="-0.69474">
        <ele>140.1</ele>
        <time>2025-05-10T15:50:56.000Z</time>
      </trkpt>
      <trkpt lat="48.62403" lon="-0.69481">
        <ele>140.1</ele>
        <time>2025-05-10T15:50:57.000Z</time>
      </trkpt>
      <trkpt lat="48.62399" lon="-0.69488">
        <ele>140.1</ele>
        <time>2025-05-10T15:50:58.000Z</time>
      </trkpt>
      <trkpt lat="48.62396" lon="-0.69496">
        <ele>140.1</ele>
        <time>2025-05-10T15:50:59.000Z</time>
      </trkpt>
      <trkpt lat="48.62392" lon="-0.69503">
        <ele>140.1</ele>
        <time>2025-05-10T15:51:00.000Z</time>
      </trkpt>
      <trkpt lat="48.62389" lon="-0.6951">
        <ele>140.1</ele>
        <time>2025-05-10T15:51:01.000Z</time>
      </trkpt>
      <trkpt lat="48.62385" lon="-0.69517">
        <ele>140.2</ele>
        <time>2025-05-10T15:51:02.000Z</time>
      </trkpt>
      <trkpt lat="48.62381" lon="-0.69524">
        <ele>140.2</ele>
        <time>2025-05-10T15:51:03.000Z</time>
      </trkpt>
      <trkpt lat="48.62377" lon="-0.6953">
        <ele>140.2</ele>
        <time>2025-05-10T15:51:04.000Z</time>
      </trkpt>
      <trkpt lat="48.62372" lon="-0.69536">
        <ele>140.2</ele>
        <time>2025-05-10T15:51:05.000Z</time>
      </trkpt>
      <trkpt lat="48.62367" lon="-0.6954">
        <ele>140.2</ele>
        <time>2025-05-10T15:51:06.000Z</time>
      </trkpt>
      <trkpt lat="48.62362" lon="-0.69544">
        <ele>140.2</ele>
        <time>2025-05-10T15:51:07.000Z</time>
      </trkpt>
      <trkpt lat="48.62357" lon="-0.69547">
        <ele>140.2</ele>
        <time>2025-05-10T15:51:08.000Z</time>
      </trkpt>
      <trkpt lat="48.62351" lon="-0.69549">
        <ele>140.2</ele>
        <time>2025-05-10T15:51:09.000Z</time>
      </trkpt>
      <trkpt lat="48.62346" lon="-0.69551">
        <ele>140.2</ele>
        <time>2025-05-10T15:51:10.000Z</time>
      </trkpt>
      <trkpt lat="48.6234" lon="-0.69558">
        <ele>140.2</ele>
        <time>2025-05-10T15:51:12.000Z</time>
      </trkpt>
      <trkpt lat="48.6234" lon="-0.6957">
        <ele>140.2</ele>
        <time>2025-05-10T15:51:14.000Z</time>
      </trkpt>
      <trkpt lat="48.62343" lon="-0.69582">
        <ele>140.2</ele>
        <time>2025-05-10T15:51:16.000Z</time>
      </trkpt>
      <trkpt lat="48.62345" lon="-0.69589">
        <ele>140.2</ele>
        <time>2025-05-10T15:51:17.000Z</time>
      </trkpt>
      <trkpt lat="48.62347" lon="-0.69596">
        <ele>140.2</ele>
        <time>2025-05-10T15:51:18.000Z</time>
      </trkpt>
      <trkpt lat="48.62349" lon="-0.69604">
        <ele>140.2</ele>
        <time>2025-05-10T15:51:19.000Z</time>
      </trkpt>
      <trkpt lat="48.62351" lon="-0.69612">
        <ele>140.2</ele>
        <time>2025-05-10T15:51:20.000Z</time>
      </trkpt>
      <trkpt lat="48.62352" lon="-0.6962">
        <ele>140.2</ele>
        <time>2025-05-10T15:51:21.000Z</time>
      </trkpt>
      <trkpt lat="48.62353" lon="-0.69628">
        <ele>140.2</ele>
        <time>2025-05-10T15:51:22.000Z</time>
      </trkpt>
      <trkpt lat="48.62353" lon="-0.69637">
        <ele>140.2</ele>
        <time>2025-05-10T15:51:23.000Z</time>
      </trkpt>
      <trkpt lat="48.62352" lon="-0.69647">
        <ele>140.2</ele>
        <time>2025-05-10T15:51:24.000Z</time>
      </trkpt>
      <trkpt lat="48.62351" lon="-0.69655">
        <ele>140.2</ele>
        <time>2025-05-10T15:51:25.000Z</time>
      </trkpt>
      <trkpt lat="48.6235" lon="-0.69664">
        <ele>140.2</ele>
        <time>2025-05-10T15:51:26.000Z</time>
      </trkpt>
      <trkpt lat="48.62349" lon="-0.69673">
        <ele>140.2</ele>
        <time>2025-05-10T15:51:27.000Z</time>
      </trkpt>
      <trkpt lat="48.62348" lon="-0.69681">
        <ele>140.2</ele>
        <time>2025-05-10T15:51:28.000Z</time>
      </trkpt>
      <trkpt lat="48.62348" lon="-0.6969">
        <ele>140.2</ele>
        <time>2025-05-10T15:51:29.000Z</time>
      </trkpt>
      <trkpt lat="48.62348" lon="-0.69699">
        <ele>140.2</ele>
        <time>2025-05-10T15:51:30.000Z</time>
      </trkpt>
      <trkpt lat="48.62349" lon="-0.69708">
        <ele>140.2</ele>
        <time>2025-05-10T15:51:31.000Z</time>
      </trkpt>
      <trkpt lat="48.62349" lon="-0.69717">
        <ele>140.2</ele>
        <time>2025-05-10T15:51:32.000Z</time>
      </trkpt>
      <trkpt lat="48.62349" lon="-0.69726">
        <ele>140.2</ele>
        <time>2025-05-10T15:51:33.000Z</time>
      </trkpt>
      <trkpt lat="48.6235" lon="-0.69735">
        <ele>140.2</ele>
        <time>2025-05-10T15:51:34.000Z</time>
      </trkpt>
      <trkpt lat="48.6235" lon="-0.69744">
        <ele>140.2</ele>
        <time>2025-05-10T15:51:35.000Z</time>
      </trkpt>
      <trkpt lat="48.62349" lon="-0.69753">
        <ele>140.3</ele>
        <time>2025-05-10T15:51:36.000Z</time>
      </trkpt>
      <trkpt lat="48.62349" lon="-0.69762">
        <ele>140.3</ele>
        <time>2025-05-10T15:51:37.000Z</time>
      </trkpt>
      <trkpt lat="48.62348" lon="-0.6977">
        <ele>140.3</ele>
        <time>2025-05-10T15:51:38.000Z</time>
      </trkpt>
      <trkpt lat="48.62347" lon="-0.69779">
        <ele>140.3</ele>
        <time>2025-05-10T15:51:39.000Z</time>
      </trkpt>
      <trkpt lat="48.62346" lon="-0.69787">
        <ele>140.3</ele>
        <time>2025-05-10T15:51:40.000Z</time>
      </trkpt>
      <trkpt lat="48.62346" lon="-0.69795">
        <ele>140.3</ele>
        <time>2025-05-10T15:51:41.000Z</time>
      </trkpt>
      <trkpt lat="48.62345" lon="-0.69803">
        <ele>140.3</ele>
        <time>2025-05-10T15:51:42.000Z</time>
      </trkpt>
      <trkpt lat="48.62344" lon="-0.69811">
        <ele>140.4</ele>
        <time>2025-05-10T15:51:43.000Z</time>
      </trkpt>
      <trkpt lat="48.62343" lon="-0.69818">
        <ele>140.4</ele>
        <time>2025-05-10T15:51:44.000Z</time>
      </trkpt>
      <trkpt lat="48.62343" lon="-0.69825">
        <ele>140.4</ele>
        <time>2025-05-10T15:51:45.000Z</time>
      </trkpt>
      <trkpt lat="48.62342" lon="-0.69832">
        <ele>140.4</ele>
        <time>2025-05-10T15:51:46.000Z</time>
      </trkpt>
      <trkpt lat="48.62341" lon="-0.69839">
        <ele>140.5</ele>
        <time>2025-05-10T15:51:47.000Z</time>
      </trkpt>
      <trkpt lat="48.6234" lon="-0.69846">
        <ele>140.5</ele>
        <time>2025-05-10T15:51:48.000Z</time>
      </trkpt>
      <trkpt lat="48.6234" lon="-0.69853">
        <ele>140.6</ele>
        <time>2025-05-10T15:51:49.000Z</time>
      </trkpt>
      <trkpt lat="48.6234" lon="-0.6986">
        <ele>140.7</ele>
        <time>2025-05-10T15:51:50.000Z</time>
      </trkpt>
      <trkpt lat="48.6234" lon="-0.69868">
        <ele>140.7</ele>
        <time>2025-05-10T15:51:51.000Z</time>
      </trkpt>
      <trkpt lat="48.6234" lon="-0.69875">
        <ele>140.8</ele>
        <time>2025-05-10T15:51:52.000Z</time>
      </trkpt>
      <trkpt lat="48.6234" lon="-0.69882">
        <ele>140.9</ele>
        <time>2025-05-10T15:51:53.000Z</time>
      </trkpt>
      <trkpt lat="48.6234" lon="-0.69889">
        <ele>141.1</ele>
        <time>2025-05-10T15:51:54.000Z</time>
      </trkpt>
      <trkpt lat="48.62341" lon="-0.69896">
        <ele>141.2</ele>
        <time>2025-05-10T15:51:55.000Z</time>
      </trkpt>
      <trkpt lat="48.62342" lon="-0.69903">
        <ele>141.4</ele>
        <time>2025-05-10T15:51:56.000Z</time>
      </trkpt>
      <trkpt lat="48.62343" lon="-0.6991">
        <ele>141.6</ele>
        <time>2025-05-10T15:51:57.000Z</time>
      </trkpt>
      <trkpt lat="48.62345" lon="-0.69916">
        <ele>141.8</ele>
        <time>2025-05-10T15:51:58.000Z</time>
      </trkpt>
      <trkpt lat="48.62347" lon="-0.69923">
        <ele>142</ele>
        <time>2025-05-10T15:51:59.000Z</time>
      </trkpt>
      <trkpt lat="48.62349" lon="-0.6993">
        <ele>142.2</ele>
        <time>2025-05-10T15:52:00.000Z</time>
      </trkpt>
      <trkpt lat="48.62352" lon="-0.69937">
        <ele>142.5</ele>
        <time>2025-05-10T15:52:01.000Z</time>
      </trkpt>
      <trkpt lat="48.62353" lon="-0.69943">
        <ele>142.7</ele>
        <time>2025-05-10T15:52:02.000Z</time>
      </trkpt>
      <trkpt lat="48.62355" lon="-0.6995">
        <ele>143</ele>
        <time>2025-05-10T15:52:03.000Z</time>
      </trkpt>
      <trkpt lat="48.62357" lon="-0.69957">
        <ele>143.3</ele>
        <time>2025-05-10T15:52:04.000Z</time>
      </trkpt>
      <trkpt lat="48.62358" lon="-0.69963">
        <ele>143.6</ele>
        <time>2025-05-10T15:52:05.000Z</time>
      </trkpt>
      <trkpt lat="48.62362" lon="-0.69975">
        <ele>144.1</ele>
        <time>2025-05-10T15:52:07.000Z</time>
      </trkpt>
      <trkpt lat="48.62366" lon="-0.69986">
        <ele>144.6</ele>
        <time>2025-05-10T15:52:09.000Z</time>
      </trkpt>
      <trkpt lat="48.62372" lon="-0.6999">
        <ele>145.1</ele>
        <time>2025-05-10T15:52:11.000Z</time>
      </trkpt>
      <trkpt lat="48.62379" lon="-0.69986">
        <ele>145.7</ele>
        <time>2025-05-10T15:52:13.000Z</time>
      </trkpt>
      <trkpt lat="48.62387" lon="-0.69984">
        <ele>146.3</ele>
        <time>2025-05-10T15:52:15.000Z</time>
      </trkpt>
      <trkpt lat="48.62394" lon="-0.69986">
        <ele>146.9</ele>
        <time>2025-05-10T15:52:17.000Z</time>
      </trkpt>
      <trkpt lat="48.62402" lon="-0.69989">
        <ele>147.6</ele>
        <time>2025-05-10T15:52:19.000Z</time>
      </trkpt>
      <trkpt lat="48.6241" lon="-0.69991">
        <ele>148.3</ele>
        <time>2025-05-10T15:52:21.000Z</time>
      </trkpt>
      <trkpt lat="48.62418" lon="-0.69993">
        <ele>149</ele>
        <time>2025-05-10T15:52:23.000Z</time>
      </trkpt>
      <trkpt lat="48.62426" lon="-0.69996">
        <ele>149.6</ele>
        <time>2025-05-10T15:52:25.000Z</time>
      </trkpt>
      <trkpt lat="48.62434" lon="-0.69998">
        <ele>150.2</ele>
        <time>2025-05-10T15:52:27.000Z</time>
      </trkpt>
      <trkpt lat="48.62442" lon="-0.70001">
        <ele>150.7</ele>
        <time>2025-05-10T15:52:29.000Z</time>
      </trkpt>
      <trkpt lat="48.6245" lon="-0.70005">
        <ele>151.1</ele>
        <time>2025-05-10T15:52:31.000Z</time>
      </trkpt>
      <trkpt lat="48.62458" lon="-0.70008">
        <ele>151.5</ele>
        <time>2025-05-10T15:52:33.000Z</time>
      </trkpt>
      <trkpt lat="48.62465" lon="-0.70012">
        <ele>152</ele>
        <time>2025-05-10T15:52:35.000Z</time>
      </trkpt>
      <trkpt lat="48.62473" lon="-0.70015">
        <ele>152.4</ele>
        <time>2025-05-10T15:52:37.000Z</time>
      </trkpt>
      <trkpt lat="48.6248" lon="-0.70016">
        <ele>152.8</ele>
        <time>2025-05-10T15:52:39.000Z</time>
      </trkpt>
      <trkpt lat="48.62488" lon="-0.70019">
        <ele>153.3</ele>
        <time>2025-05-10T15:52:41.000Z</time>
      </trkpt>
      <trkpt lat="48.62496" lon="-0.7002">
        <ele>153.8</ele>
        <time>2025-05-10T15:52:43.000Z</time>
      </trkpt>
      <trkpt lat="48.62503" lon="-0.70023">
        <ele>154.2</ele>
        <time>2025-05-10T15:52:45.000Z</time>
      </trkpt>
      <trkpt lat="48.62507" lon="-0.70025">
        <ele>154.7</ele>
        <time>2025-05-10T15:52:47.000Z</time>
      </trkpt>
      <trkpt lat="48.62511" lon="-0.70033">
        <ele>156.2</ele>
        <time>2025-05-10T15:52:56.000Z</time>
      </trkpt>
      <trkpt lat="48.62511" lon="-0.70033">
        <ele>156.3</ele>
        <time>2025-05-10T15:52:57.000Z</time>
      </trkpt>
      <trkpt lat="48.6251" lon="-0.70036">
        <ele>156.8</ele>
        <time>2025-05-10T15:53:05.000Z</time>
      </trkpt>
      <trkpt lat="48.6251" lon="-0.70046">
        <ele>156.9</ele>
        <time>2025-05-10T15:53:08.000Z</time>
      </trkpt>
      <trkpt lat="48.62511" lon="-0.70055">
        <ele>157</ele>
        <time>2025-05-10T15:53:10.000Z</time>
      </trkpt>
      <trkpt lat="48.62511" lon="-0.70064">
        <ele>157.1</ele>
        <time>2025-05-10T15:53:12.000Z</time>
      </trkpt>
      <trkpt lat="48.62511" lon="-0.70074">
        <ele>157.3</ele>
        <time>2025-05-10T15:53:14.000Z</time>
      </trkpt>
      <trkpt lat="48.62512" lon="-0.70082">
        <ele>157.4</ele>
        <time>2025-05-10T15:53:16.000Z</time>
      </trkpt>
      <trkpt lat="48.62513" lon="-0.70093">
        <ele>157.7</ele>
        <time>2025-05-10T15:53:19.000Z</time>
      </trkpt>
      <trkpt lat="48.62513" lon="-0.70105">
        <ele>157.9</ele>
        <time>2025-05-10T15:53:21.000Z</time>
      </trkpt>
      <trkpt lat="48.62513" lon="-0.70117">
        <ele>158.1</ele>
        <time>2025-05-10T15:53:23.000Z</time>
      </trkpt>
      <trkpt lat="48.62511" lon="-0.70128">
        <ele>158.3</ele>
        <time>2025-05-10T15:53:25.000Z</time>
      </trkpt>
      <trkpt lat="48.62511" lon="-0.70141">
        <ele>158.4</ele>
        <time>2025-05-10T15:53:27.000Z</time>
      </trkpt>
      <trkpt lat="48.62511" lon="-0.70155">
        <ele>158.6</ele>
        <time>2025-05-10T15:53:29.000Z</time>
      </trkpt>
      <trkpt lat="48.62512" lon="-0.70167">
        <ele>158.8</ele>
        <time>2025-05-10T15:53:31.000Z</time>
      </trkpt>
      <trkpt lat="48.62513" lon="-0.70181">
        <ele>159.1</ele>
        <time>2025-05-10T15:53:33.000Z</time>
      </trkpt>
      <trkpt lat="48.62513" lon="-0.70194">
        <ele>159.3</ele>
        <time>2025-05-10T15:53:35.000Z</time>
      </trkpt>
      <trkpt lat="48.62514" lon="-0.70201">
        <ele>159.4</ele>
        <time>2025-05-10T15:53:36.000Z</time>
      </trkpt>
      <trkpt lat="48.62514" lon="-0.70208">
        <ele>159.5</ele>
        <time>2025-05-10T15:53:37.000Z</time>
      </trkpt>
      <trkpt lat="48.62514" lon="-0.70215">
        <ele>159.7</ele>
        <time>2025-05-10T15:53:38.000Z</time>
      </trkpt>
      <trkpt lat="48.62514" lon="-0.70228">
        <ele>159.8</ele>
        <time>2025-05-10T15:53:40.000Z</time>
      </trkpt>
      <trkpt lat="48.62514" lon="-0.70241">
        <ele>160.1</ele>
        <time>2025-05-10T15:53:42.000Z</time>
      </trkpt>
      <trkpt lat="48.62514" lon="-0.70254">
        <ele>160.2</ele>
        <time>2025-05-10T15:53:44.000Z</time>
      </trkpt>
      <trkpt lat="48.62514" lon="-0.70267">
        <ele>160.4</ele>
        <time>2025-05-10T15:53:46.000Z</time>
      </trkpt>
      <trkpt lat="48.62514" lon="-0.70279">
        <ele>160.6</ele>
        <time>2025-05-10T15:53:48.000Z</time>
      </trkpt>
      <trkpt lat="48.62514" lon="-0.70289">
        <ele>160.7</ele>
        <time>2025-05-10T15:53:50.000Z</time>
      </trkpt>
      <trkpt lat="48.62513" lon="-0.70296">
        <ele>160.9</ele>
        <time>2025-05-10T15:53:52.000Z</time>
      </trkpt>
      <trkpt lat="48.62511" lon="-0.70305">
        <ele>161</ele>
        <time>2025-05-10T15:53:54.000Z</time>
      </trkpt>
      <trkpt lat="48.62508" lon="-0.70313">
        <ele>161</ele>
        <time>2025-05-10T15:53:56.000Z</time>
      </trkpt>
      <trkpt lat="48.62504" lon="-0.7032">
        <ele>161.1</ele>
        <time>2025-05-10T15:53:59.000Z</time>
      </trkpt>
      <trkpt lat="48.62499" lon="-0.70325">
        <ele>161.1</ele>
        <time>2025-05-10T15:54:02.000Z</time>
      </trkpt>
      <trkpt lat="48.62497" lon="-0.70331">
        <ele>161.2</ele>
        <time>2025-05-10T15:54:05.000Z</time>
      </trkpt>
      <trkpt lat="48.62499" lon="-0.7034">
        <ele>161.3</ele>
        <time>2025-05-10T15:54:08.000Z</time>
      </trkpt>
      <trkpt lat="48.62497" lon="-0.70348">
        <ele>161.4</ele>
        <time>2025-05-10T15:54:10.000Z</time>
      </trkpt>
      <trkpt lat="48.62495" lon="-0.70357">
        <ele>161.6</ele>
        <time>2025-05-10T15:54:12.000Z</time>
      </trkpt>
      <trkpt lat="48.62493" lon="-0.70367">
        <ele>161.7</ele>
        <time>2025-05-10T15:54:14.000Z</time>
      </trkpt>
      <trkpt lat="48.62492" lon="-0.70378">
        <ele>162</ele>
        <time>2025-05-10T15:54:16.000Z</time>
      </trkpt>
      <trkpt lat="48.6249" lon="-0.7039">
        <ele>162.2</ele>
        <time>2025-05-10T15:54:18.000Z</time>
      </trkpt>
      <trkpt lat="48.62489" lon="-0.70403">
        <ele>162.5</ele>
        <time>2025-05-10T15:54:20.000Z</time>
      </trkpt>
      <trkpt lat="48.62489" lon="-0.70415">
        <ele>162.9</ele>
        <time>2025-05-10T15:54:22.000Z</time>
      </trkpt>
      <trkpt lat="48.62489" lon="-0.70428">
        <ele>163.3</ele>
        <time>2025-05-10T15:54:24.000Z</time>
      </trkpt>
      <trkpt lat="48.6249" lon="-0.70442">
        <ele>163.6</ele>
        <time>2025-05-10T15:54:26.000Z</time>
      </trkpt>
      <trkpt lat="48.62491" lon="-0.70449">
        <ele>163.8</ele>
        <time>2025-05-10T15:54:27.000Z</time>
      </trkpt>
      <trkpt lat="48.62491" lon="-0.70456">
        <ele>164</ele>
        <time>2025-05-10T15:54:28.000Z</time>
      </trkpt>
      <trkpt lat="48.62492" lon="-0.70463">
        <ele>164.1</ele>
        <time>2025-05-10T15:54:29.000Z</time>
      </trkpt>
      <trkpt lat="48.62492" lon="-0.7047">
        <ele>164.3</ele>
        <time>2025-05-10T15:54:30.000Z</time>
      </trkpt>
      <trkpt lat="48.62492" lon="-0.70477">
        <ele>164.5</ele>
        <time>2025-05-10T15:54:31.000Z</time>
      </trkpt>
      <trkpt lat="48.62492" lon="-0.70484">
        <ele>164.6</ele>
        <time>2025-05-10T15:54:32.000Z</time>
      </trkpt>
      <trkpt lat="48.62493" lon="-0.70491">
        <ele>164.8</ele>
        <time>2025-05-10T15:54:33.000Z</time>
      </trkpt>
      <trkpt lat="48.62492" lon="-0.70498">
        <ele>165</ele>
        <time>2025-05-10T15:54:34.000Z</time>
      </trkpt>
      <trkpt lat="48.62492" lon="-0.70505">
        <ele>165.2</ele>
        <time>2025-05-10T15:54:35.000Z</time>
      </trkpt>
      <trkpt lat="48.62492" lon="-0.70512">
        <ele>165.3</ele>
        <time>2025-05-10T15:54:36.000Z</time>
      </trkpt>
      <trkpt lat="48.62491" lon="-0.70519">
        <ele>165.5</ele>
        <time>2025-05-10T15:54:37.000Z</time>
      </trkpt>
      <trkpt lat="48.62491" lon="-0.70526">
        <ele>165.7</ele>
        <time>2025-05-10T15:54:38.000Z</time>
      </trkpt>
      <trkpt lat="48.62491" lon="-0.70533">
        <ele>165.9</ele>
        <time>2025-05-10T15:54:39.000Z</time>
      </trkpt>
      <trkpt lat="48.62491" lon="-0.7054">
        <ele>166.1</ele>
        <time>2025-05-10T15:54:40.000Z</time>
      </trkpt>
      <trkpt lat="48.62491" lon="-0.70547">
        <ele>166.3</ele>
        <time>2025-05-10T15:54:41.000Z</time>
      </trkpt>
      <trkpt lat="48.6249" lon="-0.70554">
        <ele>166.5</ele>
        <time>2025-05-10T15:54:42.000Z</time>
      </trkpt>
      <trkpt lat="48.6249" lon="-0.70561">
        <ele>166.7</ele>
        <time>2025-05-10T15:54:43.000Z</time>
      </trkpt>
      <trkpt lat="48.62489" lon="-0.70568">
        <ele>166.9</ele>
        <time>2025-05-10T15:54:44.000Z</time>
      </trkpt>
      <trkpt lat="48.62488" lon="-0.70575">
        <ele>167.1</ele>
        <time>2025-05-10T15:54:45.000Z</time>
      </trkpt>
      <trkpt lat="48.62488" lon="-0.70582">
        <ele>167.3</ele>
        <time>2025-05-10T15:54:46.000Z</time>
      </trkpt>
      <trkpt lat="48.62487" lon="-0.70589">
        <ele>167.5</ele>
        <time>2025-05-10T15:54:47.000Z</time>
      </trkpt>
      <trkpt lat="48.62487" lon="-0.70596">
        <ele>167.7</ele>
        <time>2025-05-10T15:54:48.000Z</time>
      </trkpt>
      <trkpt lat="48.62487" lon="-0.70603">
        <ele>167.9</ele>
        <time>2025-05-10T15:54:49.000Z</time>
      </trkpt>
      <trkpt lat="48.62486" lon="-0.70616">
        <ele>168.3</ele>
        <time>2025-05-10T15:54:51.000Z</time>
      </trkpt>
      <trkpt lat="48.62485" lon="-0.70623">
        <ele>168.6</ele>
        <time>2025-05-10T15:54:52.000Z</time>
      </trkpt>
      <trkpt lat="48.62484" lon="-0.70636">
        <ele>169.2</ele>
        <time>2025-05-10T15:54:54.000Z</time>
      </trkpt>
      <trkpt lat="48.62484" lon="-0.70643">
        <ele>169.5</ele>
        <time>2025-05-10T15:54:55.000Z</time>
      </trkpt>
      <trkpt lat="48.62483" lon="-0.7065">
        <ele>169.8</ele>
        <time>2025-05-10T15:54:56.000Z</time>
      </trkpt>
      <trkpt lat="48.62483" lon="-0.70657">
        <ele>170.1</ele>
        <time>2025-05-10T15:54:57.000Z</time>
      </trkpt>
      <trkpt lat="48.62482" lon="-0.70664">
        <ele>170.5</ele>
        <time>2025-05-10T15:54:58.000Z</time>
      </trkpt>
      <trkpt lat="48.62482" lon="-0.70671">
        <ele>170.9</ele>
        <time>2025-05-10T15:54:59.000Z</time>
      </trkpt>
      <trkpt lat="48.62481" lon="-0.70685">
        <ele>171.5</ele>
        <time>2025-05-10T15:55:01.000Z</time>
      </trkpt>
      <trkpt lat="48.62481" lon="-0.70691">
        <ele>171.9</ele>
        <time>2025-05-10T15:55:02.000Z</time>
      </trkpt>
      <trkpt lat="48.6248" lon="-0.70698">
        <ele>172.3</ele>
        <time>2025-05-10T15:55:03.000Z</time>
      </trkpt>
      <trkpt lat="48.6248" lon="-0.70705">
        <ele>172.7</ele>
        <time>2025-05-10T15:55:04.000Z</time>
      </trkpt>
      <trkpt lat="48.62479" lon="-0.70719">
        <ele>173.3</ele>
        <time>2025-05-10T15:55:06.000Z</time>
      </trkpt>
      <trkpt lat="48.62478" lon="-0.70733">
        <ele>174</ele>
        <time>2025-05-10T15:55:08.000Z</time>
      </trkpt>
      <trkpt lat="48.62477" lon="-0.7074">
        <ele>174.3</ele>
        <time>2025-05-10T15:55:09.000Z</time>
      </trkpt>
      <trkpt lat="48.62476" lon="-0.70747">
        <ele>174.6</ele>
        <time>2025-05-10T15:55:10.000Z</time>
      </trkpt>
      <trkpt lat="48.62476" lon="-0.70754">
        <ele>174.8</ele>
        <time>2025-05-10T15:55:11.000Z</time>
      </trkpt>
      <trkpt lat="48.62475" lon="-0.70761">
        <ele>175.1</ele>
        <time>2025-05-10T15:55:12.000Z</time>
      </trkpt>
      <trkpt lat="48.62474" lon="-0.70768">
        <ele>175.4</ele>
        <time>2025-05-10T15:55:13.000Z</time>
      </trkpt>
      <trkpt lat="48.62474" lon="-0.70775">
        <ele>175.7</ele>
        <time>2025-05-10T15:55:14.000Z</time>
      </trkpt>
      <trkpt lat="48.62473" lon="-0.70783">
        <ele>175.9</ele>
        <time>2025-05-10T15:55:15.000Z</time>
      </trkpt>
      <trkpt lat="48.62473" lon="-0.7079">
        <ele>176.2</ele>
        <time>2025-05-10T15:55:16.000Z</time>
      </trkpt>
      <trkpt lat="48.62472" lon="-0.70797">
        <ele>176.4</ele>
        <time>2025-05-10T15:55:17.000Z</time>
      </trkpt>
      <trkpt lat="48.62471" lon="-0.70803">
        <ele>176.7</ele>
        <time>2025-05-10T15:55:18.000Z</time>
      </trkpt>
      <trkpt lat="48.62471" lon="-0.7081">
        <ele>177</ele>
        <time>2025-05-10T15:55:19.000Z</time>
      </trkpt>
      <trkpt lat="48.62471" lon="-0.70817">
        <ele>177.3</ele>
        <time>2025-05-10T15:55:20.000Z</time>
      </trkpt>
      <trkpt lat="48.62471" lon="-0.70831">
        <ele>177.8</ele>
        <time>2025-05-10T15:55:22.000Z</time>
      </trkpt>
      <trkpt lat="48.62472" lon="-0.70844">
        <ele>178.4</ele>
        <time>2025-05-10T15:55:24.000Z</time>
      </trkpt>
      <trkpt lat="48.62474" lon="-0.70857">
        <ele>179</ele>
        <time>2025-05-10T15:55:26.000Z</time>
      </trkpt>
      <trkpt lat="48.62477" lon="-0.7087">
        <ele>179.8</ele>
        <time>2025-05-10T15:55:28.000Z</time>
      </trkpt>
      <trkpt lat="48.62479" lon="-0.70882">
        <ele>180.7</ele>
        <time>2025-05-10T15:55:30.000Z</time>
      </trkpt>
      <trkpt lat="48.62481" lon="-0.70893">
        <ele>181.6</ele>
        <time>2025-05-10T15:55:32.000Z</time>
      </trkpt>
      <trkpt lat="48.62483" lon="-0.70905">
        <ele>182.6</ele>
        <time>2025-05-10T15:55:34.000Z</time>
      </trkpt>
      <trkpt lat="48.62484" lon="-0.70917">
        <ele>183.4</ele>
        <time>2025-05-10T15:55:36.000Z</time>
      </trkpt>
      <trkpt lat="48.62485" lon="-0.70929">
        <ele>184.2</ele>
        <time>2025-05-10T15:55:38.000Z</time>
      </trkpt>
      <trkpt lat="48.62485" lon="-0.70941">
        <ele>184.9</ele>
        <time>2025-05-10T15:55:40.000Z</time>
      </trkpt>
      <trkpt lat="48.62485" lon="-0.70954">
        <ele>185.6</ele>
        <time>2025-05-10T15:55:42.000Z</time>
      </trkpt>
      <trkpt lat="48.62486" lon="-0.70968">
        <ele>186.4</ele>
        <time>2025-05-10T15:55:44.000Z</time>
      </trkpt>
      <trkpt lat="48.62485" lon="-0.7098">
        <ele>187</ele>
        <time>2025-05-10T15:55:46.000Z</time>
      </trkpt>
      <trkpt lat="48.62486" lon="-0.70993">
        <ele>187.5</ele>
        <time>2025-05-10T15:55:48.000Z</time>
      </trkpt>
      <trkpt lat="48.62486" lon="-0.71005">
        <ele>188</ele>
        <time>2025-05-10T15:55:50.000Z</time>
      </trkpt>
      <trkpt lat="48.62486" lon="-0.71017">
        <ele>188.4</ele>
        <time>2025-05-10T15:55:52.000Z</time>
      </trkpt>
      <trkpt lat="48.62486" lon="-0.7103">
        <ele>188.8</ele>
        <time>2025-05-10T15:55:54.000Z</time>
      </trkpt>
      <trkpt lat="48.62486" lon="-0.71042">
        <ele>189.2</ele>
        <time>2025-05-10T15:55:56.000Z</time>
      </trkpt>
      <trkpt lat="48.62486" lon="-0.71055">
        <ele>189.6</ele>
        <time>2025-05-10T15:55:58.000Z</time>
      </trkpt>
      <trkpt lat="48.62486" lon="-0.71067">
        <ele>189.9</ele>
        <time>2025-05-10T15:56:00.000Z</time>
      </trkpt>
      <trkpt lat="48.62486" lon="-0.7108">
        <ele>190.3</ele>
        <time>2025-05-10T15:56:02.000Z</time>
      </trkpt>
      <trkpt lat="48.62486" lon="-0.71092">
        <ele>190.7</ele>
        <time>2025-05-10T15:56:04.000Z</time>
      </trkpt>
      <trkpt lat="48.62486" lon="-0.71105">
        <ele>191</ele>
        <time>2025-05-10T15:56:06.000Z</time>
      </trkpt>
      <trkpt lat="48.62487" lon="-0.71118">
        <ele>191.4</ele>
        <time>2025-05-10T15:56:08.000Z</time>
      </trkpt>
      <trkpt lat="48.62487" lon="-0.71131">
        <ele>191.8</ele>
        <time>2025-05-10T15:56:10.000Z</time>
      </trkpt>
      <trkpt lat="48.62487" lon="-0.71143">
        <ele>192.1</ele>
        <time>2025-05-10T15:56:12.000Z</time>
      </trkpt>
      <trkpt lat="48.62488" lon="-0.71156">
        <ele>192.5</ele>
        <time>2025-05-10T15:56:14.000Z</time>
      </trkpt>
      <trkpt lat="48.62488" lon="-0.71169">
        <ele>192.8</ele>
        <time>2025-05-10T15:56:16.000Z</time>
      </trkpt>
      <trkpt lat="48.62489" lon="-0.71182">
        <ele>193.3</ele>
        <time>2025-05-10T15:56:18.000Z</time>
      </trkpt>
      <trkpt lat="48.6249" lon="-0.71194">
        <ele>193.6</ele>
        <time>2025-05-10T15:56:20.000Z</time>
      </trkpt>
      <trkpt lat="48.62492" lon="-0.71206">
        <ele>194</ele>
        <time>2025-05-10T15:56:22.000Z</time>
      </trkpt>
      <trkpt lat="48.62494" lon="-0.71219">
        <ele>194.3</ele>
        <time>2025-05-10T15:56:24.000Z</time>
      </trkpt>
      <trkpt lat="48.62496" lon="-0.71231">
        <ele>194.7</ele>
        <time>2025-05-10T15:56:26.000Z</time>
      </trkpt>
      <trkpt lat="48.62499" lon="-0.71243">
        <ele>195</ele>
        <time>2025-05-10T15:56:28.000Z</time>
      </trkpt>
      <trkpt lat="48.62502" lon="-0.71256">
        <ele>195.4</ele>
        <time>2025-05-10T15:56:30.000Z</time>
      </trkpt>
      <trkpt lat="48.62505" lon="-0.71268">
        <ele>195.7</ele>
        <time>2025-05-10T15:56:32.000Z</time>
      </trkpt>
      <trkpt lat="48.62508" lon="-0.71281">
        <ele>196</ele>
        <time>2025-05-10T15:56:34.000Z</time>
      </trkpt>
      <trkpt lat="48.62512" lon="-0.71293">
        <ele>196.2</ele>
        <time>2025-05-10T15:56:36.000Z</time>
      </trkpt>
      <trkpt lat="48.62515" lon="-0.71306">
        <ele>196.5</ele>
        <time>2025-05-10T15:56:38.000Z</time>
      </trkpt>
      <trkpt lat="48.62518" lon="-0.71318">
        <ele>196.6</ele>
        <time>2025-05-10T15:56:40.000Z</time>
      </trkpt>
      <trkpt lat="48.62521" lon="-0.7133">
        <ele>196.8</ele>
        <time>2025-05-10T15:56:42.000Z</time>
      </trkpt>
      <trkpt lat="48.62525" lon="-0.71342">
        <ele>197</ele>
        <time>2025-05-10T15:56:44.000Z</time>
      </trkpt>
      <trkpt lat="48.62529" lon="-0.71354">
        <ele>197.3</ele>
        <time>2025-05-10T15:56:46.000Z</time>
      </trkpt>
      <trkpt lat="48.62533" lon="-0.71364">
        <ele>197.5</ele>
        <time>2025-05-10T15:56:48.000Z</time>
      </trkpt>
      <trkpt lat="48.62537" lon="-0.71374">
        <ele>197.8</ele>
        <time>2025-05-10T15:56:50.000Z</time>
      </trkpt>
      <trkpt lat="48.62542" lon="-0.71383">
        <ele>198.2</ele>
        <time>2025-05-10T15:56:52.000Z</time>
      </trkpt>
      <trkpt lat="48.62546" lon="-0.71392">
        <ele>198.7</ele>
        <time>2025-05-10T15:56:54.000Z</time>
      </trkpt>
      <trkpt lat="48.62551" lon="-0.71401">
        <ele>199.1</ele>
        <time>2025-05-10T15:56:56.000Z</time>
      </trkpt>
      <trkpt lat="48.62556" lon="-0.7141">
        <ele>199.7</ele>
        <time>2025-05-10T15:56:58.000Z</time>
      </trkpt>
      <trkpt lat="48.6256" lon="-0.71419">
        <ele>200.2</ele>
        <time>2025-05-10T15:57:00.000Z</time>
      </trkpt>
      <trkpt lat="48.62564" lon="-0.71428">
        <ele>200.8</ele>
        <time>2025-05-10T15:57:02.000Z</time>
      </trkpt>
      <trkpt lat="48.62568" lon="-0.71436">
        <ele>201.4</ele>
        <time>2025-05-10T15:57:04.000Z</time>
      </trkpt>
      <trkpt lat="48.62572" lon="-0.71444">
        <ele>201.9</ele>
        <time>2025-05-10T15:57:06.000Z</time>
      </trkpt>
      <trkpt lat="48.62576" lon="-0.71452">
        <ele>202.6</ele>
        <time>2025-05-10T15:57:08.000Z</time>
      </trkpt>
      <trkpt lat="48.62579" lon="-0.71457">
        <ele>203.1</ele>
        <time>2025-05-10T15:57:10.000Z</time>
      </trkpt>
      <trkpt lat="48.62581" lon="-0.7146">
        <ele>204.6</ele>
        <time>2025-05-10T15:57:18.000Z</time>
      </trkpt>
      <trkpt lat="48.62581" lon="-0.7146">
        <ele>204.7</ele>
        <time>2025-05-10T15:57:19.000Z</time>
      </trkpt>
      <trkpt lat="48.62586" lon="-0.71463">
        <ele>205.2</ele>
        <time>2025-05-10T15:58:48.000Z</time>
      </trkpt>
      <trkpt lat="48.62588" lon="-0.71463">
        <ele>205.2</ele>
        <time>2025-05-10T15:58:49.000Z</time>
      </trkpt>
      <trkpt lat="48.62592" lon="-0.71461">
        <ele>205.2</ele>
        <time>2025-05-10T15:58:52.000Z</time>
      </trkpt>
      <trkpt lat="48.62598" lon="-0.71461">
        <ele>205.2</ele>
        <time>2025-05-10T15:58:54.000Z</time>
      </trkpt>
      <trkpt lat="48.62605" lon="-0.71459">
        <ele>205.2</ele>
        <time>2025-05-10T15:58:56.000Z</time>
      </trkpt>
      <trkpt lat="48.6261" lon="-0.71458">
        <ele>205.2</ele>
        <time>2025-05-10T15:58:58.000Z</time>
      </trkpt>
      <trkpt lat="48.62616" lon="-0.71455">
        <ele>205.2</ele>
        <time>2025-05-10T15:59:00.000Z</time>
      </trkpt>
      <trkpt lat="48.62621" lon="-0.71451">
        <ele>205.2</ele>
        <time>2025-05-10T15:59:02.000Z</time>
      </trkpt>
      <trkpt lat="48.62627" lon="-0.71446">
        <ele>205.1</ele>
        <time>2025-05-10T15:59:04.000Z</time>
      </trkpt>
      <trkpt lat="48.62634" lon="-0.71436">
        <ele>205</ele>
        <time>2025-05-10T15:59:06.000Z</time>
      </trkpt>
      <trkpt lat="48.62638" lon="-0.7143">
        <ele>205</ele>
        <time>2025-05-10T15:59:07.000Z</time>
      </trkpt>
      <trkpt lat="48.62642" lon="-0.71423">
        <ele>204.9</ele>
        <time>2025-05-10T15:59:08.000Z</time>
      </trkpt>
      <trkpt lat="48.62647" lon="-0.71416">
        <ele>204.8</ele>
        <time>2025-05-10T15:59:09.000Z</time>
      </trkpt>
      <trkpt lat="48.62653" lon="-0.71409">
        <ele>204.7</ele>
        <time>2025-05-10T15:59:10.000Z</time>
      </trkpt>
      <trkpt lat="48.62657" lon="-0.71403">
        <ele>204.6</ele>
        <time>2025-05-10T15:59:11.000Z</time>
      </trkpt>
      <trkpt lat="48.62665" lon="-0.71399">
        <ele>204.1</ele>
        <time>2025-05-10T15:59:13.000Z</time>
      </trkpt>
      <trkpt lat="48.62673" lon="-0.71401">
        <ele>203.6</ele>
        <time>2025-05-10T15:59:15.000Z</time>
      </trkpt>
      <trkpt lat="48.62679" lon="-0.71408">
        <ele>202.9</ele>
        <time>2025-05-10T15:59:17.000Z</time>
      </trkpt>
      <trkpt lat="48.62683" lon="-0.71415">
        <ele>202.3</ele>
        <time>2025-05-10T15:59:19.000Z</time>
      </trkpt>
      <trkpt lat="48.62687" lon="-0.71419">
        <ele>202.1</ele>
        <time>2025-05-10T15:59:20.000Z</time>
      </trkpt>
      <trkpt lat="48.62692" lon="-0.71424">
        <ele>201.8</ele>
        <time>2025-05-10T15:59:21.000Z</time>
      </trkpt>
      <trkpt lat="48.62696" lon="-0.7143">
        <ele>201.6</ele>
        <time>2025-05-10T15:59:22.000Z</time>
      </trkpt>
      <trkpt lat="48.627" lon="-0.71434">
        <ele>201.4</ele>
        <time>2025-05-10T15:59:23.000Z</time>
      </trkpt>
      <trkpt lat="48.62704" lon="-0.71439">
        <ele>201.3</ele>
        <time>2025-05-10T15:59:24.000Z</time>
      </trkpt>
      <trkpt lat="48.62708" lon="-0.71444">
        <ele>201.2</ele>
        <time>2025-05-10T15:59:25.000Z</time>
      </trkpt>
      <trkpt lat="48.62713" lon="-0.71454">
        <ele>200.9</ele>
        <time>2025-05-10T15:59:27.000Z</time>
      </trkpt>
      <trkpt lat="48.62716" lon="-0.7146">
        <ele>200.9</ele>
        <time>2025-05-10T15:59:28.000Z</time>
      </trkpt>
      <trkpt lat="48.62719" lon="-0.71466">
        <ele>200.8</ele>
        <time>2025-05-10T15:59:29.000Z</time>
      </trkpt>
      <trkpt lat="48.62723" lon="-0.71472">
        <ele>200.8</ele>
        <time>2025-05-10T15:59:30.000Z</time>
      </trkpt>
      <trkpt lat="48.62727" lon="-0.71477">
        <ele>200.7</ele>
        <time>2025-05-10T15:59:31.000Z</time>
      </trkpt>
      <trkpt lat="48.6273" lon="-0.71482">
        <ele>200.7</ele>
        <time>2025-05-10T15:59:32.000Z</time>
      </trkpt>
      <trkpt lat="48.62734" lon="-0.71487">
        <ele>200.7</ele>
        <time>2025-05-10T15:59:33.000Z</time>
      </trkpt>
      <trkpt lat="48.62739" lon="-0.7149">
        <ele>200.6</ele>
        <time>2025-05-10T15:59:34.000Z</time>
      </trkpt>
      <trkpt lat="48.62743" lon="-0.71492">
        <ele>200.6</ele>
        <time>2025-05-10T15:59:35.000Z</time>
      </trkpt>
      <trkpt lat="48.62749" lon="-0.71494">
        <ele>200.6</ele>
        <time>2025-05-10T15:59:36.000Z</time>
      </trkpt>
      <trkpt lat="48.62758" lon="-0.71495">
        <ele>200.4</ele>
        <time>2025-05-10T15:59:38.000Z</time>
      </trkpt>
      <trkpt lat="48.62764" lon="-0.71496">
        <ele>200.3</ele>
        <time>2025-05-10T15:59:39.000Z</time>
      </trkpt>
      <trkpt lat="48.62769" lon="-0.71497">
        <ele>200.1</ele>
        <time>2025-05-10T15:59:40.000Z</time>
      </trkpt>
      <trkpt lat="48.62775" lon="-0.71499">
        <ele>199.8</ele>
        <time>2025-05-10T15:59:42.000Z</time>
      </trkpt>
      <trkpt lat="48.6278" lon="-0.71501">
        <ele>199.5</ele>
        <time>2025-05-10T15:59:44.000Z</time>
      </trkpt>
      <trkpt lat="48.62786" lon="-0.71503">
        <ele>199.1</ele>
        <time>2025-05-10T15:59:47.000Z</time>
      </trkpt>
      <trkpt lat="48.62792" lon="-0.71505">
        <ele>198.7</ele>
        <time>2025-05-10T15:59:49.000Z</time>
      </trkpt>
      <trkpt lat="48.62796" lon="-0.71506">
        <ele>198.4</ele>
        <time>2025-05-10T15:59:51.000Z</time>
      </trkpt>
      <trkpt lat="48.62801" lon="-0.71508">
        <ele>198.1</ele>
        <time>2025-05-10T15:59:53.000Z</time>
      </trkpt>
      <trkpt lat="48.62808" lon="-0.71509">
        <ele>197.8</ele>
        <time>2025-05-10T15:59:55.000Z</time>
      </trkpt>
      <trkpt lat="48.62817" lon="-0.71508">
        <ele>197.5</ele>
        <time>2025-05-10T15:59:57.000Z</time>
      </trkpt>
      <trkpt lat="48.62825" lon="-0.71507">
        <ele>197</ele>
        <time>2025-05-10T15:59:59.000Z</time>
      </trkpt>
      <trkpt lat="48.62831" lon="-0.71505">
        <ele>196.7</ele>
        <time>2025-05-10T16:00:01.000Z</time>
      </trkpt>
      <trkpt lat="48.62836" lon="-0.71502">
        <ele>196.1</ele>
        <time>2025-05-10T16:00:03.000Z</time>
      </trkpt>
      <trkpt lat="48.62842" lon="-0.71498">
        <ele>195.7</ele>
        <time>2025-05-10T16:00:05.000Z</time>
      </trkpt>
      <trkpt lat="48.62847" lon="-0.71496">
        <ele>195.2</ele>
        <time>2025-05-10T16:00:07.000Z</time>
      </trkpt>
      <trkpt lat="48.62852" lon="-0.71493">
        <ele>194.7</ele>
        <time>2025-05-10T16:00:09.000Z</time>
      </trkpt>
      <trkpt lat="48.62859" lon="-0.71488">
        <ele>194.4</ele>
        <time>2025-05-10T16:00:11.000Z</time>
      </trkpt>
      <trkpt lat="48.62865" lon="-0.71483">
        <ele>194</ele>
        <time>2025-05-10T16:00:13.000Z</time>
      </trkpt>
      <trkpt lat="48.62871" lon="-0.71479">
        <ele>193.6</ele>
        <time>2025-05-10T16:00:15.000Z</time>
      </trkpt>
      <trkpt lat="48.62876" lon="-0.71475">
        <ele>193.3</ele>
        <time>2025-05-10T16:00:17.000Z</time>
      </trkpt>
      <trkpt lat="48.62881" lon="-0.71471">
        <ele>193</ele>
        <time>2025-05-10T16:00:19.000Z</time>
      </trkpt>
      <trkpt lat="48.62888" lon="-0.71465">
        <ele>192.7</ele>
        <time>2025-05-10T16:00:21.000Z</time>
      </trkpt>
      <trkpt lat="48.62894" lon="-0.71461">
        <ele>192.5</ele>
        <time>2025-05-10T16:00:23.000Z</time>
      </trkpt>
      <trkpt lat="48.629" lon="-0.71457">
        <ele>192.3</ele>
        <time>2025-05-10T16:00:25.000Z</time>
      </trkpt>
      <trkpt lat="48.62905" lon="-0.71454">
        <ele>192.1</ele>
        <time>2025-05-10T16:00:27.000Z</time>
      </trkpt>
      <trkpt lat="48.62911" lon="-0.7145">
        <ele>191.9</ele>
        <time>2025-05-10T16:00:29.000Z</time>
      </trkpt>
      <trkpt lat="48.62918" lon="-0.71445">
        <ele>191.7</ele>
        <time>2025-05-10T16:00:31.000Z</time>
      </trkpt>
      <trkpt lat="48.62925" lon="-0.71441">
        <ele>191.6</ele>
        <time>2025-05-10T16:00:33.000Z</time>
      </trkpt>
      <trkpt lat="48.62933" lon="-0.71437">
        <ele>191.5</ele>
        <time>2025-05-10T16:00:35.000Z</time>
      </trkpt>
      <trkpt lat="48.6294" lon="-0.71434">
        <ele>191.3</ele>
        <time>2025-05-10T16:00:37.000Z</time>
      </trkpt>
      <trkpt lat="48.62946" lon="-0.71431">
        <ele>191.1</ele>
        <time>2025-05-10T16:00:39.000Z</time>
      </trkpt>
      <trkpt lat="48.62949" lon="-0.7143">
        <ele>190.1</ele>
        <time>2025-05-10T16:00:48.000Z</time>
      </trkpt>
      <trkpt lat="48.6295" lon="-0.7143">
        <ele>189.9</ele>
        <time>2025-05-10T16:00:49.000Z</time>
      </trkpt>
      <trkpt lat="48.6295" lon="-0.7143">
        <ele>189.7</ele>
        <time>2025-05-10T16:00:50.000Z</time>
      </trkpt>
      <trkpt lat="48.62952" lon="-0.71428">
        <ele>189.6</ele>
        <time>2025-05-10T16:01:05.000Z</time>
      </trkpt>
      <trkpt lat="48.62953" lon="-0.71428">
        <ele>189.6</ele>
        <time>2025-05-10T16:01:06.000Z</time>
      </trkpt>
      <trkpt lat="48.62953" lon="-0.71428">
        <ele>189.6</ele>
        <time>2025-05-10T16:01:07.000Z</time>
      </trkpt>
      <trkpt lat="48.62956" lon="-0.71426">
        <ele>189.5</ele>
        <time>2025-05-10T16:01:13.000Z</time>
      </trkpt>
      <trkpt lat="48.62956" lon="-0.71426">
        <ele>189.5</ele>
        <time>2025-05-10T16:01:14.000Z</time>
      </trkpt>
      <trkpt lat="48.62956" lon="-0.71425">
        <ele>189.4</ele>
        <time>2025-05-10T16:01:23.000Z</time>
      </trkpt>
      <trkpt lat="48.62957" lon="-0.71425">
        <ele>189.4</ele>
        <time>2025-05-10T16:01:24.000Z</time>
      </trkpt>
      <trkpt lat="48.62962" lon="-0.71424">
        <ele>189.4</ele>
        <time>2025-05-10T16:01:28.000Z</time>
      </trkpt>
      <trkpt lat="48.62967" lon="-0.7142">
        <ele>189.4</ele>
        <time>2025-05-10T16:01:31.000Z</time>
      </trkpt>
      <trkpt lat="48.62974" lon="-0.71417">
        <ele>189.4</ele>
        <time>2025-05-10T16:01:33.000Z</time>
      </trkpt>
      <trkpt lat="48.62981" lon="-0.71414">
        <ele>189.4</ele>
        <time>2025-05-10T16:01:35.000Z</time>
      </trkpt>
      <trkpt lat="48.62987" lon="-0.7141">
        <ele>189.4</ele>
        <time>2025-05-10T16:01:37.000Z</time>
      </trkpt>
      <trkpt lat="48.62993" lon="-0.71406">
        <ele>189.4</ele>
        <time>2025-05-10T16:01:39.000Z</time>
      </trkpt>
      <trkpt lat="48.63001" lon="-0.71399">
        <ele>189.5</ele>
        <time>2025-05-10T16:01:41.000Z</time>
      </trkpt>
      <trkpt lat="48.63005" lon="-0.71396">
        <ele>189.5</ele>
        <time>2025-05-10T16:01:42.000Z</time>
      </trkpt>
      <trkpt lat="48.63009" lon="-0.71393">
        <ele>189.5</ele>
        <time>2025-05-10T16:01:43.000Z</time>
      </trkpt>
      <trkpt lat="48.63017" lon="-0.71386">
        <ele>189.5</ele>
        <time>2025-05-10T16:01:45.000Z</time>
      </trkpt>
      <trkpt lat="48.63025" lon="-0.71381">
        <ele>189.6</ele>
        <time>2025-05-10T16:01:47.000Z</time>
      </trkpt>
      <trkpt lat="48.63032" lon="-0.71375">
        <ele>189.6</ele>
        <time>2025-05-10T16:01:49.000Z</time>
      </trkpt>
      <trkpt lat="48.63037" lon="-0.71372">
        <ele>189.7</ele>
        <time>2025-05-10T16:01:50.000Z</time>
      </trkpt>
      <trkpt lat="48.63041" lon="-0.71369">
        <ele>189.7</ele>
        <time>2025-05-10T16:01:51.000Z</time>
      </trkpt>
      <trkpt lat="48.63045" lon="-0.71366">
        <ele>189.8</ele>
        <time>2025-05-10T16:01:52.000Z</time>
      </trkpt>
      <trkpt lat="48.63049" lon="-0.71363">
        <ele>189.8</ele>
        <time>2025-05-10T16:01:53.000Z</time>
      </trkpt>
      <trkpt lat="48.63054" lon="-0.71359">
        <ele>189.9</ele>
        <time>2025-05-10T16:01:54.000Z</time>
      </trkpt>
      <trkpt lat="48.63058" lon="-0.71355">
        <ele>190</ele>
        <time>2025-05-10T16:01:55.000Z</time>
      </trkpt>
      <trkpt lat="48.63062" lon="-0.71352">
        <ele>190</ele>
        <time>2025-05-10T16:01:56.000Z</time>
      </trkpt>
      <trkpt lat="48.63067" lon="-0.7135">
        <ele>190.1</ele>
        <time>2025-05-10T16:01:57.000Z</time>
      </trkpt>
      <trkpt lat="48.63071" lon="-0.71351">
        <ele>190.1</ele>
        <time>2025-05-10T16:01:58.000Z</time>
      </trkpt>
      <trkpt lat="48.63078" lon="-0.71358">
        <ele>190.2</ele>
        <time>2025-05-10T16:02:00.000Z</time>
      </trkpt>
      <trkpt lat="48.63082" lon="-0.71365">
        <ele>190.4</ele>
        <time>2025-05-10T16:02:02.000Z</time>
      </trkpt>
      <trkpt lat="48.63086" lon="-0.71374">
        <ele>190.5</ele>
        <time>2025-05-10T16:02:04.000Z</time>
      </trkpt>
      <trkpt lat="48.63089" lon="-0.71384">
        <ele>190.6</ele>
        <time>2025-05-10T16:02:06.000Z</time>
      </trkpt>
      <trkpt lat="48.63092" lon="-0.71395">
        <ele>190.7</ele>
        <time>2025-05-10T16:02:08.000Z</time>
      </trkpt>
      <trkpt lat="48.63095" lon="-0.71404">
        <ele>190.8</ele>
        <time>2025-05-10T16:02:10.000Z</time>
      </trkpt>
      <trkpt lat="48.63097" lon="-0.71415">
        <ele>191</ele>
        <time>2025-05-10T16:02:12.000Z</time>
      </trkpt>
      <trkpt lat="48.631" lon="-0.71426">
        <ele>191.2</ele>
        <time>2025-05-10T16:02:14.000Z</time>
      </trkpt>
      <trkpt lat="48.63101" lon="-0.71436">
        <ele>191.5</ele>
        <time>2025-05-10T16:02:16.000Z</time>
      </trkpt>
      <trkpt lat="48.63102" lon="-0.71448">
        <ele>191.9</ele>
        <time>2025-05-10T16:02:18.000Z</time>
      </trkpt>
      <trkpt lat="48.63103" lon="-0.71459">
        <ele>192.2</ele>
        <time>2025-05-10T16:02:20.000Z</time>
      </trkpt>
      <trkpt lat="48.63103" lon="-0.7147">
        <ele>192.7</ele>
        <time>2025-05-10T16:02:22.000Z</time>
      </trkpt>
      <trkpt lat="48.63103" lon="-0.71482">
        <ele>193.1</ele>
        <time>2025-05-10T16:02:24.000Z</time>
      </trkpt>
      <trkpt lat="48.63104" lon="-0.71494">
        <ele>193.6</ele>
        <time>2025-05-10T16:02:26.000Z</time>
      </trkpt>
      <trkpt lat="48.63106" lon="-0.71504">
        <ele>194</ele>
        <time>2025-05-10T16:02:28.000Z</time>
      </trkpt>
      <trkpt lat="48.63109" lon="-0.71514">
        <ele>194.4</ele>
        <time>2025-05-10T16:02:30.000Z</time>
      </trkpt>
      <trkpt lat="48.63111" lon="-0.71527">
        <ele>194.8</ele>
        <time>2025-05-10T16:02:32.000Z</time>
      </trkpt>
      <trkpt lat="48.63112" lon="-0.71533">
        <ele>195</ele>
        <time>2025-05-10T16:02:33.000Z</time>
      </trkpt>
      <trkpt lat="48.63113" lon="-0.7154">
        <ele>195.2</ele>
        <time>2025-05-10T16:02:34.000Z</time>
      </trkpt>
      <trkpt lat="48.63116" lon="-0.71552">
        <ele>195.5</ele>
        <time>2025-05-10T16:02:36.000Z</time>
      </trkpt>
      <trkpt lat="48.63118" lon="-0.71562">
        <ele>195.7</ele>
        <time>2025-05-10T16:02:38.000Z</time>
      </trkpt>
      <trkpt lat="48.63121" lon="-0.71574">
        <ele>195.9</ele>
        <time>2025-05-10T16:02:40.000Z</time>
      </trkpt>
      <trkpt lat="48.63123" lon="-0.71587">
        <ele>195.9</ele>
        <time>2025-05-10T16:02:42.000Z</time>
      </trkpt>
      <trkpt lat="48.63124" lon="-0.71594">
        <ele>195.9</ele>
        <time>2025-05-10T16:02:43.000Z</time>
      </trkpt>
      <trkpt lat="48.63125" lon="-0.71601">
        <ele>195.9</ele>
        <time>2025-05-10T16:02:44.000Z</time>
      </trkpt>
      <trkpt lat="48.63126" lon="-0.71608">
        <ele>195.9</ele>
        <time>2025-05-10T16:02:45.000Z</time>
      </trkpt>
      <trkpt lat="48.63126" lon="-0.71615">
        <ele>195.9</ele>
        <time>2025-05-10T16:02:46.000Z</time>
      </trkpt>
      <trkpt lat="48.63127" lon="-0.71622">
        <ele>195.9</ele>
        <time>2025-05-10T16:02:47.000Z</time>
      </trkpt>
      <trkpt lat="48.63128" lon="-0.71629">
        <ele>196</ele>
        <time>2025-05-10T16:02:48.000Z</time>
      </trkpt>
      <trkpt lat="48.63129" lon="-0.71636">
        <ele>196</ele>
        <time>2025-05-10T16:02:49.000Z</time>
      </trkpt>
      <trkpt lat="48.6313" lon="-0.71643">
        <ele>196</ele>
        <time>2025-05-10T16:02:50.000Z</time>
      </trkpt>
      <trkpt lat="48.6313" lon="-0.7165">
        <ele>196</ele>
        <time>2025-05-10T16:02:51.000Z</time>
      </trkpt>
      <trkpt lat="48.63131" lon="-0.71657">
        <ele>196</ele>
        <time>2025-05-10T16:02:52.000Z</time>
      </trkpt>
      <trkpt lat="48.63133" lon="-0.7167">
        <ele>196.1</ele>
        <time>2025-05-10T16:02:54.000Z</time>
      </trkpt>
      <trkpt lat="48.63134" lon="-0.71682">
        <ele>196.2</ele>
        <time>2025-05-10T16:02:56.000Z</time>
      </trkpt>
      <trkpt lat="48.63135" lon="-0.71693">
        <ele>196.4</ele>
        <time>2025-05-10T16:02:58.000Z</time>
      </trkpt>
      <trkpt lat="48.63135" lon="-0.71705">
        <ele>196.6</ele>
        <time>2025-05-10T16:03:00.000Z</time>
      </trkpt>
      <trkpt lat="48.63136" lon="-0.71718">
        <ele>196.8</ele>
        <time>2025-05-10T16:03:02.000Z</time>
      </trkpt>
      <trkpt lat="48.63136" lon="-0.71729">
        <ele>197.1</ele>
        <time>2025-05-10T16:03:04.000Z</time>
      </trkpt>
      <trkpt lat="48.63136" lon="-0.7174">
        <ele>197.5</ele>
        <time>2025-05-10T16:03:06.000Z</time>
      </trkpt>
      <trkpt lat="48.63137" lon="-0.71752">
        <ele>198</ele>
        <time>2025-05-10T16:03:08.000Z</time>
      </trkpt>
      <trkpt lat="48.63138" lon="-0.71763">
        <ele>198.5</ele>
        <time>2025-05-10T16:03:10.000Z</time>
      </trkpt>
      <trkpt lat="48.63138" lon="-0.71774">
        <ele>199</ele>
        <time>2025-05-10T16:03:12.000Z</time>
      </trkpt>
      <trkpt lat="48.63138" lon="-0.71786">
        <ele>199.6</ele>
        <time>2025-05-10T16:03:14.000Z</time>
      </trkpt>
      <trkpt lat="48.63138" lon="-0.71797">
        <ele>200.2</ele>
        <time>2025-05-10T16:03:16.000Z</time>
      </trkpt>
      <trkpt lat="48.63137" lon="-0.71808">
        <ele>200.8</ele>
        <time>2025-05-10T16:03:18.000Z</time>
      </trkpt>
      <trkpt lat="48.63137" lon="-0.71819">
        <ele>201.4</ele>
        <time>2025-05-10T16:03:20.000Z</time>
      </trkpt>
      <trkpt lat="48.63136" lon="-0.71829">
        <ele>202</ele>
        <time>2025-05-10T16:03:22.000Z</time>
      </trkpt>
      <trkpt lat="48.63136" lon="-0.7184">
        <ele>202.5</ele>
        <time>2025-05-10T16:03:24.000Z</time>
      </trkpt>
      <trkpt lat="48.63136" lon="-0.7185">
        <ele>203</ele>
        <time>2025-05-10T16:03:26.000Z</time>
      </trkpt>
      <trkpt lat="48.63138" lon="-0.7186">
        <ele>203.5</ele>
        <time>2025-05-10T16:03:28.000Z</time>
      </trkpt>
      <trkpt lat="48.6314" lon="-0.7187">
        <ele>203.9</ele>
        <time>2025-05-10T16:03:30.000Z</time>
      </trkpt>
      <trkpt lat="48.63142" lon="-0.71879">
        <ele>204.3</ele>
        <time>2025-05-10T16:03:32.000Z</time>
      </trkpt>
      <trkpt lat="48.63145" lon="-0.71885">
        <ele>204.6</ele>
        <time>2025-05-10T16:03:34.000Z</time>
      </trkpt>
      <trkpt lat="48.63148" lon="-0.71891">
        <ele>204.9</ele>
        <time>2025-05-10T16:03:37.000Z</time>
      </trkpt>
      <trkpt lat="48.63149" lon="-0.71896">
        <ele>205.1</ele>
        <time>2025-05-10T16:03:43.000Z</time>
      </trkpt>
      <trkpt lat="48.63149" lon="-0.71896">
        <ele>205.2</ele>
        <time>2025-05-10T16:03:44.000Z</time>
      </trkpt>
      <trkpt lat="48.63151" lon="-0.71899">
        <ele>205.3</ele>
        <time>2025-05-10T16:04:03.000Z</time>
      </trkpt>
      <trkpt lat="48.63153" lon="-0.71901">
        <ele>205.3</ele>
        <time>2025-05-10T16:04:04.000Z</time>
      </trkpt>
      <trkpt lat="48.63156" lon="-0.71907">
        <ele>205.3</ele>
        <time>2025-05-10T16:04:06.000Z</time>
      </trkpt>
      <trkpt lat="48.63161" lon="-0.71918">
        <ele>205.2</ele>
        <time>2025-05-10T16:04:08.000Z</time>
      </trkpt>
      <trkpt lat="48.63163" lon="-0.71924">
        <ele>205.1</ele>
        <time>2025-05-10T16:04:09.000Z</time>
      </trkpt>
      <trkpt lat="48.63166" lon="-0.7193">
        <ele>205</ele>
        <time>2025-05-10T16:04:10.000Z</time>
      </trkpt>
      <trkpt lat="48.63169" lon="-0.71937">
        <ele>205</ele>
        <time>2025-05-10T16:04:11.000Z</time>
      </trkpt>
      <trkpt lat="48.63172" lon="-0.71944">
        <ele>204.9</ele>
        <time>2025-05-10T16:04:12.000Z</time>
      </trkpt>
      <trkpt lat="48.63176" lon="-0.71949">
        <ele>204.7</ele>
        <time>2025-05-10T16:04:13.000Z</time>
      </trkpt>
      <trkpt lat="48.63181" lon="-0.71953">
        <ele>204.6</ele>
        <time>2025-05-10T16:04:14.000Z</time>
      </trkpt>
      <trkpt lat="48.63185" lon="-0.71954">
        <ele>204.4</ele>
        <time>2025-05-10T16:04:15.000Z</time>
      </trkpt>
      <trkpt lat="48.63193" lon="-0.71952">
        <ele>204</ele>
        <time>2025-05-10T16:04:17.000Z</time>
      </trkpt>
      <trkpt lat="48.63198" lon="-0.7195">
        <ele>203.6</ele>
        <time>2025-05-10T16:04:19.000Z</time>
      </trkpt>
      <trkpt lat="48.63205" lon="-0.71947">
        <ele>203.1</ele>
        <time>2025-05-10T16:04:21.000Z</time>
      </trkpt>
      <trkpt lat="48.63212" lon="-0.71944">
        <ele>202.6</ele>
        <time>2025-05-10T16:04:23.000Z</time>
      </trkpt>
      <trkpt lat="48.63217" lon="-0.71943">
        <ele>202.3</ele>
        <time>2025-05-10T16:04:25.000Z</time>
      </trkpt>
      <trkpt lat="48.63221" lon="-0.71941">
        <ele>201.8</ele>
        <time>2025-05-10T16:04:28.000Z</time>
      </trkpt>
      <trkpt lat="48.63227" lon="-0.71941">
        <ele>201.5</ele>
        <time>2025-05-10T16:04:31.000Z</time>
      </trkpt>
      <trkpt lat="48.63231" lon="-0.71939">
        <ele>201.3</ele>
        <time>2025-05-10T16:04:33.000Z</time>
      </trkpt>
      <trkpt lat="48.63238" lon="-0.71936">
        <ele>201.1</ele>
        <time>2025-05-10T16:04:35.000Z</time>
      </trkpt>
      <trkpt lat="48.63243" lon="-0.71933">
        <ele>200.9</ele>
        <time>2025-05-10T16:04:37.000Z</time>
      </trkpt>
      <trkpt lat="48.63249" lon="-0.7193">
        <ele>200.8</ele>
        <time>2025-05-10T16:04:39.000Z</time>
      </trkpt>
      <trkpt lat="48.63256" lon="-0.71926">
        <ele>200.6</ele>
        <time>2025-05-10T16:04:41.000Z</time>
      </trkpt>
      <trkpt lat="48.63263" lon="-0.71925">
        <ele>200.4</ele>
        <time>2025-05-10T16:04:43.000Z</time>
      </trkpt>
      <trkpt lat="48.63268" lon="-0.71925">
        <ele>200.3</ele>
        <time>2025-05-10T16:04:45.000Z</time>
      </trkpt>
      <trkpt lat="48.63275" lon="-0.71925">
        <ele>200.2</ele>
        <time>2025-05-10T16:04:47.000Z</time>
      </trkpt>
      <trkpt lat="48.63284" lon="-0.71927">
        <ele>200.1</ele>
        <time>2025-05-10T16:04:49.000Z</time>
      </trkpt>
      <trkpt lat="48.63292" lon="-0.71928">
        <ele>200</ele>
        <time>2025-05-10T16:04:51.000Z</time>
      </trkpt>
      <trkpt lat="48.63302" lon="-0.71927">
        <ele>199.9</ele>
        <time>2025-05-10T16:04:53.000Z</time>
      </trkpt>
      <trkpt lat="48.63306" lon="-0.71926">
        <ele>199.9</ele>
        <time>2025-05-10T16:04:54.000Z</time>
      </trkpt>
      <trkpt lat="48.63314" lon="-0.71924">
        <ele>199.8</ele>
        <time>2025-05-10T16:04:56.000Z</time>
      </trkpt>
      <trkpt lat="48.63322" lon="-0.71923">
        <ele>199.7</ele>
        <time>2025-05-10T16:04:58.000Z</time>
      </trkpt>
      <trkpt lat="48.6333" lon="-0.71921">
        <ele>199.6</ele>
        <time>2025-05-10T16:05:00.000Z</time>
      </trkpt>
      <trkpt lat="48.63337" lon="-0.71918">
        <ele>199.5</ele>
        <time>2025-05-10T16:05:02.000Z</time>
      </trkpt>
      <trkpt lat="48.63345" lon="-0.71915">
        <ele>199.4</ele>
        <time>2025-05-10T16:05:04.000Z</time>
      </trkpt>
      <trkpt lat="48.63351" lon="-0.71912">
        <ele>199.3</ele>
        <time>2025-05-10T16:05:06.000Z</time>
      </trkpt>
      <trkpt lat="48.63355" lon="-0.71907">
        <ele>199.2</ele>
        <time>2025-05-10T16:05:08.000Z</time>
      </trkpt>
      <trkpt lat="48.63359" lon="-0.71899">
        <ele>199.1</ele>
        <time>2025-05-10T16:05:10.000Z</time>
      </trkpt>
      <trkpt lat="48.63364" lon="-0.71889">
        <ele>199</ele>
        <time>2025-05-10T16:05:12.000Z</time>
      </trkpt>
      <trkpt lat="48.63369" lon="-0.7188">
        <ele>198.8</ele>
        <time>2025-05-10T16:05:14.000Z</time>
      </trkpt>
      <trkpt lat="48.63375" lon="-0.71874">
        <ele>198.6</ele>
        <time>2025-05-10T16:05:17.000Z</time>
      </trkpt>
      <trkpt lat="48.63379" lon="-0.71867">
        <ele>198.5</ele>
        <time>2025-05-10T16:05:21.000Z</time>
      </trkpt>
      <trkpt lat="48.63387" lon="-0.71862">
        <ele>198.4</ele>
        <time>2025-05-10T16:05:23.000Z</time>
      </trkpt>
      <trkpt lat="48.63393" lon="-0.7186">
        <ele>198.4</ele>
        <time>2025-05-10T16:05:25.000Z</time>
      </trkpt>
      <trkpt lat="48.634" lon="-0.71857">
        <ele>198.3</ele>
        <time>2025-05-10T16:05:27.000Z</time>
      </trkpt>
      <trkpt lat="48.63407" lon="-0.71854">
        <ele>198.4</ele>
        <time>2025-05-10T16:05:29.000Z</time>
      </trkpt>
      <trkpt lat="48.63415" lon="-0.7185">
        <ele>198.4</ele>
        <time>2025-05-10T16:05:31.000Z</time>
      </trkpt>
      <trkpt lat="48.63422" lon="-0.71845">
        <ele>198.5</ele>
        <time>2025-05-10T16:05:33.000Z</time>
      </trkpt>
      <trkpt lat="48.6343" lon="-0.7184">
        <ele>198.5</ele>
        <time>2025-05-10T16:05:35.000Z</time>
      </trkpt>
      <trkpt lat="48.63438" lon="-0.71835">
        <ele>198.6</ele>
        <time>2025-05-10T16:05:37.000Z</time>
      </trkpt>
      <trkpt lat="48.63445" lon="-0.7183">
        <ele>198.8</ele>
        <time>2025-05-10T16:05:39.000Z</time>
      </trkpt>
      <trkpt lat="48.63452" lon="-0.71824">
        <ele>198.9</ele>
        <time>2025-05-10T16:05:41.000Z</time>
      </trkpt>
      <trkpt lat="48.6346" lon="-0.7182">
        <ele>199.1</ele>
        <time>2025-05-10T16:05:43.000Z</time>
      </trkpt>
      <trkpt lat="48.63468" lon="-0.71817">
        <ele>199.3</ele>
        <time>2025-05-10T16:05:45.000Z</time>
      </trkpt>
      <trkpt lat="48.63476" lon="-0.71813">
        <ele>199.5</ele>
        <time>2025-05-10T16:05:47.000Z</time>
      </trkpt>
      <trkpt lat="48.63484" lon="-0.71809">
        <ele>199.7</ele>
        <time>2025-05-10T16:05:49.000Z</time>
      </trkpt>
      <trkpt lat="48.6349" lon="-0.71804">
        <ele>200</ele>
        <time>2025-05-10T16:05:51.000Z</time>
      </trkpt>
      <trkpt lat="48.63497" lon="-0.71799">
        <ele>200.2</ele>
        <time>2025-05-10T16:05:53.000Z</time>
      </trkpt>
      <trkpt lat="48.63504" lon="-0.71794">
        <ele>200.4</ele>
        <time>2025-05-10T16:05:55.000Z</time>
      </trkpt>
      <trkpt lat="48.63512" lon="-0.7179">
        <ele>200.6</ele>
        <time>2025-05-10T16:05:57.000Z</time>
      </trkpt>
      <trkpt lat="48.6352" lon="-0.71785">
        <ele>200.9</ele>
        <time>2025-05-10T16:05:59.000Z</time>
      </trkpt>
      <trkpt lat="48.63527" lon="-0.71781">
        <ele>201.2</ele>
        <time>2025-05-10T16:06:01.000Z</time>
      </trkpt>
      <trkpt lat="48.63535" lon="-0.71775">
        <ele>201.4</ele>
        <time>2025-05-10T16:06:03.000Z</time>
      </trkpt>
      <trkpt lat="48.63539" lon="-0.71773">
        <ele>201.6</ele>
        <time>2025-05-10T16:06:04.000Z</time>
      </trkpt>
      <trkpt lat="48.63543" lon="-0.7177">
        <ele>201.7</ele>
        <time>2025-05-10T16:06:05.000Z</time>
      </trkpt>
      <trkpt lat="48.63547" lon="-0.71766">
        <ele>201.8</ele>
        <time>2025-05-10T16:06:06.000Z</time>
      </trkpt>
      <trkpt lat="48.63551" lon="-0.71763">
        <ele>201.9</ele>
        <time>2025-05-10T16:06:07.000Z</time>
      </trkpt>
      <trkpt lat="48.63559" lon="-0.71757">
        <ele>202.1</ele>
        <time>2025-05-10T16:06:09.000Z</time>
      </trkpt>
      <trkpt lat="48.63563" lon="-0.71755">
        <ele>202.2</ele>
        <time>2025-05-10T16:06:10.000Z</time>
      </trkpt>
      <trkpt lat="48.63568" lon="-0.71752">
        <ele>202.3</ele>
        <time>2025-05-10T16:06:11.000Z</time>
      </trkpt>
      <trkpt lat="48.63575" lon="-0.71745">
        <ele>202.4</ele>
        <time>2025-05-10T16:06:13.000Z</time>
      </trkpt>
      <trkpt lat="48.63581" lon="-0.71739">
        <ele>202.5</ele>
        <time>2025-05-10T16:06:15.000Z</time>
      </trkpt>
      <trkpt lat="48.63587" lon="-0.71731">
        <ele>202.6</ele>
        <time>2025-05-10T16:06:17.000Z</time>
      </trkpt>
      <trkpt lat="48.63593" lon="-0.71721">
        <ele>202.6</ele>
        <time>2025-05-10T16:06:19.000Z</time>
      </trkpt>
      <trkpt lat="48.63596" lon="-0.71717">
        <ele>202.6</ele>
        <time>2025-05-10T16:06:20.000Z</time>
      </trkpt>
      <trkpt lat="48.636" lon="-0.71712">
        <ele>202.5</ele>
        <time>2025-05-10T16:06:21.000Z</time>
      </trkpt>
      <trkpt lat="48.63603" lon="-0.71706">
        <ele>202.5</ele>
        <time>2025-05-10T16:06:22.000Z</time>
      </trkpt>
      <trkpt lat="48.63609" lon="-0.71699">
        <ele>202.3</ele>
        <time>2025-05-10T16:06:24.000Z</time>
      </trkpt>
      <trkpt lat="48.63614" lon="-0.71696">
        <ele>201.9</ele>
        <time>2025-05-10T16:06:28.000Z</time>
      </trkpt>
      <trkpt lat="48.6362" lon="-0.71696">
        <ele>201.6</ele>
        <time>2025-05-10T16:06:31.000Z</time>
      </trkpt>
      <trkpt lat="48.63627" lon="-0.71699">
        <ele>201.3</ele>
        <time>2025-05-10T16:06:34.000Z</time>
      </trkpt>
      <trkpt lat="48.63632" lon="-0.71699">
        <ele>201</ele>
        <time>2025-05-10T16:06:37.000Z</time>
      </trkpt>
      <trkpt lat="48.63638" lon="-0.71699">
        <ele>201</ele>
        <time>2025-05-10T16:06:39.000Z</time>
      </trkpt>
      <trkpt lat="48.63645" lon="-0.71698">
        <ele>201</ele>
        <time>2025-05-10T16:06:41.000Z</time>
      </trkpt>
      <trkpt lat="48.63652" lon="-0.71696">
        <ele>201</ele>
        <time>2025-05-10T16:06:43.000Z</time>
      </trkpt>
      <trkpt lat="48.63657" lon="-0.71696">
        <ele>201.1</ele>
        <time>2025-05-10T16:06:45.000Z</time>
      </trkpt>
      <trkpt lat="48.63662" lon="-0.71695">
        <ele>201.1</ele>
        <time>2025-05-10T16:06:47.000Z</time>
      </trkpt>
      <trkpt lat="48.63668" lon="-0.71693">
        <ele>201.3</ele>
        <time>2025-05-10T16:06:49.000Z</time>
      </trkpt>
      <trkpt lat="48.63674" lon="-0.71688">
        <ele>201.7</ele>
        <time>2025-05-10T16:06:52.000Z</time>
      </trkpt>
      <trkpt lat="48.6368" lon="-0.71685">
        <ele>202.2</ele>
        <time>2025-05-10T16:06:54.000Z</time>
      </trkpt>
      <trkpt lat="48.63686" lon="-0.71682">
        <ele>202.8</ele>
        <time>2025-05-10T16:06:56.000Z</time>
      </trkpt>
      <trkpt lat="48.63691" lon="-0.71678">
        <ele>203.5</ele>
        <time>2025-05-10T16:06:58.000Z</time>
      </trkpt>
      <trkpt lat="48.63698" lon="-0.71673">
        <ele>204.3</ele>
        <time>2025-05-10T16:07:00.000Z</time>
      </trkpt>
      <trkpt lat="48.63705" lon="-0.71668">
        <ele>205</ele>
        <time>2025-05-10T16:07:02.000Z</time>
      </trkpt>
      <trkpt lat="48.63711" lon="-0.71663">
        <ele>205.7</ele>
        <time>2025-05-10T16:07:04.000Z</time>
      </trkpt>
      <trkpt lat="48.63717" lon="-0.71657">
        <ele>206.3</ele>
        <time>2025-05-10T16:07:06.000Z</time>
      </trkpt>
      <trkpt lat="48.63721" lon="-0.71653">
        <ele>206.5</ele>
        <time>2025-05-10T16:07:07.000Z</time>
      </trkpt>
      <trkpt lat="48.63725" lon="-0.7165">
        <ele>206.8</ele>
        <time>2025-05-10T16:07:08.000Z</time>
      </trkpt>
      <trkpt lat="48.63733" lon="-0.71642">
        <ele>207.2</ele>
        <time>2025-05-10T16:07:10.000Z</time>
      </trkpt>
      <trkpt lat="48.63741" lon="-0.71636">
        <ele>207.5</ele>
        <time>2025-05-10T16:07:12.000Z</time>
      </trkpt>
      <trkpt lat="48.63749" lon="-0.7163">
        <ele>207.9</ele>
        <time>2025-05-10T16:07:14.000Z</time>
      </trkpt>
      <trkpt lat="48.63753" lon="-0.71627">
        <ele>208</ele>
        <time>2025-05-10T16:07:15.000Z</time>
      </trkpt>
      <trkpt lat="48.63757" lon="-0.71623">
        <ele>208.1</ele>
        <time>2025-05-10T16:07:16.000Z</time>
      </trkpt>
      <trkpt lat="48.63762" lon="-0.7162">
        <ele>208.2</ele>
        <time>2025-05-10T16:07:17.000Z</time>
      </trkpt>
      <trkpt lat="48.63766" lon="-0.71617">
        <ele>208.3</ele>
        <time>2025-05-10T16:07:18.000Z</time>
      </trkpt>
      <trkpt lat="48.6377" lon="-0.71614">
        <ele>208.4</ele>
        <time>2025-05-10T16:07:19.000Z</time>
      </trkpt>
      <trkpt lat="48.63775" lon="-0.71611">
        <ele>208.4</ele>
        <time>2025-05-10T16:07:20.000Z</time>
      </trkpt>
      <trkpt lat="48.6378" lon="-0.71609">
        <ele>208.5</ele>
        <time>2025-05-10T16:07:21.000Z</time>
      </trkpt>
      <trkpt lat="48.63785" lon="-0.71606">
        <ele>208.5</ele>
        <time>2025-05-10T16:07:22.000Z</time>
      </trkpt>
      <trkpt lat="48.6379" lon="-0.71604">
        <ele>208.5</ele>
        <time>2025-05-10T16:07:23.000Z</time>
      </trkpt>
      <trkpt lat="48.63794" lon="-0.71601">
        <ele>208.5</ele>
        <time>2025-05-10T16:07:24.000Z</time>
      </trkpt>
      <trkpt lat="48.63799" lon="-0.71599">
        <ele>208.4</ele>
        <time>2025-05-10T16:07:25.000Z</time>
      </trkpt>
      <trkpt lat="48.63804" lon="-0.71596">
        <ele>208.4</ele>
        <time>2025-05-10T16:07:26.000Z</time>
      </trkpt>
      <trkpt lat="48.6381" lon="-0.71594">
        <ele>208.4</ele>
        <time>2025-05-10T16:07:27.000Z</time>
      </trkpt>
      <trkpt lat="48.63816" lon="-0.71593">
        <ele>208.3</ele>
        <time>2025-05-10T16:07:28.000Z</time>
      </trkpt>
      <trkpt lat="48.63822" lon="-0.71592">
        <ele>208.3</ele>
        <time>2025-05-10T16:07:29.000Z</time>
      </trkpt>
      <trkpt lat="48.63828" lon="-0.71592">
        <ele>208.2</ele>
        <time>2025-05-10T16:07:30.000Z</time>
      </trkpt>
      <trkpt lat="48.63834" lon="-0.71591">
        <ele>208.1</ele>
        <time>2025-05-10T16:07:31.000Z</time>
      </trkpt>
      <trkpt lat="48.63839" lon="-0.71592">
        <ele>208</ele>
        <time>2025-05-10T16:07:32.000Z</time>
      </trkpt>
      <trkpt lat="48.63846" lon="-0.71595">
        <ele>207.6</ele>
        <time>2025-05-10T16:07:34.000Z</time>
      </trkpt>
      <trkpt lat="48.63851" lon="-0.716">
        <ele>207.2</ele>
        <time>2025-05-10T16:07:36.000Z</time>
      </trkpt>
      <trkpt lat="48.63857" lon="-0.71603">
        <ele>206.1</ele>
        <time>2025-05-10T16:07:39.000Z</time>
      </trkpt>
      <trkpt lat="48.63861" lon="-0.71604">
        <ele>205.3</ele>
        <time>2025-05-10T16:07:41.000Z</time>
      </trkpt>
      <trkpt lat="48.63867" lon="-0.71607">
        <ele>204.2</ele>
        <time>2025-05-10T16:07:43.000Z</time>
      </trkpt>
      <trkpt lat="48.63871" lon="-0.71611">
        <ele>203.2</ele>
        <time>2025-05-10T16:07:45.000Z</time>
      </trkpt>
      <trkpt lat="48.63876" lon="-0.71615">
        <ele>202.1</ele>
        <time>2025-05-10T16:07:47.000Z</time>
      </trkpt>
      <trkpt lat="48.63881" lon="-0.71618">
        <ele>200.8</ele>
        <time>2025-05-10T16:07:49.000Z</time>
      </trkpt>
      <trkpt lat="48.63886" lon="-0.71622">
        <ele>199.6</ele>
        <time>2025-05-10T16:07:51.000Z</time>
      </trkpt>
      <trkpt lat="48.63892" lon="-0.71627">
        <ele>198.5</ele>
        <time>2025-05-10T16:07:53.000Z</time>
      </trkpt>
      <trkpt lat="48.639" lon="-0.71635">
        <ele>197.4</ele>
        <time>2025-05-10T16:07:55.000Z</time>
      </trkpt>
      <trkpt lat="48.63904" lon="-0.71646">
        <ele>196.2</ele>
        <time>2025-05-10T16:07:57.000Z</time>
      </trkpt>
      <trkpt lat="48.63907" lon="-0.71654">
        <ele>195.1</ele>
        <time>2025-05-10T16:07:59.000Z</time>
      </trkpt>
      <trkpt lat="48.63912" lon="-0.71655">
        <ele>193.8</ele>
        <time>2025-05-10T16:08:02.000Z</time>
      </trkpt>
      <trkpt lat="48.63912" lon="-0.71656">
        <ele>192.7</ele>
        <time>2025-05-10T16:08:05.000Z</time>
      </trkpt>
      <trkpt lat="48.63913" lon="-0.71656">
        <ele>192.5</ele>
        <time>2025-05-10T16:08:06.000Z</time>
      </trkpt>
      <trkpt lat="48.63913" lon="-0.71656">
        <ele>192.2</ele>
        <time>2025-05-10T16:08:07.000Z</time>
      </trkpt>
      <trkpt lat="48.63918" lon="-0.71656">
        <ele>190.9</ele>
        <time>2025-05-10T16:08:16.000Z</time>
      </trkpt>
      <trkpt lat="48.63922" lon="-0.71658">
        <ele>190.1</ele>
        <time>2025-05-10T16:08:34.000Z</time>
      </trkpt>
      <trkpt lat="48.63925" lon="-0.71655">
        <ele>190</ele>
        <time>2025-05-10T16:08:38.000Z</time>
      </trkpt>
      <trkpt lat="48.63926" lon="-0.71653">
        <ele>189.9</ele>
        <time>2025-05-10T16:08:39.000Z</time>
      </trkpt>
      <trkpt lat="48.63927" lon="-0.71645">
        <ele>189.9</ele>
        <time>2025-05-10T16:08:41.000Z</time>
      </trkpt>
      <trkpt lat="48.63929" lon="-0.71633">
        <ele>189.8</ele>
        <time>2025-05-10T16:08:43.000Z</time>
      </trkpt>
      <trkpt lat="48.63932" lon="-0.7162">
        <ele>189.6</ele>
        <time>2025-05-10T16:08:45.000Z</time>
      </trkpt>
      <trkpt lat="48.63934" lon="-0.71612">
        <ele>189.5</ele>
        <time>2025-05-10T16:08:46.000Z</time>
      </trkpt>
      <trkpt lat="48.63936" lon="-0.71604">
        <ele>189.4</ele>
        <time>2025-05-10T16:08:47.000Z</time>
      </trkpt>
      <trkpt lat="48.63938" lon="-0.71595">
        <ele>189.2</ele>
        <time>2025-05-10T16:08:48.000Z</time>
      </trkpt>
      <trkpt lat="48.63941" lon="-0.71586">
        <ele>189</ele>
        <time>2025-05-10T16:08:49.000Z</time>
      </trkpt>
      <trkpt lat="48.63943" lon="-0.71576">
        <ele>188.8</ele>
        <time>2025-05-10T16:08:50.000Z</time>
      </trkpt>
      <trkpt lat="48.63946" lon="-0.71566">
        <ele>188.5</ele>
        <time>2025-05-10T16:08:51.000Z</time>
      </trkpt>
      <trkpt lat="48.63949" lon="-0.71555">
        <ele>188.3</ele>
        <time>2025-05-10T16:08:52.000Z</time>
      </trkpt>
      <trkpt lat="48.63952" lon="-0.71544">
        <ele>187.8</ele>
        <time>2025-05-10T16:08:53.000Z</time>
      </trkpt>
      <trkpt lat="48.63955" lon="-0.71533">
        <ele>187.4</ele>
        <time>2025-05-10T16:08:54.000Z</time>
      </trkpt>
      <trkpt lat="48.63958" lon="-0.71522">
        <ele>186.9</ele>
        <time>2025-05-10T16:08:55.000Z</time>
      </trkpt>
      <trkpt lat="48.63962" lon="-0.7151">
        <ele>186.4</ele>
        <time>2025-05-10T16:08:56.000Z</time>
      </trkpt>
      <trkpt lat="48.63966" lon="-0.715">
        <ele>185.9</ele>
        <time>2025-05-10T16:08:57.000Z</time>
      </trkpt>
      <trkpt lat="48.63971" lon="-0.71489">
        <ele>185.3</ele>
        <time>2025-05-10T16:08:58.000Z</time>
      </trkpt>
      <trkpt lat="48.63976" lon="-0.71479">
        <ele>184.8</ele>
        <time>2025-05-10T16:08:59.000Z</time>
      </trkpt>
      <trkpt lat="48.63982" lon="-0.7147">
        <ele>184.2</ele>
        <time>2025-05-10T16:09:00.000Z</time>
      </trkpt>
      <trkpt lat="48.63988" lon="-0.71461">
        <ele>183.6</ele>
        <time>2025-05-10T16:09:01.000Z</time>
      </trkpt>
      <trkpt lat="48.63995" lon="-0.71452">
        <ele>183</ele>
        <time>2025-05-10T16:09:02.000Z</time>
      </trkpt>
      <trkpt lat="48.64003" lon="-0.71444">
        <ele>182.3</ele>
        <time>2025-05-10T16:09:03.000Z</time>
      </trkpt>
      <trkpt lat="48.64011" lon="-0.71437">
        <ele>181.7</ele>
        <time>2025-05-10T16:09:04.000Z</time>
      </trkpt>
      <trkpt lat="48.6402" lon="-0.7143">
        <ele>181.1</ele>
        <time>2025-05-10T16:09:05.000Z</time>
      </trkpt>
      <trkpt lat="48.64029" lon="-0.71422">
        <ele>180.4</ele>
        <time>2025-05-10T16:09:06.000Z</time>
      </trkpt>
      <trkpt lat="48.64038" lon="-0.71415">
        <ele>179.6</ele>
        <time>2025-05-10T16:09:07.000Z</time>
      </trkpt>
      <trkpt lat="48.64048" lon="-0.71409">
        <ele>178.5</ele>
        <time>2025-05-10T16:09:08.000Z</time>
      </trkpt>
      <trkpt lat="48.64058" lon="-0.71405">
        <ele>177.6</ele>
        <time>2025-05-10T16:09:09.000Z</time>
      </trkpt>
      <trkpt lat="48.64069" lon="-0.71403">
        <ele>176.7</ele>
        <time>2025-05-10T16:09:10.000Z</time>
      </trkpt>
      <trkpt lat="48.6408" lon="-0.71403">
        <ele>175.8</ele>
        <time>2025-05-10T16:09:11.000Z</time>
      </trkpt>
      <trkpt lat="48.64091" lon="-0.71405">
        <ele>174.8</ele>
        <time>2025-05-10T16:09:12.000Z</time>
      </trkpt>
      <trkpt lat="48.64102" lon="-0.71407">
        <ele>173.6</ele>
        <time>2025-05-10T16:09:13.000Z</time>
      </trkpt>
      <trkpt lat="48.64113" lon="-0.71409">
        <ele>172.6</ele>
        <time>2025-05-10T16:09:14.000Z</time>
      </trkpt>
      <trkpt lat="48.64124" lon="-0.71411">
        <ele>171.8</ele>
        <time>2025-05-10T16:09:15.000Z</time>
      </trkpt>
      <trkpt lat="48.64133" lon="-0.71412">
        <ele>170.9</ele>
        <time>2025-05-10T16:09:16.000Z</time>
      </trkpt>
      <trkpt lat="48.64142" lon="-0.71413">
        <ele>170.1</ele>
        <time>2025-05-10T16:09:17.000Z</time>
      </trkpt>
      <trkpt lat="48.64151" lon="-0.71414">
        <ele>169</ele>
        <time>2025-05-10T16:09:18.000Z</time>
      </trkpt>
      <trkpt lat="48.6416" lon="-0.71414">
        <ele>168.3</ele>
        <time>2025-05-10T16:09:19.000Z</time>
      </trkpt>
      <trkpt lat="48.64169" lon="-0.71413">
        <ele>167.6</ele>
        <time>2025-05-10T16:09:20.000Z</time>
      </trkpt>
      <trkpt lat="48.64177" lon="-0.71413">
        <ele>166.9</ele>
        <time>2025-05-10T16:09:21.000Z</time>
      </trkpt>
      <trkpt lat="48.64186" lon="-0.71411">
        <ele>166.3</ele>
        <time>2025-05-10T16:09:22.000Z</time>
      </trkpt>
      <trkpt lat="48.64193" lon="-0.7141">
        <ele>165.7</ele>
        <time>2025-05-10T16:09:23.000Z</time>
      </trkpt>
      <trkpt lat="48.64199" lon="-0.71408">
        <ele>165.2</ele>
        <time>2025-05-10T16:09:24.000Z</time>
      </trkpt>
      <trkpt lat="48.64204" lon="-0.71405">
        <ele>164.8</ele>
        <time>2025-05-10T16:09:25.000Z</time>
      </trkpt>
      <trkpt lat="48.64211" lon="-0.714">
        <ele>164.2</ele>
        <time>2025-05-10T16:09:27.000Z</time>
      </trkpt>
      <trkpt lat="48.64216" lon="-0.71395">
        <ele>163.8</ele>
        <time>2025-05-10T16:09:29.000Z</time>
      </trkpt>
      <trkpt lat="48.64221" lon="-0.7139">
        <ele>163.3</ele>
        <time>2025-05-10T16:09:32.000Z</time>
      </trkpt>
      <trkpt lat="48.64226" lon="-0.71388">
        <ele>163.1</ele>
        <time>2025-05-10T16:09:34.000Z</time>
      </trkpt>
      <trkpt lat="48.6423" lon="-0.71386">
        <ele>162.9</ele>
        <time>2025-05-10T16:09:36.000Z</time>
      </trkpt>
      <trkpt lat="48.64234" lon="-0.71384">
        <ele>162.7</ele>
        <time>2025-05-10T16:09:38.000Z</time>
      </trkpt>
      <trkpt lat="48.6424" lon="-0.71382">
        <ele>162.2</ele>
        <time>2025-05-10T16:09:48.000Z</time>
      </trkpt>
      <trkpt lat="48.6424" lon="-0.71388">
        <ele>161.4</ele>
        <time>2025-05-10T16:10:17.000Z</time>
      </trkpt>
      <trkpt lat="48.6424" lon="-0.71388">
        <ele>161.4</ele>
        <time>2025-05-10T16:10:18.000Z</time>
      </trkpt>
      <trkpt lat="48.6424" lon="-0.71388">
        <ele>161.4</ele>
        <time>2025-05-10T16:10:19.000Z</time>
      </trkpt>
      <trkpt lat="48.64237" lon="-0.71394">
        <ele>159.1</ele>
        <time>2025-05-10T16:18:42.000Z</time>
      </trkpt>
      <trkpt lat="48.64239" lon="-0.71394">
        <ele>159.7</ele>
        <time>2025-05-10T16:33:35.000Z</time>
      </trkpt>
      <trkpt lat="48.64246" lon="-0.71393">
        <ele>159.7</ele>
        <time>2025-05-10T16:33:38.000Z</time>
      </trkpt>
      <trkpt lat="48.64251" lon="-0.71391">
        <ele>159.7</ele>
        <time>2025-05-10T16:33:40.000Z</time>
      </trkpt>
      <trkpt lat="48.64256" lon="-0.71389">
        <ele>159.7</ele>
        <time>2025-05-10T16:33:42.000Z</time>
      </trkpt>
      <trkpt lat="48.64261" lon="-0.71387">
        <ele>159.7</ele>
        <time>2025-05-10T16:33:44.000Z</time>
      </trkpt>
      <trkpt lat="48.64266" lon="-0.71385">
        <ele>159.8</ele>
        <time>2025-05-10T16:33:46.000Z</time>
      </trkpt>
      <trkpt lat="48.64271" lon="-0.71382">
        <ele>159.8</ele>
        <time>2025-05-10T16:33:48.000Z</time>
      </trkpt>
      <trkpt lat="48.64276" lon="-0.71381">
        <ele>159.9</ele>
        <time>2025-05-10T16:33:50.000Z</time>
      </trkpt>
      <trkpt lat="48.64281" lon="-0.71379">
        <ele>160</ele>
        <time>2025-05-10T16:33:52.000Z</time>
      </trkpt>
      <trkpt lat="48.64286" lon="-0.71376">
        <ele>160.1</ele>
        <time>2025-05-10T16:33:54.000Z</time>
      </trkpt>
      <trkpt lat="48.64292" lon="-0.71372">
        <ele>160.2</ele>
        <time>2025-05-10T16:33:56.000Z</time>
      </trkpt>
      <trkpt lat="48.64298" lon="-0.71367">
        <ele>160.3</ele>
        <time>2025-05-10T16:33:58.000Z</time>
      </trkpt>
      <trkpt lat="48.64303" lon="-0.7136">
        <ele>160.4</ele>
        <time>2025-05-10T16:34:00.000Z</time>
      </trkpt>
      <trkpt lat="48.64308" lon="-0.71353">
        <ele>160.5</ele>
        <time>2025-05-10T16:34:02.000Z</time>
      </trkpt>
      <trkpt lat="48.64312" lon="-0.71347">
        <ele>160.6</ele>
        <time>2025-05-10T16:34:04.000Z</time>
      </trkpt>
      <trkpt lat="48.64316" lon="-0.7134">
        <ele>160.6</ele>
        <time>2025-05-10T16:34:06.000Z</time>
      </trkpt>
      <trkpt lat="48.64322" lon="-0.71333">
        <ele>160.6</ele>
        <time>2025-05-10T16:34:08.000Z</time>
      </trkpt>
      <trkpt lat="48.64328" lon="-0.71324">
        <ele>160.5</ele>
        <time>2025-05-10T16:34:10.000Z</time>
      </trkpt>
      <trkpt lat="48.64332" lon="-0.71319">
        <ele>160.4</ele>
        <time>2025-05-10T16:34:11.000Z</time>
      </trkpt>
      <trkpt lat="48.64336" lon="-0.71314">
        <ele>160.4</ele>
        <time>2025-05-10T16:34:12.000Z</time>
      </trkpt>
      <trkpt lat="48.6434" lon="-0.71308">
        <ele>160.2</ele>
        <time>2025-05-10T16:34:13.000Z</time>
      </trkpt>
      <trkpt lat="48.64344" lon="-0.71303">
        <ele>160.1</ele>
        <time>2025-05-10T16:34:14.000Z</time>
      </trkpt>
      <trkpt lat="48.64348" lon="-0.71296">
        <ele>160</ele>
        <time>2025-05-10T16:34:15.000Z</time>
      </trkpt>
      <trkpt lat="48.64353" lon="-0.71289">
        <ele>159.8</ele>
        <time>2025-05-10T16:34:16.000Z</time>
      </trkpt>
      <trkpt lat="48.64359" lon="-0.71282">
        <ele>159.6</ele>
        <time>2025-05-10T16:34:17.000Z</time>
      </trkpt>
      <trkpt lat="48.64365" lon="-0.71275">
        <ele>159.3</ele>
        <time>2025-05-10T16:34:18.000Z</time>
      </trkpt>
      <trkpt lat="48.64371" lon="-0.71268">
        <ele>159</ele>
        <time>2025-05-10T16:34:19.000Z</time>
      </trkpt>
      <trkpt lat="48.64376" lon="-0.7126">
        <ele>158.6</ele>
        <time>2025-05-10T16:34:20.000Z</time>
      </trkpt>
      <trkpt lat="48.64382" lon="-0.71252">
        <ele>158.2</ele>
        <time>2025-05-10T16:34:21.000Z</time>
      </trkpt>
      <trkpt lat="48.64389" lon="-0.71243">
        <ele>157.7</ele>
        <time>2025-05-10T16:34:22.000Z</time>
      </trkpt>
      <trkpt lat="48.64395" lon="-0.71234">
        <ele>157.1</ele>
        <time>2025-05-10T16:34:23.000Z</time>
      </trkpt>
      <trkpt lat="48.64402" lon="-0.71226">
        <ele>156.6</ele>
        <time>2025-05-10T16:34:24.000Z</time>
      </trkpt>
      <trkpt lat="48.64409" lon="-0.71217">
        <ele>156</ele>
        <time>2025-05-10T16:34:25.000Z</time>
      </trkpt>
      <trkpt lat="48.64415" lon="-0.71208">
        <ele>155.5</ele>
        <time>2025-05-10T16:34:26.000Z</time>
      </trkpt>
      <trkpt lat="48.64422" lon="-0.71199">
        <ele>154.9</ele>
        <time>2025-05-10T16:34:27.000Z</time>
      </trkpt>
      <trkpt lat="48.64428" lon="-0.7119">
        <ele>154.2</ele>
        <time>2025-05-10T16:34:28.000Z</time>
      </trkpt>
      <trkpt lat="48.64434" lon="-0.71182">
        <ele>153.6</ele>
        <time>2025-05-10T16:34:29.000Z</time>
      </trkpt>
      <trkpt lat="48.64439" lon="-0.71176">
        <ele>153.1</ele>
        <time>2025-05-10T16:34:30.000Z</time>
      </trkpt>
      <trkpt lat="48.64443" lon="-0.71171">
        <ele>152.6</ele>
        <time>2025-05-10T16:34:31.000Z</time>
      </trkpt>
      <trkpt lat="48.64446" lon="-0.71166">
        <ele>152.2</ele>
        <time>2025-05-10T16:34:32.000Z</time>
      </trkpt>
      <trkpt lat="48.64452" lon="-0.71158">
        <ele>151.5</ele>
        <time>2025-05-10T16:34:34.000Z</time>
      </trkpt>
      <trkpt lat="48.64455" lon="-0.71152">
        <ele>151</ele>
        <time>2025-05-10T16:34:36.000Z</time>
      </trkpt>
      <trkpt lat="48.64459" lon="-0.71147">
        <ele>150.5</ele>
        <time>2025-05-10T16:34:38.000Z</time>
      </trkpt>
      <trkpt lat="48.64463" lon="-0.7114">
        <ele>150.1</ele>
        <time>2025-05-10T16:34:40.000Z</time>
      </trkpt>
      <trkpt lat="48.64469" lon="-0.71134">
        <ele>149.7</ele>
        <time>2025-05-10T16:34:42.000Z</time>
      </trkpt>
      <trkpt lat="48.64475" lon="-0.71129">
        <ele>149.3</ele>
        <time>2025-05-10T16:34:44.000Z</time>
      </trkpt>
      <trkpt lat="48.6448" lon="-0.71121">
        <ele>148.9</ele>
        <time>2025-05-10T16:34:46.000Z</time>
      </trkpt>
      <trkpt lat="48.64485" lon="-0.71113">
        <ele>148.7</ele>
        <time>2025-05-10T16:34:48.000Z</time>
      </trkpt>
      <trkpt lat="48.64491" lon="-0.71104">
        <ele>148.5</ele>
        <time>2025-05-10T16:34:50.000Z</time>
      </trkpt>
      <trkpt lat="48.64496" lon="-0.71096">
        <ele>148.3</ele>
        <time>2025-05-10T16:34:52.000Z</time>
      </trkpt>
      <trkpt lat="48.64502" lon="-0.71087">
        <ele>148.1</ele>
        <time>2025-05-10T16:34:54.000Z</time>
      </trkpt>
      <trkpt lat="48.64509" lon="-0.71079">
        <ele>148</ele>
        <time>2025-05-10T16:34:56.000Z</time>
      </trkpt>
      <trkpt lat="48.64515" lon="-0.71069">
        <ele>147.9</ele>
        <time>2025-05-10T16:34:58.000Z</time>
      </trkpt>
      <trkpt lat="48.64521" lon="-0.7106">
        <ele>147.8</ele>
        <time>2025-05-10T16:35:00.000Z</time>
      </trkpt>
      <trkpt lat="48.64527" lon="-0.71052">
        <ele>147.7</ele>
        <time>2025-05-10T16:35:02.000Z</time>
      </trkpt>
      <trkpt lat="48.64533" lon="-0.71045">
        <ele>147.5</ele>
        <time>2025-05-10T16:35:04.000Z</time>
      </trkpt>
      <trkpt lat="48.64538" lon="-0.71038">
        <ele>147.4</ele>
        <time>2025-05-10T16:35:06.000Z</time>
      </trkpt>
      <trkpt lat="48.64543" lon="-0.71031">
        <ele>147.3</ele>
        <time>2025-05-10T16:35:08.000Z</time>
      </trkpt>
      <trkpt lat="48.64547" lon="-0.71025">
        <ele>147.2</ele>
        <time>2025-05-10T16:35:10.000Z</time>
      </trkpt>
      <trkpt lat="48.64553" lon="-0.71021">
        <ele>147.1</ele>
        <time>2025-05-10T16:35:12.000Z</time>
      </trkpt>
      <trkpt lat="48.64558" lon="-0.7102">
        <ele>147.1</ele>
        <time>2025-05-10T16:35:14.000Z</time>
      </trkpt>
      <trkpt lat="48.64564" lon="-0.71022">
        <ele>147</ele>
        <time>2025-05-10T16:35:16.000Z</time>
      </trkpt>
      <trkpt lat="48.6457" lon="-0.71026">
        <ele>146.9</ele>
        <time>2025-05-10T16:35:18.000Z</time>
      </trkpt>
      <trkpt lat="48.64575" lon="-0.71033">
        <ele>146.9</ele>
        <time>2025-05-10T16:35:20.000Z</time>
      </trkpt>
      <trkpt lat="48.6458" lon="-0.7104">
        <ele>146.9</ele>
        <time>2025-05-10T16:35:22.000Z</time>
      </trkpt>
      <trkpt lat="48.64586" lon="-0.71046">
        <ele>146.9</ele>
        <time>2025-05-10T16:35:24.000Z</time>
      </trkpt>
      <trkpt lat="48.64593" lon="-0.71047">
        <ele>146.9</ele>
        <time>2025-05-10T16:35:26.000Z</time>
      </trkpt>
      <trkpt lat="48.64599" lon="-0.71047">
        <ele>146.9</ele>
        <time>2025-05-10T16:35:28.000Z</time>
      </trkpt>
      <trkpt lat="48.64607" lon="-0.71047">
        <ele>146.9</ele>
        <time>2025-05-10T16:35:30.000Z</time>
      </trkpt>
      <trkpt lat="48.64616" lon="-0.71048">
        <ele>146.9</ele>
        <time>2025-05-10T16:35:32.000Z</time>
      </trkpt>
      <trkpt lat="48.64624" lon="-0.71047">
        <ele>146.9</ele>
        <time>2025-05-10T16:35:34.000Z</time>
      </trkpt>
      <trkpt lat="48.64628" lon="-0.71045">
        <ele>146.9</ele>
        <time>2025-05-10T16:35:35.000Z</time>
      </trkpt>
      <trkpt lat="48.64632" lon="-0.71042">
        <ele>146.9</ele>
        <time>2025-05-10T16:35:36.000Z</time>
      </trkpt>
      <trkpt lat="48.6464" lon="-0.71036">
        <ele>146.9</ele>
        <time>2025-05-10T16:35:38.000Z</time>
      </trkpt>
      <trkpt lat="48.64647" lon="-0.71028">
        <ele>146.9</ele>
        <time>2025-05-10T16:35:40.000Z</time>
      </trkpt>
      <trkpt lat="48.64654" lon="-0.71019">
        <ele>146.9</ele>
        <time>2025-05-10T16:35:42.000Z</time>
      </trkpt>
      <trkpt lat="48.6466" lon="-0.71011">
        <ele>146.9</ele>
        <time>2025-05-10T16:35:44.000Z</time>
      </trkpt>
      <trkpt lat="48.64664" lon="-0.71007">
        <ele>146.9</ele>
        <time>2025-05-10T16:35:45.000Z</time>
      </trkpt>
      <trkpt lat="48.6467" lon="-0.70998">
        <ele>147</ele>
        <time>2025-05-10T16:35:47.000Z</time>
      </trkpt>
      <trkpt lat="48.64676" lon="-0.70988">
        <ele>147.1</ele>
        <time>2025-05-10T16:35:49.000Z</time>
      </trkpt>
      <trkpt lat="48.64681" lon="-0.70978">
        <ele>147.1</ele>
        <time>2025-05-10T16:35:51.000Z</time>
      </trkpt>
      <trkpt lat="48.64685" lon="-0.70968">
        <ele>147.3</ele>
        <time>2025-05-10T16:35:53.000Z</time>
      </trkpt>
      <trkpt lat="48.64688" lon="-0.7096">
        <ele>147.5</ele>
        <time>2025-05-10T16:35:55.000Z</time>
      </trkpt>
      <trkpt lat="48.64691" lon="-0.7095">
        <ele>147.8</ele>
        <time>2025-05-10T16:35:57.000Z</time>
      </trkpt>
      <trkpt lat="48.64693" lon="-0.70942">
        <ele>148.2</ele>
        <time>2025-05-10T16:35:59.000Z</time>
      </trkpt>
      <trkpt lat="48.64695" lon="-0.70935">
        <ele>148.8</ele>
        <time>2025-05-10T16:36:01.000Z</time>
      </trkpt>
      <trkpt lat="48.64696" lon="-0.70926">
        <ele>149.5</ele>
        <time>2025-05-10T16:36:03.000Z</time>
      </trkpt>
      <trkpt lat="48.64699" lon="-0.70919">
        <ele>150.3</ele>
        <time>2025-05-10T16:36:05.000Z</time>
      </trkpt>
      <trkpt lat="48.64702" lon="-0.7091">
        <ele>151</ele>
        <time>2025-05-10T16:36:07.000Z</time>
      </trkpt>
      <trkpt lat="48.64704" lon="-0.70901">
        <ele>151.8</ele>
        <time>2025-05-10T16:36:09.000Z</time>
      </trkpt>
      <trkpt lat="48.64708" lon="-0.70891">
        <ele>152.5</ele>
        <time>2025-05-10T16:36:11.000Z</time>
      </trkpt>
      <trkpt lat="48.64711" lon="-0.70882">
        <ele>153.3</ele>
        <time>2025-05-10T16:36:13.000Z</time>
      </trkpt>
      <trkpt lat="48.64713" lon="-0.70873">
        <ele>153.9</ele>
        <time>2025-05-10T16:36:15.000Z</time>
      </trkpt>
      <trkpt lat="48.64716" lon="-0.70864">
        <ele>154.6</ele>
        <time>2025-05-10T16:36:17.000Z</time>
      </trkpt>
      <trkpt lat="48.64719" lon="-0.70855">
        <ele>155.3</ele>
        <time>2025-05-10T16:36:19.000Z</time>
      </trkpt>
      <trkpt lat="48.64721" lon="-0.70845">
        <ele>155.8</ele>
        <time>2025-05-10T16:36:21.000Z</time>
      </trkpt>
      <trkpt lat="48.64724" lon="-0.70837">
        <ele>156.5</ele>
        <time>2025-05-10T16:36:23.000Z</time>
      </trkpt>
      <trkpt lat="48.64726" lon="-0.70827">
        <ele>157.2</ele>
        <time>2025-05-10T16:36:25.000Z</time>
      </trkpt>
      <trkpt lat="48.64728" lon="-0.70817">
        <ele>157.9</ele>
        <time>2025-05-10T16:36:27.000Z</time>
      </trkpt>
      <trkpt lat="48.64727" lon="-0.70808">
        <ele>158.8</ele>
        <time>2025-05-10T16:36:29.000Z</time>
      </trkpt>
      <trkpt lat="48.64724" lon="-0.70799">
        <ele>159.5</ele>
        <time>2025-05-10T16:36:31.000Z</time>
      </trkpt>
      <trkpt lat="48.6472" lon="-0.70791">
        <ele>160.3</ele>
        <time>2025-05-10T16:36:33.000Z</time>
      </trkpt>
      <trkpt lat="48.64715" lon="-0.70783">
        <ele>160.9</ele>
        <time>2025-05-10T16:36:35.000Z</time>
      </trkpt>
      <trkpt lat="48.6471" lon="-0.70777">
        <ele>161.5</ele>
        <time>2025-05-10T16:36:37.000Z</time>
      </trkpt>
      <trkpt lat="48.64705" lon="-0.7077">
        <ele>162.1</ele>
        <time>2025-05-10T16:36:39.000Z</time>
      </trkpt>
      <trkpt lat="48.647" lon="-0.70764">
        <ele>162.5</ele>
        <time>2025-05-10T16:36:41.000Z</time>
      </trkpt>
      <trkpt lat="48.64694" lon="-0.70758">
        <ele>162.8</ele>
        <time>2025-05-10T16:36:43.000Z</time>
      </trkpt>
      <trkpt lat="48.64689" lon="-0.70752">
        <ele>163.2</ele>
        <time>2025-05-10T16:36:45.000Z</time>
      </trkpt>
      <trkpt lat="48.64683" lon="-0.70746">
        <ele>163.5</ele>
        <time>2025-05-10T16:36:47.000Z</time>
      </trkpt>
      <trkpt lat="48.64678" lon="-0.7074">
        <ele>163.9</ele>
        <time>2025-05-10T16:36:49.000Z</time>
      </trkpt>
      <trkpt lat="48.64673" lon="-0.70734">
        <ele>164.3</ele>
        <time>2025-05-10T16:36:51.000Z</time>
      </trkpt>
      <trkpt lat="48.64668" lon="-0.70727">
        <ele>164.7</ele>
        <time>2025-05-10T16:36:53.000Z</time>
      </trkpt>
      <trkpt lat="48.64662" lon="-0.70721">
        <ele>165.3</ele>
        <time>2025-05-10T16:36:55.000Z</time>
      </trkpt>
      <trkpt lat="48.64657" lon="-0.70715">
        <ele>166</ele>
        <time>2025-05-10T16:36:57.000Z</time>
      </trkpt>
      <trkpt lat="48.64652" lon="-0.70709">
        <ele>166.8</ele>
        <time>2025-05-10T16:36:59.000Z</time>
      </trkpt>
      <trkpt lat="48.64647" lon="-0.70702">
        <ele>167.5</ele>
        <time>2025-05-10T16:37:01.000Z</time>
      </trkpt>
      <trkpt lat="48.64642" lon="-0.70696">
        <ele>168.2</ele>
        <time>2025-05-10T16:37:03.000Z</time>
      </trkpt>
      <trkpt lat="48.64637" lon="-0.70689">
        <ele>168.8</ele>
        <time>2025-05-10T16:37:05.000Z</time>
      </trkpt>
      <trkpt lat="48.64632" lon="-0.70683">
        <ele>169.4</ele>
        <time>2025-05-10T16:37:07.000Z</time>
      </trkpt>
      <trkpt lat="48.64628" lon="-0.70676">
        <ele>170.1</ele>
        <time>2025-05-10T16:37:09.000Z</time>
      </trkpt>
      <trkpt lat="48.64623" lon="-0.70669">
        <ele>170.7</ele>
        <time>2025-05-10T16:37:11.000Z</time>
      </trkpt>
      <trkpt lat="48.64619" lon="-0.70662">
        <ele>171.3</ele>
        <time>2025-05-10T16:37:13.000Z</time>
      </trkpt>
      <trkpt lat="48.64626" lon="-0.70634">
        <ele>176.9</ele>
        <time>2025-05-10T16:47:31.000Z</time>
      </trkpt>
      <trkpt lat="48.64629" lon="-0.70627">
        <ele>177.1</ele>
        <time>2025-05-10T16:47:33.000Z</time>
      </trkpt>
      <trkpt lat="48.64631" lon="-0.7062">
        <ele>177.3</ele>
        <time>2025-05-10T16:47:35.000Z</time>
      </trkpt>
      <trkpt lat="48.64634" lon="-0.70611">
        <ele>177.6</ele>
        <time>2025-05-10T16:47:37.000Z</time>
      </trkpt>
      <trkpt lat="48.64636" lon="-0.70602">
        <ele>178</ele>
        <time>2025-05-10T16:47:39.000Z</time>
      </trkpt>
      <trkpt lat="48.64638" lon="-0.70593">
        <ele>178.5</ele>
        <time>2025-05-10T16:47:41.000Z</time>
      </trkpt>
      <trkpt lat="48.64641" lon="-0.70583">
        <ele>179.1</ele>
        <time>2025-05-10T16:47:43.000Z</time>
      </trkpt>
      <trkpt lat="48.64644" lon="-0.70574">
        <ele>179.8</ele>
        <time>2025-05-10T16:47:45.000Z</time>
      </trkpt>
      <trkpt lat="48.64648" lon="-0.70565">
        <ele>180.5</ele>
        <time>2025-05-10T16:47:47.000Z</time>
      </trkpt>
      <trkpt lat="48.64652" lon="-0.70559">
        <ele>181.3</ele>
        <time>2025-05-10T16:47:49.000Z</time>
      </trkpt>
      <trkpt lat="48.64655" lon="-0.70552">
        <ele>181.9</ele>
        <time>2025-05-10T16:47:51.000Z</time>
      </trkpt>
      <trkpt lat="48.64659" lon="-0.70546">
        <ele>182.4</ele>
        <time>2025-05-10T16:47:53.000Z</time>
      </trkpt>
      <trkpt lat="48.64665" lon="-0.70542">
        <ele>182.9</ele>
        <time>2025-05-10T16:47:55.000Z</time>
      </trkpt>
      <trkpt lat="48.64671" lon="-0.70542">
        <ele>183.3</ele>
        <time>2025-05-10T16:47:57.000Z</time>
      </trkpt>
      <trkpt lat="48.64678" lon="-0.70544">
        <ele>183.7</ele>
        <time>2025-05-10T16:47:59.000Z</time>
      </trkpt>
      <trkpt lat="48.64684" lon="-0.70549">
        <ele>184.2</ele>
        <time>2025-05-10T16:48:01.000Z</time>
      </trkpt>
      <trkpt lat="48.64691" lon="-0.70554">
        <ele>184.7</ele>
        <time>2025-05-10T16:48:03.000Z</time>
      </trkpt>
      <trkpt lat="48.64697" lon="-0.70559">
        <ele>185.2</ele>
        <time>2025-05-10T16:48:05.000Z</time>
      </trkpt>
      <trkpt lat="48.64703" lon="-0.70564">
        <ele>185.8</ele>
        <time>2025-05-10T16:48:07.000Z</time>
      </trkpt>
      <trkpt lat="48.64709" lon="-0.70567">
        <ele>186.5</ele>
        <time>2025-05-10T16:48:09.000Z</time>
      </trkpt>
      <trkpt lat="48.64714" lon="-0.70571">
        <ele>187.2</ele>
        <time>2025-05-10T16:48:11.000Z</time>
      </trkpt>
      <trkpt lat="48.6472" lon="-0.70576">
        <ele>188</ele>
        <time>2025-05-10T16:48:13.000Z</time>
      </trkpt>
      <trkpt lat="48.64726" lon="-0.7058">
        <ele>188.6</ele>
        <time>2025-05-10T16:48:15.000Z</time>
      </trkpt>
      <trkpt lat="48.64733" lon="-0.70584">
        <ele>189.2</ele>
        <time>2025-05-10T16:48:17.000Z</time>
      </trkpt>
      <trkpt lat="48.64739" lon="-0.70587">
        <ele>189.9</ele>
        <time>2025-05-10T16:48:19.000Z</time>
      </trkpt>
      <trkpt lat="48.64746" lon="-0.7059">
        <ele>190.5</ele>
        <time>2025-05-10T16:48:21.000Z</time>
      </trkpt>
      <trkpt lat="48.64752" lon="-0.70594">
        <ele>191.2</ele>
        <time>2025-05-10T16:48:23.000Z</time>
      </trkpt>
      <trkpt lat="48.64758" lon="-0.70599">
        <ele>191.8</ele>
        <time>2025-05-10T16:48:25.000Z</time>
      </trkpt>
      <trkpt lat="48.64765" lon="-0.70602">
        <ele>192.3</ele>
        <time>2025-05-10T16:48:27.000Z</time>
      </trkpt>
      <trkpt lat="48.64772" lon="-0.70605">
        <ele>192.9</ele>
        <time>2025-05-10T16:48:29.000Z</time>
      </trkpt>
      <trkpt lat="48.64778" lon="-0.70609">
        <ele>193.4</ele>
        <time>2025-05-10T16:48:31.000Z</time>
      </trkpt>
      <trkpt lat="48.64785" lon="-0.70612">
        <ele>193.8</ele>
        <time>2025-05-10T16:48:33.000Z</time>
      </trkpt>
      <trkpt lat="48.64793" lon="-0.70616">
        <ele>194.2</ele>
        <time>2025-05-10T16:48:35.000Z</time>
      </trkpt>
      <trkpt lat="48.648" lon="-0.70619">
        <ele>194.6</ele>
        <time>2025-05-10T16:48:37.000Z</time>
      </trkpt>
      <trkpt lat="48.64807" lon="-0.70622">
        <ele>195</ele>
        <time>2025-05-10T16:48:39.000Z</time>
      </trkpt>
      <trkpt lat="48.64814" lon="-0.70624">
        <ele>195.4</ele>
        <time>2025-05-10T16:48:41.000Z</time>
      </trkpt>
      <trkpt lat="48.6482" lon="-0.70625">
        <ele>195.9</ele>
        <time>2025-05-10T16:48:43.000Z</time>
      </trkpt>
      <trkpt lat="48.64827" lon="-0.70628">
        <ele>196.4</ele>
        <time>2025-05-10T16:48:45.000Z</time>
      </trkpt>
      <trkpt lat="48.64833" lon="-0.70631">
        <ele>196.9</ele>
        <time>2025-05-10T16:48:47.000Z</time>
      </trkpt>
      <trkpt lat="48.6484" lon="-0.70633">
        <ele>197.3</ele>
        <time>2025-05-10T16:48:49.000Z</time>
      </trkpt>
      <trkpt lat="48.64847" lon="-0.70635">
        <ele>197.8</ele>
        <time>2025-05-10T16:48:51.000Z</time>
      </trkpt>
      <trkpt lat="48.64854" lon="-0.70637">
        <ele>198.2</ele>
        <time>2025-05-10T16:48:53.000Z</time>
      </trkpt>
      <trkpt lat="48.6486" lon="-0.70639">
        <ele>198.7</ele>
        <time>2025-05-10T16:48:55.000Z</time>
      </trkpt>
      <trkpt lat="48.64865" lon="-0.70641">
        <ele>199.2</ele>
        <time>2025-05-10T16:48:57.000Z</time>
      </trkpt>
      <trkpt lat="48.64871" lon="-0.70641">
        <ele>199.6</ele>
        <time>2025-05-10T16:48:59.000Z</time>
      </trkpt>
      <trkpt lat="48.64878" lon="-0.70641">
        <ele>200.1</ele>
        <time>2025-05-10T16:49:01.000Z</time>
      </trkpt>
      <trkpt lat="48.64885" lon="-0.70638">
        <ele>200.6</ele>
        <time>2025-05-10T16:49:03.000Z</time>
      </trkpt>
      <trkpt lat="48.64891" lon="-0.70638">
        <ele>201</ele>
        <time>2025-05-10T16:49:05.000Z</time>
      </trkpt>
      <trkpt lat="48.64898" lon="-0.70636">
        <ele>201.4</ele>
        <time>2025-05-10T16:49:07.000Z</time>
      </trkpt>
      <trkpt lat="48.64904" lon="-0.70635">
        <ele>201.8</ele>
        <time>2025-05-10T16:49:09.000Z</time>
      </trkpt>
      <trkpt lat="48.64911" lon="-0.70633">
        <ele>202.1</ele>
        <time>2025-05-10T16:49:11.000Z</time>
      </trkpt>
      <trkpt lat="48.64917" lon="-0.7063">
        <ele>202.5</ele>
        <time>2025-05-10T16:49:13.000Z</time>
      </trkpt>
      <trkpt lat="48.64924" lon="-0.70629">
        <ele>202.8</ele>
        <time>2025-05-10T16:49:15.000Z</time>
      </trkpt>
      <trkpt lat="48.64931" lon="-0.70627">
        <ele>203.1</ele>
        <time>2025-05-10T16:49:17.000Z</time>
      </trkpt>
      <trkpt lat="48.64939" lon="-0.70628">
        <ele>203.4</ele>
        <time>2025-05-10T16:49:19.000Z</time>
      </trkpt>
      <trkpt lat="48.64946" lon="-0.70627">
        <ele>203.7</ele>
        <time>2025-05-10T16:49:21.000Z</time>
      </trkpt>
      <trkpt lat="48.64953" lon="-0.70627">
        <ele>204</ele>
        <time>2025-05-10T16:49:23.000Z</time>
      </trkpt>
      <trkpt lat="48.64959" lon="-0.70627">
        <ele>204.3</ele>
        <time>2025-05-10T16:49:25.000Z</time>
      </trkpt>
      <trkpt lat="48.64965" lon="-0.70627">
        <ele>204.5</ele>
        <time>2025-05-10T16:49:27.000Z</time>
      </trkpt>
      <trkpt lat="48.6497" lon="-0.70627">
        <ele>204.9</ele>
        <time>2025-05-10T16:49:30.000Z</time>
      </trkpt>
      <trkpt lat="48.64975" lon="-0.70628">
        <ele>205.2</ele>
        <time>2025-05-10T16:49:34.000Z</time>
      </trkpt>
      <trkpt lat="48.64976" lon="-0.70629">
        <ele>205.4</ele>
        <time>2025-05-10T16:49:40.000Z</time>
      </trkpt>
      <trkpt lat="48.64977" lon="-0.70629">
        <ele>205.5</ele>
        <time>2025-05-10T16:49:41.000Z</time>
      </trkpt>
      <trkpt lat="48.64977" lon="-0.7063">
        <ele>205.5</ele>
        <time>2025-05-10T16:49:42.000Z</time>
      </trkpt>
      <trkpt lat="48.6498" lon="-0.70629">
        <ele>205.5</ele>
        <time>2025-05-10T16:49:48.000Z</time>
      </trkpt>
      <trkpt lat="48.6498" lon="-0.70629">
        <ele>205.5</ele>
        <time>2025-05-10T16:49:49.000Z</time>
      </trkpt>
      <trkpt lat="48.6498" lon="-0.70629">
        <ele>205.5</ele>
        <time>2025-05-10T16:49:50.000Z</time>
      </trkpt>
      <trkpt lat="48.6498" lon="-0.70629">
        <ele>205.5</ele>
        <time>2025-05-10T16:49:51.000Z</time>
      </trkpt>
      <trkpt lat="48.6498" lon="-0.70629">
        <ele>205.5</ele>
        <time>2025-05-10T16:49:52.000Z</time>
      </trkpt>
      <trkpt lat="48.64982" lon="-0.70625">
        <ele>205.5</ele>
        <time>2025-05-10T16:50:13.000Z</time>
      </trkpt>
      <trkpt lat="48.64981" lon="-0.70623">
        <ele>205.4</ele>
        <time>2025-05-10T16:50:14.000Z</time>
      </trkpt>
      <trkpt lat="48.64979" lon="-0.70617">
        <ele>205.4</ele>
        <time>2025-05-10T16:50:18.000Z</time>
      </trkpt>
      <trkpt lat="48.64977" lon="-0.70608">
        <ele>205.5</ele>
        <time>2025-05-10T16:50:21.000Z</time>
      </trkpt>
      <trkpt lat="48.64977" lon="-0.706">
        <ele>205.5</ele>
        <time>2025-05-10T16:50:23.000Z</time>
      </trkpt>
      <trkpt lat="48.64976" lon="-0.70592">
        <ele>205.6</ele>
        <time>2025-05-10T16:50:25.000Z</time>
      </trkpt>
      <trkpt lat="48.64975" lon="-0.70585">
        <ele>205.7</ele>
        <time>2025-05-10T16:50:27.000Z</time>
      </trkpt>
      <trkpt lat="48.64975" lon="-0.70577">
        <ele>205.8</ele>
        <time>2025-05-10T16:50:29.000Z</time>
      </trkpt>
      <trkpt lat="48.64974" lon="-0.70567">
        <ele>206</ele>
        <time>2025-05-10T16:50:31.000Z</time>
      </trkpt>
      <trkpt lat="48.64973" lon="-0.70556">
        <ele>206.2</ele>
        <time>2025-05-10T16:50:33.000Z</time>
      </trkpt>
      <trkpt lat="48.64972" lon="-0.70546">
        <ele>206.5</ele>
        <time>2025-05-10T16:50:35.000Z</time>
      </trkpt>
      <trkpt lat="48.64972" lon="-0.70535">
        <ele>207</ele>
        <time>2025-05-10T16:50:37.000Z</time>
      </trkpt>
      <trkpt lat="48.64973" lon="-0.70523">
        <ele>207.6</ele>
        <time>2025-05-10T16:50:39.000Z</time>
      </trkpt>
      <trkpt lat="48.64973" lon="-0.70514">
        <ele>208.3</ele>
        <time>2025-05-10T16:50:41.000Z</time>
      </trkpt>
      <trkpt lat="48.64973" lon="-0.70505">
        <ele>208.9</ele>
        <time>2025-05-10T16:50:43.000Z</time>
      </trkpt>
      <trkpt lat="48.64973" lon="-0.70496">
        <ele>209.5</ele>
        <time>2025-05-10T16:50:45.000Z</time>
      </trkpt>
      <trkpt lat="48.64972" lon="-0.70487">
        <ele>210</ele>
        <time>2025-05-10T16:50:47.000Z</time>
      </trkpt>
      <trkpt lat="48.64974" lon="-0.70476">
        <ele>210.4</ele>
        <time>2025-05-10T16:50:49.000Z</time>
      </trkpt>
      <trkpt lat="48.64974" lon="-0.70467">
        <ele>210.8</ele>
        <time>2025-05-10T16:50:51.000Z</time>
      </trkpt>
      <trkpt lat="48.64975" lon="-0.70457">
        <ele>211.2</ele>
        <time>2025-05-10T16:50:53.000Z</time>
      </trkpt>
      <trkpt lat="48.64975" lon="-0.70447">
        <ele>211.5</ele>
        <time>2025-05-10T16:50:55.000Z</time>
      </trkpt>
      <trkpt lat="48.64975" lon="-0.70436">
        <ele>211.8</ele>
        <time>2025-05-10T16:50:57.000Z</time>
      </trkpt>
      <trkpt lat="48.64977" lon="-0.70424">
        <ele>212.2</ele>
        <time>2025-05-10T16:50:59.000Z</time>
      </trkpt>
      <trkpt lat="48.6498" lon="-0.70413">
        <ele>212.6</ele>
        <time>2025-05-10T16:51:01.000Z</time>
      </trkpt>
      <trkpt lat="48.64983" lon="-0.70401">
        <ele>213</ele>
        <time>2025-05-10T16:51:03.000Z</time>
      </trkpt>
      <trkpt lat="48.64985" lon="-0.70391">
        <ele>213.4</ele>
        <time>2025-05-10T16:51:05.000Z</time>
      </trkpt>
      <trkpt lat="48.64989" lon="-0.70381">
        <ele>213.8</ele>
        <time>2025-05-10T16:51:07.000Z</time>
      </trkpt>
      <trkpt lat="48.64993" lon="-0.70371">
        <ele>214.1</ele>
        <time>2025-05-10T16:51:09.000Z</time>
      </trkpt>
      <trkpt lat="48.64997" lon="-0.70361">
        <ele>214.5</ele>
        <time>2025-05-10T16:51:11.000Z</time>
      </trkpt>
      <trkpt lat="48.65001" lon="-0.70352">
        <ele>214.8</ele>
        <time>2025-05-10T16:51:13.000Z</time>
      </trkpt>
      <trkpt lat="48.65005" lon="-0.7034">
        <ele>215.1</ele>
        <time>2025-05-10T16:51:15.000Z</time>
      </trkpt>
      <trkpt lat="48.65008" lon="-0.70329">
        <ele>215.3</ele>
        <time>2025-05-10T16:51:17.000Z</time>
      </trkpt>
      <trkpt lat="48.65009" lon="-0.70319">
        <ele>215.6</ele>
        <time>2025-05-10T16:51:19.000Z</time>
      </trkpt>
      <trkpt lat="48.65011" lon="-0.70307">
        <ele>215.8</ele>
        <time>2025-05-10T16:51:21.000Z</time>
      </trkpt>
      <trkpt lat="48.65012" lon="-0.70296">
        <ele>216.1</ele>
        <time>2025-05-10T16:51:23.000Z</time>
      </trkpt>
      <trkpt lat="48.65013" lon="-0.70283">
        <ele>216.3</ele>
        <time>2025-05-10T16:51:25.000Z</time>
      </trkpt>
      <trkpt lat="48.65012" lon="-0.70272">
        <ele>216.6</ele>
        <time>2025-05-10T16:51:27.000Z</time>
      </trkpt>
      <trkpt lat="48.65011" lon="-0.7026">
        <ele>216.8</ele>
        <time>2025-05-10T16:51:29.000Z</time>
      </trkpt>
      <trkpt lat="48.65012" lon="-0.70249">
        <ele>217</ele>
        <time>2025-05-10T16:51:31.000Z</time>
      </trkpt>
      <trkpt lat="48.65014" lon="-0.70239">
        <ele>217.2</ele>
        <time>2025-05-10T16:51:33.000Z</time>
      </trkpt>
      <trkpt lat="48.65016" lon="-0.70228">
        <ele>217.4</ele>
        <time>2025-05-10T16:51:35.000Z</time>
      </trkpt>
      <trkpt lat="48.65018" lon="-0.70216">
        <ele>217.6</ele>
        <time>2025-05-10T16:51:37.000Z</time>
      </trkpt>
      <trkpt lat="48.6502" lon="-0.70206">
        <ele>217.9</ele>
        <time>2025-05-10T16:51:39.000Z</time>
      </trkpt>
      <trkpt lat="48.65022" lon="-0.70197">
        <ele>218.2</ele>
        <time>2025-05-10T16:51:41.000Z</time>
      </trkpt>
      <trkpt lat="48.65025" lon="-0.70186">
        <ele>218.6</ele>
        <time>2025-05-10T16:51:43.000Z</time>
      </trkpt>
      <trkpt lat="48.65025" lon="-0.70174">
        <ele>218.9</ele>
        <time>2025-05-10T16:51:45.000Z</time>
      </trkpt>
      <trkpt lat="48.65026" lon="-0.70163">
        <ele>219.2</ele>
        <time>2025-05-10T16:51:47.000Z</time>
      </trkpt>
      <trkpt lat="48.65026" lon="-0.70151">
        <ele>219.6</ele>
        <time>2025-05-10T16:51:49.000Z</time>
      </trkpt>
      <trkpt lat="48.65027" lon="-0.70138">
        <ele>219.9</ele>
        <time>2025-05-10T16:51:51.000Z</time>
      </trkpt>
      <trkpt lat="48.65027" lon="-0.70126">
        <ele>220.1</ele>
        <time>2025-05-10T16:51:53.000Z</time>
      </trkpt>
      <trkpt lat="48.65029" lon="-0.70113">
        <ele>220.3</ele>
        <time>2025-05-10T16:51:55.000Z</time>
      </trkpt>
      <trkpt lat="48.6503" lon="-0.70103">
        <ele>220.6</ele>
        <time>2025-05-10T16:51:57.000Z</time>
      </trkpt>
      <trkpt lat="48.6503" lon="-0.70094">
        <ele>220.8</ele>
        <time>2025-05-10T16:51:59.000Z</time>
      </trkpt>
      <trkpt lat="48.6503" lon="-0.70084">
        <ele>221</ele>
        <time>2025-05-10T16:52:01.000Z</time>
      </trkpt>
      <trkpt lat="48.6503" lon="-0.70073">
        <ele>221.2</ele>
        <time>2025-05-10T16:52:03.000Z</time>
      </trkpt>
      <trkpt lat="48.65031" lon="-0.70062">
        <ele>221.5</ele>
        <time>2025-05-10T16:52:05.000Z</time>
      </trkpt>
      <trkpt lat="48.65034" lon="-0.70051">
        <ele>221.7</ele>
        <time>2025-05-10T16:52:07.000Z</time>
      </trkpt>
      <trkpt lat="48.65037" lon="-0.7004">
        <ele>222</ele>
        <time>2025-05-10T16:52:09.000Z</time>
      </trkpt>
      <trkpt lat="48.65039" lon="-0.70029">
        <ele>222.3</ele>
        <time>2025-05-10T16:52:11.000Z</time>
      </trkpt>
      <trkpt lat="48.65041" lon="-0.70017">
        <ele>222.7</ele>
        <time>2025-05-10T16:52:13.000Z</time>
      </trkpt>
      <trkpt lat="48.65044" lon="-0.70006">
        <ele>223.1</ele>
        <time>2025-05-10T16:52:15.000Z</time>
      </trkpt>
      <trkpt lat="48.65045" lon="-0.69995">
        <ele>223.5</ele>
        <time>2025-05-10T16:52:17.000Z</time>
      </trkpt>
      <trkpt lat="48.65047" lon="-0.69982">
        <ele>223.8</ele>
        <time>2025-05-10T16:52:19.000Z</time>
      </trkpt>
      <trkpt lat="48.6505" lon="-0.6997">
        <ele>224.1</ele>
        <time>2025-05-10T16:52:21.000Z</time>
      </trkpt>
      <trkpt lat="48.65052" lon="-0.69957">
        <ele>224.3</ele>
        <time>2025-05-10T16:52:23.000Z</time>
      </trkpt>
      <trkpt lat="48.65054" lon="-0.69951">
        <ele>224.3</ele>
        <time>2025-05-10T16:52:24.000Z</time>
      </trkpt>
      <trkpt lat="48.65056" lon="-0.69944">
        <ele>224.4</ele>
        <time>2025-05-10T16:52:25.000Z</time>
      </trkpt>
      <trkpt lat="48.65057" lon="-0.69936">
        <ele>224.4</ele>
        <time>2025-05-10T16:52:26.000Z</time>
      </trkpt>
      <trkpt lat="48.65059" lon="-0.69929">
        <ele>224.4</ele>
        <time>2025-05-10T16:52:27.000Z</time>
      </trkpt>
      <trkpt lat="48.65061" lon="-0.69922">
        <ele>224.4</ele>
        <time>2025-05-10T16:52:28.000Z</time>
      </trkpt>
      <trkpt lat="48.65064" lon="-0.69914">
        <ele>224.4</ele>
        <time>2025-05-10T16:52:29.000Z</time>
      </trkpt>
      <trkpt lat="48.65066" lon="-0.69906">
        <ele>224.3</ele>
        <time>2025-05-10T16:52:30.000Z</time>
      </trkpt>
      <trkpt lat="48.65069" lon="-0.69898">
        <ele>224.3</ele>
        <time>2025-05-10T16:52:31.000Z</time>
      </trkpt>
      <trkpt lat="48.65071" lon="-0.69891">
        <ele>224.2</ele>
        <time>2025-05-10T16:52:32.000Z</time>
      </trkpt>
      <trkpt lat="48.65072" lon="-0.69883">
        <ele>224.2</ele>
        <time>2025-05-10T16:52:33.000Z</time>
      </trkpt>
      <trkpt lat="48.65075" lon="-0.69876">
        <ele>224.1</ele>
        <time>2025-05-10T16:52:34.000Z</time>
      </trkpt>
      <trkpt lat="48.65077" lon="-0.69869">
        <ele>224</ele>
        <time>2025-05-10T16:52:35.000Z</time>
      </trkpt>
      <trkpt lat="48.65079" lon="-0.69862">
        <ele>224</ele>
        <time>2025-05-10T16:52:36.000Z</time>
      </trkpt>
      <trkpt lat="48.65081" lon="-0.69856">
        <ele>223.9</ele>
        <time>2025-05-10T16:52:37.000Z</time>
      </trkpt>
      <trkpt lat="48.65084" lon="-0.6985">
        <ele>223.8</ele>
        <time>2025-05-10T16:52:38.000Z</time>
      </trkpt>
      <trkpt lat="48.65086" lon="-0.69844">
        <ele>223.8</ele>
        <time>2025-05-10T16:52:39.000Z</time>
      </trkpt>
      <trkpt lat="48.6509" lon="-0.69832">
        <ele>223.6</ele>
        <time>2025-05-10T16:52:41.000Z</time>
      </trkpt>
      <trkpt lat="48.65092" lon="-0.69821">
        <ele>223.5</ele>
        <time>2025-05-10T16:52:43.000Z</time>
      </trkpt>
      <trkpt lat="48.65093" lon="-0.69814">
        <ele>223.4</ele>
        <time>2025-05-10T16:52:45.000Z</time>
      </trkpt>
      <trkpt lat="48.65089" lon="-0.69808">
        <ele>223.3</ele>
        <time>2025-05-10T16:52:48.000Z</time>
      </trkpt>
      <trkpt lat="48.65085" lon="-0.69804">
        <ele>223.3</ele>
        <time>2025-05-10T16:52:51.000Z</time>
      </trkpt>
      <trkpt lat="48.6508" lon="-0.69805">
        <ele>223.3</ele>
        <time>2025-05-10T16:52:56.000Z</time>
      </trkpt>
      <trkpt lat="48.65075" lon="-0.69804">
        <ele>223.4</ele>
        <time>2025-05-10T16:53:01.000Z</time>
      </trkpt>
      <trkpt lat="48.65074" lon="-0.69804">
        <ele>223.5</ele>
        <time>2025-05-10T16:53:05.000Z</time>
      </trkpt>
      <trkpt lat="48.65074" lon="-0.69804">
        <ele>223.5</ele>
        <time>2025-05-10T16:53:06.000Z</time>
      </trkpt>
      <trkpt lat="48.65067" lon="-0.69804">
        <ele>223.6</ele>
        <time>2025-05-10T16:53:14.000Z</time>
      </trkpt>
      <trkpt lat="48.6506" lon="-0.69804">
        <ele>223.6</ele>
        <time>2025-05-10T16:53:16.000Z</time>
      </trkpt>
      <trkpt lat="48.65053" lon="-0.69804">
        <ele>223.6</ele>
        <time>2025-05-10T16:53:18.000Z</time>
      </trkpt>
      <trkpt lat="48.65046" lon="-0.69803">
        <ele>223.6</ele>
        <time>2025-05-10T16:53:20.000Z</time>
      </trkpt>
      <trkpt lat="48.65039" lon="-0.69803">
        <ele>223.6</ele>
        <time>2025-05-10T16:53:22.000Z</time>
      </trkpt>
      <trkpt lat="48.6503" lon="-0.69802">
        <ele>223.6</ele>
        <time>2025-05-10T16:53:24.000Z</time>
      </trkpt>
      <trkpt lat="48.65021" lon="-0.69802">
        <ele>223.7</ele>
        <time>2025-05-10T16:53:26.000Z</time>
      </trkpt>
      <trkpt lat="48.65017" lon="-0.69802">
        <ele>223.7</ele>
        <time>2025-05-10T16:53:27.000Z</time>
      </trkpt>
      <trkpt lat="48.65012" lon="-0.69802">
        <ele>223.7</ele>
        <time>2025-05-10T16:53:28.000Z</time>
      </trkpt>
      <trkpt lat="48.65007" lon="-0.69802">
        <ele>223.7</ele>
        <time>2025-05-10T16:53:29.000Z</time>
      </trkpt>
      <trkpt lat="48.65002" lon="-0.69802">
        <ele>223.8</ele>
        <time>2025-05-10T16:53:30.000Z</time>
      </trkpt>
      <trkpt lat="48.64997" lon="-0.69802">
        <ele>223.8</ele>
        <time>2025-05-10T16:53:31.000Z</time>
      </trkpt>
      <trkpt lat="48.64992" lon="-0.69802">
        <ele>223.8</ele>
        <time>2025-05-10T16:53:32.000Z</time>
      </trkpt>
      <trkpt lat="48.64987" lon="-0.69802">
        <ele>223.9</ele>
        <time>2025-05-10T16:53:33.000Z</time>
      </trkpt>
      <trkpt lat="48.64981" lon="-0.69802">
        <ele>223.9</ele>
        <time>2025-05-10T16:53:34.000Z</time>
      </trkpt>
      <trkpt lat="48.64976" lon="-0.69802">
        <ele>224</ele>
        <time>2025-05-10T16:53:35.000Z</time>
      </trkpt>
      <trkpt lat="48.6497" lon="-0.69802">
        <ele>224</ele>
        <time>2025-05-10T16:53:36.000Z</time>
      </trkpt>
      <trkpt lat="48.64964" lon="-0.69802">
        <ele>224</ele>
        <time>2025-05-10T16:53:37.000Z</time>
      </trkpt>
      <trkpt lat="48.64958" lon="-0.69802">
        <ele>224.1</ele>
        <time>2025-05-10T16:53:38.000Z</time>
      </trkpt>
      <trkpt lat="48.64952" lon="-0.69802">
        <ele>224.1</ele>
        <time>2025-05-10T16:53:39.000Z</time>
      </trkpt>
      <trkpt lat="48.64946" lon="-0.69802">
        <ele>224.2</ele>
        <time>2025-05-10T16:53:40.000Z</time>
      </trkpt>
      <trkpt lat="48.6494" lon="-0.69802">
        <ele>224.2</ele>
        <time>2025-05-10T16:53:41.000Z</time>
      </trkpt>
      <trkpt lat="48.64934" lon="-0.69802">
        <ele>224.3</ele>
        <time>2025-05-10T16:53:42.000Z</time>
      </trkpt>
      <trkpt lat="48.64928" lon="-0.69802">
        <ele>224.3</ele>
        <time>2025-05-10T16:53:43.000Z</time>
      </trkpt>
      <trkpt lat="48.64922" lon="-0.69802">
        <ele>224.3</ele>
        <time>2025-05-10T16:53:44.000Z</time>
      </trkpt>
      <trkpt lat="48.64917" lon="-0.69802">
        <ele>224.4</ele>
        <time>2025-05-10T16:53:45.000Z</time>
      </trkpt>
      <trkpt lat="48.64912" lon="-0.69802">
        <ele>224.4</ele>
        <time>2025-05-10T16:53:46.000Z</time>
      </trkpt>
      <trkpt lat="48.64907" lon="-0.69802">
        <ele>224.5</ele>
        <time>2025-05-10T16:53:47.000Z</time>
      </trkpt>
      <trkpt lat="48.64902" lon="-0.69801">
        <ele>224.5</ele>
        <time>2025-05-10T16:53:48.000Z</time>
      </trkpt>
      <trkpt lat="48.64897" lon="-0.69801">
        <ele>224.5</ele>
        <time>2025-05-10T16:53:49.000Z</time>
      </trkpt>
      <trkpt lat="48.64891" lon="-0.69801">
        <ele>224.5</ele>
        <time>2025-05-10T16:53:50.000Z</time>
      </trkpt>
      <trkpt lat="48.64886" lon="-0.698">
        <ele>224.5</ele>
        <time>2025-05-10T16:53:51.000Z</time>
      </trkpt>
      <trkpt lat="48.6488" lon="-0.698">
        <ele>224.5</ele>
        <time>2025-05-10T16:53:52.000Z</time>
      </trkpt>
      <trkpt lat="48.64875" lon="-0.69799">
        <ele>224.5</ele>
        <time>2025-05-10T16:53:53.000Z</time>
      </trkpt>
      <trkpt lat="48.64869" lon="-0.69799">
        <ele>224.4</ele>
        <time>2025-05-10T16:53:54.000Z</time>
      </trkpt>
      <trkpt lat="48.64862" lon="-0.69797">
        <ele>224.4</ele>
        <time>2025-05-10T16:53:55.000Z</time>
      </trkpt>
      <trkpt lat="48.64856" lon="-0.69796">
        <ele>224.4</ele>
        <time>2025-05-10T16:53:56.000Z</time>
      </trkpt>
      <trkpt lat="48.6485" lon="-0.69793">
        <ele>224.3</ele>
        <time>2025-05-10T16:53:57.000Z</time>
      </trkpt>
      <trkpt lat="48.64844" lon="-0.69791">
        <ele>224.2</ele>
        <time>2025-05-10T16:53:58.000Z</time>
      </trkpt>
      <trkpt lat="48.64838" lon="-0.69787">
        <ele>224.1</ele>
        <time>2025-05-10T16:53:59.000Z</time>
      </trkpt>
      <trkpt lat="48.64832" lon="-0.69782">
        <ele>223.9</ele>
        <time>2025-05-10T16:54:00.000Z</time>
      </trkpt>
      <trkpt lat="48.64826" lon="-0.69777">
        <ele>223.8</ele>
        <time>2025-05-10T16:54:01.000Z</time>
      </trkpt>
      <trkpt lat="48.6482" lon="-0.69772">
        <ele>223.5</ele>
        <time>2025-05-10T16:54:02.000Z</time>
      </trkpt>
      <trkpt lat="48.64814" lon="-0.69766">
        <ele>223.2</ele>
        <time>2025-05-10T16:54:03.000Z</time>
      </trkpt>
      <trkpt lat="48.64807" lon="-0.6976">
        <ele>222.8</ele>
        <time>2025-05-10T16:54:04.000Z</time>
      </trkpt>
      <trkpt lat="48.648" lon="-0.69754">
        <ele>222.4</ele>
        <time>2025-05-10T16:54:05.000Z</time>
      </trkpt>
      <trkpt lat="48.64793" lon="-0.69748">
        <ele>221.8</ele>
        <time>2025-05-10T16:54:06.000Z</time>
      </trkpt>
      <trkpt lat="48.64786" lon="-0.69742">
        <ele>221.2</ele>
        <time>2025-05-10T16:54:07.000Z</time>
      </trkpt>
      <trkpt lat="48.6478" lon="-0.69736">
        <ele>220.5</ele>
        <time>2025-05-10T16:54:08.000Z</time>
      </trkpt>
      <trkpt lat="48.64774" lon="-0.69731">
        <ele>219.7</ele>
        <time>2025-05-10T16:54:09.000Z</time>
      </trkpt>
      <trkpt lat="48.64768" lon="-0.69726">
        <ele>219.1</ele>
        <time>2025-05-10T16:54:10.000Z</time>
      </trkpt>
      <trkpt lat="48.64763" lon="-0.69722">
        <ele>218.4</ele>
        <time>2025-05-10T16:54:11.000Z</time>
      </trkpt>
      <trkpt lat="48.64758" lon="-0.69718">
        <ele>217.8</ele>
        <time>2025-05-10T16:54:12.000Z</time>
      </trkpt>
      <trkpt lat="48.64754" lon="-0.69715">
        <ele>217.2</ele>
        <time>2025-05-10T16:54:13.000Z</time>
      </trkpt>
      <trkpt lat="48.64747" lon="-0.69709">
        <ele>216.2</ele>
        <time>2025-05-10T16:54:15.000Z</time>
      </trkpt>
      <trkpt lat="48.64742" lon="-0.69704">
        <ele>215.5</ele>
        <time>2025-05-10T16:54:17.000Z</time>
      </trkpt>
      <trkpt lat="48.64738" lon="-0.69697">
        <ele>215</ele>
        <time>2025-05-10T16:54:19.000Z</time>
      </trkpt>
      <trkpt lat="48.64734" lon="-0.69686">
        <ele>214.6</ele>
        <time>2025-05-10T16:54:21.000Z</time>
      </trkpt>
      <trkpt lat="48.64733" lon="-0.69674">
        <ele>214.3</ele>
        <time>2025-05-10T16:54:23.000Z</time>
      </trkpt>
      <trkpt lat="48.64732" lon="-0.69664">
        <ele>214.1</ele>
        <time>2025-05-10T16:54:25.000Z</time>
      </trkpt>
      <trkpt lat="48.64732" lon="-0.69654">
        <ele>214</ele>
        <time>2025-05-10T16:54:27.000Z</time>
      </trkpt>
      <trkpt lat="48.64731" lon="-0.69645">
        <ele>213.9</ele>
        <time>2025-05-10T16:54:29.000Z</time>
      </trkpt>
      <trkpt lat="48.64732" lon="-0.69634">
        <ele>213.9</ele>
        <time>2025-05-10T16:54:31.000Z</time>
      </trkpt>
      <trkpt lat="48.64733" lon="-0.69621">
        <ele>213.9</ele>
        <time>2025-05-10T16:54:33.000Z</time>
      </trkpt>
      <trkpt lat="48.64734" lon="-0.69609">
        <ele>213.9</ele>
        <time>2025-05-10T16:54:35.000Z</time>
      </trkpt>
      <trkpt lat="48.64735" lon="-0.69596">
        <ele>213.9</ele>
        <time>2025-05-10T16:54:37.000Z</time>
      </trkpt>
      <trkpt lat="48.64736" lon="-0.69584">
        <ele>213.9</ele>
        <time>2025-05-10T16:54:39.000Z</time>
      </trkpt>
      <trkpt lat="48.64734" lon="-0.69571">
        <ele>213.9</ele>
        <time>2025-05-10T16:54:41.000Z</time>
      </trkpt>
      <trkpt lat="48.6473" lon="-0.69567">
        <ele>214</ele>
        <time>2025-05-10T16:54:42.000Z</time>
      </trkpt>
      <trkpt lat="48.64726" lon="-0.69566">
        <ele>214</ele>
        <time>2025-05-10T16:54:43.000Z</time>
      </trkpt>
      <trkpt lat="48.64721" lon="-0.69566">
        <ele>214.1</ele>
        <time>2025-05-10T16:54:44.000Z</time>
      </trkpt>
      <trkpt lat="48.64715" lon="-0.69567">
        <ele>214.1</ele>
        <time>2025-05-10T16:54:45.000Z</time>
      </trkpt>
      <trkpt lat="48.6471" lon="-0.69567">
        <ele>214.2</ele>
        <time>2025-05-10T16:54:46.000Z</time>
      </trkpt>
      <trkpt lat="48.64704" lon="-0.69569">
        <ele>214.2</ele>
        <time>2025-05-10T16:54:47.000Z</time>
      </trkpt>
      <trkpt lat="48.64699" lon="-0.6957">
        <ele>214.4</ele>
        <time>2025-05-10T16:54:48.000Z</time>
      </trkpt>
      <trkpt lat="48.64694" lon="-0.69572">
        <ele>214.5</ele>
        <time>2025-05-10T16:54:49.000Z</time>
      </trkpt>
      <trkpt lat="48.64689" lon="-0.69572">
        <ele>214.7</ele>
        <time>2025-05-10T16:54:50.000Z</time>
      </trkpt>
      <trkpt lat="48.64685" lon="-0.69573">
        <ele>215</ele>
        <time>2025-05-10T16:54:51.000Z</time>
      </trkpt>
      <trkpt lat="48.6468" lon="-0.69574">
        <ele>215.2</ele>
        <time>2025-05-10T16:54:52.000Z</time>
      </trkpt>
      <trkpt lat="48.64675" lon="-0.69575">
        <ele>215.6</ele>
        <time>2025-05-10T16:54:53.000Z</time>
      </trkpt>
      <trkpt lat="48.64671" lon="-0.69576">
        <ele>215.9</ele>
        <time>2025-05-10T16:54:54.000Z</time>
      </trkpt>
      <trkpt lat="48.64662" lon="-0.69577">
        <ele>216.7</ele>
        <time>2025-05-10T16:54:56.000Z</time>
      </trkpt>
      <trkpt lat="48.64654" lon="-0.69579">
        <ele>217.5</ele>
        <time>2025-05-10T16:54:58.000Z</time>
      </trkpt>
      <trkpt lat="48.64645" lon="-0.69581">
        <ele>218.3</ele>
        <time>2025-05-10T16:55:00.000Z</time>
      </trkpt>
      <trkpt lat="48.64636" lon="-0.69583">
        <ele>219</ele>
        <time>2025-05-10T16:55:02.000Z</time>
      </trkpt>
      <trkpt lat="48.64632" lon="-0.69583">
        <ele>219.3</ele>
        <time>2025-05-10T16:55:03.000Z</time>
      </trkpt>
      <trkpt lat="48.64627" lon="-0.69582">
        <ele>219.6</ele>
        <time>2025-05-10T16:55:04.000Z</time>
      </trkpt>
      <trkpt lat="48.64623" lon="-0.6958">
        <ele>219.9</ele>
        <time>2025-05-10T16:55:05.000Z</time>
      </trkpt>
      <trkpt lat="48.64619" lon="-0.69577">
        <ele>220.2</ele>
        <time>2025-05-10T16:55:06.000Z</time>
      </trkpt>
      <trkpt lat="48.64615" lon="-0.69574">
        <ele>220.4</ele>
        <time>2025-05-10T16:55:07.000Z</time>
      </trkpt>
      <trkpt lat="48.64607" lon="-0.69568">
        <ele>221</ele>
        <time>2025-05-10T16:55:09.000Z</time>
      </trkpt>
      <trkpt lat="48.64603" lon="-0.69564">
        <ele>221.3</ele>
        <time>2025-05-10T16:55:10.000Z</time>
      </trkpt>
      <trkpt lat="48.64595" lon="-0.69558">
        <ele>221.9</ele>
        <time>2025-05-10T16:55:12.000Z</time>
      </trkpt>
      <trkpt lat="48.6459" lon="-0.69556">
        <ele>222.2</ele>
        <time>2025-05-10T16:55:13.000Z</time>
      </trkpt>
      <trkpt lat="48.64586" lon="-0.69554">
        <ele>222.4</ele>
        <time>2025-05-10T16:55:14.000Z</time>
      </trkpt>
      <trkpt lat="48.64582" lon="-0.69552">
        <ele>222.7</ele>
        <time>2025-05-10T16:55:15.000Z</time>
      </trkpt>
      <trkpt lat="48.64577" lon="-0.6955">
        <ele>223</ele>
        <time>2025-05-10T16:55:16.000Z</time>
      </trkpt>
      <trkpt lat="48.64572" lon="-0.69549">
        <ele>223.2</ele>
        <time>2025-05-10T16:55:17.000Z</time>
      </trkpt>
      <trkpt lat="48.64568" lon="-0.69547">
        <ele>223.5</ele>
        <time>2025-05-10T16:55:18.000Z</time>
      </trkpt>
      <trkpt lat="48.64563" lon="-0.69546">
        <ele>223.7</ele>
        <time>2025-05-10T16:55:19.000Z</time>
      </trkpt>
      <trkpt lat="48.64558" lon="-0.69544">
        <ele>224</ele>
        <time>2025-05-10T16:55:20.000Z</time>
      </trkpt>
      <trkpt lat="48.64553" lon="-0.69543">
        <ele>224.2</ele>
        <time>2025-05-10T16:55:21.000Z</time>
      </trkpt>
      <trkpt lat="48.64548" lon="-0.69542">
        <ele>224.4</ele>
        <time>2025-05-10T16:55:22.000Z</time>
      </trkpt>
      <trkpt lat="48.64543" lon="-0.69541">
        <ele>224.6</ele>
        <time>2025-05-10T16:55:23.000Z</time>
      </trkpt>
      <trkpt lat="48.64538" lon="-0.6954">
        <ele>224.8</ele>
        <time>2025-05-10T16:55:24.000Z</time>
      </trkpt>
      <trkpt lat="48.64533" lon="-0.69538">
        <ele>224.9</ele>
        <time>2025-05-10T16:55:25.000Z</time>
      </trkpt>
      <trkpt lat="48.64528" lon="-0.69537">
        <ele>225.1</ele>
        <time>2025-05-10T16:55:26.000Z</time>
      </trkpt>
      <trkpt lat="48.64524" lon="-0.69536">
        <ele>225.3</ele>
        <time>2025-05-10T16:55:27.000Z</time>
      </trkpt>
      <trkpt lat="48.64519" lon="-0.69534">
        <ele>225.5</ele>
        <time>2025-05-10T16:55:28.000Z</time>
      </trkpt>
      <trkpt lat="48.64514" lon="-0.69533">
        <ele>225.7</ele>
        <time>2025-05-10T16:55:29.000Z</time>
      </trkpt>
      <trkpt lat="48.64509" lon="-0.69531">
        <ele>225.8</ele>
        <time>2025-05-10T16:55:30.000Z</time>
      </trkpt>
      <trkpt lat="48.64504" lon="-0.6953">
        <ele>226</ele>
        <time>2025-05-10T16:55:31.000Z</time>
      </trkpt>
      <trkpt lat="48.64499" lon="-0.69528">
        <ele>226.1</ele>
        <time>2025-05-10T16:55:32.000Z</time>
      </trkpt>
      <trkpt lat="48.64495" lon="-0.69526">
        <ele>226.3</ele>
        <time>2025-05-10T16:55:33.000Z</time>
      </trkpt>
      <trkpt lat="48.6449" lon="-0.69524">
        <ele>226.4</ele>
        <time>2025-05-10T16:55:34.000Z</time>
      </trkpt>
      <trkpt lat="48.64485" lon="-0.69522">
        <ele>226.5</ele>
        <time>2025-05-10T16:55:35.000Z</time>
      </trkpt>
      <trkpt lat="48.6448" lon="-0.69519">
        <ele>226.7</ele>
        <time>2025-05-10T16:55:36.000Z</time>
      </trkpt>
      <trkpt lat="48.64475" lon="-0.69516">
        <ele>226.8</ele>
        <time>2025-05-10T16:55:37.000Z</time>
      </trkpt>
      <trkpt lat="48.6447" lon="-0.69512">
        <ele>226.9</ele>
        <time>2025-05-10T16:55:38.000Z</time>
      </trkpt>
      <trkpt lat="48.64466" lon="-0.69508">
        <ele>227</ele>
        <time>2025-05-10T16:55:39.000Z</time>
      </trkpt>
      <trkpt lat="48.64462" lon="-0.69504">
        <ele>227.1</ele>
        <time>2025-05-10T16:55:40.000Z</time>
      </trkpt>
      <trkpt lat="48.64457" lon="-0.695">
        <ele>227.2</ele>
        <time>2025-05-10T16:55:41.000Z</time>
      </trkpt>
      <trkpt lat="48.64453" lon="-0.69495">
        <ele>227.2</ele>
        <time>2025-05-10T16:55:42.000Z</time>
      </trkpt>
      <trkpt lat="48.64449" lon="-0.69491">
        <ele>227.3</ele>
        <time>2025-05-10T16:55:43.000Z</time>
      </trkpt>
      <trkpt lat="48.64445" lon="-0.69486">
        <ele>227.3</ele>
        <time>2025-05-10T16:55:44.000Z</time>
      </trkpt>
      <trkpt lat="48.64441" lon="-0.69481">
        <ele>227.3</ele>
        <time>2025-05-10T16:55:45.000Z</time>
      </trkpt>
      <trkpt lat="48.64437" lon="-0.69476">
        <ele>227.3</ele>
        <time>2025-05-10T16:55:46.000Z</time>
      </trkpt>
      <trkpt lat="48.64432" lon="-0.69471">
        <ele>227.3</ele>
        <time>2025-05-10T16:55:47.000Z</time>
      </trkpt>
      <trkpt lat="48.64427" lon="-0.69466">
        <ele>227.2</ele>
        <time>2025-05-10T16:55:48.000Z</time>
      </trkpt>
      <trkpt lat="48.64421" lon="-0.69462">
        <ele>227.2</ele>
        <time>2025-05-10T16:55:49.000Z</time>
      </trkpt>
      <trkpt lat="48.64414" lon="-0.69459">
        <ele>227.1</ele>
        <time>2025-05-10T16:55:50.000Z</time>
      </trkpt>
      <trkpt lat="48.64408" lon="-0.69456">
        <ele>227</ele>
        <time>2025-05-10T16:55:51.000Z</time>
      </trkpt>
      <trkpt lat="48.64401" lon="-0.69453">
        <ele>226.8</ele>
        <time>2025-05-10T16:55:52.000Z</time>
      </trkpt>
      <trkpt lat="48.64394" lon="-0.69451">
        <ele>226.7</ele>
        <time>2025-05-10T16:55:53.000Z</time>
      </trkpt>
      <trkpt lat="48.64386" lon="-0.69447">
        <ele>226.5</ele>
        <time>2025-05-10T16:55:54.000Z</time>
      </trkpt>
      <trkpt lat="48.64379" lon="-0.69442">
        <ele>226.2</ele>
        <time>2025-05-10T16:55:55.000Z</time>
      </trkpt>
      <trkpt lat="48.64374" lon="-0.69435">
        <ele>226</ele>
        <time>2025-05-10T16:55:56.000Z</time>
      </trkpt>
      <trkpt lat="48.64369" lon="-0.69428">
        <ele>225.7</ele>
        <time>2025-05-10T16:55:57.000Z</time>
      </trkpt>
      <trkpt lat="48.64365" lon="-0.6942">
        <ele>225.4</ele>
        <time>2025-05-10T16:55:58.000Z</time>
      </trkpt>
      <trkpt lat="48.64361" lon="-0.69411">
        <ele>225.1</ele>
        <time>2025-05-10T16:55:59.000Z</time>
      </trkpt>
      <trkpt lat="48.64358" lon="-0.69402">
        <ele>224.8</ele>
        <time>2025-05-10T16:56:00.000Z</time>
      </trkpt>
      <trkpt lat="48.64355" lon="-0.69393">
        <ele>224.6</ele>
        <time>2025-05-10T16:56:01.000Z</time>
      </trkpt>
      <trkpt lat="48.64352" lon="-0.69385">
        <ele>224.3</ele>
        <time>2025-05-10T16:56:02.000Z</time>
      </trkpt>
      <trkpt lat="48.6435" lon="-0.69378">
        <ele>224</ele>
        <time>2025-05-10T16:56:03.000Z</time>
      </trkpt>
      <trkpt lat="48.64346" lon="-0.69368">
        <ele>223.6</ele>
        <time>2025-05-10T16:56:05.000Z</time>
      </trkpt>
      <trkpt lat="48.64344" lon="-0.69362">
        <ele>223.2</ele>
        <time>2025-05-10T16:56:07.000Z</time>
      </trkpt>
      <trkpt lat="48.64341" lon="-0.69352">
        <ele>222.8</ele>
        <time>2025-05-10T16:56:10.000Z</time>
      </trkpt>
      <trkpt lat="48.64338" lon="-0.69345">
        <ele>222.4</ele>
        <time>2025-05-10T16:56:13.000Z</time>
      </trkpt>
      <trkpt lat="48.64335" lon="-0.69338">
        <ele>221.8</ele>
        <time>2025-05-10T16:56:19.000Z</time>
      </trkpt>
      <trkpt lat="48.64333" lon="-0.69332">
        <ele>221.6</ele>
        <time>2025-05-10T16:56:21.000Z</time>
      </trkpt>
      <trkpt lat="48.64329" lon="-0.69322">
        <ele>221.4</ele>
        <time>2025-05-10T16:56:23.000Z</time>
      </trkpt>
      <trkpt lat="48.64326" lon="-0.69316">
        <ele>221.3</ele>
        <time>2025-05-10T16:56:24.000Z</time>
      </trkpt>
      <trkpt lat="48.64323" lon="-0.6931">
        <ele>221.2</ele>
        <time>2025-05-10T16:56:25.000Z</time>
      </trkpt>
      <trkpt lat="48.64321" lon="-0.69303">
        <ele>221.1</ele>
        <time>2025-05-10T16:56:26.000Z</time>
      </trkpt>
      <trkpt lat="48.64318" lon="-0.69297">
        <ele>221</ele>
        <time>2025-05-10T16:56:27.000Z</time>
      </trkpt>
      <trkpt lat="48.64315" lon="-0.69291">
        <ele>220.9</ele>
        <time>2025-05-10T16:56:28.000Z</time>
      </trkpt>
      <trkpt lat="48.64307" lon="-0.69286">
        <ele>220.6</ele>
        <time>2025-05-10T16:56:30.000Z</time>
      </trkpt>
      <trkpt lat="48.64301" lon="-0.69284">
        <ele>220.5</ele>
        <time>2025-05-10T16:56:31.000Z</time>
      </trkpt>
      <trkpt lat="48.64295" lon="-0.69281">
        <ele>220.3</ele>
        <time>2025-05-10T16:56:32.000Z</time>
      </trkpt>
      <trkpt lat="48.64289" lon="-0.69277">
        <ele>220.1</ele>
        <time>2025-05-10T16:56:33.000Z</time>
      </trkpt>
      <trkpt lat="48.64283" lon="-0.69272">
        <ele>219.9</ele>
        <time>2025-05-10T16:56:34.000Z</time>
      </trkpt>
      <trkpt lat="48.64277" lon="-0.69269">
        <ele>219.7</ele>
        <time>2025-05-10T16:56:35.000Z</time>
      </trkpt>
      <trkpt lat="48.64271" lon="-0.69263">
        <ele>219.5</ele>
        <time>2025-05-10T16:56:36.000Z</time>
      </trkpt>
      <trkpt lat="48.64267" lon="-0.69256">
        <ele>219.3</ele>
        <time>2025-05-10T16:56:37.000Z</time>
      </trkpt>
      <trkpt lat="48.64264" lon="-0.6925">
        <ele>219.2</ele>
        <time>2025-05-10T16:56:38.000Z</time>
      </trkpt>
      <trkpt lat="48.64261" lon="-0.69244">
        <ele>219</ele>
        <time>2025-05-10T16:56:39.000Z</time>
      </trkpt>
      <trkpt lat="48.6426" lon="-0.69237">
        <ele>218.8</ele>
        <time>2025-05-10T16:56:40.000Z</time>
      </trkpt>
      <trkpt lat="48.64258" lon="-0.69231">
        <ele>218.6</ele>
        <time>2025-05-10T16:56:41.000Z</time>
      </trkpt>
      <trkpt lat="48.64253" lon="-0.6922">
        <ele>218.2</ele>
        <time>2025-05-10T16:56:43.000Z</time>
      </trkpt>
      <trkpt lat="48.6425" lon="-0.69214">
        <ele>218</ele>
        <time>2025-05-10T16:56:44.000Z</time>
      </trkpt>
      <trkpt lat="48.64248" lon="-0.69207">
        <ele>217.8</ele>
        <time>2025-05-10T16:56:45.000Z</time>
      </trkpt>
      <trkpt lat="48.64244" lon="-0.69199">
        <ele>217.7</ele>
        <time>2025-05-10T16:56:46.000Z</time>
      </trkpt>
      <trkpt lat="48.64241" lon="-0.69193">
        <ele>217.5</ele>
        <time>2025-05-10T16:56:47.000Z</time>
      </trkpt>
      <trkpt lat="48.64237" lon="-0.69186">
        <ele>217.3</ele>
        <time>2025-05-10T16:56:48.000Z</time>
      </trkpt>
      <trkpt lat="48.64233" lon="-0.6918">
        <ele>217.1</ele>
        <time>2025-05-10T16:56:49.000Z</time>
      </trkpt>
      <trkpt lat="48.64229" lon="-0.69174">
        <ele>216.9</ele>
        <time>2025-05-10T16:56:50.000Z</time>
      </trkpt>
      <trkpt lat="48.64225" lon="-0.69169">
        <ele>216.7</ele>
        <time>2025-05-10T16:56:51.000Z</time>
      </trkpt>
      <trkpt lat="48.6422" lon="-0.69164">
        <ele>216.6</ele>
        <time>2025-05-10T16:56:52.000Z</time>
      </trkpt>
      <trkpt lat="48.64216" lon="-0.6916">
        <ele>216.4</ele>
        <time>2025-05-10T16:56:53.000Z</time>
      </trkpt>
      <trkpt lat="48.6421" lon="-0.69156">
        <ele>216.2</ele>
        <time>2025-05-10T16:56:54.000Z</time>
      </trkpt>
      <trkpt lat="48.64206" lon="-0.69153">
        <ele>215.8</ele>
        <time>2025-05-10T16:56:55.000Z</time>
      </trkpt>
      <trkpt lat="48.64201" lon="-0.69151">
        <ele>215.6</ele>
        <time>2025-05-10T16:56:56.000Z</time>
      </trkpt>
      <trkpt lat="48.64196" lon="-0.69148">
        <ele>215.3</ele>
        <time>2025-05-10T16:56:57.000Z</time>
      </trkpt>
      <trkpt lat="48.64191" lon="-0.69144">
        <ele>214.8</ele>
        <time>2025-05-10T16:56:58.000Z</time>
      </trkpt>
      <trkpt lat="48.64185" lon="-0.69139">
        <ele>214.4</ele>
        <time>2025-05-10T16:56:59.000Z</time>
      </trkpt>
      <trkpt lat="48.64179" lon="-0.69135">
        <ele>213.9</ele>
        <time>2025-05-10T16:57:00.000Z</time>
      </trkpt>
      <trkpt lat="48.64174" lon="-0.69131">
        <ele>213.5</ele>
        <time>2025-05-10T16:57:01.000Z</time>
      </trkpt>
      <trkpt lat="48.64165" lon="-0.69125">
        <ele>212.5</ele>
        <time>2025-05-10T16:57:03.000Z</time>
      </trkpt>
      <trkpt lat="48.6416" lon="-0.69121">
        <ele>212.1</ele>
        <time>2025-05-10T16:57:04.000Z</time>
      </trkpt>
      <trkpt lat="48.64155" lon="-0.69118">
        <ele>211.6</ele>
        <time>2025-05-10T16:57:05.000Z</time>
      </trkpt>
      <trkpt lat="48.6415" lon="-0.69116">
        <ele>211.2</ele>
        <time>2025-05-10T16:57:06.000Z</time>
      </trkpt>
      <trkpt lat="48.64143" lon="-0.69114">
        <ele>210.2</ele>
        <time>2025-05-10T16:57:08.000Z</time>
      </trkpt>
      <trkpt lat="48.64134" lon="-0.69114">
        <ele>209.3</ele>
        <time>2025-05-10T16:57:10.000Z</time>
      </trkpt>
      <trkpt lat="48.64127" lon="-0.69113">
        <ele>208.2</ele>
        <time>2025-05-10T16:57:12.000Z</time>
      </trkpt>
      <trkpt lat="48.64118" lon="-0.6911">
        <ele>207</ele>
        <time>2025-05-10T16:57:14.000Z</time>
      </trkpt>
      <trkpt lat="48.64113" lon="-0.69109">
        <ele>206.4</ele>
        <time>2025-05-10T16:57:15.000Z</time>
      </trkpt>
      <trkpt lat="48.64108" lon="-0.69107">
        <ele>205.8</ele>
        <time>2025-05-10T16:57:16.000Z</time>
      </trkpt>
      <trkpt lat="48.64102" lon="-0.69103">
        <ele>205.2</ele>
        <time>2025-05-10T16:57:17.000Z</time>
      </trkpt>
      <trkpt lat="48.64097" lon="-0.691">
        <ele>204.6</ele>
        <time>2025-05-10T16:57:18.000Z</time>
      </trkpt>
      <trkpt lat="48.64092" lon="-0.69098">
        <ele>204</ele>
        <time>2025-05-10T16:57:19.000Z</time>
      </trkpt>
      <trkpt lat="48.64087" lon="-0.69092">
        <ele>203</ele>
        <time>2025-05-10T16:57:21.000Z</time>
      </trkpt>
      <trkpt lat="48.64082" lon="-0.69087">
        <ele>201.9</ele>
        <time>2025-05-10T16:57:23.000Z</time>
      </trkpt>
      <trkpt lat="48.64077" lon="-0.69079">
        <ele>201.1</ele>
        <time>2025-05-10T16:57:25.000Z</time>
      </trkpt>
      <trkpt lat="48.6407" lon="-0.69069">
        <ele>200.3</ele>
        <time>2025-05-10T16:57:27.000Z</time>
      </trkpt>
      <trkpt lat="48.64068" lon="-0.69063">
        <ele>199.9</ele>
        <time>2025-05-10T16:57:28.000Z</time>
      </trkpt>
      <trkpt lat="48.64065" lon="-0.69056">
        <ele>199.5</ele>
        <time>2025-05-10T16:57:29.000Z</time>
      </trkpt>
      <trkpt lat="48.64065" lon="-0.69044">
        <ele>198.8</ele>
        <time>2025-05-10T16:57:31.000Z</time>
      </trkpt>
      <trkpt lat="48.64067" lon="-0.69033">
        <ele>198</ele>
        <time>2025-05-10T16:57:33.000Z</time>
      </trkpt>
      <trkpt lat="48.64068" lon="-0.69026">
        <ele>197.6</ele>
        <time>2025-05-10T16:57:34.000Z</time>
      </trkpt>
      <trkpt lat="48.6407" lon="-0.69019">
        <ele>197.3</ele>
        <time>2025-05-10T16:57:35.000Z</time>
      </trkpt>
      <trkpt lat="48.64072" lon="-0.69007">
        <ele>196.6</ele>
        <time>2025-05-10T16:57:37.000Z</time>
      </trkpt>
      <trkpt lat="48.64072" lon="-0.68997">
        <ele>196.1</ele>
        <time>2025-05-10T16:57:39.000Z</time>
      </trkpt>
      <trkpt lat="48.6407" lon="-0.68989">
        <ele>195.6</ele>
        <time>2025-05-10T16:57:41.000Z</time>
      </trkpt>
      <trkpt lat="48.64066" lon="-0.68982">
        <ele>195</ele>
        <time>2025-05-10T16:57:44.000Z</time>
      </trkpt>
      <trkpt lat="48.64059" lon="-0.68979">
        <ele>194.6</ele>
        <time>2025-05-10T16:57:47.000Z</time>
      </trkpt>
      <trkpt lat="48.64053" lon="-0.6898">
        <ele>194.4</ele>
        <time>2025-05-10T16:57:49.000Z</time>
      </trkpt>
      <trkpt lat="48.64047" lon="-0.68979">
        <ele>194.3</ele>
        <time>2025-05-10T16:57:51.000Z</time>
      </trkpt>
      <trkpt lat="48.6404" lon="-0.6898">
        <ele>194.2</ele>
        <time>2025-05-10T16:57:53.000Z</time>
      </trkpt>
      <trkpt lat="48.64033" lon="-0.68979">
        <ele>194.3</ele>
        <time>2025-05-10T16:57:55.000Z</time>
      </trkpt>
      <trkpt lat="48.64024" lon="-0.68981">
        <ele>194.4</ele>
        <time>2025-05-10T16:57:57.000Z</time>
      </trkpt>
      <trkpt lat="48.64017" lon="-0.68985">
        <ele>194.6</ele>
        <time>2025-05-10T16:57:59.000Z</time>
      </trkpt>
      <trkpt lat="48.6401" lon="-0.68985">
        <ele>194.8</ele>
        <time>2025-05-10T16:58:01.000Z</time>
      </trkpt>
      <trkpt lat="48.64005" lon="-0.68985">
        <ele>194.9</ele>
        <time>2025-05-10T16:58:02.000Z</time>
      </trkpt>
      <trkpt lat="48.64001" lon="-0.68987">
        <ele>195.1</ele>
        <time>2025-05-10T16:58:03.000Z</time>
      </trkpt>
      <trkpt lat="48.63993" lon="-0.68991">
        <ele>195.4</ele>
        <time>2025-05-10T16:58:05.000Z</time>
      </trkpt>
      <trkpt lat="48.63988" lon="-0.68993">
        <ele>195.6</ele>
        <time>2025-05-10T16:58:06.000Z</time>
      </trkpt>
      <trkpt lat="48.63984" lon="-0.68993">
        <ele>195.8</ele>
        <time>2025-05-10T16:58:07.000Z</time>
      </trkpt>
      <trkpt lat="48.63979" lon="-0.68991">
        <ele>196.1</ele>
        <time>2025-05-10T16:58:08.000Z</time>
      </trkpt>
      <trkpt lat="48.63971" lon="-0.68988">
        <ele>196.6</ele>
        <time>2025-05-10T16:58:10.000Z</time>
      </trkpt>
      <trkpt lat="48.63965" lon="-0.68983">
        <ele>197.1</ele>
        <time>2025-05-10T16:58:12.000Z</time>
      </trkpt>
      <trkpt lat="48.63959" lon="-0.68976">
        <ele>197.9</ele>
        <time>2025-05-10T16:58:14.000Z</time>
      </trkpt>
      <trkpt lat="48.63954" lon="-0.68969">
        <ele>198.7</ele>
        <time>2025-05-10T16:58:16.000Z</time>
      </trkpt>
      <trkpt lat="48.63949" lon="-0.68963">
        <ele>199.6</ele>
        <time>2025-05-10T16:58:18.000Z</time>
      </trkpt>
      <trkpt lat="48.63943" lon="-0.68955">
        <ele>200.4</ele>
        <time>2025-05-10T16:58:20.000Z</time>
      </trkpt>
      <trkpt lat="48.63938" lon="-0.68947">
        <ele>201.1</ele>
        <time>2025-05-10T16:58:22.000Z</time>
      </trkpt>
      <trkpt lat="48.63934" lon="-0.68936">
        <ele>202</ele>
        <time>2025-05-10T16:58:24.000Z</time>
      </trkpt>
      <trkpt lat="48.63932" lon="-0.68929">
        <ele>202.3</ele>
        <time>2025-05-10T16:58:25.000Z</time>
      </trkpt>
      <trkpt lat="48.63931" lon="-0.68923">
        <ele>202.5</ele>
        <time>2025-05-10T16:58:26.000Z</time>
      </trkpt>
      <trkpt lat="48.63928" lon="-0.68915">
        <ele>202.7</ele>
        <time>2025-05-10T16:58:27.000Z</time>
      </trkpt>
      <trkpt lat="48.63926" lon="-0.68908">
        <ele>203</ele>
        <time>2025-05-10T16:58:28.000Z</time>
      </trkpt>
      <trkpt lat="48.63924" lon="-0.68901">
        <ele>203.2</ele>
        <time>2025-05-10T16:58:29.000Z</time>
      </trkpt>
      <trkpt lat="48.63923" lon="-0.68894">
        <ele>203.3</ele>
        <time>2025-05-10T16:58:30.000Z</time>
      </trkpt>
      <trkpt lat="48.63921" lon="-0.68888">
        <ele>203.5</ele>
        <time>2025-05-10T16:58:31.000Z</time>
      </trkpt>
      <trkpt lat="48.63919" lon="-0.68876">
        <ele>203.8</ele>
        <time>2025-05-10T16:58:33.000Z</time>
      </trkpt>
      <trkpt lat="48.63915" lon="-0.68863">
        <ele>204.1</ele>
        <time>2025-05-10T16:58:35.000Z</time>
      </trkpt>
      <trkpt lat="48.63912" lon="-0.6885">
        <ele>204.3</ele>
        <time>2025-05-10T16:58:37.000Z</time>
      </trkpt>
      <trkpt lat="48.63909" lon="-0.68838">
        <ele>204.6</ele>
        <time>2025-05-10T16:58:39.000Z</time>
      </trkpt>
      <trkpt lat="48.63906" lon="-0.68827">
        <ele>204.8</ele>
        <time>2025-05-10T16:58:41.000Z</time>
      </trkpt>
      <trkpt lat="48.63901" lon="-0.68819">
        <ele>205.1</ele>
        <time>2025-05-10T16:58:43.000Z</time>
      </trkpt>
      <trkpt lat="48.63897" lon="-0.68809">
        <ele>205.3</ele>
        <time>2025-05-10T16:58:45.000Z</time>
      </trkpt>
      <trkpt lat="48.63894" lon="-0.68802">
        <ele>205.4</ele>
        <time>2025-05-10T16:58:46.000Z</time>
      </trkpt>
      <trkpt lat="48.63887" lon="-0.68792">
        <ele>205.7</ele>
        <time>2025-05-10T16:58:48.000Z</time>
      </trkpt>
      <trkpt lat="48.63884" lon="-0.68787">
        <ele>205.8</ele>
        <time>2025-05-10T16:58:49.000Z</time>
      </trkpt>
      <trkpt lat="48.6388" lon="-0.68781">
        <ele>205.8</ele>
        <time>2025-05-10T16:58:50.000Z</time>
      </trkpt>
      <trkpt lat="48.63877" lon="-0.68775">
        <ele>205.9</ele>
        <time>2025-05-10T16:58:51.000Z</time>
      </trkpt>
      <trkpt lat="48.63871" lon="-0.68767">
        <ele>206.1</ele>
        <time>2025-05-10T16:58:53.000Z</time>
      </trkpt>
      <trkpt lat="48.63864" lon="-0.68758">
        <ele>206.3</ele>
        <time>2025-05-10T16:58:55.000Z</time>
      </trkpt>
      <trkpt lat="48.6386" lon="-0.68754">
        <ele>206.3</ele>
        <time>2025-05-10T16:58:56.000Z</time>
      </trkpt>
      <trkpt lat="48.63856" lon="-0.68749">
        <ele>206.5</ele>
        <time>2025-05-10T16:58:57.000Z</time>
      </trkpt>
      <trkpt lat="48.63849" lon="-0.68742">
        <ele>206.7</ele>
        <time>2025-05-10T16:58:59.000Z</time>
      </trkpt>
      <trkpt lat="48.63843" lon="-0.68735">
        <ele>207</ele>
        <time>2025-05-10T16:59:01.000Z</time>
      </trkpt>
      <trkpt lat="48.63837" lon="-0.6873">
        <ele>207.4</ele>
        <time>2025-05-10T16:59:03.000Z</time>
      </trkpt>
      <trkpt lat="48.6383" lon="-0.68722">
        <ele>207.9</ele>
        <time>2025-05-10T16:59:05.000Z</time>
      </trkpt>
      <trkpt lat="48.63824" lon="-0.68715">
        <ele>208.4</ele>
        <time>2025-05-10T16:59:07.000Z</time>
      </trkpt>
      <trkpt lat="48.63819" lon="-0.68708">
        <ele>209</ele>
        <time>2025-05-10T16:59:09.000Z</time>
      </trkpt>
      <trkpt lat="48.63812" lon="-0.687">
        <ele>209.4</ele>
        <time>2025-05-10T16:59:11.000Z</time>
      </trkpt>
      <trkpt lat="48.63808" lon="-0.68696">
        <ele>209.6</ele>
        <time>2025-05-10T16:59:12.000Z</time>
      </trkpt>
      <trkpt lat="48.63801" lon="-0.6869">
        <ele>210</ele>
        <time>2025-05-10T16:59:14.000Z</time>
      </trkpt>
      <trkpt lat="48.63796" lon="-0.68686">
        <ele>210.2</ele>
        <time>2025-05-10T16:59:15.000Z</time>
      </trkpt>
      <trkpt lat="48.63792" lon="-0.68681">
        <ele>210.2</ele>
        <time>2025-05-10T16:59:16.000Z</time>
      </trkpt>
      <trkpt lat="48.63788" lon="-0.68678">
        <ele>210.3</ele>
        <time>2025-05-10T16:59:17.000Z</time>
      </trkpt>
      <trkpt lat="48.63784" lon="-0.68675">
        <ele>210.3</ele>
        <time>2025-05-10T16:59:18.000Z</time>
      </trkpt>
      <trkpt lat="48.6378" lon="-0.6867">
        <ele>210.4</ele>
        <time>2025-05-10T16:59:19.000Z</time>
      </trkpt>
      <trkpt lat="48.63776" lon="-0.68665">
        <ele>210.3</ele>
        <time>2025-05-10T16:59:20.000Z</time>
      </trkpt>
      <trkpt lat="48.63772" lon="-0.68658">
        <ele>210.3</ele>
        <time>2025-05-10T16:59:21.000Z</time>
      </trkpt>
      <trkpt lat="48.63768" lon="-0.6865">
        <ele>210.3</ele>
        <time>2025-05-10T16:59:22.000Z</time>
      </trkpt>
      <trkpt lat="48.63765" lon="-0.68644">
        <ele>210.2</ele>
        <time>2025-05-10T16:59:23.000Z</time>
      </trkpt>
      <trkpt lat="48.63762" lon="-0.68638">
        <ele>210.1</ele>
        <time>2025-05-10T16:59:24.000Z</time>
      </trkpt>
      <trkpt lat="48.63757" lon="-0.68629">
        <ele>209.9</ele>
        <time>2025-05-10T16:59:26.000Z</time>
      </trkpt>
      <trkpt lat="48.63753" lon="-0.68621">
        <ele>209.5</ele>
        <time>2025-05-10T16:59:28.000Z</time>
      </trkpt>
      <trkpt lat="48.6375" lon="-0.68613">
        <ele>209.2</ele>
        <time>2025-05-10T16:59:29.000Z</time>
      </trkpt>
      <trkpt lat="48.63747" lon="-0.68606">
        <ele>208.9</ele>
        <time>2025-05-10T16:59:30.000Z</time>
      </trkpt>
      <trkpt lat="48.63744" lon="-0.68601">
        <ele>208.5</ele>
        <time>2025-05-10T16:59:31.000Z</time>
      </trkpt>
      <trkpt lat="48.63741" lon="-0.68594">
        <ele>208</ele>
        <time>2025-05-10T16:59:32.000Z</time>
      </trkpt>
      <trkpt lat="48.63738" lon="-0.68588">
        <ele>207.4</ele>
        <time>2025-05-10T16:59:33.000Z</time>
      </trkpt>
      <trkpt lat="48.63735" lon="-0.68583">
        <ele>206.8</ele>
        <time>2025-05-10T16:59:34.000Z</time>
      </trkpt>
      <trkpt lat="48.63731" lon="-0.68574">
        <ele>205.8</ele>
        <time>2025-05-10T16:59:36.000Z</time>
      </trkpt>
      <trkpt lat="48.63727" lon="-0.68565">
        <ele>204.2</ele>
        <time>2025-05-10T16:59:39.000Z</time>
      </trkpt>
      <trkpt lat="48.63723" lon="-0.68556">
        <ele>203.4</ele>
        <time>2025-05-10T16:59:41.000Z</time>
      </trkpt>
      <trkpt lat="48.63719" lon="-0.6855">
        <ele>202.5</ele>
        <time>2025-05-10T16:59:43.000Z</time>
      </trkpt>
      <trkpt lat="48.63714" lon="-0.68542">
        <ele>201.7</ele>
        <time>2025-05-10T16:59:45.000Z</time>
      </trkpt>
      <trkpt lat="48.63707" lon="-0.68534">
        <ele>200.9</ele>
        <time>2025-05-10T16:59:47.000Z</time>
      </trkpt>
      <trkpt lat="48.63699" lon="-0.68527">
        <ele>200</ele>
        <time>2025-05-10T16:59:49.000Z</time>
      </trkpt>
      <trkpt lat="48.63692" lon="-0.68523">
        <ele>199</ele>
        <time>2025-05-10T16:59:51.000Z</time>
      </trkpt>
      <trkpt lat="48.63684" lon="-0.68518">
        <ele>198</ele>
        <time>2025-05-10T16:59:53.000Z</time>
      </trkpt>
      <trkpt lat="48.63677" lon="-0.68513">
        <ele>197</ele>
        <time>2025-05-10T16:59:55.000Z</time>
      </trkpt>
      <trkpt lat="48.6367" lon="-0.6851">
        <ele>196.1</ele>
        <time>2025-05-10T16:59:57.000Z</time>
      </trkpt>
      <trkpt lat="48.63663" lon="-0.68504">
        <ele>195.2</ele>
        <time>2025-05-10T16:59:59.000Z</time>
      </trkpt>
      <trkpt lat="48.63656" lon="-0.68501">
        <ele>194.2</ele>
        <time>2025-05-10T17:00:01.000Z</time>
      </trkpt>
      <trkpt lat="48.63649" lon="-0.68496">
        <ele>193.1</ele>
        <time>2025-05-10T17:00:03.000Z</time>
      </trkpt>
      <trkpt lat="48.63644" lon="-0.68492">
        <ele>192.1</ele>
        <time>2025-05-10T17:00:05.000Z</time>
      </trkpt>
      <trkpt lat="48.63639" lon="-0.6849">
        <ele>190.8</ele>
        <time>2025-05-10T17:00:08.000Z</time>
      </trkpt>
      <trkpt lat="48.63634" lon="-0.68489">
        <ele>190.1</ele>
        <time>2025-05-10T17:00:10.000Z</time>
      </trkpt>
      <trkpt lat="48.63629" lon="-0.68485">
        <ele>188.6</ele>
        <time>2025-05-10T17:00:14.000Z</time>
      </trkpt>
      <trkpt lat="48.63623" lon="-0.68479">
        <ele>187.8</ele>
        <time>2025-05-10T17:00:17.000Z</time>
      </trkpt>
      <trkpt lat="48.6362" lon="-0.68473">
        <ele>186.9</ele>
        <time>2025-05-10T17:00:21.000Z</time>
      </trkpt>
      <trkpt lat="48.63616" lon="-0.68469">
        <ele>186</ele>
        <time>2025-05-10T17:00:24.000Z</time>
      </trkpt>
      <trkpt lat="48.6361" lon="-0.68463">
        <ele>185.1</ele>
        <time>2025-05-10T17:00:27.000Z</time>
      </trkpt>
      <trkpt lat="48.63605" lon="-0.68459">
        <ele>184.2</ele>
        <time>2025-05-10T17:00:30.000Z</time>
      </trkpt>
      <trkpt lat="48.63601" lon="-0.68456">
        <ele>183.3</ele>
        <time>2025-05-10T17:00:33.000Z</time>
      </trkpt>
      <trkpt lat="48.63597" lon="-0.68452">
        <ele>182.5</ele>
        <time>2025-05-10T17:00:37.000Z</time>
      </trkpt>
      <trkpt lat="48.63592" lon="-0.68446">
        <ele>181.8</ele>
        <time>2025-05-10T17:00:40.000Z</time>
      </trkpt>
      <trkpt lat="48.63588" lon="-0.68441">
        <ele>181</ele>
        <time>2025-05-10T17:00:43.000Z</time>
      </trkpt>
      <trkpt lat="48.63585" lon="-0.68433">
        <ele>180.1</ele>
        <time>2025-05-10T17:00:47.000Z</time>
      </trkpt>
      <trkpt lat="48.63584" lon="-0.6843">
        <ele>178.9</ele>
        <time>2025-05-10T17:00:53.000Z</time>
      </trkpt>
      <trkpt lat="48.63584" lon="-0.6843">
        <ele>178.8</ele>
        <time>2025-05-10T17:00:54.000Z</time>
      </trkpt>
      <trkpt lat="48.6358" lon="-0.68423">
        <ele>178.1</ele>
        <time>2025-05-10T17:00:59.000Z</time>
      </trkpt>
      <trkpt lat="48.63579" lon="-0.6842">
        <ele>178.1</ele>
        <time>2025-05-10T17:01:00.000Z</time>
      </trkpt>
      <trkpt lat="48.63575" lon="-0.68415">
        <ele>177.9</ele>
        <time>2025-05-10T17:01:02.000Z</time>
      </trkpt>
      <trkpt lat="48.63569" lon="-0.6841">
        <ele>177.7</ele>
        <time>2025-05-10T17:01:04.000Z</time>
      </trkpt>
      <trkpt lat="48.63566" lon="-0.68402">
        <ele>177.5</ele>
        <time>2025-05-10T17:01:06.000Z</time>
      </trkpt>
      <trkpt lat="48.63564" lon="-0.68393">
        <ele>177.3</ele>
        <time>2025-05-10T17:01:08.000Z</time>
      </trkpt>
      <trkpt lat="48.63565" lon="-0.68385">
        <ele>177.1</ele>
        <time>2025-05-10T17:01:10.000Z</time>
      </trkpt>
      <trkpt lat="48.63568" lon="-0.68377">
        <ele>177</ele>
        <time>2025-05-10T17:01:12.000Z</time>
      </trkpt>
      <trkpt lat="48.6357" lon="-0.68369">
        <ele>176.9</ele>
        <time>2025-05-10T17:01:14.000Z</time>
      </trkpt>
      <trkpt lat="48.63572" lon="-0.68362">
        <ele>176.9</ele>
        <time>2025-05-10T17:01:16.000Z</time>
      </trkpt>
      <trkpt lat="48.63573" lon="-0.68355">
        <ele>176.9</ele>
        <time>2025-05-10T17:01:18.000Z</time>
      </trkpt>
      <trkpt lat="48.63573" lon="-0.68345">
        <ele>177</ele>
        <time>2025-05-10T17:01:21.000Z</time>
      </trkpt>
      <trkpt lat="48.63573" lon="-0.68336">
        <ele>177.1</ele>
        <time>2025-05-10T17:01:23.000Z</time>
      </trkpt>
      <trkpt lat="48.63574" lon="-0.68328">
        <ele>177.2</ele>
        <time>2025-05-10T17:01:25.000Z</time>
      </trkpt>
      <trkpt lat="48.63576" lon="-0.6832">
        <ele>177.4</ele>
        <time>2025-05-10T17:01:28.000Z</time>
      </trkpt>
      <trkpt lat="48.6358" lon="-0.68315">
        <ele>177.6</ele>
        <time>2025-05-10T17:01:32.000Z</time>
      </trkpt>
      <trkpt lat="48.63583" lon="-0.68308">
        <ele>177.8</ele>
        <time>2025-05-10T17:01:35.000Z</time>
      </trkpt>
      <trkpt lat="48.63584" lon="-0.683">
        <ele>177.8</ele>
        <time>2025-05-10T17:01:37.000Z</time>
      </trkpt>
      <trkpt lat="48.63584" lon="-0.6829">
        <ele>177.9</ele>
        <time>2025-05-10T17:01:39.000Z</time>
      </trkpt>
      <trkpt lat="48.63586" lon="-0.6828">
        <ele>178</ele>
        <time>2025-05-10T17:01:41.000Z</time>
      </trkpt>
      <trkpt lat="48.63586" lon="-0.68272">
        <ele>178.1</ele>
        <time>2025-05-10T17:01:43.000Z</time>
      </trkpt>
      <trkpt lat="48.63586" lon="-0.68261">
        <ele>178.3</ele>
        <time>2025-05-10T17:01:45.000Z</time>
      </trkpt>
      <trkpt lat="48.63585" lon="-0.6825">
        <ele>178.5</ele>
        <time>2025-05-10T17:01:47.000Z</time>
      </trkpt>
      <trkpt lat="48.63584" lon="-0.6824">
        <ele>178.8</ele>
        <time>2025-05-10T17:01:49.000Z</time>
      </trkpt>
      <trkpt lat="48.63583" lon="-0.68232">
        <ele>179.1</ele>
        <time>2025-05-10T17:01:51.000Z</time>
      </trkpt>
      <trkpt lat="48.63581" lon="-0.68222">
        <ele>179.5</ele>
        <time>2025-05-10T17:01:53.000Z</time>
      </trkpt>
      <trkpt lat="48.6358" lon="-0.68211">
        <ele>179.9</ele>
        <time>2025-05-10T17:01:55.000Z</time>
      </trkpt>
      <trkpt lat="48.63579" lon="-0.68203">
        <ele>180.3</ele>
        <time>2025-05-10T17:01:57.000Z</time>
      </trkpt>
      <trkpt lat="48.6358" lon="-0.68195">
        <ele>181</ele>
        <time>2025-05-10T17:02:00.000Z</time>
      </trkpt>
      <trkpt lat="48.63578" lon="-0.68187">
        <ele>181.6</ele>
        <time>2025-05-10T17:02:03.000Z</time>
      </trkpt>
      <trkpt lat="48.63577" lon="-0.68178">
        <ele>182.3</ele>
        <time>2025-05-10T17:02:06.000Z</time>
      </trkpt>
      <trkpt lat="48.63576" lon="-0.68171">
        <ele>182.8</ele>
        <time>2025-05-10T17:02:08.000Z</time>
      </trkpt>
      <trkpt lat="48.63575" lon="-0.68164">
        <ele>183.2</ele>
        <time>2025-05-10T17:02:10.000Z</time>
      </trkpt>
      <trkpt lat="48.63572" lon="-0.68156">
        <ele>183.7</ele>
        <time>2025-05-10T17:02:12.000Z</time>
      </trkpt>
      <trkpt lat="48.63569" lon="-0.68147">
        <ele>184.1</ele>
        <time>2025-05-10T17:02:14.000Z</time>
      </trkpt>
      <trkpt lat="48.63563" lon="-0.6814">
        <ele>184.6</ele>
        <time>2025-05-10T17:02:16.000Z</time>
      </trkpt>
      <trkpt lat="48.63558" lon="-0.68132">
        <ele>185.1</ele>
        <time>2025-05-10T17:02:18.000Z</time>
      </trkpt>
      <trkpt lat="48.63554" lon="-0.68126">
        <ele>185.5</ele>
        <time>2025-05-10T17:02:20.000Z</time>
      </trkpt>
      <trkpt lat="48.63549" lon="-0.68122">
        <ele>186.1</ele>
        <time>2025-05-10T17:02:23.000Z</time>
      </trkpt>
      <trkpt lat="48.63544" lon="-0.68115">
        <ele>186.8</ele>
        <time>2025-05-10T17:02:26.000Z</time>
      </trkpt>
      <trkpt lat="48.63541" lon="-0.68109">
        <ele>187.2</ele>
        <time>2025-05-10T17:02:28.000Z</time>
      </trkpt>
      <trkpt lat="48.63538" lon="-0.68103">
        <ele>187.7</ele>
        <time>2025-05-10T17:02:31.000Z</time>
      </trkpt>
      <trkpt lat="48.63535" lon="-0.68097">
        <ele>188.2</ele>
        <time>2025-05-10T17:02:34.000Z</time>
      </trkpt>
      <trkpt lat="48.6353" lon="-0.6809">
        <ele>188.9</ele>
        <time>2025-05-10T17:02:38.000Z</time>
      </trkpt>
      <trkpt lat="48.63527" lon="-0.68084">
        <ele>189.4</ele>
        <time>2025-05-10T17:02:42.000Z</time>
      </trkpt>
      <trkpt lat="48.63527" lon="-0.68077">
        <ele>190</ele>
        <time>2025-05-10T17:02:49.000Z</time>
      </trkpt>
      <trkpt lat="48.63523" lon="-0.6807">
        <ele>190.2</ele>
        <time>2025-05-10T17:02:52.000Z</time>
      </trkpt>
      <trkpt lat="48.63518" lon="-0.68062">
        <ele>190.4</ele>
        <time>2025-05-10T17:02:54.000Z</time>
      </trkpt>
      <trkpt lat="48.63514" lon="-0.68056">
        <ele>190.7</ele>
        <time>2025-05-10T17:02:57.000Z</time>
      </trkpt>
      <trkpt lat="48.63511" lon="-0.68051">
        <ele>191</ele>
        <time>2025-05-10T17:02:59.000Z</time>
      </trkpt>
      <trkpt lat="48.63507" lon="-0.68045">
        <ele>191.3</ele>
        <time>2025-05-10T17:03:01.000Z</time>
      </trkpt>
      <trkpt lat="48.63501" lon="-0.68039">
        <ele>191.7</ele>
        <time>2025-05-10T17:03:03.000Z</time>
      </trkpt>
      <trkpt lat="48.63496" lon="-0.68032">
        <ele>192.2</ele>
        <time>2025-05-10T17:03:05.000Z</time>
      </trkpt>
      <trkpt lat="48.6349" lon="-0.68026">
        <ele>192.8</ele>
        <time>2025-05-10T17:03:07.000Z</time>
      </trkpt>
      <trkpt lat="48.63485" lon="-0.6802">
        <ele>193.4</ele>
        <time>2025-05-10T17:03:09.000Z</time>
      </trkpt>
      <trkpt lat="48.6348" lon="-0.68014">
        <ele>194</ele>
        <time>2025-05-10T17:03:11.000Z</time>
      </trkpt>
      <trkpt lat="48.63475" lon="-0.68007">
        <ele>194.7</ele>
        <time>2025-05-10T17:03:13.000Z</time>
      </trkpt>
      <trkpt lat="48.6347" lon="-0.68001">
        <ele>195.4</ele>
        <time>2025-05-10T17:03:15.000Z</time>
      </trkpt>
      <trkpt lat="48.63464" lon="-0.67994">
        <ele>196.1</ele>
        <time>2025-05-10T17:03:17.000Z</time>
      </trkpt>
      <trkpt lat="48.6346" lon="-0.67988">
        <ele>196.9</ele>
        <time>2025-05-10T17:03:19.000Z</time>
      </trkpt>
      <trkpt lat="48.63455" lon="-0.67982">
        <ele>197.6</ele>
        <time>2025-05-10T17:03:21.000Z</time>
      </trkpt>
      <trkpt lat="48.63451" lon="-0.67975">
        <ele>198.5</ele>
        <time>2025-05-10T17:03:23.000Z</time>
      </trkpt>
      <trkpt lat="48.63449" lon="-0.67966">
        <ele>199.7</ele>
        <time>2025-05-10T17:03:26.000Z</time>
      </trkpt>
      <trkpt lat="48.63449" lon="-0.67957">
        <ele>200.6</ele>
        <time>2025-05-10T17:03:28.000Z</time>
      </trkpt>
      <trkpt lat="48.63448" lon="-0.67949">
        <ele>201.4</ele>
        <time>2025-05-10T17:03:30.000Z</time>
      </trkpt>
      <trkpt lat="48.63448" lon="-0.6794">
        <ele>202.1</ele>
        <time>2025-05-10T17:03:32.000Z</time>
      </trkpt>
      <trkpt lat="48.63448" lon="-0.67931">
        <ele>203</ele>
        <time>2025-05-10T17:03:34.000Z</time>
      </trkpt>
      <trkpt lat="48.63448" lon="-0.67922">
        <ele>203.8</ele>
        <time>2025-05-10T17:03:36.000Z</time>
      </trkpt>
      <trkpt lat="48.63448" lon="-0.67915">
        <ele>204.7</ele>
        <time>2025-05-10T17:03:38.000Z</time>
      </trkpt>
      <trkpt lat="48.63446" lon="-0.67906">
        <ele>205.5</ele>
        <time>2025-05-10T17:03:40.000Z</time>
      </trkpt>
      <trkpt lat="48.63444" lon="-0.67896">
        <ele>206.3</ele>
        <time>2025-05-10T17:03:42.000Z</time>
      </trkpt>
      <trkpt lat="48.63442" lon="-0.67887">
        <ele>207.2</ele>
        <time>2025-05-10T17:03:44.000Z</time>
      </trkpt>
      <trkpt lat="48.63441" lon="-0.67878">
        <ele>208</ele>
        <time>2025-05-10T17:03:46.000Z</time>
      </trkpt>
      <trkpt lat="48.63442" lon="-0.67869">
        <ele>208.8</ele>
        <time>2025-05-10T17:03:48.000Z</time>
      </trkpt>
      <trkpt lat="48.63445" lon="-0.6786">
        <ele>209.6</ele>
        <time>2025-05-10T17:03:50.000Z</time>
      </trkpt>
      <trkpt lat="48.63446" lon="-0.6785">
        <ele>210.3</ele>
        <time>2025-05-10T17:03:52.000Z</time>
      </trkpt>
      <trkpt lat="48.63447" lon="-0.67842">
        <ele>211.1</ele>
        <time>2025-05-10T17:03:54.000Z</time>
      </trkpt>
      <trkpt lat="48.63448" lon="-0.67832">
        <ele>211.9</ele>
        <time>2025-05-10T17:03:56.000Z</time>
      </trkpt>
      <trkpt lat="48.63447" lon="-0.67822">
        <ele>212.7</ele>
        <time>2025-05-10T17:03:58.000Z</time>
      </trkpt>
      <trkpt lat="48.63446" lon="-0.67814">
        <ele>213.5</ele>
        <time>2025-05-10T17:04:00.000Z</time>
      </trkpt>
      <trkpt lat="48.63444" lon="-0.67807">
        <ele>214.2</ele>
        <time>2025-05-10T17:04:02.000Z</time>
      </trkpt>
      <trkpt lat="48.63441" lon="-0.67801">
        <ele>214.9</ele>
        <time>2025-05-10T17:04:04.000Z</time>
      </trkpt>
      <trkpt lat="48.63438" lon="-0.67796">
        <ele>215.5</ele>
        <time>2025-05-10T17:04:06.000Z</time>
      </trkpt>
      <trkpt lat="48.63434" lon="-0.67788">
        <ele>216.1</ele>
        <time>2025-05-10T17:04:08.000Z</time>
      </trkpt>
      <trkpt lat="48.6343" lon="-0.67783">
        <ele>216.5</ele>
        <time>2025-05-10T17:04:10.000Z</time>
      </trkpt>
      <trkpt lat="48.63426" lon="-0.67777">
        <ele>217</ele>
        <time>2025-05-10T17:04:12.000Z</time>
      </trkpt>
      <trkpt lat="48.63421" lon="-0.6777">
        <ele>217.5</ele>
        <time>2025-05-10T17:04:14.000Z</time>
      </trkpt>
      <trkpt lat="48.63417" lon="-0.67766">
        <ele>217.9</ele>
        <time>2025-05-10T17:04:16.000Z</time>
      </trkpt>
      <trkpt lat="48.63412" lon="-0.6776">
        <ele>218.3</ele>
        <time>2025-05-10T17:04:18.000Z</time>
      </trkpt>
      <trkpt lat="48.63407" lon="-0.67753">
        <ele>218.7</ele>
        <time>2025-05-10T17:04:20.000Z</time>
      </trkpt>
      <trkpt lat="48.63403" lon="-0.67745">
        <ele>219.1</ele>
        <time>2025-05-10T17:04:22.000Z</time>
      </trkpt>
      <trkpt lat="48.63397" lon="-0.67737">
        <ele>219.5</ele>
        <time>2025-05-10T17:04:24.000Z</time>
      </trkpt>
      <trkpt lat="48.63391" lon="-0.67726">
        <ele>219.9</ele>
        <time>2025-05-10T17:04:26.000Z</time>
      </trkpt>
      <trkpt lat="48.63386" lon="-0.67716">
        <ele>220.2</ele>
        <time>2025-05-10T17:04:28.000Z</time>
      </trkpt>
      <trkpt lat="48.63383" lon="-0.67711">
        <ele>220.3</ele>
        <time>2025-05-10T17:04:29.000Z</time>
      </trkpt>
      <trkpt lat="48.6338" lon="-0.67705">
        <ele>220.4</ele>
        <time>2025-05-10T17:04:30.000Z</time>
      </trkpt>
      <trkpt lat="48.63377" lon="-0.677">
        <ele>220.5</ele>
        <time>2025-05-10T17:04:31.000Z</time>
      </trkpt>
      <trkpt lat="48.63374" lon="-0.67694">
        <ele>220.6</ele>
        <time>2025-05-10T17:04:32.000Z</time>
      </trkpt>
      <trkpt lat="48.6337" lon="-0.67689">
        <ele>220.7</ele>
        <time>2025-05-10T17:04:33.000Z</time>
      </trkpt>
      <trkpt lat="48.63367" lon="-0.67683">
        <ele>220.7</ele>
        <time>2025-05-10T17:04:34.000Z</time>
      </trkpt>
      <trkpt lat="48.63364" lon="-0.67678">
        <ele>220.7</ele>
        <time>2025-05-10T17:04:35.000Z</time>
      </trkpt>
      <trkpt lat="48.6336" lon="-0.67672">
        <ele>220.7</ele>
        <time>2025-05-10T17:04:36.000Z</time>
      </trkpt>
      <trkpt lat="48.63357" lon="-0.67667">
        <ele>220.7</ele>
        <time>2025-05-10T17:04:37.000Z</time>
      </trkpt>
      <trkpt lat="48.63353" lon="-0.67661">
        <ele>220.7</ele>
        <time>2025-05-10T17:04:38.000Z</time>
      </trkpt>
      <trkpt lat="48.6335" lon="-0.67656">
        <ele>220.7</ele>
        <time>2025-05-10T17:04:39.000Z</time>
      </trkpt>
      <trkpt lat="48.63345" lon="-0.67647">
        <ele>220.6</ele>
        <time>2025-05-10T17:04:41.000Z</time>
      </trkpt>
      <trkpt lat="48.63341" lon="-0.67642">
        <ele>220.5</ele>
        <time>2025-05-10T17:04:43.000Z</time>
      </trkpt>
      <trkpt lat="48.63338" lon="-0.67636">
        <ele>220.3</ele>
        <time>2025-05-10T17:04:46.000Z</time>
      </trkpt>
      <trkpt lat="48.63337" lon="-0.67631">
        <ele>218.8</ele>
        <time>2025-05-10T17:05:05.000Z</time>
      </trkpt>
      <trkpt lat="48.63337" lon="-0.67631">
        <ele>218.8</ele>
        <time>2025-05-10T17:05:06.000Z</time>
      </trkpt>
      <trkpt lat="48.63334" lon="-0.67626">
        <ele>218.4</ele>
        <time>2025-05-10T17:06:26.000Z</time>
      </trkpt>
      <trkpt lat="48.63329" lon="-0.67622">
        <ele>218.4</ele>
        <time>2025-05-10T17:06:28.000Z</time>
      </trkpt>
      <trkpt lat="48.63322" lon="-0.67615">
        <ele>218.3</ele>
        <time>2025-05-10T17:06:30.000Z</time>
      </trkpt>
      <trkpt lat="48.63318" lon="-0.67612">
        <ele>218.3</ele>
        <time>2025-05-10T17:06:31.000Z</time>
      </trkpt>
      <trkpt lat="48.63314" lon="-0.6761">
        <ele>218.3</ele>
        <time>2025-05-10T17:06:32.000Z</time>
      </trkpt>
      <trkpt lat="48.63306" lon="-0.67606">
        <ele>218.2</ele>
        <time>2025-05-10T17:06:34.000Z</time>
      </trkpt>
      <trkpt lat="48.63298" lon="-0.67599">
        <ele>213.5</ele>
        <time>2025-05-10T17:06:59.000Z</time>
      </trkpt>
      <trkpt lat="48.63295" lon="-0.67591">
        <ele>213.4</ele>
        <time>2025-05-10T17:07:02.000Z</time>
      </trkpt>
      <trkpt lat="48.6329" lon="-0.67585">
        <ele>213.3</ele>
        <time>2025-05-10T17:07:04.000Z</time>
      </trkpt>
      <trkpt lat="48.63284" lon="-0.67579">
        <ele>213.2</ele>
        <time>2025-05-10T17:07:06.000Z</time>
      </trkpt>
      <trkpt lat="48.63276" lon="-0.67571">
        <ele>213.1</ele>
        <time>2025-05-10T17:07:08.000Z</time>
      </trkpt>
      <trkpt lat="48.6327" lon="-0.67562">
        <ele>212.9</ele>
        <time>2025-05-10T17:07:10.000Z</time>
      </trkpt>
      <trkpt lat="48.63264" lon="-0.67554">
        <ele>212.7</ele>
        <time>2025-05-10T17:07:12.000Z</time>
      </trkpt>
      <trkpt lat="48.63261" lon="-0.67549">
        <ele>212.6</ele>
        <time>2025-05-10T17:07:14.000Z</time>
      </trkpt>
      <trkpt lat="48.63256" lon="-0.67544">
        <ele>212.3</ele>
        <time>2025-05-10T17:07:17.000Z</time>
      </trkpt>
      <trkpt lat="48.63252" lon="-0.67539">
        <ele>212.2</ele>
        <time>2025-05-10T17:07:19.000Z</time>
      </trkpt>
      <trkpt lat="48.63249" lon="-0.67534">
        <ele>212.1</ele>
        <time>2025-05-10T17:07:21.000Z</time>
      </trkpt>
      <trkpt lat="48.63246" lon="-0.67529">
        <ele>212</ele>
        <time>2025-05-10T17:07:23.000Z</time>
      </trkpt>
      <trkpt lat="48.63243" lon="-0.67522">
        <ele>212</ele>
        <time>2025-05-10T17:07:25.000Z</time>
      </trkpt>
      <trkpt lat="48.63242" lon="-0.67514">
        <ele>212</ele>
        <time>2025-05-10T17:07:27.000Z</time>
      </trkpt>
      <trkpt lat="48.63238" lon="-0.67505">
        <ele>212</ele>
        <time>2025-05-10T17:07:29.000Z</time>
      </trkpt>
      <trkpt lat="48.63235" lon="-0.67494">
        <ele>212.1</ele>
        <time>2025-05-10T17:07:31.000Z</time>
      </trkpt>
      <trkpt lat="48.63232" lon="-0.67484">
        <ele>212.2</ele>
        <time>2025-05-10T17:07:33.000Z</time>
      </trkpt>
      <trkpt lat="48.63228" lon="-0.67474">
        <ele>212.5</ele>
        <time>2025-05-10T17:07:35.000Z</time>
      </trkpt>
      <trkpt lat="48.63227" lon="-0.67464">
        <ele>212.8</ele>
        <time>2025-05-10T17:07:37.000Z</time>
      </trkpt>
      <trkpt lat="48.63232" lon="-0.67455">
        <ele>213.4</ele>
        <time>2025-05-10T17:07:39.000Z</time>
      </trkpt>
      <trkpt lat="48.63237" lon="-0.67446">
        <ele>214.1</ele>
        <time>2025-05-10T17:07:41.000Z</time>
      </trkpt>
      <trkpt lat="48.63242" lon="-0.67435">
        <ele>214.9</ele>
        <time>2025-05-10T17:07:43.000Z</time>
      </trkpt>
      <trkpt lat="48.63248" lon="-0.67425">
        <ele>215.6</ele>
        <time>2025-05-10T17:07:45.000Z</time>
      </trkpt>
      <trkpt lat="48.63253" lon="-0.67416">
        <ele>216.2</ele>
        <time>2025-05-10T17:07:47.000Z</time>
      </trkpt>
      <trkpt lat="48.63258" lon="-0.6741">
        <ele>216.9</ele>
        <time>2025-05-10T17:07:49.000Z</time>
      </trkpt>
      <trkpt lat="48.63261" lon="-0.67403">
        <ele>217.3</ele>
        <time>2025-05-10T17:07:51.000Z</time>
      </trkpt>
      <trkpt lat="48.63267" lon="-0.67394">
        <ele>217.6</ele>
        <time>2025-05-10T17:07:53.000Z</time>
      </trkpt>
      <trkpt lat="48.6327" lon="-0.67389">
        <ele>217.8</ele>
        <time>2025-05-10T17:07:54.000Z</time>
      </trkpt>
      <trkpt lat="48.63273" lon="-0.67383">
        <ele>217.9</ele>
        <time>2025-05-10T17:07:55.000Z</time>
      </trkpt>
      <trkpt lat="48.63276" lon="-0.67378">
        <ele>218</ele>
        <time>2025-05-10T17:07:56.000Z</time>
      </trkpt>
      <trkpt lat="48.6328" lon="-0.67373">
        <ele>218</ele>
        <time>2025-05-10T17:07:57.000Z</time>
      </trkpt>
      <trkpt lat="48.63284" lon="-0.67368">
        <ele>218.1</ele>
        <time>2025-05-10T17:07:58.000Z</time>
      </trkpt>
      <trkpt lat="48.63288" lon="-0.67362">
        <ele>218.1</ele>
        <time>2025-05-10T17:07:59.000Z</time>
      </trkpt>
      <trkpt lat="48.63292" lon="-0.67356">
        <ele>218.1</ele>
        <time>2025-05-10T17:08:00.000Z</time>
      </trkpt>
      <trkpt lat="48.63295" lon="-0.67349">
        <ele>218.1</ele>
        <time>2025-05-10T17:08:01.000Z</time>
      </trkpt>
      <trkpt lat="48.63299" lon="-0.67343">
        <ele>218.1</ele>
        <time>2025-05-10T17:08:02.000Z</time>
      </trkpt>
      <trkpt lat="48.63302" lon="-0.67337">
        <ele>218.1</ele>
        <time>2025-05-10T17:08:03.000Z</time>
      </trkpt>
      <trkpt lat="48.63306" lon="-0.67331">
        <ele>218.1</ele>
        <time>2025-05-10T17:08:04.000Z</time>
      </trkpt>
      <trkpt lat="48.63308" lon="-0.67325">
        <ele>218.1</ele>
        <time>2025-05-10T17:08:05.000Z</time>
      </trkpt>
      <trkpt lat="48.63312" lon="-0.67315">
        <ele>218.1</ele>
        <time>2025-05-10T17:08:07.000Z</time>
      </trkpt>
      <trkpt lat="48.63316" lon="-0.67303">
        <ele>218.1</ele>
        <time>2025-05-10T17:08:09.000Z</time>
      </trkpt>
      <trkpt lat="48.63319" lon="-0.67291">
        <ele>218.2</ele>
        <time>2025-05-10T17:08:11.000Z</time>
      </trkpt>
      <trkpt lat="48.63322" lon="-0.67279">
        <ele>218.2</ele>
        <time>2025-05-10T17:08:13.000Z</time>
      </trkpt>
      <trkpt lat="48.63325" lon="-0.67267">
        <ele>218.3</ele>
        <time>2025-05-10T17:08:15.000Z</time>
      </trkpt>
      <trkpt lat="48.63329" lon="-0.67255">
        <ele>218.3</ele>
        <time>2025-05-10T17:08:17.000Z</time>
      </trkpt>
      <trkpt lat="48.63332" lon="-0.67244">
        <ele>218.4</ele>
        <time>2025-05-10T17:08:19.000Z</time>
      </trkpt>
      <trkpt lat="48.63336" lon="-0.67233">
        <ele>218.5</ele>
        <time>2025-05-10T17:08:21.000Z</time>
      </trkpt>
      <trkpt lat="48.6334" lon="-0.67222">
        <ele>218.7</ele>
        <time>2025-05-10T17:08:23.000Z</time>
      </trkpt>
      <trkpt lat="48.63344" lon="-0.67211">
        <ele>218.8</ele>
        <time>2025-05-10T17:08:25.000Z</time>
      </trkpt>
      <trkpt lat="48.63348" lon="-0.67201">
        <ele>219</ele>
        <time>2025-05-10T17:08:27.000Z</time>
      </trkpt>
      <trkpt lat="48.63351" lon="-0.6719">
        <ele>219.2</ele>
        <time>2025-05-10T17:08:29.000Z</time>
      </trkpt>
      <trkpt lat="48.63353" lon="-0.67181">
        <ele>219.4</ele>
        <time>2025-05-10T17:08:31.000Z</time>
      </trkpt>
      <trkpt lat="48.63357" lon="-0.67175">
        <ele>219.6</ele>
        <time>2025-05-10T17:08:33.000Z</time>
      </trkpt>
      <trkpt lat="48.63363" lon="-0.67176">
        <ele>220</ele>
        <time>2025-05-10T17:08:36.000Z</time>
      </trkpt>
      <trkpt lat="48.63368" lon="-0.6718">
        <ele>220.1</ele>
        <time>2025-05-10T17:08:38.000Z</time>
      </trkpt>
      <trkpt lat="48.63374" lon="-0.67184">
        <ele>220.2</ele>
        <time>2025-05-10T17:08:40.000Z</time>
      </trkpt>
      <trkpt lat="48.63379" lon="-0.67188">
        <ele>220.4</ele>
        <time>2025-05-10T17:08:42.000Z</time>
      </trkpt>
      <trkpt lat="48.63383" lon="-0.67192">
        <ele>220.5</ele>
        <time>2025-05-10T17:08:44.000Z</time>
      </trkpt>
      <trkpt lat="48.63387" lon="-0.67197">
        <ele>220.5</ele>
        <time>2025-05-10T17:08:46.000Z</time>
      </trkpt>
      <trkpt lat="48.63392" lon="-0.67203">
        <ele>220.6</ele>
        <time>2025-05-10T17:08:48.000Z</time>
      </trkpt>
      <trkpt lat="48.63398" lon="-0.67208">
        <ele>220.6</ele>
        <time>2025-05-10T17:08:50.000Z</time>
      </trkpt>
      <trkpt lat="48.63404" lon="-0.67214">
        <ele>220.7</ele>
        <time>2025-05-10T17:08:52.000Z</time>
      </trkpt>
      <trkpt lat="48.6341" lon="-0.6722">
        <ele>220.8</ele>
        <time>2025-05-10T17:08:54.000Z</time>
      </trkpt>
      <trkpt lat="48.63417" lon="-0.67226">
        <ele>220.9</ele>
        <time>2025-05-10T17:08:56.000Z</time>
      </trkpt>
      <trkpt lat="48.6342" lon="-0.6723">
        <ele>220.9</ele>
        <time>2025-05-10T17:08:57.000Z</time>
      </trkpt>
      <trkpt lat="48.63424" lon="-0.67235">
        <ele>221</ele>
        <time>2025-05-10T17:08:58.000Z</time>
      </trkpt>
      <trkpt lat="48.63428" lon="-0.6724">
        <ele>221.1</ele>
        <time>2025-05-10T17:08:59.000Z</time>
      </trkpt>
      <trkpt lat="48.63432" lon="-0.67244">
        <ele>221.1</ele>
        <time>2025-05-10T17:09:00.000Z</time>
      </trkpt>
      <trkpt lat="48.63438" lon="-0.67251">
        <ele>221.2</ele>
        <time>2025-05-10T17:09:02.000Z</time>
      </trkpt>
      <trkpt lat="48.63442" lon="-0.67255">
        <ele>221.3</ele>
        <time>2025-05-10T17:09:03.000Z</time>
      </trkpt>
      <trkpt lat="48.63448" lon="-0.67263">
        <ele>221.4</ele>
        <time>2025-05-10T17:09:05.000Z</time>
      </trkpt>
      <trkpt lat="48.63454" lon="-0.67272">
        <ele>221.6</ele>
        <time>2025-05-10T17:09:07.000Z</time>
      </trkpt>
      <trkpt lat="48.63459" lon="-0.67277">
        <ele>221.8</ele>
        <time>2025-05-10T17:09:09.000Z</time>
      </trkpt>
      <trkpt lat="48.63466" lon="-0.67282">
        <ele>222.1</ele>
        <time>2025-05-10T17:09:11.000Z</time>
      </trkpt>
      <trkpt lat="48.63469" lon="-0.67286">
        <ele>222.2</ele>
        <time>2025-05-10T17:09:12.000Z</time>
      </trkpt>
      <trkpt lat="48.63473" lon="-0.6729">
        <ele>222.3</ele>
        <time>2025-05-10T17:09:13.000Z</time>
      </trkpt>
      <trkpt lat="48.63481" lon="-0.67296">
        <ele>222.6</ele>
        <time>2025-05-10T17:09:15.000Z</time>
      </trkpt>
      <trkpt lat="48.63487" lon="-0.67302">
        <ele>222.9</ele>
        <time>2025-05-10T17:09:17.000Z</time>
      </trkpt>
      <trkpt lat="48.63491" lon="-0.67305">
        <ele>223</ele>
        <time>2025-05-10T17:09:18.000Z</time>
      </trkpt>
      <trkpt lat="48.63495" lon="-0.67308">
        <ele>223.2</ele>
        <time>2025-05-10T17:09:19.000Z</time>
      </trkpt>
      <trkpt lat="48.63502" lon="-0.67314">
        <ele>223.5</ele>
        <time>2025-05-10T17:09:21.000Z</time>
      </trkpt>
      <trkpt lat="48.63507" lon="-0.67317">
        <ele>223.9</ele>
        <time>2025-05-10T17:09:23.000Z</time>
      </trkpt>
      <trkpt lat="48.63513" lon="-0.67317">
        <ele>224.5</ele>
        <time>2025-05-10T17:09:26.000Z</time>
      </trkpt>
      <trkpt lat="48.63517" lon="-0.67311">
        <ele>225.1</ele>
        <time>2025-05-10T17:09:29.000Z</time>
      </trkpt>
      <trkpt lat="48.6352" lon="-0.67303">
        <ele>225.7</ele>
        <time>2025-05-10T17:09:33.000Z</time>
      </trkpt>
      <trkpt lat="48.63523" lon="-0.67296">
        <ele>226.3</ele>
        <time>2025-05-10T17:09:38.000Z</time>
      </trkpt>
      <trkpt lat="48.63529" lon="-0.67298">
        <ele>227</ele>
        <time>2025-05-10T17:10:10.000Z</time>
      </trkpt>
      <trkpt lat="48.63529" lon="-0.6729">
        <ele>227</ele>
        <time>2025-05-10T17:10:14.000Z</time>
      </trkpt>
      <trkpt lat="48.6353" lon="-0.67281">
        <ele>227</ele>
        <time>2025-05-10T17:10:16.000Z</time>
      </trkpt>
      <trkpt lat="48.6353" lon="-0.6727">
        <ele>227.1</ele>
        <time>2025-05-10T17:10:18.000Z</time>
      </trkpt>
      <trkpt lat="48.63531" lon="-0.67258">
        <ele>227.1</ele>
        <time>2025-05-10T17:10:20.000Z</time>
      </trkpt>
      <trkpt lat="48.63533" lon="-0.67248">
        <ele>227.1</ele>
        <time>2025-05-10T17:10:22.000Z</time>
      </trkpt>
      <trkpt lat="48.63535" lon="-0.67236">
        <ele>227.2</ele>
        <time>2025-05-10T17:10:24.000Z</time>
      </trkpt>
      <trkpt lat="48.63536" lon="-0.67223">
        <ele>227.2</ele>
        <time>2025-05-10T17:10:26.000Z</time>
      </trkpt>
      <trkpt lat="48.63537" lon="-0.67216">
        <ele>227.3</ele>
        <time>2025-05-10T17:10:27.000Z</time>
      </trkpt>
      <trkpt lat="48.63539" lon="-0.67204">
        <ele>227.4</ele>
        <time>2025-05-10T17:10:29.000Z</time>
      </trkpt>
      <trkpt lat="48.63543" lon="-0.67192">
        <ele>227.5</ele>
        <time>2025-05-10T17:10:31.000Z</time>
      </trkpt>
      <trkpt lat="48.63545" lon="-0.67186">
        <ele>227.5</ele>
        <time>2025-05-10T17:10:32.000Z</time>
      </trkpt>
      <trkpt lat="48.63549" lon="-0.67174">
        <ele>227.7</ele>
        <time>2025-05-10T17:10:34.000Z</time>
      </trkpt>
      <trkpt lat="48.63552" lon="-0.67167">
        <ele>227.8</ele>
        <time>2025-05-10T17:10:35.000Z</time>
      </trkpt>
      <trkpt lat="48.63555" lon="-0.67161">
        <ele>227.9</ele>
        <time>2025-05-10T17:10:36.000Z</time>
      </trkpt>
      <trkpt lat="48.63557" lon="-0.67155">
        <ele>227.9</ele>
        <time>2025-05-10T17:10:37.000Z</time>
      </trkpt>
      <trkpt lat="48.6356" lon="-0.67149">
        <ele>228.1</ele>
        <time>2025-05-10T17:10:38.000Z</time>
      </trkpt>
      <trkpt lat="48.63564" lon="-0.67137">
        <ele>228.3</ele>
        <time>2025-05-10T17:10:40.000Z</time>
      </trkpt>
      <trkpt lat="48.63566" lon="-0.6713">
        <ele>228.4</ele>
        <time>2025-05-10T17:10:41.000Z</time>
      </trkpt>
      <trkpt lat="48.6357" lon="-0.67119">
        <ele>228.7</ele>
        <time>2025-05-10T17:10:43.000Z</time>
      </trkpt>
      <trkpt lat="48.63574" lon="-0.67107">
        <ele>229</ele>
        <time>2025-05-10T17:10:45.000Z</time>
      </trkpt>
      <trkpt lat="48.63577" lon="-0.67101">
        <ele>229.2</ele>
        <time>2025-05-10T17:10:46.000Z</time>
      </trkpt>
      <trkpt lat="48.63579" lon="-0.67095">
        <ele>229.3</ele>
        <time>2025-05-10T17:10:47.000Z</time>
      </trkpt>
      <trkpt lat="48.63581" lon="-0.67089">
        <ele>229.4</ele>
        <time>2025-05-10T17:10:48.000Z</time>
      </trkpt>
      <trkpt lat="48.63584" lon="-0.67083">
        <ele>229.6</ele>
        <time>2025-05-10T17:10:49.000Z</time>
      </trkpt>
      <trkpt lat="48.63587" lon="-0.67072">
        <ele>229.9</ele>
        <time>2025-05-10T17:10:51.000Z</time>
      </trkpt>
      <trkpt lat="48.63592" lon="-0.67062">
        <ele>230.1</ele>
        <time>2025-05-10T17:10:53.000Z</time>
      </trkpt>
      <trkpt lat="48.63596" lon="-0.67053">
        <ele>230.4</ele>
        <time>2025-05-10T17:10:55.000Z</time>
      </trkpt>
      <trkpt lat="48.63601" lon="-0.67043">
        <ele>230.6</ele>
        <time>2025-05-10T17:10:57.000Z</time>
      </trkpt>
      <trkpt lat="48.63605" lon="-0.67033">
        <ele>230.9</ele>
        <time>2025-05-10T17:10:59.000Z</time>
      </trkpt>
      <trkpt lat="48.6361" lon="-0.67023">
        <ele>231.2</ele>
        <time>2025-05-10T17:11:01.000Z</time>
      </trkpt>
      <trkpt lat="48.63615" lon="-0.67013">
        <ele>231.5</ele>
        <time>2025-05-10T17:11:03.000Z</time>
      </trkpt>
      <trkpt lat="48.63621" lon="-0.67002">
        <ele>231.8</ele>
        <time>2025-05-10T17:11:05.000Z</time>
      </trkpt>
      <trkpt lat="48.63626" lon="-0.66992">
        <ele>232.1</ele>
        <time>2025-05-10T17:11:07.000Z</time>
      </trkpt>
      <trkpt lat="48.63632" lon="-0.66981">
        <ele>232.5</ele>
        <time>2025-05-10T17:11:09.000Z</time>
      </trkpt>
      <trkpt lat="48.63637" lon="-0.66971">
        <ele>232.9</ele>
        <time>2025-05-10T17:11:11.000Z</time>
      </trkpt>
      <trkpt lat="48.6364" lon="-0.66965">
        <ele>233.1</ele>
        <time>2025-05-10T17:11:12.000Z</time>
      </trkpt>
      <trkpt lat="48.63646" lon="-0.66955">
        <ele>233.5</ele>
        <time>2025-05-10T17:11:14.000Z</time>
      </trkpt>
      <trkpt lat="48.63651" lon="-0.66946">
        <ele>234</ele>
        <time>2025-05-10T17:11:16.000Z</time>
      </trkpt>
      <trkpt lat="48.63657" lon="-0.66937">
        <ele>234.5</ele>
        <time>2025-05-10T17:11:18.000Z</time>
      </trkpt>
      <trkpt lat="48.63662" lon="-0.66927">
        <ele>235</ele>
        <time>2025-05-10T17:11:20.000Z</time>
      </trkpt>
      <trkpt lat="48.63665" lon="-0.66922">
        <ele>235.2</ele>
        <time>2025-05-10T17:11:21.000Z</time>
      </trkpt>
      <trkpt lat="48.63668" lon="-0.66917">
        <ele>235.4</ele>
        <time>2025-05-10T17:11:22.000Z</time>
      </trkpt>
      <trkpt lat="48.63671" lon="-0.66911">
        <ele>235.6</ele>
        <time>2025-05-10T17:11:23.000Z</time>
      </trkpt>
      <trkpt lat="48.63674" lon="-0.66906">
        <ele>235.9</ele>
        <time>2025-05-10T17:11:24.000Z</time>
      </trkpt>
      <trkpt lat="48.63677" lon="-0.669">
        <ele>236.1</ele>
        <time>2025-05-10T17:11:25.000Z</time>
      </trkpt>
      <trkpt lat="48.63681" lon="-0.6689">
        <ele>236.5</ele>
        <time>2025-05-10T17:11:27.000Z</time>
      </trkpt>
      <trkpt lat="48.63685" lon="-0.66879">
        <ele>237</ele>
        <time>2025-05-10T17:11:29.000Z</time>
      </trkpt>
      <trkpt lat="48.63689" lon="-0.6687">
        <ele>237.5</ele>
        <time>2025-05-10T17:11:31.000Z</time>
      </trkpt>
      <trkpt lat="48.63694" lon="-0.66863">
        <ele>237.9</ele>
        <time>2025-05-10T17:11:33.000Z</time>
      </trkpt>
      <trkpt lat="48.63699" lon="-0.66855">
        <ele>238.4</ele>
        <time>2025-05-10T17:11:35.000Z</time>
      </trkpt>
      <trkpt lat="48.63704" lon="-0.66846">
        <ele>238.8</ele>
        <time>2025-05-10T17:11:37.000Z</time>
      </trkpt>
      <trkpt lat="48.63709" lon="-0.66837">
        <ele>239.3</ele>
        <time>2025-05-10T17:11:39.000Z</time>
      </trkpt>
      <trkpt lat="48.63714" lon="-0.66829">
        <ele>239.7</ele>
        <time>2025-05-10T17:11:41.000Z</time>
      </trkpt>
      <trkpt lat="48.6372" lon="-0.6682">
        <ele>240.3</ele>
        <time>2025-05-10T17:11:43.000Z</time>
      </trkpt>
      <trkpt lat="48.63724" lon="-0.66811">
        <ele>240.8</ele>
        <time>2025-05-10T17:11:45.000Z</time>
      </trkpt>
      <trkpt lat="48.63728" lon="-0.66801">
        <ele>241.3</ele>
        <time>2025-05-10T17:11:47.000Z</time>
      </trkpt>
      <trkpt lat="48.63731" lon="-0.66794">
        <ele>241.8</ele>
        <time>2025-05-10T17:11:49.000Z</time>
      </trkpt>
      <trkpt lat="48.63735" lon="-0.66786">
        <ele>242.3</ele>
        <time>2025-05-10T17:11:51.000Z</time>
      </trkpt>
      <trkpt lat="48.63739" lon="-0.66777">
        <ele>242.7</ele>
        <time>2025-05-10T17:11:53.000Z</time>
      </trkpt>
      <trkpt lat="48.63743" lon="-0.66769">
        <ele>243.3</ele>
        <time>2025-05-10T17:11:55.000Z</time>
      </trkpt>
      <trkpt lat="48.63747" lon="-0.66761">
        <ele>243.8</ele>
        <time>2025-05-10T17:11:57.000Z</time>
      </trkpt>
      <trkpt lat="48.6375" lon="-0.66753">
        <ele>244.3</ele>
        <time>2025-05-10T17:11:59.000Z</time>
      </trkpt>
      <trkpt lat="48.63753" lon="-0.66747">
        <ele>244.7</ele>
        <time>2025-05-10T17:12:01.000Z</time>
      </trkpt>
      <trkpt lat="48.63757" lon="-0.66737">
        <ele>245.2</ele>
        <time>2025-05-10T17:12:03.000Z</time>
      </trkpt>
      <trkpt lat="48.6376" lon="-0.66729">
        <ele>245.7</ele>
        <time>2025-05-10T17:12:05.000Z</time>
      </trkpt>
      <trkpt lat="48.63764" lon="-0.66719">
        <ele>246.1</ele>
        <time>2025-05-10T17:12:07.000Z</time>
      </trkpt>
      <trkpt lat="48.63768" lon="-0.66709">
        <ele>246.6</ele>
        <time>2025-05-10T17:12:09.000Z</time>
      </trkpt>
      <trkpt lat="48.63771" lon="-0.66704">
        <ele>246.8</ele>
        <time>2025-05-10T17:12:10.000Z</time>
      </trkpt>
      <trkpt lat="48.63774" lon="-0.66696">
        <ele>247.3</ele>
        <time>2025-05-10T17:12:12.000Z</time>
      </trkpt>
      <trkpt lat="48.63777" lon="-0.66687">
        <ele>247.9</ele>
        <time>2025-05-10T17:12:14.000Z</time>
      </trkpt>
      <trkpt lat="48.63782" lon="-0.66676">
        <ele>248.4</ele>
        <time>2025-05-10T17:12:16.000Z</time>
      </trkpt>
      <trkpt lat="48.63787" lon="-0.66667">
        <ele>248.9</ele>
        <time>2025-05-10T17:12:18.000Z</time>
      </trkpt>
      <trkpt lat="48.6379" lon="-0.6666">
        <ele>249.5</ele>
        <time>2025-05-10T17:12:20.000Z</time>
      </trkpt>
      <trkpt lat="48.63793" lon="-0.66653">
        <ele>250</ele>
        <time>2025-05-10T17:12:22.000Z</time>
      </trkpt>
      <trkpt lat="48.63797" lon="-0.66645">
        <ele>250.5</ele>
        <time>2025-05-10T17:12:24.000Z</time>
      </trkpt>
      <trkpt lat="48.63802" lon="-0.66637">
        <ele>251</ele>
        <time>2025-05-10T17:12:26.000Z</time>
      </trkpt>
      <trkpt lat="48.63808" lon="-0.66628">
        <ele>251.5</ele>
        <time>2025-05-10T17:12:28.000Z</time>
      </trkpt>
      <trkpt lat="48.63813" lon="-0.66621">
        <ele>252</ele>
        <time>2025-05-10T17:12:30.000Z</time>
      </trkpt>
      <trkpt lat="48.63817" lon="-0.66615">
        <ele>252.4</ele>
        <time>2025-05-10T17:12:32.000Z</time>
      </trkpt>
      <trkpt lat="48.63819" lon="-0.66607">
        <ele>252.9</ele>
        <time>2025-05-10T17:12:35.000Z</time>
      </trkpt>
      <trkpt lat="48.63819" lon="-0.666">
        <ele>253.1</ele>
        <time>2025-05-10T17:12:37.000Z</time>
      </trkpt>
      <trkpt lat="48.63817" lon="-0.6659">
        <ele>253.4</ele>
        <time>2025-05-10T17:12:40.000Z</time>
      </trkpt>
      <trkpt lat="48.63816" lon="-0.66582">
        <ele>253.7</ele>
        <time>2025-05-10T17:12:43.000Z</time>
      </trkpt>
      <trkpt lat="48.63815" lon="-0.66575">
        <ele>254</ele>
        <time>2025-05-10T17:12:46.000Z</time>
      </trkpt>
      <trkpt lat="48.63814" lon="-0.66565">
        <ele>254.2</ele>
        <time>2025-05-10T17:12:49.000Z</time>
      </trkpt>
      <trkpt lat="48.63813" lon="-0.66558">
        <ele>254.4</ele>
        <time>2025-05-10T17:12:51.000Z</time>
      </trkpt>
      <trkpt lat="48.63811" lon="-0.66549">
        <ele>254.6</ele>
        <time>2025-05-10T17:12:54.000Z</time>
      </trkpt>
      <trkpt lat="48.63809" lon="-0.6654">
        <ele>254.8</ele>
        <time>2025-05-10T17:12:57.000Z</time>
      </trkpt>
      <trkpt lat="48.63807" lon="-0.66531">
        <ele>255</ele>
        <time>2025-05-10T17:13:00.000Z</time>
      </trkpt>
      <trkpt lat="48.63805" lon="-0.66522">
        <ele>255.2</ele>
        <time>2025-05-10T17:13:03.000Z</time>
      </trkpt>
      <trkpt lat="48.63801" lon="-0.66513">
        <ele>255.3</ele>
        <time>2025-05-10T17:13:06.000Z</time>
      </trkpt>
      <trkpt lat="48.63799" lon="-0.66506">
        <ele>255.4</ele>
        <time>2025-05-10T17:13:08.000Z</time>
      </trkpt>
      <trkpt lat="48.63796" lon="-0.665">
        <ele>255.5</ele>
        <time>2025-05-10T17:13:10.000Z</time>
      </trkpt>
      <trkpt lat="48.63794" lon="-0.66491">
        <ele>255.5</ele>
        <time>2025-05-10T17:13:13.000Z</time>
      </trkpt>
      <trkpt lat="48.63792" lon="-0.66484">
        <ele>255.6</ele>
        <time>2025-05-10T17:13:15.000Z</time>
      </trkpt>
      <trkpt lat="48.6379" lon="-0.66477">
        <ele>255.6</ele>
        <time>2025-05-10T17:13:18.000Z</time>
      </trkpt>
      <trkpt lat="48.6379" lon="-0.66476">
        <ele>255.6</ele>
        <time>2025-05-10T17:13:21.000Z</time>
      </trkpt>
      <trkpt lat="48.6379" lon="-0.66476">
        <ele>255.6</ele>
        <time>2025-05-10T17:13:22.000Z</time>
      </trkpt>
      <trkpt lat="48.63787" lon="-0.66465">
        <ele>255.5</ele>
        <time>2025-05-10T17:13:52.000Z</time>
      </trkpt>
      <trkpt lat="48.63783" lon="-0.66456">
        <ele>255.5</ele>
        <time>2025-05-10T17:13:55.000Z</time>
      </trkpt>
      <trkpt lat="48.63781" lon="-0.66447">
        <ele>255.5</ele>
        <time>2025-05-10T17:13:57.000Z</time>
      </trkpt>
      <trkpt lat="48.63779" lon="-0.66438">
        <ele>255.5</ele>
        <time>2025-05-10T17:13:59.000Z</time>
      </trkpt>
      <trkpt lat="48.63778" lon="-0.66427">
        <ele>255.5</ele>
        <time>2025-05-10T17:14:01.000Z</time>
      </trkpt>
      <trkpt lat="48.63775" lon="-0.66416">
        <ele>255.5</ele>
        <time>2025-05-10T17:14:03.000Z</time>
      </trkpt>
      <trkpt lat="48.63774" lon="-0.66403">
        <ele>255.4</ele>
        <time>2025-05-10T17:14:05.000Z</time>
      </trkpt>
      <trkpt lat="48.63773" lon="-0.66396">
        <ele>255.4</ele>
        <time>2025-05-10T17:14:06.000Z</time>
      </trkpt>
      <trkpt lat="48.63772" lon="-0.66388">
        <ele>255.4</ele>
        <time>2025-05-10T17:14:07.000Z</time>
      </trkpt>
      <trkpt lat="48.63771" lon="-0.66381">
        <ele>255.4</ele>
        <time>2025-05-10T17:14:08.000Z</time>
      </trkpt>
      <trkpt lat="48.6377" lon="-0.66373">
        <ele>255.4</ele>
        <time>2025-05-10T17:14:09.000Z</time>
      </trkpt>
      <trkpt lat="48.63769" lon="-0.66365">
        <ele>255.4</ele>
        <time>2025-05-10T17:14:10.000Z</time>
      </trkpt>
      <trkpt lat="48.63768" lon="-0.66357">
        <ele>255.4</ele>
        <time>2025-05-10T17:14:11.000Z</time>
      </trkpt>
      <trkpt lat="48.63767" lon="-0.66348">
        <ele>255.4</ele>
        <time>2025-05-10T17:14:12.000Z</time>
      </trkpt>
      <trkpt lat="48.63766" lon="-0.6634">
        <ele>255.4</ele>
        <time>2025-05-10T17:14:13.000Z</time>
      </trkpt>
      <trkpt lat="48.63765" lon="-0.66332">
        <ele>255.4</ele>
        <time>2025-05-10T17:14:14.000Z</time>
      </trkpt>
      <trkpt lat="48.63764" lon="-0.66323">
        <ele>255.4</ele>
        <time>2025-05-10T17:14:15.000Z</time>
      </trkpt>
      <trkpt lat="48.63763" lon="-0.66315">
        <ele>255.4</ele>
        <time>2025-05-10T17:14:16.000Z</time>
      </trkpt>
      <trkpt lat="48.63761" lon="-0.66307">
        <ele>255.4</ele>
        <time>2025-05-10T17:14:17.000Z</time>
      </trkpt>
      <trkpt lat="48.6376" lon="-0.66298">
        <ele>255.3</ele>
        <time>2025-05-10T17:14:18.000Z</time>
      </trkpt>
      <trkpt lat="48.6376" lon="-0.6629">
        <ele>255.3</ele>
        <time>2025-05-10T17:14:19.000Z</time>
      </trkpt>
      <trkpt lat="48.63759" lon="-0.66282">
        <ele>255.3</ele>
        <time>2025-05-10T17:14:20.000Z</time>
      </trkpt>
      <trkpt lat="48.63758" lon="-0.66274">
        <ele>255.3</ele>
        <time>2025-05-10T17:14:21.000Z</time>
      </trkpt>
      <trkpt lat="48.63757" lon="-0.66266">
        <ele>255.2</ele>
        <time>2025-05-10T17:14:22.000Z</time>
      </trkpt>
      <trkpt lat="48.63757" lon="-0.66259">
        <ele>255.2</ele>
        <time>2025-05-10T17:14:23.000Z</time>
      </trkpt>
      <trkpt lat="48.63755" lon="-0.66251">
        <ele>255.2</ele>
        <time>2025-05-10T17:14:24.000Z</time>
      </trkpt>
      <trkpt lat="48.63754" lon="-0.66243">
        <ele>255.2</ele>
        <time>2025-05-10T17:14:25.000Z</time>
      </trkpt>
      <trkpt lat="48.63753" lon="-0.66235">
        <ele>255.1</ele>
        <time>2025-05-10T17:14:26.000Z</time>
      </trkpt>
      <trkpt lat="48.63752" lon="-0.66227">
        <ele>255.1</ele>
        <time>2025-05-10T17:14:27.000Z</time>
      </trkpt>
      <trkpt lat="48.63751" lon="-0.66219">
        <ele>255.1</ele>
        <time>2025-05-10T17:14:28.000Z</time>
      </trkpt>
      <trkpt lat="48.6375" lon="-0.66211">
        <ele>255.1</ele>
        <time>2025-05-10T17:14:29.000Z</time>
      </trkpt>
      <trkpt lat="48.63749" lon="-0.66202">
        <ele>255</ele>
        <time>2025-05-10T17:14:30.000Z</time>
      </trkpt>
      <trkpt lat="48.63748" lon="-0.66194">
        <ele>255</ele>
        <time>2025-05-10T17:14:31.000Z</time>
      </trkpt>
      <trkpt lat="48.63747" lon="-0.66185">
        <ele>255</ele>
        <time>2025-05-10T17:14:32.000Z</time>
      </trkpt>
      <trkpt lat="48.63746" lon="-0.66177">
        <ele>255</ele>
        <time>2025-05-10T17:14:33.000Z</time>
      </trkpt>
      <trkpt lat="48.63745" lon="-0.66169">
        <ele>254.9</ele>
        <time>2025-05-10T17:14:34.000Z</time>
      </trkpt>
      <trkpt lat="48.63744" lon="-0.66162">
        <ele>254.9</ele>
        <time>2025-05-10T17:14:35.000Z</time>
      </trkpt>
      <trkpt lat="48.63743" lon="-0.66154">
        <ele>254.9</ele>
        <time>2025-05-10T17:14:36.000Z</time>
      </trkpt>
      <trkpt lat="48.63743" lon="-0.66148">
        <ele>254.9</ele>
        <time>2025-05-10T17:14:37.000Z</time>
      </trkpt>
      <trkpt lat="48.63741" lon="-0.66135">
        <ele>254.8</ele>
        <time>2025-05-10T17:14:39.000Z</time>
      </trkpt>
      <trkpt lat="48.63741" lon="-0.66122">
        <ele>254.7</ele>
        <time>2025-05-10T17:14:41.000Z</time>
      </trkpt>
      <trkpt lat="48.63741" lon="-0.66114">
        <ele>254.7</ele>
        <time>2025-05-10T17:14:42.000Z</time>
      </trkpt>
      <trkpt lat="48.63742" lon="-0.66106">
        <ele>254.6</ele>
        <time>2025-05-10T17:14:43.000Z</time>
      </trkpt>
      <trkpt lat="48.63742" lon="-0.66098">
        <ele>254.6</ele>
        <time>2025-05-10T17:14:44.000Z</time>
      </trkpt>
      <trkpt lat="48.63743" lon="-0.66089">
        <ele>254.5</ele>
        <time>2025-05-10T17:14:45.000Z</time>
      </trkpt>
      <trkpt lat="48.63745" lon="-0.6608">
        <ele>254.4</ele>
        <time>2025-05-10T17:14:46.000Z</time>
      </trkpt>
      <trkpt lat="48.63746" lon="-0.66071">
        <ele>254.4</ele>
        <time>2025-05-10T17:14:47.000Z</time>
      </trkpt>
      <trkpt lat="48.63747" lon="-0.66061">
        <ele>254.2</ele>
        <time>2025-05-10T17:14:48.000Z</time>
      </trkpt>
      <trkpt lat="48.63748" lon="-0.66052">
        <ele>254</ele>
        <time>2025-05-10T17:14:49.000Z</time>
      </trkpt>
      <trkpt lat="48.6375" lon="-0.66044">
        <ele>253.9</ele>
        <time>2025-05-10T17:14:50.000Z</time>
      </trkpt>
      <trkpt lat="48.63751" lon="-0.66037">
        <ele>253.6</ele>
        <time>2025-05-10T17:14:51.000Z</time>
      </trkpt>
      <trkpt lat="48.63752" lon="-0.66029">
        <ele>253.4</ele>
        <time>2025-05-10T17:14:52.000Z</time>
      </trkpt>
      <trkpt lat="48.63753" lon="-0.66022">
        <ele>253</ele>
        <time>2025-05-10T17:14:53.000Z</time>
      </trkpt>
      <trkpt lat="48.63754" lon="-0.66016">
        <ele>252.6</ele>
        <time>2025-05-10T17:14:54.000Z</time>
      </trkpt>
      <trkpt lat="48.63756" lon="-0.66004">
        <ele>251.7</ele>
        <time>2025-05-10T17:14:56.000Z</time>
      </trkpt>
      <trkpt lat="48.63755" lon="-0.65996">
        <ele>250.6</ele>
        <time>2025-05-10T17:14:58.000Z</time>
      </trkpt>
      <trkpt lat="48.63748" lon="-0.65994">
        <ele>249.6</ele>
        <time>2025-05-10T17:15:00.000Z</time>
      </trkpt>
      <trkpt lat="48.6374" lon="-0.65997">
        <ele>248.8</ele>
        <time>2025-05-10T17:15:02.000Z</time>
      </trkpt>
      <trkpt lat="48.63733" lon="-0.65999">
        <ele>248.3</ele>
        <time>2025-05-10T17:15:04.000Z</time>
      </trkpt>
      <trkpt lat="48.63725" lon="-0.66002">
        <ele>248.1</ele>
        <time>2025-05-10T17:15:06.000Z</time>
      </trkpt>
      <trkpt lat="48.63718" lon="-0.66006">
        <ele>248.1</ele>
        <time>2025-05-10T17:15:08.000Z</time>
      </trkpt>
      <trkpt lat="48.6371" lon="-0.66009">
        <ele>248.3</ele>
        <time>2025-05-10T17:15:10.000Z</time>
      </trkpt>
      <trkpt lat="48.63701" lon="-0.66011">
        <ele>248.5</ele>
        <time>2025-05-10T17:15:12.000Z</time>
      </trkpt>
      <trkpt lat="48.63693" lon="-0.66012">
        <ele>248.8</ele>
        <time>2025-05-10T17:15:14.000Z</time>
      </trkpt>
      <trkpt lat="48.63685" lon="-0.66009">
        <ele>249.2</ele>
        <time>2025-05-10T17:15:16.000Z</time>
      </trkpt>
      <trkpt lat="48.63677" lon="-0.66006">
        <ele>249.7</ele>
        <time>2025-05-10T17:15:18.000Z</time>
      </trkpt>
      <trkpt lat="48.63668" lon="-0.66006">
        <ele>250.1</ele>
        <time>2025-05-10T17:15:20.000Z</time>
      </trkpt>
      <trkpt lat="48.63663" lon="-0.66006">
        <ele>250.3</ele>
        <time>2025-05-10T17:15:21.000Z</time>
      </trkpt>
      <trkpt lat="48.63658" lon="-0.66005">
        <ele>250.5</ele>
        <time>2025-05-10T17:15:22.000Z</time>
      </trkpt>
      <trkpt lat="48.63653" lon="-0.66005">
        <ele>250.7</ele>
        <time>2025-05-10T17:15:23.000Z</time>
      </trkpt>
      <trkpt lat="48.63648" lon="-0.66004">
        <ele>250.9</ele>
        <time>2025-05-10T17:15:24.000Z</time>
      </trkpt>
      <trkpt lat="48.63644" lon="-0.66004">
        <ele>251.1</ele>
        <time>2025-05-10T17:15:25.000Z</time>
      </trkpt>
      <trkpt lat="48.63639" lon="-0.66003">
        <ele>251.3</ele>
        <time>2025-05-10T17:15:26.000Z</time>
      </trkpt>
      <trkpt lat="48.63634" lon="-0.66002">
        <ele>251.5</ele>
        <time>2025-05-10T17:15:27.000Z</time>
      </trkpt>
      <trkpt lat="48.6363" lon="-0.66001">
        <ele>251.6</ele>
        <time>2025-05-10T17:15:28.000Z</time>
      </trkpt>
      <trkpt lat="48.63625" lon="-0.65999">
        <ele>251.8</ele>
        <time>2025-05-10T17:15:29.000Z</time>
      </trkpt>
      <trkpt lat="48.6362" lon="-0.65998">
        <ele>251.9</ele>
        <time>2025-05-10T17:15:30.000Z</time>
      </trkpt>
      <trkpt lat="48.63615" lon="-0.65998">
        <ele>251.9</ele>
        <time>2025-05-10T17:15:31.000Z</time>
      </trkpt>
      <trkpt lat="48.6361" lon="-0.65997">
        <ele>252</ele>
        <time>2025-05-10T17:15:32.000Z</time>
      </trkpt>
      <trkpt lat="48.63605" lon="-0.65996">
        <ele>252.1</ele>
        <time>2025-05-10T17:15:33.000Z</time>
      </trkpt>
      <trkpt lat="48.63597" lon="-0.65995">
        <ele>252.2</ele>
        <time>2025-05-10T17:15:35.000Z</time>
      </trkpt>
      <trkpt lat="48.63593" lon="-0.65986">
        <ele>252.3</ele>
        <time>2025-05-10T17:15:37.000Z</time>
      </trkpt>
      <trkpt lat="48.63594" lon="-0.65975">
        <ele>252.3</ele>
        <time>2025-05-10T17:15:39.000Z</time>
      </trkpt>
      <trkpt lat="48.63594" lon="-0.65963">
        <ele>252.4</ele>
        <time>2025-05-10T17:15:41.000Z</time>
      </trkpt>
      <trkpt lat="48.63594" lon="-0.65956">
        <ele>252.4</ele>
        <time>2025-05-10T17:15:42.000Z</time>
      </trkpt>
      <trkpt lat="48.63595" lon="-0.65943">
        <ele>252.5</ele>
        <time>2025-05-10T17:15:44.000Z</time>
      </trkpt>
      <trkpt lat="48.63594" lon="-0.6593">
        <ele>252.5</ele>
        <time>2025-05-10T17:15:46.000Z</time>
      </trkpt>
      <trkpt lat="48.63594" lon="-0.65916">
        <ele>252.6</ele>
        <time>2025-05-10T17:15:48.000Z</time>
      </trkpt>
      <trkpt lat="48.63595" lon="-0.65903">
        <ele>252.6</ele>
        <time>2025-05-10T17:15:50.000Z</time>
      </trkpt>
      <trkpt lat="48.63595" lon="-0.65895">
        <ele>252.6</ele>
        <time>2025-05-10T17:15:51.000Z</time>
      </trkpt>
      <trkpt lat="48.63595" lon="-0.65888">
        <ele>252.6</ele>
        <time>2025-05-10T17:15:52.000Z</time>
      </trkpt>
      <trkpt lat="48.63594" lon="-0.6588">
        <ele>252.7</ele>
        <time>2025-05-10T17:15:53.000Z</time>
      </trkpt>
      <trkpt lat="48.63595" lon="-0.65873">
        <ele>252.7</ele>
        <time>2025-05-10T17:15:54.000Z</time>
      </trkpt>
      <trkpt lat="48.63595" lon="-0.65866">
        <ele>252.7</ele>
        <time>2025-05-10T17:15:55.000Z</time>
      </trkpt>
      <trkpt lat="48.63595" lon="-0.65853">
        <ele>252.7</ele>
        <time>2025-05-10T17:15:57.000Z</time>
      </trkpt>
      <trkpt lat="48.63597" lon="-0.65841">
        <ele>252.7</ele>
        <time>2025-05-10T17:15:59.000Z</time>
      </trkpt>
      <trkpt lat="48.63597" lon="-0.65827">
        <ele>252.8</ele>
        <time>2025-05-10T17:16:01.000Z</time>
      </trkpt>
      <trkpt lat="48.63598" lon="-0.65821">
        <ele>252.8</ele>
        <time>2025-05-10T17:16:02.000Z</time>
      </trkpt>
      <trkpt lat="48.63598" lon="-0.65809">
        <ele>252.8</ele>
        <time>2025-05-10T17:16:04.000Z</time>
      </trkpt>
      <trkpt lat="48.63598" lon="-0.65795">
        <ele>252.8</ele>
        <time>2025-05-10T17:16:06.000Z</time>
      </trkpt>
      <trkpt lat="48.63598" lon="-0.65787">
        <ele>252.8</ele>
        <time>2025-05-10T17:16:07.000Z</time>
      </trkpt>
      <trkpt lat="48.63599" lon="-0.6578">
        <ele>252.8</ele>
        <time>2025-05-10T17:16:08.000Z</time>
      </trkpt>
      <trkpt lat="48.63598" lon="-0.65771">
        <ele>252.8</ele>
        <time>2025-05-10T17:16:09.000Z</time>
      </trkpt>
      <trkpt lat="48.63598" lon="-0.65761">
        <ele>252.8</ele>
        <time>2025-05-10T17:16:10.000Z</time>
      </trkpt>
      <trkpt lat="48.63598" lon="-0.65753">
        <ele>252.8</ele>
        <time>2025-05-10T17:16:11.000Z</time>
      </trkpt>
      <trkpt lat="48.63599" lon="-0.65746">
        <ele>252.8</ele>
        <time>2025-05-10T17:16:12.000Z</time>
      </trkpt>
      <trkpt lat="48.63599" lon="-0.65738">
        <ele>252.7</ele>
        <time>2025-05-10T17:16:13.000Z</time>
      </trkpt>
      <trkpt lat="48.63599" lon="-0.6573">
        <ele>252.7</ele>
        <time>2025-05-10T17:16:14.000Z</time>
      </trkpt>
      <trkpt lat="48.63599" lon="-0.65722">
        <ele>252.7</ele>
        <time>2025-05-10T17:16:15.000Z</time>
      </trkpt>
      <trkpt lat="48.63598" lon="-0.65713">
        <ele>252.6</ele>
        <time>2025-05-10T17:16:16.000Z</time>
      </trkpt>
      <trkpt lat="48.63598" lon="-0.65706">
        <ele>252.6</ele>
        <time>2025-05-10T17:16:17.000Z</time>
      </trkpt>
      <trkpt lat="48.63598" lon="-0.65698">
        <ele>252.5</ele>
        <time>2025-05-10T17:16:18.000Z</time>
      </trkpt>
      <trkpt lat="48.63599" lon="-0.6569">
        <ele>252.4</ele>
        <time>2025-05-10T17:16:19.000Z</time>
      </trkpt>
      <trkpt lat="48.63599" lon="-0.65682">
        <ele>252.4</ele>
        <time>2025-05-10T17:16:20.000Z</time>
      </trkpt>
      <trkpt lat="48.63598" lon="-0.65674">
        <ele>252.2</ele>
        <time>2025-05-10T17:16:21.000Z</time>
      </trkpt>
      <trkpt lat="48.63596" lon="-0.65668">
        <ele>252.1</ele>
        <time>2025-05-10T17:16:22.000Z</time>
      </trkpt>
      <trkpt lat="48.63592" lon="-0.65663">
        <ele>251.9</ele>
        <time>2025-05-10T17:16:23.000Z</time>
      </trkpt>
      <trkpt lat="48.63588" lon="-0.65658">
        <ele>251.8</ele>
        <time>2025-05-10T17:16:24.000Z</time>
      </trkpt>
      <trkpt lat="48.63585" lon="-0.65651">
        <ele>251.6</ele>
        <time>2025-05-10T17:16:25.000Z</time>
      </trkpt>
      <trkpt lat="48.63582" lon="-0.65644">
        <ele>251.4</ele>
        <time>2025-05-10T17:16:26.000Z</time>
      </trkpt>
      <trkpt lat="48.63578" lon="-0.65637">
        <ele>251.1</ele>
        <time>2025-05-10T17:16:27.000Z</time>
      </trkpt>
      <trkpt lat="48.63575" lon="-0.6563">
        <ele>250.7</ele>
        <time>2025-05-10T17:16:28.000Z</time>
      </trkpt>
      <trkpt lat="48.63571" lon="-0.65624">
        <ele>250.4</ele>
        <time>2025-05-10T17:16:29.000Z</time>
      </trkpt>
      <trkpt lat="48.63568" lon="-0.65618">
        <ele>250</ele>
        <time>2025-05-10T17:16:30.000Z</time>
      </trkpt>
      <trkpt lat="48.63564" lon="-0.65613">
        <ele>249.6</ele>
        <time>2025-05-10T17:16:31.000Z</time>
      </trkpt>
      <trkpt lat="48.63558" lon="-0.65604">
        <ele>248.9</ele>
        <time>2025-05-10T17:16:33.000Z</time>
      </trkpt>
      <trkpt lat="48.63554" lon="-0.656">
        <ele>248.5</ele>
        <time>2025-05-10T17:16:34.000Z</time>
      </trkpt>
      <trkpt lat="48.63549" lon="-0.65595">
        <ele>248.2</ele>
        <time>2025-05-10T17:16:35.000Z</time>
      </trkpt>
      <trkpt lat="48.63544" lon="-0.65591">
        <ele>247.8</ele>
        <time>2025-05-10T17:16:36.000Z</time>
      </trkpt>
      <trkpt lat="48.6354" lon="-0.65587">
        <ele>247.5</ele>
        <time>2025-05-10T17:16:37.000Z</time>
      </trkpt>
      <trkpt lat="48.63535" lon="-0.65582">
        <ele>247.2</ele>
        <time>2025-05-10T17:16:38.000Z</time>
      </trkpt>
      <trkpt lat="48.6353" lon="-0.65577">
        <ele>246.9</ele>
        <time>2025-05-10T17:16:39.000Z</time>
      </trkpt>
      <trkpt lat="48.63525" lon="-0.65572">
        <ele>246.6</ele>
        <time>2025-05-10T17:16:40.000Z</time>
      </trkpt>
      <trkpt lat="48.6352" lon="-0.65568">
        <ele>246.3</ele>
        <time>2025-05-10T17:16:41.000Z</time>
      </trkpt>
      <trkpt lat="48.63516" lon="-0.65564">
        <ele>246.1</ele>
        <time>2025-05-10T17:16:42.000Z</time>
      </trkpt>
      <trkpt lat="48.63512" lon="-0.6556">
        <ele>245.9</ele>
        <time>2025-05-10T17:16:43.000Z</time>
      </trkpt>
      <trkpt lat="48.63508" lon="-0.65556">
        <ele>245.7</ele>
        <time>2025-05-10T17:16:44.000Z</time>
      </trkpt>
      <trkpt lat="48.63504" lon="-0.65548">
        <ele>245.4</ele>
        <time>2025-05-10T17:16:46.000Z</time>
      </trkpt>
      <trkpt lat="48.63503" lon="-0.65537">
        <ele>245.1</ele>
        <time>2025-05-10T17:16:48.000Z</time>
      </trkpt>
      <trkpt lat="48.63504" lon="-0.65523">
        <ele>244.9</ele>
        <time>2025-05-10T17:16:50.000Z</time>
      </trkpt>
      <trkpt lat="48.63504" lon="-0.65515">
        <ele>244.8</ele>
        <time>2025-05-10T17:16:51.000Z</time>
      </trkpt>
      <trkpt lat="48.63505" lon="-0.65506">
        <ele>244.7</ele>
        <time>2025-05-10T17:16:52.000Z</time>
      </trkpt>
      <trkpt lat="48.63505" lon="-0.65497">
        <ele>244.6</ele>
        <time>2025-05-10T17:16:53.000Z</time>
      </trkpt>
      <trkpt lat="48.63505" lon="-0.65488">
        <ele>244.5</ele>
        <time>2025-05-10T17:16:54.000Z</time>
      </trkpt>
      <trkpt lat="48.63505" lon="-0.65479">
        <ele>244.5</ele>
        <time>2025-05-10T17:16:55.000Z</time>
      </trkpt>
      <trkpt lat="48.63506" lon="-0.65473">
        <ele>244.4</ele>
        <time>2025-05-10T17:16:56.000Z</time>
      </trkpt>
      <trkpt lat="48.63504" lon="-0.65461">
        <ele>244.3</ele>
        <time>2025-05-10T17:16:58.000Z</time>
      </trkpt>
      <trkpt lat="48.63496" lon="-0.65458">
        <ele>244.2</ele>
        <time>2025-05-10T17:17:00.000Z</time>
      </trkpt>
      <trkpt lat="48.63492" lon="-0.65458">
        <ele>244.1</ele>
        <time>2025-05-10T17:17:01.000Z</time>
      </trkpt>
      <trkpt lat="48.63487" lon="-0.65456">
        <ele>244</ele>
        <time>2025-05-10T17:17:02.000Z</time>
      </trkpt>
      <trkpt lat="48.63482" lon="-0.65455">
        <ele>243.9</ele>
        <time>2025-05-10T17:17:03.000Z</time>
      </trkpt>
      <trkpt lat="48.63476" lon="-0.65452">
        <ele>243.8</ele>
        <time>2025-05-10T17:17:04.000Z</time>
      </trkpt>
      <trkpt lat="48.63471" lon="-0.6545">
        <ele>243.6</ele>
        <time>2025-05-10T17:17:05.000Z</time>
      </trkpt>
      <trkpt lat="48.63465" lon="-0.65446">
        <ele>243.5</ele>
        <time>2025-05-10T17:17:06.000Z</time>
      </trkpt>
      <trkpt lat="48.63461" lon="-0.65442">
        <ele>243.3</ele>
        <time>2025-05-10T17:17:07.000Z</time>
      </trkpt>
      <trkpt lat="48.63456" lon="-0.65438">
        <ele>243.1</ele>
        <time>2025-05-10T17:17:08.000Z</time>
      </trkpt>
      <trkpt lat="48.63452" lon="-0.65433">
        <ele>242.9</ele>
        <time>2025-05-10T17:17:09.000Z</time>
      </trkpt>
      <trkpt lat="48.63448" lon="-0.65428">
        <ele>242.7</ele>
        <time>2025-05-10T17:17:10.000Z</time>
      </trkpt>
      <trkpt lat="48.63443" lon="-0.65422">
        <ele>242.5</ele>
        <time>2025-05-10T17:17:11.000Z</time>
      </trkpt>
      <trkpt lat="48.63439" lon="-0.65416">
        <ele>242.2</ele>
        <time>2025-05-10T17:17:12.000Z</time>
      </trkpt>
      <trkpt lat="48.63434" lon="-0.6541">
        <ele>242</ele>
        <time>2025-05-10T17:17:13.000Z</time>
      </trkpt>
      <trkpt lat="48.6343" lon="-0.65403">
        <ele>241.7</ele>
        <time>2025-05-10T17:17:14.000Z</time>
      </trkpt>
      <trkpt lat="48.63425" lon="-0.65396">
        <ele>241.4</ele>
        <time>2025-05-10T17:17:15.000Z</time>
      </trkpt>
      <trkpt lat="48.6342" lon="-0.65391">
        <ele>241.1</ele>
        <time>2025-05-10T17:17:16.000Z</time>
      </trkpt>
      <trkpt lat="48.63416" lon="-0.65387">
        <ele>240.8</ele>
        <time>2025-05-10T17:17:17.000Z</time>
      </trkpt>
      <trkpt lat="48.63409" lon="-0.65381">
        <ele>240.1</ele>
        <time>2025-05-10T17:17:19.000Z</time>
      </trkpt>
      <trkpt lat="48.63406" lon="-0.65372">
        <ele>239.5</ele>
        <time>2025-05-10T17:17:21.000Z</time>
      </trkpt>
      <trkpt lat="48.63407" lon="-0.65363">
        <ele>239</ele>
        <time>2025-05-10T17:17:23.000Z</time>
      </trkpt>
      <trkpt lat="48.63409" lon="-0.65353">
        <ele>238.6</ele>
        <time>2025-05-10T17:17:25.000Z</time>
      </trkpt>
      <trkpt lat="48.6341" lon="-0.65345">
        <ele>238.4</ele>
        <time>2025-05-10T17:17:26.000Z</time>
      </trkpt>
      <trkpt lat="48.63411" lon="-0.65335">
        <ele>237.9</ele>
        <time>2025-05-10T17:17:28.000Z</time>
      </trkpt>
      <trkpt lat="48.63412" lon="-0.65322">
        <ele>237.5</ele>
        <time>2025-05-10T17:17:30.000Z</time>
      </trkpt>
      <trkpt lat="48.63411" lon="-0.65309">
        <ele>237</ele>
        <time>2025-05-10T17:17:32.000Z</time>
      </trkpt>
      <trkpt lat="48.63409" lon="-0.65297">
        <ele>236.5</ele>
        <time>2025-05-10T17:17:34.000Z</time>
      </trkpt>
      <trkpt lat="48.63408" lon="-0.6529">
        <ele>236.2</ele>
        <time>2025-05-10T17:17:35.000Z</time>
      </trkpt>
      <trkpt lat="48.63408" lon="-0.65283">
        <ele>236</ele>
        <time>2025-05-10T17:17:36.000Z</time>
      </trkpt>
      <trkpt lat="48.63407" lon="-0.65275">
        <ele>235.8</ele>
        <time>2025-05-10T17:17:37.000Z</time>
      </trkpt>
      <trkpt lat="48.63406" lon="-0.65268">
        <ele>235.5</ele>
        <time>2025-05-10T17:17:38.000Z</time>
      </trkpt>
      <trkpt lat="48.63406" lon="-0.65261">
        <ele>235.3</ele>
        <time>2025-05-10T17:17:39.000Z</time>
      </trkpt>
      <trkpt lat="48.63405" lon="-0.65249">
        <ele>234.8</ele>
        <time>2025-05-10T17:17:41.000Z</time>
      </trkpt>
      <trkpt lat="48.63403" lon="-0.6524">
        <ele>234.6</ele>
        <time>2025-05-10T17:17:42.000Z</time>
      </trkpt>
      <trkpt lat="48.63402" lon="-0.65233">
        <ele>234.4</ele>
        <time>2025-05-10T17:17:43.000Z</time>
      </trkpt>
      <trkpt lat="48.63401" lon="-0.65225">
        <ele>234.1</ele>
        <time>2025-05-10T17:17:44.000Z</time>
      </trkpt>
      <trkpt lat="48.634" lon="-0.65216">
        <ele>234</ele>
        <time>2025-05-10T17:17:45.000Z</time>
      </trkpt>
      <trkpt lat="48.63398" lon="-0.65207">
        <ele>233.8</ele>
        <time>2025-05-10T17:17:46.000Z</time>
      </trkpt>
      <trkpt lat="48.63396" lon="-0.65198">
        <ele>233.5</ele>
        <time>2025-05-10T17:17:47.000Z</time>
      </trkpt>
      <trkpt lat="48.63395" lon="-0.65189">
        <ele>233.3</ele>
        <time>2025-05-10T17:17:48.000Z</time>
      </trkpt>
      <trkpt lat="48.63393" lon="-0.6518">
        <ele>233.1</ele>
        <time>2025-05-10T17:17:49.000Z</time>
      </trkpt>
      <trkpt lat="48.63392" lon="-0.65172">
        <ele>233</ele>
        <time>2025-05-10T17:17:50.000Z</time>
      </trkpt>
      <trkpt lat="48.63389" lon="-0.65159">
        <ele>232.7</ele>
        <time>2025-05-10T17:17:52.000Z</time>
      </trkpt>
      <trkpt lat="48.63388" lon="-0.65152">
        <ele>232.4</ele>
        <time>2025-05-10T17:17:53.000Z</time>
      </trkpt>
      <trkpt lat="48.63386" lon="-0.65144">
        <ele>232.2</ele>
        <time>2025-05-10T17:17:54.000Z</time>
      </trkpt>
      <trkpt lat="48.63384" lon="-0.65137">
        <ele>232.1</ele>
        <time>2025-05-10T17:17:55.000Z</time>
      </trkpt>
      <trkpt lat="48.63382" lon="-0.6513">
        <ele>231.9</ele>
        <time>2025-05-10T17:17:56.000Z</time>
      </trkpt>
      <trkpt lat="48.63381" lon="-0.65123">
        <ele>231.7</ele>
        <time>2025-05-10T17:17:57.000Z</time>
      </trkpt>
      <trkpt lat="48.63379" lon="-0.65116">
        <ele>231.6</ele>
        <time>2025-05-10T17:17:58.000Z</time>
      </trkpt>
      <trkpt lat="48.63378" lon="-0.65108">
        <ele>231.4</ele>
        <time>2025-05-10T17:17:59.000Z</time>
      </trkpt>
      <trkpt lat="48.63378" lon="-0.651">
        <ele>231.2</ele>
        <time>2025-05-10T17:18:00.000Z</time>
      </trkpt>
      <trkpt lat="48.63377" lon="-0.65092">
        <ele>231</ele>
        <time>2025-05-10T17:18:01.000Z</time>
      </trkpt>
      <trkpt lat="48.63375" lon="-0.65083">
        <ele>230.8</ele>
        <time>2025-05-10T17:18:02.000Z</time>
      </trkpt>
      <trkpt lat="48.63374" lon="-0.65074">
        <ele>230.6</ele>
        <time>2025-05-10T17:18:03.000Z</time>
      </trkpt>
      <trkpt lat="48.63373" lon="-0.65066">
        <ele>230.4</ele>
        <time>2025-05-10T17:18:04.000Z</time>
      </trkpt>
      <trkpt lat="48.63371" lon="-0.65056">
        <ele>230.2</ele>
        <time>2025-05-10T17:18:05.000Z</time>
      </trkpt>
      <trkpt lat="48.6337" lon="-0.65047">
        <ele>230</ele>
        <time>2025-05-10T17:18:06.000Z</time>
      </trkpt>
      <trkpt lat="48.63368" lon="-0.65038">
        <ele>229.8</ele>
        <time>2025-05-10T17:18:07.000Z</time>
      </trkpt>
      <trkpt lat="48.63366" lon="-0.65028">
        <ele>229.5</ele>
        <time>2025-05-10T17:18:08.000Z</time>
      </trkpt>
      <trkpt lat="48.63364" lon="-0.65019">
        <ele>229.3</ele>
        <time>2025-05-10T17:18:09.000Z</time>
      </trkpt>
      <trkpt lat="48.63362" lon="-0.65009">
        <ele>229.1</ele>
        <time>2025-05-10T17:18:10.000Z</time>
      </trkpt>
      <trkpt lat="48.63361" lon="-0.64999">
        <ele>228.8</ele>
        <time>2025-05-10T17:18:11.000Z</time>
      </trkpt>
      <trkpt lat="48.63359" lon="-0.6499">
        <ele>228.6</ele>
        <time>2025-05-10T17:18:12.000Z</time>
      </trkpt>
      <trkpt lat="48.63358" lon="-0.64981">
        <ele>228.4</ele>
        <time>2025-05-10T17:18:13.000Z</time>
      </trkpt>
      <trkpt lat="48.63357" lon="-0.64972">
        <ele>228.2</ele>
        <time>2025-05-10T17:18:14.000Z</time>
      </trkpt>
      <trkpt lat="48.63356" lon="-0.64963">
        <ele>227.9</ele>
        <time>2025-05-10T17:18:15.000Z</time>
      </trkpt>
      <trkpt lat="48.63355" lon="-0.64955">
        <ele>227.7</ele>
        <time>2025-05-10T17:18:16.000Z</time>
      </trkpt>
      <trkpt lat="48.63353" lon="-0.64947">
        <ele>227.6</ele>
        <time>2025-05-10T17:18:17.000Z</time>
      </trkpt>
      <trkpt lat="48.63353" lon="-0.64938">
        <ele>227.3</ele>
        <time>2025-05-10T17:18:18.000Z</time>
      </trkpt>
      <trkpt lat="48.63352" lon="-0.6493">
        <ele>227.1</ele>
        <time>2025-05-10T17:18:19.000Z</time>
      </trkpt>
      <trkpt lat="48.63352" lon="-0.6492">
        <ele>227</ele>
        <time>2025-05-10T17:18:20.000Z</time>
      </trkpt>
      <trkpt lat="48.63351" lon="-0.64911">
        <ele>226.8</ele>
        <time>2025-05-10T17:18:21.000Z</time>
      </trkpt>
      <trkpt lat="48.63351" lon="-0.64902">
        <ele>226.6</ele>
        <time>2025-05-10T17:18:22.000Z</time>
      </trkpt>
      <trkpt lat="48.63351" lon="-0.64893">
        <ele>226.3</ele>
        <time>2025-05-10T17:18:23.000Z</time>
      </trkpt>
      <trkpt lat="48.6335" lon="-0.64883">
        <ele>226.1</ele>
        <time>2025-05-10T17:18:24.000Z</time>
      </trkpt>
      <trkpt lat="48.63349" lon="-0.64873">
        <ele>225.9</ele>
        <time>2025-05-10T17:18:25.000Z</time>
      </trkpt>
      <trkpt lat="48.63348" lon="-0.64863">
        <ele>225.6</ele>
        <time>2025-05-10T17:18:26.000Z</time>
      </trkpt>
      <trkpt lat="48.63346" lon="-0.64853">
        <ele>225.3</ele>
        <time>2025-05-10T17:18:27.000Z</time>
      </trkpt>
      <trkpt lat="48.63345" lon="-0.64844">
        <ele>225</ele>
        <time>2025-05-10T17:18:28.000Z</time>
      </trkpt>
      <trkpt lat="48.63343" lon="-0.64834">
        <ele>224.7</ele>
        <time>2025-05-10T17:18:29.000Z</time>
      </trkpt>
      <trkpt lat="48.6334" lon="-0.64824">
        <ele>224.4</ele>
        <time>2025-05-10T17:18:30.000Z</time>
      </trkpt>
      <trkpt lat="48.63338" lon="-0.64814">
        <ele>224.1</ele>
        <time>2025-05-10T17:18:31.000Z</time>
      </trkpt>
      <trkpt lat="48.63336" lon="-0.64804">
        <ele>223.8</ele>
        <time>2025-05-10T17:18:32.000Z</time>
      </trkpt>
      <trkpt lat="48.63334" lon="-0.64793">
        <ele>223.5</ele>
        <time>2025-05-10T17:18:33.000Z</time>
      </trkpt>
      <trkpt lat="48.63332" lon="-0.64784">
        <ele>223.3</ele>
        <time>2025-05-10T17:18:34.000Z</time>
      </trkpt>
      <trkpt lat="48.63331" lon="-0.64776">
        <ele>223</ele>
        <time>2025-05-10T17:18:35.000Z</time>
      </trkpt>
      <trkpt lat="48.63329" lon="-0.64768">
        <ele>222.7</ele>
        <time>2025-05-10T17:18:36.000Z</time>
      </trkpt>
      <trkpt lat="48.63327" lon="-0.6476">
        <ele>222.4</ele>
        <time>2025-05-10T17:18:37.000Z</time>
      </trkpt>
      <trkpt lat="48.63325" lon="-0.64751">
        <ele>222.1</ele>
        <time>2025-05-10T17:18:38.000Z</time>
      </trkpt>
      <trkpt lat="48.63323" lon="-0.64743">
        <ele>221.7</ele>
        <time>2025-05-10T17:18:39.000Z</time>
      </trkpt>
      <trkpt lat="48.63322" lon="-0.64736">
        <ele>221.3</ele>
        <time>2025-05-10T17:18:40.000Z</time>
      </trkpt>
      <trkpt lat="48.6332" lon="-0.64729">
        <ele>221</ele>
        <time>2025-05-10T17:18:41.000Z</time>
      </trkpt>
      <trkpt lat="48.63321" lon="-0.64717">
        <ele>220.2</ele>
        <time>2025-05-10T17:18:43.000Z</time>
      </trkpt>
      <trkpt lat="48.63323" lon="-0.6471">
        <ele>219.8</ele>
        <time>2025-05-10T17:18:44.000Z</time>
      </trkpt>
      <trkpt lat="48.63326" lon="-0.64703">
        <ele>219.3</ele>
        <time>2025-05-10T17:18:45.000Z</time>
      </trkpt>
      <trkpt lat="48.63328" lon="-0.64695">
        <ele>218.9</ele>
        <time>2025-05-10T17:18:46.000Z</time>
      </trkpt>
      <trkpt lat="48.6333" lon="-0.64687">
        <ele>218.4</ele>
        <time>2025-05-10T17:18:47.000Z</time>
      </trkpt>
      <trkpt lat="48.63332" lon="-0.6468">
        <ele>217.8</ele>
        <time>2025-05-10T17:18:48.000Z</time>
      </trkpt>
      <trkpt lat="48.63334" lon="-0.64672">
        <ele>217.2</ele>
        <time>2025-05-10T17:18:49.000Z</time>
      </trkpt>
      <trkpt lat="48.63336" lon="-0.64665">
        <ele>216.7</ele>
        <time>2025-05-10T17:18:50.000Z</time>
      </trkpt>
      <trkpt lat="48.63338" lon="-0.64658">
        <ele>216.3</ele>
        <time>2025-05-10T17:18:51.000Z</time>
      </trkpt>
      <trkpt lat="48.63339" lon="-0.64647">
        <ele>215.3</ele>
        <time>2025-05-10T17:18:53.000Z</time>
      </trkpt>
      <trkpt lat="48.63339" lon="-0.6464">
        <ele>213.7</ele>
        <time>2025-05-10T17:18:57.000Z</time>
      </trkpt>
      <trkpt lat="48.63339" lon="-0.6464">
        <ele>213.4</ele>
        <time>2025-05-10T17:18:58.000Z</time>
      </trkpt>
      <trkpt lat="48.63339" lon="-0.64637">
        <ele>212.8</ele>
        <time>2025-05-10T17:19:00.000Z</time>
      </trkpt>
      <trkpt lat="48.63337" lon="-0.64628">
        <ele>210.5</ele>
        <time>2025-05-10T17:19:23.000Z</time>
      </trkpt>
      <trkpt lat="48.63337" lon="-0.64628">
        <ele>210.5</ele>
        <time>2025-05-10T17:19:24.000Z</time>
      </trkpt>
      <trkpt lat="48.63341" lon="-0.6462">
        <ele>210.4</ele>
        <time>2025-05-10T17:19:27.000Z</time>
      </trkpt>
      <trkpt lat="48.63347" lon="-0.64613">
        <ele>210.3</ele>
        <time>2025-05-10T17:19:29.000Z</time>
      </trkpt>
      <trkpt lat="48.63354" lon="-0.64605">
        <ele>210.1</ele>
        <time>2025-05-10T17:19:31.000Z</time>
      </trkpt>
      <trkpt lat="48.63359" lon="-0.646">
        <ele>209.9</ele>
        <time>2025-05-10T17:19:32.000Z</time>
      </trkpt>
      <trkpt lat="48.63364" lon="-0.64597">
        <ele>209.8</ele>
        <time>2025-05-10T17:19:33.000Z</time>
      </trkpt>
      <trkpt lat="48.6337" lon="-0.64593">
        <ele>209.6</ele>
        <time>2025-05-10T17:19:34.000Z</time>
      </trkpt>
      <trkpt lat="48.63376" lon="-0.64589">
        <ele>209.3</ele>
        <time>2025-05-10T17:19:35.000Z</time>
      </trkpt>
      <trkpt lat="48.63383" lon="-0.64586">
        <ele>209</ele>
        <time>2025-05-10T17:19:36.000Z</time>
      </trkpt>
      <trkpt lat="48.63391" lon="-0.64582">
        <ele>208.5</ele>
        <time>2025-05-10T17:19:37.000Z</time>
      </trkpt>
      <trkpt lat="48.63398" lon="-0.64579">
        <ele>207.9</ele>
        <time>2025-05-10T17:19:38.000Z</time>
      </trkpt>
      <trkpt lat="48.63404" lon="-0.64577">
        <ele>207.3</ele>
        <time>2025-05-10T17:19:39.000Z</time>
      </trkpt>
      <trkpt lat="48.63409" lon="-0.64574">
        <ele>206.6</ele>
        <time>2025-05-10T17:19:40.000Z</time>
      </trkpt>
      <trkpt lat="48.63416" lon="-0.64568">
        <ele>205.1</ele>
        <time>2025-05-10T17:19:42.000Z</time>
      </trkpt>
      <trkpt lat="48.63417" lon="-0.64559">
        <ele>203.7</ele>
        <time>2025-05-10T17:19:44.000Z</time>
      </trkpt>
      <trkpt lat="48.63413" lon="-0.64552">
        <ele>202.5</ele>
        <time>2025-05-10T17:19:46.000Z</time>
      </trkpt>
      <trkpt lat="48.63407" lon="-0.64549">
        <ele>201.6</ele>
        <time>2025-05-10T17:19:48.000Z</time>
      </trkpt>
      <trkpt lat="48.634" lon="-0.64545">
        <ele>200.8</ele>
        <time>2025-05-10T17:19:50.000Z</time>
      </trkpt>
      <trkpt lat="48.63392" lon="-0.64541">
        <ele>200.3</ele>
        <time>2025-05-10T17:19:52.000Z</time>
      </trkpt>
      <trkpt lat="48.63388" lon="-0.64539">
        <ele>200</ele>
        <time>2025-05-10T17:19:53.000Z</time>
      </trkpt>
      <trkpt lat="48.63383" lon="-0.64537">
        <ele>199.8</ele>
        <time>2025-05-10T17:19:54.000Z</time>
      </trkpt>
      <trkpt lat="48.63378" lon="-0.64534">
        <ele>199.6</ele>
        <time>2025-05-10T17:19:55.000Z</time>
      </trkpt>
      <trkpt lat="48.63373" lon="-0.64531">
        <ele>199.3</ele>
        <time>2025-05-10T17:19:56.000Z</time>
      </trkpt>
      <trkpt lat="48.63368" lon="-0.64528">
        <ele>199.1</ele>
        <time>2025-05-10T17:19:57.000Z</time>
      </trkpt>
      <trkpt lat="48.63362" lon="-0.64524">
        <ele>198.9</ele>
        <time>2025-05-10T17:19:58.000Z</time>
      </trkpt>
      <trkpt lat="48.63357" lon="-0.6452">
        <ele>198.8</ele>
        <time>2025-05-10T17:19:59.000Z</time>
      </trkpt>
      <trkpt lat="48.63353" lon="-0.64515">
        <ele>198.6</ele>
        <time>2025-05-10T17:20:00.000Z</time>
      </trkpt>
      <trkpt lat="48.63348" lon="-0.64509">
        <ele>198.5</ele>
        <time>2025-05-10T17:20:01.000Z</time>
      </trkpt>
      <trkpt lat="48.63344" lon="-0.64503">
        <ele>198.4</ele>
        <time>2025-05-10T17:20:02.000Z</time>
      </trkpt>
      <trkpt lat="48.6334" lon="-0.64497">
        <ele>198.3</ele>
        <time>2025-05-10T17:20:03.000Z</time>
      </trkpt>
      <trkpt lat="48.63335" lon="-0.6449">
        <ele>198.2</ele>
        <time>2025-05-10T17:20:04.000Z</time>
      </trkpt>
      <trkpt lat="48.63331" lon="-0.64484">
        <ele>198.2</ele>
        <time>2025-05-10T17:20:05.000Z</time>
      </trkpt>
      <trkpt lat="48.63327" lon="-0.64478">
        <ele>198.1</ele>
        <time>2025-05-10T17:20:06.000Z</time>
      </trkpt>
      <trkpt lat="48.63323" lon="-0.64471">
        <ele>198.2</ele>
        <time>2025-05-10T17:20:07.000Z</time>
      </trkpt>
      <trkpt lat="48.6332" lon="-0.64465">
        <ele>198.2</ele>
        <time>2025-05-10T17:20:08.000Z</time>
      </trkpt>
      <trkpt lat="48.63316" lon="-0.64458">
        <ele>198.2</ele>
        <time>2025-05-10T17:20:09.000Z</time>
      </trkpt>
      <trkpt lat="48.63314" lon="-0.64451">
        <ele>198.3</ele>
        <time>2025-05-10T17:20:10.000Z</time>
      </trkpt>
      <trkpt lat="48.63312" lon="-0.64443">
        <ele>198.4</ele>
        <time>2025-05-10T17:20:11.000Z</time>
      </trkpt>
      <trkpt lat="48.63311" lon="-0.64434">
        <ele>198.5</ele>
        <time>2025-05-10T17:20:12.000Z</time>
      </trkpt>
      <trkpt lat="48.63311" lon="-0.64426">
        <ele>198.7</ele>
        <time>2025-05-10T17:20:13.000Z</time>
      </trkpt>
      <trkpt lat="48.63312" lon="-0.64418">
        <ele>198.9</ele>
        <time>2025-05-10T17:20:14.000Z</time>
      </trkpt>
      <trkpt lat="48.63313" lon="-0.64411">
        <ele>199.1</ele>
        <time>2025-05-10T17:20:15.000Z</time>
      </trkpt>
      <trkpt lat="48.63314" lon="-0.64404">
        <ele>199.4</ele>
        <time>2025-05-10T17:20:16.000Z</time>
      </trkpt>
      <trkpt lat="48.63315" lon="-0.64397">
        <ele>199.7</ele>
        <time>2025-05-10T17:20:17.000Z</time>
      </trkpt>
      <trkpt lat="48.63316" lon="-0.6439">
        <ele>200.1</ele>
        <time>2025-05-10T17:20:18.000Z</time>
      </trkpt>
      <trkpt lat="48.63316" lon="-0.64383">
        <ele>200.6</ele>
        <time>2025-05-10T17:20:19.000Z</time>
      </trkpt>
      <trkpt lat="48.63317" lon="-0.64376">
        <ele>201</ele>
        <time>2025-05-10T17:20:20.000Z</time>
      </trkpt>
      <trkpt lat="48.63318" lon="-0.64369">
        <ele>201.5</ele>
        <time>2025-05-10T17:20:21.000Z</time>
      </trkpt>
      <trkpt lat="48.63319" lon="-0.64362">
        <ele>202.1</ele>
        <time>2025-05-10T17:20:22.000Z</time>
      </trkpt>
      <trkpt lat="48.6332" lon="-0.64355">
        <ele>202.7</ele>
        <time>2025-05-10T17:20:23.000Z</time>
      </trkpt>
      <trkpt lat="48.63321" lon="-0.64348">
        <ele>203.3</ele>
        <time>2025-05-10T17:20:24.000Z</time>
      </trkpt>
      <trkpt lat="48.63322" lon="-0.64341">
        <ele>203.9</ele>
        <time>2025-05-10T17:20:25.000Z</time>
      </trkpt>
      <trkpt lat="48.63323" lon="-0.64334">
        <ele>204.4</ele>
        <time>2025-05-10T17:20:26.000Z</time>
      </trkpt>
      <trkpt lat="48.63324" lon="-0.64327">
        <ele>204.9</ele>
        <time>2025-05-10T17:20:27.000Z</time>
      </trkpt>
      <trkpt lat="48.63324" lon="-0.6432">
        <ele>205.4</ele>
        <time>2025-05-10T17:20:28.000Z</time>
      </trkpt>
      <trkpt lat="48.63325" lon="-0.64314">
        <ele>205.8</ele>
        <time>2025-05-10T17:20:29.000Z</time>
      </trkpt>
      <trkpt lat="48.63326" lon="-0.64307">
        <ele>206.2</ele>
        <time>2025-05-10T17:20:30.000Z</time>
      </trkpt>
      <trkpt lat="48.63327" lon="-0.643">
        <ele>206.6</ele>
        <time>2025-05-10T17:20:31.000Z</time>
      </trkpt>
      <trkpt lat="48.63328" lon="-0.64293">
        <ele>207</ele>
        <time>2025-05-10T17:20:32.000Z</time>
      </trkpt>
      <trkpt lat="48.63329" lon="-0.64286">
        <ele>207.5</ele>
        <time>2025-05-10T17:20:33.000Z</time>
      </trkpt>
      <trkpt lat="48.6333" lon="-0.64279">
        <ele>207.9</ele>
        <time>2025-05-10T17:20:34.000Z</time>
      </trkpt>
      <trkpt lat="48.6333" lon="-0.64272">
        <ele>208.3</ele>
        <time>2025-05-10T17:20:35.000Z</time>
      </trkpt>
      <trkpt lat="48.63331" lon="-0.64266">
        <ele>208.7</ele>
        <time>2025-05-10T17:20:36.000Z</time>
      </trkpt>
      <trkpt lat="48.63332" lon="-0.64259">
        <ele>209.2</ele>
        <time>2025-05-10T17:20:37.000Z</time>
      </trkpt>
      <trkpt lat="48.63333" lon="-0.64245">
        <ele>210.1</ele>
        <time>2025-05-10T17:20:39.000Z</time>
      </trkpt>
      <trkpt lat="48.63332" lon="-0.64232">
        <ele>210.8</ele>
        <time>2025-05-10T17:20:41.000Z</time>
      </trkpt>
      <trkpt lat="48.63332" lon="-0.64225">
        <ele>211.3</ele>
        <time>2025-05-10T17:20:42.000Z</time>
      </trkpt>
      <trkpt lat="48.63331" lon="-0.64218">
        <ele>211.7</ele>
        <time>2025-05-10T17:20:43.000Z</time>
      </trkpt>
      <trkpt lat="48.6333" lon="-0.64211">
        <ele>212.1</ele>
        <time>2025-05-10T17:20:44.000Z</time>
      </trkpt>
      <trkpt lat="48.63329" lon="-0.64204">
        <ele>212.5</ele>
        <time>2025-05-10T17:20:45.000Z</time>
      </trkpt>
      <trkpt lat="48.63328" lon="-0.64197">
        <ele>212.8</ele>
        <time>2025-05-10T17:20:46.000Z</time>
      </trkpt>
      <trkpt lat="48.63327" lon="-0.64191">
        <ele>213.2</ele>
        <time>2025-05-10T17:20:47.000Z</time>
      </trkpt>
      <trkpt lat="48.63327" lon="-0.64184">
        <ele>213.6</ele>
        <time>2025-05-10T17:20:48.000Z</time>
      </trkpt>
      <trkpt lat="48.63326" lon="-0.64177">
        <ele>213.9</ele>
        <time>2025-05-10T17:20:49.000Z</time>
      </trkpt>
      <trkpt lat="48.63325" lon="-0.6417">
        <ele>214.2</ele>
        <time>2025-05-10T17:20:50.000Z</time>
      </trkpt>
      <trkpt lat="48.63324" lon="-0.64163">
        <ele>214.5</ele>
        <time>2025-05-10T17:20:51.000Z</time>
      </trkpt>
      <trkpt lat="48.63323" lon="-0.64156">
        <ele>214.8</ele>
        <time>2025-05-10T17:20:52.000Z</time>
      </trkpt>
      <trkpt lat="48.63322" lon="-0.64143">
        <ele>215.3</ele>
        <time>2025-05-10T17:20:54.000Z</time>
      </trkpt>
      <trkpt lat="48.6332" lon="-0.6413">
        <ele>215.7</ele>
        <time>2025-05-10T17:20:56.000Z</time>
      </trkpt>
      <trkpt lat="48.63319" lon="-0.64117">
        <ele>216.2</ele>
        <time>2025-05-10T17:20:58.000Z</time>
      </trkpt>
      <trkpt lat="48.63318" lon="-0.64105">
        <ele>216.7</ele>
        <time>2025-05-10T17:21:00.000Z</time>
      </trkpt>
      <trkpt lat="48.63317" lon="-0.64092">
        <ele>217.1</ele>
        <time>2025-05-10T17:21:02.000Z</time>
      </trkpt>
      <trkpt lat="48.63316" lon="-0.6408">
        <ele>217.6</ele>
        <time>2025-05-10T17:21:04.000Z</time>
      </trkpt>
      <trkpt lat="48.63315" lon="-0.64067">
        <ele>218</ele>
        <time>2025-05-10T17:21:06.000Z</time>
      </trkpt>
      <trkpt lat="48.63313" lon="-0.64054">
        <ele>218.6</ele>
        <time>2025-05-10T17:21:08.000Z</time>
      </trkpt>
      <trkpt lat="48.63312" lon="-0.64041">
        <ele>219</ele>
        <time>2025-05-10T17:21:10.000Z</time>
      </trkpt>
      <trkpt lat="48.63311" lon="-0.64029">
        <ele>219.6</ele>
        <time>2025-05-10T17:21:12.000Z</time>
      </trkpt>
      <trkpt lat="48.63309" lon="-0.64017">
        <ele>220.2</ele>
        <time>2025-05-10T17:21:14.000Z</time>
      </trkpt>
      <trkpt lat="48.63307" lon="-0.64008">
        <ele>220.8</ele>
        <time>2025-05-10T17:21:16.000Z</time>
      </trkpt>
      <trkpt lat="48.63306" lon="-0.64001">
        <ele>221.4</ele>
        <time>2025-05-10T17:21:18.000Z</time>
      </trkpt>
      <trkpt lat="48.63304" lon="-0.63991">
        <ele>221.9</ele>
        <time>2025-05-10T17:21:20.000Z</time>
      </trkpt>
      <trkpt lat="48.63301" lon="-0.63981">
        <ele>222.5</ele>
        <time>2025-05-10T17:21:22.000Z</time>
      </trkpt>
      <trkpt lat="48.63297" lon="-0.63971">
        <ele>223.2</ele>
        <time>2025-05-10T17:21:24.000Z</time>
      </trkpt>
      <trkpt lat="48.63294" lon="-0.6396">
        <ele>223.9</ele>
        <time>2025-05-10T17:21:26.000Z</time>
      </trkpt>
      <trkpt lat="48.63291" lon="-0.63948">
        <ele>224.5</ele>
        <time>2025-05-10T17:21:28.000Z</time>
      </trkpt>
      <trkpt lat="48.63287" lon="-0.63937">
        <ele>225.1</ele>
        <time>2025-05-10T17:21:30.000Z</time>
      </trkpt>
      <trkpt lat="48.63284" lon="-0.63926">
        <ele>225.7</ele>
        <time>2025-05-10T17:21:32.000Z</time>
      </trkpt>
      <trkpt lat="48.6328" lon="-0.63915">
        <ele>226.3</ele>
        <time>2025-05-10T17:21:34.000Z</time>
      </trkpt>
      <trkpt lat="48.63277" lon="-0.63903">
        <ele>226.9</ele>
        <time>2025-05-10T17:21:36.000Z</time>
      </trkpt>
      <trkpt lat="48.63274" lon="-0.63891">
        <ele>227.5</ele>
        <time>2025-05-10T17:21:38.000Z</time>
      </trkpt>
      <trkpt lat="48.6327" lon="-0.6388">
        <ele>228.1</ele>
        <time>2025-05-10T17:21:40.000Z</time>
      </trkpt>
      <trkpt lat="48.63267" lon="-0.63868">
        <ele>228.6</ele>
        <time>2025-05-10T17:21:42.000Z</time>
      </trkpt>
      <trkpt lat="48.63264" lon="-0.63856">
        <ele>229.1</ele>
        <time>2025-05-10T17:21:44.000Z</time>
      </trkpt>
      <trkpt lat="48.6326" lon="-0.63844">
        <ele>229.5</ele>
        <time>2025-05-10T17:21:46.000Z</time>
      </trkpt>
      <trkpt lat="48.63256" lon="-0.63832">
        <ele>229.9</ele>
        <time>2025-05-10T17:21:48.000Z</time>
      </trkpt>
      <trkpt lat="48.63254" lon="-0.63825">
        <ele>230.1</ele>
        <time>2025-05-10T17:21:49.000Z</time>
      </trkpt>
      <trkpt lat="48.63253" lon="-0.63819">
        <ele>230.2</ele>
        <time>2025-05-10T17:21:50.000Z</time>
      </trkpt>
      <trkpt lat="48.63251" lon="-0.63813">
        <ele>230.4</ele>
        <time>2025-05-10T17:21:51.000Z</time>
      </trkpt>
      <trkpt lat="48.63249" lon="-0.63806">
        <ele>230.6</ele>
        <time>2025-05-10T17:21:52.000Z</time>
      </trkpt>
      <trkpt lat="48.63248" lon="-0.63799">
        <ele>230.7</ele>
        <time>2025-05-10T17:21:53.000Z</time>
      </trkpt>
      <trkpt lat="48.63246" lon="-0.63793">
        <ele>230.9</ele>
        <time>2025-05-10T17:21:54.000Z</time>
      </trkpt>
      <trkpt lat="48.63245" lon="-0.63786">
        <ele>231.1</ele>
        <time>2025-05-10T17:21:55.000Z</time>
      </trkpt>
      <trkpt lat="48.63244" lon="-0.63779">
        <ele>231.2</ele>
        <time>2025-05-10T17:21:56.000Z</time>
      </trkpt>
      <trkpt lat="48.63243" lon="-0.63771">
        <ele>231.4</ele>
        <time>2025-05-10T17:21:57.000Z</time>
      </trkpt>
      <trkpt lat="48.63242" lon="-0.63764">
        <ele>231.5</ele>
        <time>2025-05-10T17:21:58.000Z</time>
      </trkpt>
      <trkpt lat="48.63242" lon="-0.63757">
        <ele>231.7</ele>
        <time>2025-05-10T17:21:59.000Z</time>
      </trkpt>
      <trkpt lat="48.63241" lon="-0.6375">
        <ele>231.8</ele>
        <time>2025-05-10T17:22:00.000Z</time>
      </trkpt>
      <trkpt lat="48.63241" lon="-0.63743">
        <ele>231.9</ele>
        <time>2025-05-10T17:22:01.000Z</time>
      </trkpt>
      <trkpt lat="48.63241" lon="-0.63735">
        <ele>232</ele>
        <time>2025-05-10T17:22:02.000Z</time>
      </trkpt>
      <trkpt lat="48.6324" lon="-0.63728">
        <ele>232.2</ele>
        <time>2025-05-10T17:22:03.000Z</time>
      </trkpt>
      <trkpt lat="48.6324" lon="-0.6372">
        <ele>232.3</ele>
        <time>2025-05-10T17:22:04.000Z</time>
      </trkpt>
      <trkpt lat="48.6324" lon="-0.63713">
        <ele>232.4</ele>
        <time>2025-05-10T17:22:05.000Z</time>
      </trkpt>
      <trkpt lat="48.6324" lon="-0.63705">
        <ele>232.5</ele>
        <time>2025-05-10T17:22:06.000Z</time>
      </trkpt>
      <trkpt lat="48.6324" lon="-0.63698">
        <ele>232.6</ele>
        <time>2025-05-10T17:22:07.000Z</time>
      </trkpt>
      <trkpt lat="48.63241" lon="-0.63691">
        <ele>232.7</ele>
        <time>2025-05-10T17:22:08.000Z</time>
      </trkpt>
      <trkpt lat="48.63241" lon="-0.63684">
        <ele>232.8</ele>
        <time>2025-05-10T17:22:09.000Z</time>
      </trkpt>
      <trkpt lat="48.63241" lon="-0.63676">
        <ele>232.9</ele>
        <time>2025-05-10T17:22:10.000Z</time>
      </trkpt>
      <trkpt lat="48.63242" lon="-0.63669">
        <ele>233</ele>
        <time>2025-05-10T17:22:11.000Z</time>
      </trkpt>
      <trkpt lat="48.63242" lon="-0.63661">
        <ele>233</ele>
        <time>2025-05-10T17:22:12.000Z</time>
      </trkpt>
      <trkpt lat="48.63243" lon="-0.63653">
        <ele>233.1</ele>
        <time>2025-05-10T17:22:13.000Z</time>
      </trkpt>
      <trkpt lat="48.63243" lon="-0.63646">
        <ele>233.2</ele>
        <time>2025-05-10T17:22:14.000Z</time>
      </trkpt>
      <trkpt lat="48.63244" lon="-0.63638">
        <ele>233.3</ele>
        <time>2025-05-10T17:22:15.000Z</time>
      </trkpt>
      <trkpt lat="48.63244" lon="-0.63631">
        <ele>233.4</ele>
        <time>2025-05-10T17:22:16.000Z</time>
      </trkpt>
      <trkpt lat="48.63245" lon="-0.63624">
        <ele>233.5</ele>
        <time>2025-05-10T17:22:17.000Z</time>
      </trkpt>
      <trkpt lat="48.63245" lon="-0.63616">
        <ele>233.6</ele>
        <time>2025-05-10T17:22:18.000Z</time>
      </trkpt>
      <trkpt lat="48.63246" lon="-0.63609">
        <ele>233.7</ele>
        <time>2025-05-10T17:22:19.000Z</time>
      </trkpt>
      <trkpt lat="48.63246" lon="-0.63602">
        <ele>233.9</ele>
        <time>2025-05-10T17:22:20.000Z</time>
      </trkpt>
      <trkpt lat="48.63246" lon="-0.63594">
        <ele>234</ele>
        <time>2025-05-10T17:22:21.000Z</time>
      </trkpt>
      <trkpt lat="48.63246" lon="-0.63582">
        <ele>234.4</ele>
        <time>2025-05-10T17:22:23.000Z</time>
      </trkpt>
      <trkpt lat="48.63247" lon="-0.63572">
        <ele>234.8</ele>
        <time>2025-05-10T17:22:25.000Z</time>
      </trkpt>
      <trkpt lat="48.63246" lon="-0.63561">
        <ele>235.3</ele>
        <time>2025-05-10T17:22:27.000Z</time>
      </trkpt>
      <trkpt lat="48.63245" lon="-0.6355">
        <ele>235.9</ele>
        <time>2025-05-10T17:22:29.000Z</time>
      </trkpt>
      <trkpt lat="48.63244" lon="-0.6354">
        <ele>236.6</ele>
        <time>2025-05-10T17:22:31.000Z</time>
      </trkpt>
      <trkpt lat="48.63243" lon="-0.63532">
        <ele>237.3</ele>
        <time>2025-05-10T17:22:33.000Z</time>
      </trkpt>
      <trkpt lat="48.63242" lon="-0.63523">
        <ele>238.5</ele>
        <time>2025-05-10T17:22:36.000Z</time>
      </trkpt>
      <trkpt lat="48.63244" lon="-0.63516">
        <ele>239.2</ele>
        <time>2025-05-10T17:22:38.000Z</time>
      </trkpt>
      <trkpt lat="48.63249" lon="-0.63509">
        <ele>239.9</ele>
        <time>2025-05-10T17:22:41.000Z</time>
      </trkpt>
      <trkpt lat="48.63254" lon="-0.63506">
        <ele>240.3</ele>
        <time>2025-05-10T17:22:44.000Z</time>
      </trkpt>
      <trkpt lat="48.63257" lon="-0.63506">
        <ele>240.8</ele>
        <time>2025-05-10T17:22:50.000Z</time>
      </trkpt>
      <trkpt lat="48.63257" lon="-0.63506">
        <ele>240.8</ele>
        <time>2025-05-10T17:22:51.000Z</time>
      </trkpt>
      <trkpt lat="48.63257" lon="-0.63506">
        <ele>240.8</ele>
        <time>2025-05-10T17:22:52.000Z</time>
      </trkpt>
      <trkpt lat="48.63259" lon="-0.63507">
        <ele>240.7</ele>
        <time>2025-05-10T17:24:33.000Z</time>
      </trkpt>
      <trkpt lat="48.6326" lon="-0.63507">
        <ele>240.7</ele>
        <time>2025-05-10T17:24:34.000Z</time>
      </trkpt>
      <trkpt lat="48.63267" lon="-0.63505">
        <ele>240.7</ele>
        <time>2025-05-10T17:24:36.000Z</time>
      </trkpt>
      <trkpt lat="48.63275" lon="-0.63503">
        <ele>240.7</ele>
        <time>2025-05-10T17:24:38.000Z</time>
      </trkpt>
      <trkpt lat="48.6328" lon="-0.63502">
        <ele>240.7</ele>
        <time>2025-05-10T17:24:39.000Z</time>
      </trkpt>
      <trkpt lat="48.63285" lon="-0.635">
        <ele>240.7</ele>
        <time>2025-05-10T17:24:40.000Z</time>
      </trkpt>
      <trkpt lat="48.6329" lon="-0.63498">
        <ele>240.7</ele>
        <time>2025-05-10T17:24:41.000Z</time>
      </trkpt>
      <trkpt lat="48.63295" lon="-0.63497">
        <ele>240.7</ele>
        <time>2025-05-10T17:24:42.000Z</time>
      </trkpt>
      <trkpt lat="48.633" lon="-0.63495">
        <ele>240.7</ele>
        <time>2025-05-10T17:24:43.000Z</time>
      </trkpt>
      <trkpt lat="48.63305" lon="-0.63493">
        <ele>240.7</ele>
        <time>2025-05-10T17:24:44.000Z</time>
      </trkpt>
      <trkpt lat="48.6331" lon="-0.63492">
        <ele>240.7</ele>
        <time>2025-05-10T17:24:45.000Z</time>
      </trkpt>
      <trkpt lat="48.63314" lon="-0.63491">
        <ele>240.7</ele>
        <time>2025-05-10T17:24:46.000Z</time>
      </trkpt>
      <trkpt lat="48.63321" lon="-0.63488">
        <ele>240.7</ele>
        <time>2025-05-10T17:24:48.000Z</time>
      </trkpt>
      <trkpt lat="48.63325" lon="-0.63483">
        <ele>240.8</ele>
        <time>2025-05-10T17:24:50.000Z</time>
      </trkpt>
      <trkpt lat="48.63321" lon="-0.63477">
        <ele>240.8</ele>
        <time>2025-05-10T17:24:53.000Z</time>
      </trkpt>
      <trkpt lat="48.63313" lon="-0.63478">
        <ele>240.8</ele>
        <time>2025-05-10T17:24:55.000Z</time>
      </trkpt>
      <trkpt lat="48.63305" lon="-0.63478">
        <ele>240.9</ele>
        <time>2025-05-10T17:24:57.000Z</time>
      </trkpt>
      <trkpt lat="48.63298" lon="-0.6348">
        <ele>240.9</ele>
        <time>2025-05-10T17:24:59.000Z</time>
      </trkpt>
      <trkpt lat="48.6329" lon="-0.63481">
        <ele>240.9</ele>
        <time>2025-05-10T17:25:01.000Z</time>
      </trkpt>
      <trkpt lat="48.63282" lon="-0.63481">
        <ele>241</ele>
        <time>2025-05-10T17:25:03.000Z</time>
      </trkpt>
      <trkpt lat="48.63275" lon="-0.63481">
        <ele>241</ele>
        <time>2025-05-10T17:25:05.000Z</time>
      </trkpt>
      <trkpt lat="48.63268" lon="-0.63481">
        <ele>241.1</ele>
        <time>2025-05-10T17:25:07.000Z</time>
      </trkpt>
      <trkpt lat="48.63261" lon="-0.63481">
        <ele>241.2</ele>
        <time>2025-05-10T17:25:09.000Z</time>
      </trkpt>
      <trkpt lat="48.63254" lon="-0.63481">
        <ele>241.3</ele>
        <time>2025-05-10T17:25:11.000Z</time>
      </trkpt>
      <trkpt lat="48.63247" lon="-0.63481">
        <ele>241.5</ele>
        <time>2025-05-10T17:25:13.000Z</time>
      </trkpt>
      <trkpt lat="48.63239" lon="-0.63482">
        <ele>241.7</ele>
        <time>2025-05-10T17:25:15.000Z</time>
      </trkpt>
      <trkpt lat="48.63232" lon="-0.63481">
        <ele>241.9</ele>
        <time>2025-05-10T17:25:17.000Z</time>
      </trkpt>
      <trkpt lat="48.63223" lon="-0.6348">
        <ele>242.3</ele>
        <time>2025-05-10T17:25:19.000Z</time>
      </trkpt>
      <trkpt lat="48.63215" lon="-0.63479">
        <ele>242.6</ele>
        <time>2025-05-10T17:25:21.000Z</time>
      </trkpt>
      <trkpt lat="48.63207" lon="-0.63478">
        <ele>243</ele>
        <time>2025-05-10T17:25:23.000Z</time>
      </trkpt>
      <trkpt lat="48.632" lon="-0.63477">
        <ele>243.4</ele>
        <time>2025-05-10T17:25:25.000Z</time>
      </trkpt>
      <trkpt lat="48.63193" lon="-0.63475">
        <ele>243.7</ele>
        <time>2025-05-10T17:25:27.000Z</time>
      </trkpt>
      <trkpt lat="48.63186" lon="-0.63474">
        <ele>244</ele>
        <time>2025-05-10T17:25:29.000Z</time>
      </trkpt>
      <trkpt lat="48.63179" lon="-0.63474">
        <ele>244.2</ele>
        <time>2025-05-10T17:25:31.000Z</time>
      </trkpt>
      <trkpt lat="48.63173" lon="-0.63473">
        <ele>244.5</ele>
        <time>2025-05-10T17:25:33.000Z</time>
      </trkpt>
      <trkpt lat="48.63165" lon="-0.63471">
        <ele>244.7</ele>
        <time>2025-05-10T17:25:35.000Z</time>
      </trkpt>
      <trkpt lat="48.63158" lon="-0.63469">
        <ele>244.9</ele>
        <time>2025-05-10T17:25:37.000Z</time>
      </trkpt>
      <trkpt lat="48.63151" lon="-0.63467">
        <ele>245.1</ele>
        <time>2025-05-10T17:25:39.000Z</time>
      </trkpt>
      <trkpt lat="48.63143" lon="-0.63464">
        <ele>245.3</ele>
        <time>2025-05-10T17:25:41.000Z</time>
      </trkpt>
      <trkpt lat="48.63136" lon="-0.63462">
        <ele>245.5</ele>
        <time>2025-05-10T17:25:43.000Z</time>
      </trkpt>
      <trkpt lat="48.63128" lon="-0.63461">
        <ele>245.7</ele>
        <time>2025-05-10T17:25:45.000Z</time>
      </trkpt>
      <trkpt lat="48.63119" lon="-0.63459">
        <ele>246</ele>
        <time>2025-05-10T17:25:47.000Z</time>
      </trkpt>
      <trkpt lat="48.63114" lon="-0.63459">
        <ele>246.2</ele>
        <time>2025-05-10T17:25:48.000Z</time>
      </trkpt>
      <trkpt lat="48.63105" lon="-0.63457">
        <ele>246.5</ele>
        <time>2025-05-10T17:25:50.000Z</time>
      </trkpt>
      <trkpt lat="48.631" lon="-0.63456">
        <ele>246.7</ele>
        <time>2025-05-10T17:25:51.000Z</time>
      </trkpt>
      <trkpt lat="48.63096" lon="-0.63454">
        <ele>246.8</ele>
        <time>2025-05-10T17:25:52.000Z</time>
      </trkpt>
      <trkpt lat="48.63091" lon="-0.63451">
        <ele>247.1</ele>
        <time>2025-05-10T17:25:53.000Z</time>
      </trkpt>
      <trkpt lat="48.63087" lon="-0.63449">
        <ele>247.3</ele>
        <time>2025-05-10T17:25:54.000Z</time>
      </trkpt>
      <trkpt lat="48.63079" lon="-0.63446">
        <ele>247.9</ele>
        <time>2025-05-10T17:25:56.000Z</time>
      </trkpt>
      <trkpt lat="48.63071" lon="-0.63443">
        <ele>248.4</ele>
        <time>2025-05-10T17:25:58.000Z</time>
      </trkpt>
      <trkpt lat="48.63063" lon="-0.63439">
        <ele>248.9</ele>
        <time>2025-05-10T17:26:00.000Z</time>
      </trkpt>
      <trkpt lat="48.63055" lon="-0.63436">
        <ele>249.4</ele>
        <time>2025-05-10T17:26:02.000Z</time>
      </trkpt>
      <trkpt lat="48.6305" lon="-0.63433">
        <ele>249.8</ele>
        <time>2025-05-10T17:26:03.000Z</time>
      </trkpt>
      <trkpt lat="48.63042" lon="-0.63431">
        <ele>250.3</ele>
        <time>2025-05-10T17:26:05.000Z</time>
      </trkpt>
      <trkpt lat="48.63037" lon="-0.63428">
        <ele>250.5</ele>
        <time>2025-05-10T17:26:06.000Z</time>
      </trkpt>
      <trkpt lat="48.63033" lon="-0.63426">
        <ele>250.8</ele>
        <time>2025-05-10T17:26:07.000Z</time>
      </trkpt>
      <trkpt lat="48.63028" lon="-0.63423">
        <ele>251</ele>
        <time>2025-05-10T17:26:08.000Z</time>
      </trkpt>
      <trkpt lat="48.63023" lon="-0.6342">
        <ele>251.3</ele>
        <time>2025-05-10T17:26:09.000Z</time>
      </trkpt>
      <trkpt lat="48.63019" lon="-0.63417">
        <ele>251.4</ele>
        <time>2025-05-10T17:26:10.000Z</time>
      </trkpt>
      <trkpt lat="48.63014" lon="-0.63415">
        <ele>251.5</ele>
        <time>2025-05-10T17:26:11.000Z</time>
      </trkpt>
      <trkpt lat="48.63009" lon="-0.63412">
        <ele>251.7</ele>
        <time>2025-05-10T17:26:12.000Z</time>
      </trkpt>
      <trkpt lat="48.63004" lon="-0.6341">
        <ele>251.8</ele>
        <time>2025-05-10T17:26:13.000Z</time>
      </trkpt>
      <trkpt lat="48.62999" lon="-0.63408">
        <ele>252</ele>
        <time>2025-05-10T17:26:14.000Z</time>
      </trkpt>
      <trkpt lat="48.62994" lon="-0.63406">
        <ele>252.1</ele>
        <time>2025-05-10T17:26:15.000Z</time>
      </trkpt>
      <trkpt lat="48.62989" lon="-0.63403">
        <ele>252.2</ele>
        <time>2025-05-10T17:26:16.000Z</time>
      </trkpt>
      <trkpt lat="48.62984" lon="-0.63401">
        <ele>252.3</ele>
        <time>2025-05-10T17:26:17.000Z</time>
      </trkpt>
      <trkpt lat="48.62979" lon="-0.63398">
        <ele>252.4</ele>
        <time>2025-05-10T17:26:18.000Z</time>
      </trkpt>
      <trkpt lat="48.62974" lon="-0.63395">
        <ele>252.5</ele>
        <time>2025-05-10T17:26:19.000Z</time>
      </trkpt>
      <trkpt lat="48.62968" lon="-0.63392">
        <ele>252.6</ele>
        <time>2025-05-10T17:26:20.000Z</time>
      </trkpt>
      <trkpt lat="48.62962" lon="-0.63389">
        <ele>252.6</ele>
        <time>2025-05-10T17:26:21.000Z</time>
      </trkpt>
      <trkpt lat="48.62956" lon="-0.63385">
        <ele>252.6</ele>
        <time>2025-05-10T17:26:22.000Z</time>
      </trkpt>
      <trkpt lat="48.62951" lon="-0.63382">
        <ele>252.7</ele>
        <time>2025-05-10T17:26:23.000Z</time>
      </trkpt>
      <trkpt lat="48.62945" lon="-0.6338">
        <ele>252.7</ele>
        <time>2025-05-10T17:26:24.000Z</time>
      </trkpt>
      <trkpt lat="48.62938" lon="-0.63377">
        <ele>252.7</ele>
        <time>2025-05-10T17:26:25.000Z</time>
      </trkpt>
      <trkpt lat="48.62932" lon="-0.63374">
        <ele>252.7</ele>
        <time>2025-05-10T17:26:26.000Z</time>
      </trkpt>
      <trkpt lat="48.62927" lon="-0.63373">
        <ele>252.7</ele>
        <time>2025-05-10T17:26:27.000Z</time>
      </trkpt>
      <trkpt lat="48.62921" lon="-0.63371">
        <ele>252.6</ele>
        <time>2025-05-10T17:26:28.000Z</time>
      </trkpt>
      <trkpt lat="48.62915" lon="-0.63368">
        <ele>252.6</ele>
        <time>2025-05-10T17:26:29.000Z</time>
      </trkpt>
      <trkpt lat="48.62908" lon="-0.63364">
        <ele>252.6</ele>
        <time>2025-05-10T17:26:30.000Z</time>
      </trkpt>
      <trkpt lat="48.62902" lon="-0.6336">
        <ele>252.5</ele>
        <time>2025-05-10T17:26:31.000Z</time>
      </trkpt>
      <trkpt lat="48.62895" lon="-0.63357">
        <ele>252.4</ele>
        <time>2025-05-10T17:26:32.000Z</time>
      </trkpt>
      <trkpt lat="48.62888" lon="-0.63354">
        <ele>252.3</ele>
        <time>2025-05-10T17:26:33.000Z</time>
      </trkpt>
      <trkpt lat="48.62882" lon="-0.63351">
        <ele>252.2</ele>
        <time>2025-05-10T17:26:34.000Z</time>
      </trkpt>
      <trkpt lat="48.62875" lon="-0.63347">
        <ele>252.1</ele>
        <time>2025-05-10T17:26:35.000Z</time>
      </trkpt>
      <trkpt lat="48.62868" lon="-0.63343">
        <ele>251.9</ele>
        <time>2025-05-10T17:26:36.000Z</time>
      </trkpt>
      <trkpt lat="48.62862" lon="-0.6334">
        <ele>251.7</ele>
        <time>2025-05-10T17:26:37.000Z</time>
      </trkpt>
      <trkpt lat="48.62856" lon="-0.63338">
        <ele>251.4</ele>
        <time>2025-05-10T17:26:38.000Z</time>
      </trkpt>
      <trkpt lat="48.62849" lon="-0.63336">
        <ele>251.2</ele>
        <time>2025-05-10T17:26:39.000Z</time>
      </trkpt>
      <trkpt lat="48.62842" lon="-0.63334">
        <ele>250.9</ele>
        <time>2025-05-10T17:26:40.000Z</time>
      </trkpt>
      <trkpt lat="48.62835" lon="-0.63331">
        <ele>250.5</ele>
        <time>2025-05-10T17:26:41.000Z</time>
      </trkpt>
      <trkpt lat="48.62829" lon="-0.6333">
        <ele>250.2</ele>
        <time>2025-05-10T17:26:42.000Z</time>
      </trkpt>
      <trkpt lat="48.62822" lon="-0.63327">
        <ele>249.8</ele>
        <time>2025-05-10T17:26:43.000Z</time>
      </trkpt>
      <trkpt lat="48.62814" lon="-0.63322">
        <ele>249.5</ele>
        <time>2025-05-10T17:26:44.000Z</time>
      </trkpt>
      <trkpt lat="48.62807" lon="-0.63317">
        <ele>249.1</ele>
        <time>2025-05-10T17:26:45.000Z</time>
      </trkpt>
      <trkpt lat="48.62799" lon="-0.63311">
        <ele>248.7</ele>
        <time>2025-05-10T17:26:46.000Z</time>
      </trkpt>
      <trkpt lat="48.62792" lon="-0.63307">
        <ele>248.3</ele>
        <time>2025-05-10T17:26:47.000Z</time>
      </trkpt>
      <trkpt lat="48.62784" lon="-0.63302">
        <ele>247.9</ele>
        <time>2025-05-10T17:26:48.000Z</time>
      </trkpt>
      <trkpt lat="48.62777" lon="-0.63298">
        <ele>247.4</ele>
        <time>2025-05-10T17:26:49.000Z</time>
      </trkpt>
      <trkpt lat="48.62769" lon="-0.63293">
        <ele>247</ele>
        <time>2025-05-10T17:26:50.000Z</time>
      </trkpt>
      <trkpt lat="48.62762" lon="-0.6329">
        <ele>246.6</ele>
        <time>2025-05-10T17:26:51.000Z</time>
      </trkpt>
      <trkpt lat="48.62755" lon="-0.63286">
        <ele>246.2</ele>
        <time>2025-05-10T17:26:52.000Z</time>
      </trkpt>
      <trkpt lat="48.62748" lon="-0.63284">
        <ele>245.8</ele>
        <time>2025-05-10T17:26:53.000Z</time>
      </trkpt>
      <trkpt lat="48.62741" lon="-0.6328">
        <ele>245.4</ele>
        <time>2025-05-10T17:26:54.000Z</time>
      </trkpt>
      <trkpt lat="48.62734" lon="-0.63277">
        <ele>245.1</ele>
        <time>2025-05-10T17:26:55.000Z</time>
      </trkpt>
      <trkpt lat="48.62726" lon="-0.63273">
        <ele>244.7</ele>
        <time>2025-05-10T17:26:56.000Z</time>
      </trkpt>
      <trkpt lat="48.62719" lon="-0.63268">
        <ele>244.4</ele>
        <time>2025-05-10T17:26:57.000Z</time>
      </trkpt>
      <trkpt lat="48.62712" lon="-0.63264">
        <ele>244.1</ele>
        <time>2025-05-10T17:26:58.000Z</time>
      </trkpt>
      <trkpt lat="48.62705" lon="-0.6326">
        <ele>243.7</ele>
        <time>2025-05-10T17:26:59.000Z</time>
      </trkpt>
      <trkpt lat="48.62698" lon="-0.63256">
        <ele>243.4</ele>
        <time>2025-05-10T17:27:00.000Z</time>
      </trkpt>
      <trkpt lat="48.62691" lon="-0.63252">
        <ele>243.1</ele>
        <time>2025-05-10T17:27:01.000Z</time>
      </trkpt>
      <trkpt lat="48.62684" lon="-0.63248">
        <ele>242.8</ele>
        <time>2025-05-10T17:27:02.000Z</time>
      </trkpt>
      <trkpt lat="48.62678" lon="-0.63246">
        <ele>242.4</ele>
        <time>2025-05-10T17:27:03.000Z</time>
      </trkpt>
      <trkpt lat="48.62673" lon="-0.63244">
        <ele>242</ele>
        <time>2025-05-10T17:27:04.000Z</time>
      </trkpt>
      <trkpt lat="48.62667" lon="-0.63243">
        <ele>241.5</ele>
        <time>2025-05-10T17:27:06.000Z</time>
      </trkpt>
      <trkpt lat="48.62662" lon="-0.6324">
        <ele>240.8</ele>
        <time>2025-05-10T17:27:09.000Z</time>
      </trkpt>
      <trkpt lat="48.62656" lon="-0.63236">
        <ele>240.3</ele>
        <time>2025-05-10T17:27:12.000Z</time>
      </trkpt>
      <trkpt lat="48.62652" lon="-0.63233">
        <ele>240</ele>
        <time>2025-05-10T17:27:14.000Z</time>
      </trkpt>
      <trkpt lat="48.62647" lon="-0.6323">
        <ele>239.8</ele>
        <time>2025-05-10T17:27:16.000Z</time>
      </trkpt>
      <trkpt lat="48.6264" lon="-0.63227">
        <ele>239.6</ele>
        <time>2025-05-10T17:27:18.000Z</time>
      </trkpt>
      <trkpt lat="48.62636" lon="-0.63224">
        <ele>239.5</ele>
        <time>2025-05-10T17:27:19.000Z</time>
      </trkpt>
      <trkpt lat="48.62631" lon="-0.63221">
        <ele>239.4</ele>
        <time>2025-05-10T17:27:20.000Z</time>
      </trkpt>
      <trkpt lat="48.62626" lon="-0.63217">
        <ele>239.3</ele>
        <time>2025-05-10T17:27:21.000Z</time>
      </trkpt>
      <trkpt lat="48.62621" lon="-0.63215">
        <ele>239.2</ele>
        <time>2025-05-10T17:27:22.000Z</time>
      </trkpt>
      <trkpt lat="48.62616" lon="-0.63213">
        <ele>239.1</ele>
        <time>2025-05-10T17:27:23.000Z</time>
      </trkpt>
      <trkpt lat="48.6261" lon="-0.6321">
        <ele>239</ele>
        <time>2025-05-10T17:27:24.000Z</time>
      </trkpt>
      <trkpt lat="48.62605" lon="-0.63207">
        <ele>238.9</ele>
        <time>2025-05-10T17:27:25.000Z</time>
      </trkpt>
      <trkpt lat="48.62599" lon="-0.63205">
        <ele>238.8</ele>
        <time>2025-05-10T17:27:26.000Z</time>
      </trkpt>
      <trkpt lat="48.62594" lon="-0.63201">
        <ele>238.7</ele>
        <time>2025-05-10T17:27:27.000Z</time>
      </trkpt>
      <trkpt lat="48.62588" lon="-0.63197">
        <ele>238.5</ele>
        <time>2025-05-10T17:27:28.000Z</time>
      </trkpt>
      <trkpt lat="48.62582" lon="-0.63193">
        <ele>238.4</ele>
        <time>2025-05-10T17:27:29.000Z</time>
      </trkpt>
      <trkpt lat="48.62576" lon="-0.63189">
        <ele>238.3</ele>
        <time>2025-05-10T17:27:30.000Z</time>
      </trkpt>
      <trkpt lat="48.6257" lon="-0.63185">
        <ele>238.2</ele>
        <time>2025-05-10T17:27:31.000Z</time>
      </trkpt>
      <trkpt lat="48.62565" lon="-0.6318">
        <ele>238</ele>
        <time>2025-05-10T17:27:32.000Z</time>
      </trkpt>
      <trkpt lat="48.62559" lon="-0.63177">
        <ele>237.9</ele>
        <time>2025-05-10T17:27:33.000Z</time>
      </trkpt>
      <trkpt lat="48.62554" lon="-0.63173">
        <ele>237.7</ele>
        <time>2025-05-10T17:27:34.000Z</time>
      </trkpt>
      <trkpt lat="48.62549" lon="-0.63168">
        <ele>237.5</ele>
        <time>2025-05-10T17:27:35.000Z</time>
      </trkpt>
      <trkpt lat="48.62543" lon="-0.63162">
        <ele>237.4</ele>
        <time>2025-05-10T17:27:36.000Z</time>
      </trkpt>
      <trkpt lat="48.62538" lon="-0.63156">
        <ele>237.2</ele>
        <time>2025-05-10T17:27:37.000Z</time>
      </trkpt>
      <trkpt lat="48.62533" lon="-0.6315">
        <ele>236.9</ele>
        <time>2025-05-10T17:27:38.000Z</time>
      </trkpt>
      <trkpt lat="48.62527" lon="-0.63144">
        <ele>236.6</ele>
        <time>2025-05-10T17:27:39.000Z</time>
      </trkpt>
      <trkpt lat="48.62521" lon="-0.63139">
        <ele>236.4</ele>
        <time>2025-05-10T17:27:40.000Z</time>
      </trkpt>
      <trkpt lat="48.62517" lon="-0.63134">
        <ele>236.1</ele>
        <time>2025-05-10T17:27:41.000Z</time>
      </trkpt>
      <trkpt lat="48.62512" lon="-0.6313">
        <ele>235.8</ele>
        <time>2025-05-10T17:27:42.000Z</time>
      </trkpt>
      <trkpt lat="48.62507" lon="-0.63126">
        <ele>235.5</ele>
        <time>2025-05-10T17:27:43.000Z</time>
      </trkpt>
      <trkpt lat="48.62501" lon="-0.63121">
        <ele>235.1</ele>
        <time>2025-05-10T17:27:44.000Z</time>
      </trkpt>
      <trkpt lat="48.62495" lon="-0.63117">
        <ele>234.8</ele>
        <time>2025-05-10T17:27:45.000Z</time>
      </trkpt>
      <trkpt lat="48.6249" lon="-0.63115">
        <ele>234.4</ele>
        <time>2025-05-10T17:27:46.000Z</time>
      </trkpt>
      <trkpt lat="48.62483" lon="-0.63113">
        <ele>234</ele>
        <time>2025-05-10T17:27:47.000Z</time>
      </trkpt>
      <trkpt lat="48.62476" lon="-0.6311">
        <ele>233.5</ele>
        <time>2025-05-10T17:27:48.000Z</time>
      </trkpt>
      <trkpt lat="48.62469" lon="-0.63107">
        <ele>233</ele>
        <time>2025-05-10T17:27:49.000Z</time>
      </trkpt>
      <trkpt lat="48.62461" lon="-0.63102">
        <ele>232.5</ele>
        <time>2025-05-10T17:27:50.000Z</time>
      </trkpt>
      <trkpt lat="48.62454" lon="-0.63097">
        <ele>232.1</ele>
        <time>2025-05-10T17:27:51.000Z</time>
      </trkpt>
      <trkpt lat="48.62446" lon="-0.63091">
        <ele>231.7</ele>
        <time>2025-05-10T17:27:52.000Z</time>
      </trkpt>
      <trkpt lat="48.62439" lon="-0.63086">
        <ele>231.2</ele>
        <time>2025-05-10T17:27:53.000Z</time>
      </trkpt>
      <trkpt lat="48.62432" lon="-0.63081">
        <ele>230.9</ele>
        <time>2025-05-10T17:27:54.000Z</time>
      </trkpt>
      <trkpt lat="48.62425" lon="-0.63076">
        <ele>230.5</ele>
        <time>2025-05-10T17:27:55.000Z</time>
      </trkpt>
      <trkpt lat="48.62419" lon="-0.63071">
        <ele>230.2</ele>
        <time>2025-05-10T17:27:56.000Z</time>
      </trkpt>
      <trkpt lat="48.62412" lon="-0.63066">
        <ele>229.9</ele>
        <time>2025-05-10T17:27:57.000Z</time>
      </trkpt>
      <trkpt lat="48.62405" lon="-0.63061">
        <ele>229.6</ele>
        <time>2025-05-10T17:27:58.000Z</time>
      </trkpt>
      <trkpt lat="48.62399" lon="-0.63055">
        <ele>229.4</ele>
        <time>2025-05-10T17:27:59.000Z</time>
      </trkpt>
      <trkpt lat="48.62392" lon="-0.6305">
        <ele>229.1</ele>
        <time>2025-05-10T17:28:00.000Z</time>
      </trkpt>
      <trkpt lat="48.62385" lon="-0.63045">
        <ele>228.9</ele>
        <time>2025-05-10T17:28:01.000Z</time>
      </trkpt>
      <trkpt lat="48.62378" lon="-0.6304">
        <ele>228.8</ele>
        <time>2025-05-10T17:28:02.000Z</time>
      </trkpt>
      <trkpt lat="48.62371" lon="-0.63035">
        <ele>228.5</ele>
        <time>2025-05-10T17:28:03.000Z</time>
      </trkpt>
      <trkpt lat="48.62365" lon="-0.6303">
        <ele>228.3</ele>
        <time>2025-05-10T17:28:04.000Z</time>
      </trkpt>
      <trkpt lat="48.62358" lon="-0.63026">
        <ele>228.1</ele>
        <time>2025-05-10T17:28:05.000Z</time>
      </trkpt>
      <trkpt lat="48.62352" lon="-0.63022">
        <ele>227.9</ele>
        <time>2025-05-10T17:28:06.000Z</time>
      </trkpt>
      <trkpt lat="48.62345" lon="-0.63017">
        <ele>227.7</ele>
        <time>2025-05-10T17:28:07.000Z</time>
      </trkpt>
      <trkpt lat="48.62339" lon="-0.63013">
        <ele>227.6</ele>
        <time>2025-05-10T17:28:08.000Z</time>
      </trkpt>
      <trkpt lat="48.62333" lon="-0.63009">
        <ele>227.3</ele>
        <time>2025-05-10T17:28:09.000Z</time>
      </trkpt>
      <trkpt lat="48.62327" lon="-0.63005">
        <ele>227.2</ele>
        <time>2025-05-10T17:28:10.000Z</time>
      </trkpt>
      <trkpt lat="48.6232" lon="-0.63002">
        <ele>227</ele>
        <time>2025-05-10T17:28:11.000Z</time>
      </trkpt>
      <trkpt lat="48.62314" lon="-0.62998">
        <ele>226.8</ele>
        <time>2025-05-10T17:28:12.000Z</time>
      </trkpt>
      <trkpt lat="48.62308" lon="-0.62995">
        <ele>226.6</ele>
        <time>2025-05-10T17:28:13.000Z</time>
      </trkpt>
      <trkpt lat="48.62303" lon="-0.62991">
        <ele>226.4</ele>
        <time>2025-05-10T17:28:14.000Z</time>
      </trkpt>
      <trkpt lat="48.62298" lon="-0.62989">
        <ele>226.3</ele>
        <time>2025-05-10T17:28:15.000Z</time>
      </trkpt>
      <trkpt lat="48.62293" lon="-0.62987">
        <ele>226.2</ele>
        <time>2025-05-10T17:28:16.000Z</time>
      </trkpt>
      <trkpt lat="48.62289" lon="-0.62984">
        <ele>226.1</ele>
        <time>2025-05-10T17:28:17.000Z</time>
      </trkpt>
      <trkpt lat="48.62281" lon="-0.62979">
        <ele>225.8</ele>
        <time>2025-05-10T17:28:19.000Z</time>
      </trkpt>
      <trkpt lat="48.62277" lon="-0.62976">
        <ele>225.7</ele>
        <time>2025-05-10T17:28:20.000Z</time>
      </trkpt>
      <trkpt lat="48.62268" lon="-0.62972">
        <ele>225.5</ele>
        <time>2025-05-10T17:28:22.000Z</time>
      </trkpt>
      <trkpt lat="48.62264" lon="-0.62969">
        <ele>225.4</ele>
        <time>2025-05-10T17:28:23.000Z</time>
      </trkpt>
      <trkpt lat="48.62258" lon="-0.62967">
        <ele>225.3</ele>
        <time>2025-05-10T17:28:24.000Z</time>
      </trkpt>
      <trkpt lat="48.62253" lon="-0.62965">
        <ele>225.2</ele>
        <time>2025-05-10T17:28:25.000Z</time>
      </trkpt>
      <trkpt lat="48.62248" lon="-0.62963">
        <ele>225.1</ele>
        <time>2025-05-10T17:28:26.000Z</time>
      </trkpt>
      <trkpt lat="48.62242" lon="-0.62961">
        <ele>225</ele>
        <time>2025-05-10T17:28:27.000Z</time>
      </trkpt>
      <trkpt lat="48.62238" lon="-0.62959">
        <ele>225</ele>
        <time>2025-05-10T17:28:28.000Z</time>
      </trkpt>
      <trkpt lat="48.62232" lon="-0.62956">
        <ele>225</ele>
        <time>2025-05-10T17:28:29.000Z</time>
      </trkpt>
      <trkpt lat="48.62227" lon="-0.62953">
        <ele>224.9</ele>
        <time>2025-05-10T17:28:30.000Z</time>
      </trkpt>
      <trkpt lat="48.62222" lon="-0.6295">
        <ele>224.9</ele>
        <time>2025-05-10T17:28:31.000Z</time>
      </trkpt>
      <trkpt lat="48.62216" lon="-0.62947">
        <ele>224.9</ele>
        <time>2025-05-10T17:28:32.000Z</time>
      </trkpt>
      <trkpt lat="48.6221" lon="-0.62944">
        <ele>224.9</ele>
        <time>2025-05-10T17:28:33.000Z</time>
      </trkpt>
      <trkpt lat="48.62205" lon="-0.6294">
        <ele>224.9</ele>
        <time>2025-05-10T17:28:34.000Z</time>
      </trkpt>
      <trkpt lat="48.62199" lon="-0.62937">
        <ele>224.9</ele>
        <time>2025-05-10T17:28:35.000Z</time>
      </trkpt>
      <trkpt lat="48.62193" lon="-0.62934">
        <ele>224.9</ele>
        <time>2025-05-10T17:28:36.000Z</time>
      </trkpt>
      <trkpt lat="48.62187" lon="-0.62931">
        <ele>224.9</ele>
        <time>2025-05-10T17:28:37.000Z</time>
      </trkpt>
      <trkpt lat="48.62181" lon="-0.62929">
        <ele>225</ele>
        <time>2025-05-10T17:28:38.000Z</time>
      </trkpt>
      <trkpt lat="48.62175" lon="-0.62927">
        <ele>225</ele>
        <time>2025-05-10T17:28:39.000Z</time>
      </trkpt>
      <trkpt lat="48.62169" lon="-0.62924">
        <ele>225</ele>
        <time>2025-05-10T17:28:40.000Z</time>
      </trkpt>
      <trkpt lat="48.62163" lon="-0.62921">
        <ele>225</ele>
        <time>2025-05-10T17:28:41.000Z</time>
      </trkpt>
      <trkpt lat="48.62157" lon="-0.62919">
        <ele>225</ele>
        <time>2025-05-10T17:28:42.000Z</time>
      </trkpt>
      <trkpt lat="48.62151" lon="-0.62916">
        <ele>225.1</ele>
        <time>2025-05-10T17:28:43.000Z</time>
      </trkpt>
      <trkpt lat="48.62146" lon="-0.62913">
        <ele>225.1</ele>
        <time>2025-05-10T17:28:44.000Z</time>
      </trkpt>
      <trkpt lat="48.6214" lon="-0.62909">
        <ele>225.1</ele>
        <time>2025-05-10T17:28:45.000Z</time>
      </trkpt>
      <trkpt lat="48.62134" lon="-0.62906">
        <ele>225.1</ele>
        <time>2025-05-10T17:28:46.000Z</time>
      </trkpt>
      <trkpt lat="48.62129" lon="-0.62902">
        <ele>225.2</ele>
        <time>2025-05-10T17:28:47.000Z</time>
      </trkpt>
      <trkpt lat="48.62123" lon="-0.62899">
        <ele>225.2</ele>
        <time>2025-05-10T17:28:48.000Z</time>
      </trkpt>
      <trkpt lat="48.62117" lon="-0.62897">
        <ele>225.2</ele>
        <time>2025-05-10T17:28:49.000Z</time>
      </trkpt>
      <trkpt lat="48.62112" lon="-0.62894">
        <ele>225.3</ele>
        <time>2025-05-10T17:28:50.000Z</time>
      </trkpt>
      <trkpt lat="48.62106" lon="-0.6289">
        <ele>225.3</ele>
        <time>2025-05-10T17:28:51.000Z</time>
      </trkpt>
      <trkpt lat="48.621" lon="-0.62888">
        <ele>225.3</ele>
        <time>2025-05-10T17:28:52.000Z</time>
      </trkpt>
      <trkpt lat="48.62094" lon="-0.62885">
        <ele>225.4</ele>
        <time>2025-05-10T17:28:53.000Z</time>
      </trkpt>
      <trkpt lat="48.62088" lon="-0.62882">
        <ele>225.4</ele>
        <time>2025-05-10T17:28:54.000Z</time>
      </trkpt>
      <trkpt lat="48.62082" lon="-0.62879">
        <ele>225.4</ele>
        <time>2025-05-10T17:28:55.000Z</time>
      </trkpt>
      <trkpt lat="48.62076" lon="-0.62876">
        <ele>225.4</ele>
        <time>2025-05-10T17:28:56.000Z</time>
      </trkpt>
      <trkpt lat="48.6207" lon="-0.62873">
        <ele>225.4</ele>
        <time>2025-05-10T17:28:57.000Z</time>
      </trkpt>
      <trkpt lat="48.62064" lon="-0.6287">
        <ele>225.4</ele>
        <time>2025-05-10T17:28:58.000Z</time>
      </trkpt>
      <trkpt lat="48.62058" lon="-0.62867">
        <ele>225.5</ele>
        <time>2025-05-10T17:28:59.000Z</time>
      </trkpt>
      <trkpt lat="48.62052" lon="-0.62864">
        <ele>225.5</ele>
        <time>2025-05-10T17:29:00.000Z</time>
      </trkpt>
      <trkpt lat="48.62045" lon="-0.62861">
        <ele>225.5</ele>
        <time>2025-05-10T17:29:01.000Z</time>
      </trkpt>
      <trkpt lat="48.62039" lon="-0.62858">
        <ele>225.4</ele>
        <time>2025-05-10T17:29:02.000Z</time>
      </trkpt>
      <trkpt lat="48.62033" lon="-0.62855">
        <ele>225.4</ele>
        <time>2025-05-10T17:29:03.000Z</time>
      </trkpt>
      <trkpt lat="48.62027" lon="-0.62853">
        <ele>225.4</ele>
        <time>2025-05-10T17:29:04.000Z</time>
      </trkpt>
      <trkpt lat="48.62022" lon="-0.62851">
        <ele>225.3</ele>
        <time>2025-05-10T17:29:05.000Z</time>
      </trkpt>
      <trkpt lat="48.62016" lon="-0.62849">
        <ele>225.3</ele>
        <time>2025-05-10T17:29:06.000Z</time>
      </trkpt>
      <trkpt lat="48.6201" lon="-0.62845">
        <ele>225.2</ele>
        <time>2025-05-10T17:29:07.000Z</time>
      </trkpt>
      <trkpt lat="48.62003" lon="-0.62842">
        <ele>225.2</ele>
        <time>2025-05-10T17:29:08.000Z</time>
      </trkpt>
      <trkpt lat="48.61997" lon="-0.62839">
        <ele>225.1</ele>
        <time>2025-05-10T17:29:09.000Z</time>
      </trkpt>
      <trkpt lat="48.61991" lon="-0.62835">
        <ele>225</ele>
        <time>2025-05-10T17:29:10.000Z</time>
      </trkpt>
      <trkpt lat="48.61985" lon="-0.62831">
        <ele>224.9</ele>
        <time>2025-05-10T17:29:11.000Z</time>
      </trkpt>
      <trkpt lat="48.61978" lon="-0.62827">
        <ele>224.8</ele>
        <time>2025-05-10T17:29:12.000Z</time>
      </trkpt>
      <trkpt lat="48.61969" lon="-0.62824">
        <ele>224.5</ele>
        <time>2025-05-10T17:29:14.000Z</time>
      </trkpt>
      <trkpt lat="48.61964" lon="-0.62821">
        <ele>224.3</ele>
        <time>2025-05-10T17:29:15.000Z</time>
      </trkpt>
      <trkpt lat="48.61959" lon="-0.62817">
        <ele>224.2</ele>
        <time>2025-05-10T17:29:16.000Z</time>
      </trkpt>
      <trkpt lat="48.61953" lon="-0.62813">
        <ele>224.1</ele>
        <time>2025-05-10T17:29:17.000Z</time>
      </trkpt>
      <trkpt lat="48.61947" lon="-0.62809">
        <ele>223.9</ele>
        <time>2025-05-10T17:29:18.000Z</time>
      </trkpt>
      <trkpt lat="48.61941" lon="-0.62804">
        <ele>223.8</ele>
        <time>2025-05-10T17:29:19.000Z</time>
      </trkpt>
      <trkpt lat="48.61935" lon="-0.628">
        <ele>223.6</ele>
        <time>2025-05-10T17:29:20.000Z</time>
      </trkpt>
      <trkpt lat="48.61928" lon="-0.62796">
        <ele>223.5</ele>
        <time>2025-05-10T17:29:21.000Z</time>
      </trkpt>
      <trkpt lat="48.61922" lon="-0.62793">
        <ele>223.3</ele>
        <time>2025-05-10T17:29:22.000Z</time>
      </trkpt>
      <trkpt lat="48.61916" lon="-0.6279">
        <ele>223.2</ele>
        <time>2025-05-10T17:29:23.000Z</time>
      </trkpt>
      <trkpt lat="48.6191" lon="-0.62788">
        <ele>223</ele>
        <time>2025-05-10T17:29:24.000Z</time>
      </trkpt>
      <trkpt lat="48.61904" lon="-0.62785">
        <ele>222.8</ele>
        <time>2025-05-10T17:29:25.000Z</time>
      </trkpt>
      <trkpt lat="48.61898" lon="-0.62781">
        <ele>222.7</ele>
        <time>2025-05-10T17:29:26.000Z</time>
      </trkpt>
      <trkpt lat="48.61892" lon="-0.62779">
        <ele>222.5</ele>
        <time>2025-05-10T17:29:27.000Z</time>
      </trkpt>
      <trkpt lat="48.61886" lon="-0.62775">
        <ele>222.3</ele>
        <time>2025-05-10T17:29:28.000Z</time>
      </trkpt>
      <trkpt lat="48.6188" lon="-0.62772">
        <ele>222.2</ele>
        <time>2025-05-10T17:29:29.000Z</time>
      </trkpt>
      <trkpt lat="48.61875" lon="-0.62771">
        <ele>222</ele>
        <time>2025-05-10T17:29:30.000Z</time>
      </trkpt>
      <trkpt lat="48.61869" lon="-0.62769">
        <ele>221.8</ele>
        <time>2025-05-10T17:29:31.000Z</time>
      </trkpt>
      <trkpt lat="48.61863" lon="-0.62768">
        <ele>221.8</ele>
        <time>2025-05-10T17:29:32.000Z</time>
      </trkpt>
      <trkpt lat="48.61857" lon="-0.62766">
        <ele>221.7</ele>
        <time>2025-05-10T17:29:33.000Z</time>
      </trkpt>
      <trkpt lat="48.61851" lon="-0.62764">
        <ele>221.6</ele>
        <time>2025-05-10T17:29:34.000Z</time>
      </trkpt>
      <trkpt lat="48.61846" lon="-0.62763">
        <ele>221.5</ele>
        <time>2025-05-10T17:29:35.000Z</time>
      </trkpt>
      <trkpt lat="48.6184" lon="-0.62761">
        <ele>221.5</ele>
        <time>2025-05-10T17:29:36.000Z</time>
      </trkpt>
      <trkpt lat="48.61835" lon="-0.6276">
        <ele>221.4</ele>
        <time>2025-05-10T17:29:37.000Z</time>
      </trkpt>
      <trkpt lat="48.61829" lon="-0.62757">
        <ele>221.3</ele>
        <time>2025-05-10T17:29:38.000Z</time>
      </trkpt>
      <trkpt lat="48.61824" lon="-0.62755">
        <ele>221.3</ele>
        <time>2025-05-10T17:29:39.000Z</time>
      </trkpt>
      <trkpt lat="48.61819" lon="-0.62753">
        <ele>221.2</ele>
        <time>2025-05-10T17:29:40.000Z</time>
      </trkpt>
      <trkpt lat="48.61813" lon="-0.62751">
        <ele>221.1</ele>
        <time>2025-05-10T17:29:41.000Z</time>
      </trkpt>
      <trkpt lat="48.61809" lon="-0.6275">
        <ele>221.1</ele>
        <time>2025-05-10T17:29:42.000Z</time>
      </trkpt>
      <trkpt lat="48.61803" lon="-0.6275">
        <ele>221</ele>
        <time>2025-05-10T17:29:44.000Z</time>
      </trkpt>
      <trkpt lat="48.61798" lon="-0.6275">
        <ele>220.9</ele>
        <time>2025-05-10T17:29:46.000Z</time>
      </trkpt>
      <trkpt lat="48.61794" lon="-0.62748">
        <ele>220.9</ele>
        <time>2025-05-10T17:29:48.000Z</time>
      </trkpt>
      <trkpt lat="48.61789" lon="-0.62746">
        <ele>220.8</ele>
        <time>2025-05-10T17:29:50.000Z</time>
      </trkpt>
      <trkpt lat="48.61782" lon="-0.62744">
        <ele>220.8</ele>
        <time>2025-05-10T17:29:52.000Z</time>
      </trkpt>
      <trkpt lat="48.61774" lon="-0.62742">
        <ele>220.8</ele>
        <time>2025-05-10T17:29:54.000Z</time>
      </trkpt>
      <trkpt lat="48.61766" lon="-0.6274">
        <ele>220.8</ele>
        <time>2025-05-10T17:29:56.000Z</time>
      </trkpt>
      <trkpt lat="48.61762" lon="-0.62739">
        <ele>220.8</ele>
        <time>2025-05-10T17:29:57.000Z</time>
      </trkpt>
      <trkpt lat="48.61753" lon="-0.62737">
        <ele>220.8</ele>
        <time>2025-05-10T17:29:59.000Z</time>
      </trkpt>
      <trkpt lat="48.61748" lon="-0.62736">
        <ele>220.8</ele>
        <time>2025-05-10T17:30:00.000Z</time>
      </trkpt>
      <trkpt lat="48.61744" lon="-0.62735">
        <ele>220.8</ele>
        <time>2025-05-10T17:30:01.000Z</time>
      </trkpt>
      <trkpt lat="48.61739" lon="-0.62733">
        <ele>220.8</ele>
        <time>2025-05-10T17:30:02.000Z</time>
      </trkpt>
      <trkpt lat="48.61735" lon="-0.62732">
        <ele>220.8</ele>
        <time>2025-05-10T17:30:03.000Z</time>
      </trkpt>
      <trkpt lat="48.6173" lon="-0.62731">
        <ele>220.9</ele>
        <time>2025-05-10T17:30:04.000Z</time>
      </trkpt>
      <trkpt lat="48.61725" lon="-0.6273">
        <ele>220.9</ele>
        <time>2025-05-10T17:30:05.000Z</time>
      </trkpt>
      <trkpt lat="48.6172" lon="-0.62729">
        <ele>220.9</ele>
        <time>2025-05-10T17:30:06.000Z</time>
      </trkpt>
      <trkpt lat="48.61715" lon="-0.62729">
        <ele>221</ele>
        <time>2025-05-10T17:30:07.000Z</time>
      </trkpt>
      <trkpt lat="48.61711" lon="-0.62728">
        <ele>221.1</ele>
        <time>2025-05-10T17:30:08.000Z</time>
      </trkpt>
      <trkpt lat="48.61706" lon="-0.62728">
        <ele>221.1</ele>
        <time>2025-05-10T17:30:09.000Z</time>
      </trkpt>
      <trkpt lat="48.61701" lon="-0.62727">
        <ele>221.2</ele>
        <time>2025-05-10T17:30:10.000Z</time>
      </trkpt>
      <trkpt lat="48.61696" lon="-0.62727">
        <ele>221.2</ele>
        <time>2025-05-10T17:30:11.000Z</time>
      </trkpt>
      <trkpt lat="48.61692" lon="-0.62726">
        <ele>221.3</ele>
        <time>2025-05-10T17:30:12.000Z</time>
      </trkpt>
      <trkpt lat="48.61687" lon="-0.62726">
        <ele>221.4</ele>
        <time>2025-05-10T17:30:13.000Z</time>
      </trkpt>
      <trkpt lat="48.61682" lon="-0.62725">
        <ele>221.4</ele>
        <time>2025-05-10T17:30:14.000Z</time>
      </trkpt>
      <trkpt lat="48.61677" lon="-0.62724">
        <ele>221.5</ele>
        <time>2025-05-10T17:30:15.000Z</time>
      </trkpt>
      <trkpt lat="48.61671" lon="-0.62723">
        <ele>221.6</ele>
        <time>2025-05-10T17:30:16.000Z</time>
      </trkpt>
      <trkpt lat="48.61666" lon="-0.62722">
        <ele>221.6</ele>
        <time>2025-05-10T17:30:17.000Z</time>
      </trkpt>
      <trkpt lat="48.61661" lon="-0.62721">
        <ele>221.6</ele>
        <time>2025-05-10T17:30:18.000Z</time>
      </trkpt>
      <trkpt lat="48.61655" lon="-0.62721">
        <ele>221.6</ele>
        <time>2025-05-10T17:30:19.000Z</time>
      </trkpt>
      <trkpt lat="48.6165" lon="-0.62719">
        <ele>221.6</ele>
        <time>2025-05-10T17:30:20.000Z</time>
      </trkpt>
      <trkpt lat="48.61645" lon="-0.62717">
        <ele>221.6</ele>
        <time>2025-05-10T17:30:21.000Z</time>
      </trkpt>
      <trkpt lat="48.6164" lon="-0.62716">
        <ele>221.6</ele>
        <time>2025-05-10T17:30:22.000Z</time>
      </trkpt>
      <trkpt lat="48.61635" lon="-0.62715">
        <ele>221.6</ele>
        <time>2025-05-10T17:30:23.000Z</time>
      </trkpt>
      <trkpt lat="48.6163" lon="-0.62715">
        <ele>221.6</ele>
        <time>2025-05-10T17:30:24.000Z</time>
      </trkpt>
      <trkpt lat="48.61622" lon="-0.62714">
        <ele>221.5</ele>
        <time>2025-05-10T17:30:26.000Z</time>
      </trkpt>
      <trkpt lat="48.61612" lon="-0.62713">
        <ele>221.4</ele>
        <time>2025-05-10T17:30:28.000Z</time>
      </trkpt>
      <trkpt lat="48.61607" lon="-0.62711">
        <ele>221.4</ele>
        <time>2025-05-10T17:30:29.000Z</time>
      </trkpt>
      <trkpt lat="48.61602" lon="-0.6271">
        <ele>221.3</ele>
        <time>2025-05-10T17:30:30.000Z</time>
      </trkpt>
      <trkpt lat="48.61596" lon="-0.62709">
        <ele>221.3</ele>
        <time>2025-05-10T17:30:31.000Z</time>
      </trkpt>
      <trkpt lat="48.6159" lon="-0.62708">
        <ele>221.3</ele>
        <time>2025-05-10T17:30:32.000Z</time>
      </trkpt>
      <trkpt lat="48.61585" lon="-0.62707">
        <ele>221.2</ele>
        <time>2025-05-10T17:30:33.000Z</time>
      </trkpt>
      <trkpt lat="48.6158" lon="-0.62707">
        <ele>221.1</ele>
        <time>2025-05-10T17:30:34.000Z</time>
      </trkpt>
      <trkpt lat="48.61575" lon="-0.62706">
        <ele>221</ele>
        <time>2025-05-10T17:30:35.000Z</time>
      </trkpt>
      <trkpt lat="48.6157" lon="-0.62705">
        <ele>221</ele>
        <time>2025-05-10T17:30:36.000Z</time>
      </trkpt>
      <trkpt lat="48.61564" lon="-0.62704">
        <ele>220.9</ele>
        <time>2025-05-10T17:30:37.000Z</time>
      </trkpt>
      <trkpt lat="48.61559" lon="-0.62703">
        <ele>220.8</ele>
        <time>2025-05-10T17:30:38.000Z</time>
      </trkpt>
      <trkpt lat="48.61554" lon="-0.62702">
        <ele>220.7</ele>
        <time>2025-05-10T17:30:39.000Z</time>
      </trkpt>
      <trkpt lat="48.61549" lon="-0.62702">
        <ele>220.6</ele>
        <time>2025-05-10T17:30:40.000Z</time>
      </trkpt>
      <trkpt lat="48.61544" lon="-0.62701">
        <ele>220.5</ele>
        <time>2025-05-10T17:30:41.000Z</time>
      </trkpt>
      <trkpt lat="48.6154" lon="-0.627">
        <ele>220.4</ele>
        <time>2025-05-10T17:30:42.000Z</time>
      </trkpt>
      <trkpt lat="48.61535" lon="-0.62699">
        <ele>220.4</ele>
        <time>2025-05-10T17:30:43.000Z</time>
      </trkpt>
      <trkpt lat="48.61531" lon="-0.62698">
        <ele>220.3</ele>
        <time>2025-05-10T17:30:44.000Z</time>
      </trkpt>
      <trkpt lat="48.61526" lon="-0.62698">
        <ele>220.3</ele>
        <time>2025-05-10T17:30:45.000Z</time>
      </trkpt>
      <trkpt lat="48.61521" lon="-0.62697">
        <ele>220.2</ele>
        <time>2025-05-10T17:30:46.000Z</time>
      </trkpt>
      <trkpt lat="48.61516" lon="-0.62697">
        <ele>220.2</ele>
        <time>2025-05-10T17:30:47.000Z</time>
      </trkpt>
      <trkpt lat="48.61511" lon="-0.62696">
        <ele>220.2</ele>
        <time>2025-05-10T17:30:48.000Z</time>
      </trkpt>
      <trkpt lat="48.61506" lon="-0.62696">
        <ele>220.1</ele>
        <time>2025-05-10T17:30:49.000Z</time>
      </trkpt>
      <trkpt lat="48.61501" lon="-0.62695">
        <ele>220.1</ele>
        <time>2025-05-10T17:30:50.000Z</time>
      </trkpt>
      <trkpt lat="48.61496" lon="-0.62695">
        <ele>220.1</ele>
        <time>2025-05-10T17:30:51.000Z</time>
      </trkpt>
      <trkpt lat="48.6149" lon="-0.62694">
        <ele>220</ele>
        <time>2025-05-10T17:30:52.000Z</time>
      </trkpt>
      <trkpt lat="48.61484" lon="-0.62693">
        <ele>220</ele>
        <time>2025-05-10T17:30:53.000Z</time>
      </trkpt>
      <trkpt lat="48.61479" lon="-0.62692">
        <ele>220</ele>
        <time>2025-05-10T17:30:54.000Z</time>
      </trkpt>
      <trkpt lat="48.61474" lon="-0.62691">
        <ele>220</ele>
        <time>2025-05-10T17:30:55.000Z</time>
      </trkpt>
      <trkpt lat="48.61469" lon="-0.6269">
        <ele>220</ele>
        <time>2025-05-10T17:30:56.000Z</time>
      </trkpt>
      <trkpt lat="48.61464" lon="-0.62689">
        <ele>220</ele>
        <time>2025-05-10T17:30:57.000Z</time>
      </trkpt>
      <trkpt lat="48.6146" lon="-0.62689">
        <ele>219.9</ele>
        <time>2025-05-10T17:30:58.000Z</time>
      </trkpt>
      <trkpt lat="48.61455" lon="-0.62688">
        <ele>219.9</ele>
        <time>2025-05-10T17:30:59.000Z</time>
      </trkpt>
      <trkpt lat="48.6145" lon="-0.62687">
        <ele>219.9</ele>
        <time>2025-05-10T17:31:00.000Z</time>
      </trkpt>
      <trkpt lat="48.61445" lon="-0.62687">
        <ele>219.9</ele>
        <time>2025-05-10T17:31:01.000Z</time>
      </trkpt>
      <trkpt lat="48.61439" lon="-0.62685">
        <ele>219.9</ele>
        <time>2025-05-10T17:31:02.000Z</time>
      </trkpt>
      <trkpt lat="48.61434" lon="-0.62685">
        <ele>219.9</ele>
        <time>2025-05-10T17:31:03.000Z</time>
      </trkpt>
      <trkpt lat="48.61428" lon="-0.62684">
        <ele>219.9</ele>
        <time>2025-05-10T17:31:04.000Z</time>
      </trkpt>
      <trkpt lat="48.61422" lon="-0.62683">
        <ele>219.9</ele>
        <time>2025-05-10T17:31:05.000Z</time>
      </trkpt>
      <trkpt lat="48.61415" lon="-0.62681">
        <ele>219.9</ele>
        <time>2025-05-10T17:31:06.000Z</time>
      </trkpt>
      <trkpt lat="48.6141" lon="-0.6268">
        <ele>219.9</ele>
        <time>2025-05-10T17:31:07.000Z</time>
      </trkpt>
      <trkpt lat="48.61404" lon="-0.62678">
        <ele>220</ele>
        <time>2025-05-10T17:31:08.000Z</time>
      </trkpt>
      <trkpt lat="48.61398" lon="-0.62677">
        <ele>220</ele>
        <time>2025-05-10T17:31:09.000Z</time>
      </trkpt>
      <trkpt lat="48.61392" lon="-0.62675">
        <ele>220</ele>
        <time>2025-05-10T17:31:10.000Z</time>
      </trkpt>
      <trkpt lat="48.61386" lon="-0.62674">
        <ele>220.1</ele>
        <time>2025-05-10T17:31:11.000Z</time>
      </trkpt>
      <trkpt lat="48.61381" lon="-0.62673">
        <ele>220.1</ele>
        <time>2025-05-10T17:31:12.000Z</time>
      </trkpt>
      <trkpt lat="48.61376" lon="-0.62672">
        <ele>220.1</ele>
        <time>2025-05-10T17:31:13.000Z</time>
      </trkpt>
      <trkpt lat="48.61371" lon="-0.62671">
        <ele>220.2</ele>
        <time>2025-05-10T17:31:14.000Z</time>
      </trkpt>
      <trkpt lat="48.61367" lon="-0.62669">
        <ele>220.2</ele>
        <time>2025-05-10T17:31:15.000Z</time>
      </trkpt>
      <trkpt lat="48.61358" lon="-0.62667">
        <ele>220.2</ele>
        <time>2025-05-10T17:31:17.000Z</time>
      </trkpt>
      <trkpt lat="48.61353" lon="-0.62666">
        <ele>220.2</ele>
        <time>2025-05-10T17:31:18.000Z</time>
      </trkpt>
      <trkpt lat="48.61348" lon="-0.62666">
        <ele>220.2</ele>
        <time>2025-05-10T17:31:19.000Z</time>
      </trkpt>
      <trkpt lat="48.61343" lon="-0.62667">
        <ele>220.3</ele>
        <time>2025-05-10T17:31:20.000Z</time>
      </trkpt>
      <trkpt lat="48.61337" lon="-0.62668">
        <ele>220.2</ele>
        <time>2025-05-10T17:31:21.000Z</time>
      </trkpt>
      <trkpt lat="48.61331" lon="-0.62668">
        <ele>220.2</ele>
        <time>2025-05-10T17:31:22.000Z</time>
      </trkpt>
      <trkpt lat="48.61324" lon="-0.62669">
        <ele>220.2</ele>
        <time>2025-05-10T17:31:23.000Z</time>
      </trkpt>
      <trkpt lat="48.61318" lon="-0.6267">
        <ele>220.1</ele>
        <time>2025-05-10T17:31:24.000Z</time>
      </trkpt>
      <trkpt lat="48.61311" lon="-0.6267">
        <ele>220.1</ele>
        <time>2025-05-10T17:31:25.000Z</time>
      </trkpt>
      <trkpt lat="48.61304" lon="-0.62671">
        <ele>220</ele>
        <time>2025-05-10T17:31:26.000Z</time>
      </trkpt>
      <trkpt lat="48.61297" lon="-0.62672">
        <ele>220</ele>
        <time>2025-05-10T17:31:27.000Z</time>
      </trkpt>
      <trkpt lat="48.6129" lon="-0.62673">
        <ele>219.9</ele>
        <time>2025-05-10T17:31:28.000Z</time>
      </trkpt>
      <trkpt lat="48.61283" lon="-0.62674">
        <ele>219.7</ele>
        <time>2025-05-10T17:31:29.000Z</time>
      </trkpt>
      <trkpt lat="48.61276" lon="-0.62675">
        <ele>219.6</ele>
        <time>2025-05-10T17:31:30.000Z</time>
      </trkpt>
      <trkpt lat="48.61269" lon="-0.62676">
        <ele>219.4</ele>
        <time>2025-05-10T17:31:31.000Z</time>
      </trkpt>
      <trkpt lat="48.61262" lon="-0.62676">
        <ele>219.2</ele>
        <time>2025-05-10T17:31:32.000Z</time>
      </trkpt>
      <trkpt lat="48.61255" lon="-0.62676">
        <ele>219</ele>
        <time>2025-05-10T17:31:33.000Z</time>
      </trkpt>
      <trkpt lat="48.61248" lon="-0.62677">
        <ele>218.7</ele>
        <time>2025-05-10T17:31:34.000Z</time>
      </trkpt>
      <trkpt lat="48.61242" lon="-0.62677">
        <ele>218.5</ele>
        <time>2025-05-10T17:31:35.000Z</time>
      </trkpt>
      <trkpt lat="48.61236" lon="-0.62677">
        <ele>218.3</ele>
        <time>2025-05-10T17:31:36.000Z</time>
      </trkpt>
      <trkpt lat="48.6123" lon="-0.62677">
        <ele>218</ele>
        <time>2025-05-10T17:31:37.000Z</time>
      </trkpt>
      <trkpt lat="48.61223" lon="-0.62679">
        <ele>217.5</ele>
        <time>2025-05-10T17:31:39.000Z</time>
      </trkpt>
      <trkpt lat="48.61219" lon="-0.62682">
        <ele>217.1</ele>
        <time>2025-05-10T17:31:41.000Z</time>
      </trkpt>
      <trkpt lat="48.61214" lon="-0.62685">
        <ele>216.7</ele>
        <time>2025-05-10T17:31:43.000Z</time>
      </trkpt>
      <trkpt lat="48.61208" lon="-0.62685">
        <ele>216.4</ele>
        <time>2025-05-10T17:31:45.000Z</time>
      </trkpt>
      <trkpt lat="48.61199" lon="-0.62684">
        <ele>216.1</ele>
        <time>2025-05-10T17:31:47.000Z</time>
      </trkpt>
      <trkpt lat="48.61193" lon="-0.62683">
        <ele>215.9</ele>
        <time>2025-05-10T17:31:48.000Z</time>
      </trkpt>
      <trkpt lat="48.61188" lon="-0.62683">
        <ele>215.7</ele>
        <time>2025-05-10T17:31:49.000Z</time>
      </trkpt>
      <trkpt lat="48.61181" lon="-0.62683">
        <ele>215.5</ele>
        <time>2025-05-10T17:31:50.000Z</time>
      </trkpt>
      <trkpt lat="48.61175" lon="-0.62684">
        <ele>215.3</ele>
        <time>2025-05-10T17:31:51.000Z</time>
      </trkpt>
      <trkpt lat="48.61168" lon="-0.62685">
        <ele>215</ele>
        <time>2025-05-10T17:31:52.000Z</time>
      </trkpt>
      <trkpt lat="48.6116" lon="-0.62686">
        <ele>214.6</ele>
        <time>2025-05-10T17:31:53.000Z</time>
      </trkpt>
      <trkpt lat="48.61152" lon="-0.62687">
        <ele>214.2</ele>
        <time>2025-05-10T17:31:54.000Z</time>
      </trkpt>
      <trkpt lat="48.61144" lon="-0.62688">
        <ele>213.8</ele>
        <time>2025-05-10T17:31:55.000Z</time>
      </trkpt>
      <trkpt lat="48.61135" lon="-0.62689">
        <ele>213.3</ele>
        <time>2025-05-10T17:31:56.000Z</time>
      </trkpt>
      <trkpt lat="48.61126" lon="-0.6269">
        <ele>212.7</ele>
        <time>2025-05-10T17:31:57.000Z</time>
      </trkpt>
      <trkpt lat="48.61116" lon="-0.62692">
        <ele>212</ele>
        <time>2025-05-10T17:31:58.000Z</time>
      </trkpt>
      <trkpt lat="48.61107" lon="-0.62694">
        <ele>211.4</ele>
        <time>2025-05-10T17:31:59.000Z</time>
      </trkpt>
      <trkpt lat="48.61098" lon="-0.62698">
        <ele>210.7</ele>
        <time>2025-05-10T17:32:00.000Z</time>
      </trkpt>
      <trkpt lat="48.61088" lon="-0.62701">
        <ele>210.2</ele>
        <time>2025-05-10T17:32:01.000Z</time>
      </trkpt>
      <trkpt lat="48.61079" lon="-0.62705">
        <ele>209.6</ele>
        <time>2025-05-10T17:32:02.000Z</time>
      </trkpt>
      <trkpt lat="48.61069" lon="-0.62709">
        <ele>208.7</ele>
        <time>2025-05-10T17:32:03.000Z</time>
      </trkpt>
      <trkpt lat="48.6106" lon="-0.62714">
        <ele>208</ele>
        <time>2025-05-10T17:32:04.000Z</time>
      </trkpt>
      <trkpt lat="48.6105" lon="-0.62718">
        <ele>207.3</ele>
        <time>2025-05-10T17:32:05.000Z</time>
      </trkpt>
      <trkpt lat="48.61039" lon="-0.62722">
        <ele>206.5</ele>
        <time>2025-05-10T17:32:06.000Z</time>
      </trkpt>
      <trkpt lat="48.61028" lon="-0.62725">
        <ele>205.7</ele>
        <time>2025-05-10T17:32:07.000Z</time>
      </trkpt>
      <trkpt lat="48.61017" lon="-0.62729">
        <ele>204.6</ele>
        <time>2025-05-10T17:32:08.000Z</time>
      </trkpt>
      <trkpt lat="48.61006" lon="-0.62732">
        <ele>203.8</ele>
        <time>2025-05-10T17:32:09.000Z</time>
      </trkpt>
      <trkpt lat="48.60994" lon="-0.62735">
        <ele>202.8</ele>
        <time>2025-05-10T17:32:10.000Z</time>
      </trkpt>
      <trkpt lat="48.60983" lon="-0.62739">
        <ele>201.8</ele>
        <time>2025-05-10T17:32:11.000Z</time>
      </trkpt>
      <trkpt lat="48.60972" lon="-0.62743">
        <ele>200.9</ele>
        <time>2025-05-10T17:32:12.000Z</time>
      </trkpt>
      <trkpt lat="48.60961" lon="-0.62748">
        <ele>199.9</ele>
        <time>2025-05-10T17:32:13.000Z</time>
      </trkpt>
      <trkpt lat="48.6095" lon="-0.62753">
        <ele>199</ele>
        <time>2025-05-10T17:32:14.000Z</time>
      </trkpt>
      <trkpt lat="48.6094" lon="-0.62758">
        <ele>198.3</ele>
        <time>2025-05-10T17:32:15.000Z</time>
      </trkpt>
      <trkpt lat="48.6093" lon="-0.62762">
        <ele>197.6</ele>
        <time>2025-05-10T17:32:16.000Z</time>
      </trkpt>
      <trkpt lat="48.60919" lon="-0.62766">
        <ele>196.9</ele>
        <time>2025-05-10T17:32:17.000Z</time>
      </trkpt>
      <trkpt lat="48.60909" lon="-0.62769">
        <ele>196.1</ele>
        <time>2025-05-10T17:32:18.000Z</time>
      </trkpt>
      <trkpt lat="48.60899" lon="-0.62771">
        <ele>195.5</ele>
        <time>2025-05-10T17:32:19.000Z</time>
      </trkpt>
      <trkpt lat="48.60889" lon="-0.62772">
        <ele>194.9</ele>
        <time>2025-05-10T17:32:20.000Z</time>
      </trkpt>
      <trkpt lat="48.60879" lon="-0.62772">
        <ele>194.3</ele>
        <time>2025-05-10T17:32:21.000Z</time>
      </trkpt>
      <trkpt lat="48.60869" lon="-0.62771">
        <ele>193.7</ele>
        <time>2025-05-10T17:32:22.000Z</time>
      </trkpt>
      <trkpt lat="48.60859" lon="-0.62769">
        <ele>192.9</ele>
        <time>2025-05-10T17:32:23.000Z</time>
      </trkpt>
      <trkpt lat="48.60849" lon="-0.62766">
        <ele>192.3</ele>
        <time>2025-05-10T17:32:24.000Z</time>
      </trkpt>
      <trkpt lat="48.6084" lon="-0.62763">
        <ele>191.7</ele>
        <time>2025-05-10T17:32:25.000Z</time>
      </trkpt>
      <trkpt lat="48.60831" lon="-0.62759">
        <ele>191.1</ele>
        <time>2025-05-10T17:32:26.000Z</time>
      </trkpt>
      <trkpt lat="48.60823" lon="-0.62755">
        <ele>190.5</ele>
        <time>2025-05-10T17:32:27.000Z</time>
      </trkpt>
      <trkpt lat="48.60814" lon="-0.62751">
        <ele>189.8</ele>
        <time>2025-05-10T17:32:28.000Z</time>
      </trkpt>
      <trkpt lat="48.60806" lon="-0.62747">
        <ele>189.3</ele>
        <time>2025-05-10T17:32:29.000Z</time>
      </trkpt>
      <trkpt lat="48.60797" lon="-0.62744">
        <ele>188.8</ele>
        <time>2025-05-10T17:32:30.000Z</time>
      </trkpt>
      <trkpt lat="48.60789" lon="-0.6274">
        <ele>188.3</ele>
        <time>2025-05-10T17:32:31.000Z</time>
      </trkpt>
      <trkpt lat="48.60782" lon="-0.62737">
        <ele>187.9</ele>
        <time>2025-05-10T17:32:32.000Z</time>
      </trkpt>
      <trkpt lat="48.60774" lon="-0.62733">
        <ele>187.3</ele>
        <time>2025-05-10T17:32:33.000Z</time>
      </trkpt>
      <trkpt lat="48.60766" lon="-0.62729">
        <ele>186.9</ele>
        <time>2025-05-10T17:32:34.000Z</time>
      </trkpt>
      <trkpt lat="48.60759" lon="-0.62725">
        <ele>186.5</ele>
        <time>2025-05-10T17:32:35.000Z</time>
      </trkpt>
      <trkpt lat="48.60751" lon="-0.62721">
        <ele>186.1</ele>
        <time>2025-05-10T17:32:36.000Z</time>
      </trkpt>
      <trkpt lat="48.60743" lon="-0.62717">
        <ele>185.7</ele>
        <time>2025-05-10T17:32:37.000Z</time>
      </trkpt>
      <trkpt lat="48.60736" lon="-0.62712">
        <ele>185.2</ele>
        <time>2025-05-10T17:32:38.000Z</time>
      </trkpt>
      <trkpt lat="48.60729" lon="-0.62708">
        <ele>184.8</ele>
        <time>2025-05-10T17:32:39.000Z</time>
      </trkpt>
      <trkpt lat="48.60721" lon="-0.62703">
        <ele>184.5</ele>
        <time>2025-05-10T17:32:40.000Z</time>
      </trkpt>
      <trkpt lat="48.60714" lon="-0.62697">
        <ele>184.1</ele>
        <time>2025-05-10T17:32:41.000Z</time>
      </trkpt>
      <trkpt lat="48.60707" lon="-0.62692">
        <ele>183.7</ele>
        <time>2025-05-10T17:32:42.000Z</time>
      </trkpt>
      <trkpt lat="48.607" lon="-0.62685">
        <ele>183.3</ele>
        <time>2025-05-10T17:32:43.000Z</time>
      </trkpt>
      <trkpt lat="48.60693" lon="-0.62679">
        <ele>182.9</ele>
        <time>2025-05-10T17:32:44.000Z</time>
      </trkpt>
      <trkpt lat="48.60686" lon="-0.62672">
        <ele>182.5</ele>
        <time>2025-05-10T17:32:45.000Z</time>
      </trkpt>
      <trkpt lat="48.60679" lon="-0.62665">
        <ele>182.1</ele>
        <time>2025-05-10T17:32:46.000Z</time>
      </trkpt>
      <trkpt lat="48.60672" lon="-0.62657">
        <ele>181.7</ele>
        <time>2025-05-10T17:32:47.000Z</time>
      </trkpt>
      <trkpt lat="48.60666" lon="-0.62649">
        <ele>181.3</ele>
        <time>2025-05-10T17:32:48.000Z</time>
      </trkpt>
      <trkpt lat="48.60659" lon="-0.6264">
        <ele>180.9</ele>
        <time>2025-05-10T17:32:49.000Z</time>
      </trkpt>
      <trkpt lat="48.60653" lon="-0.6263">
        <ele>180.4</ele>
        <time>2025-05-10T17:32:50.000Z</time>
      </trkpt>
      <trkpt lat="48.60647" lon="-0.62621">
        <ele>179.9</ele>
        <time>2025-05-10T17:32:51.000Z</time>
      </trkpt>
      <trkpt lat="48.60642" lon="-0.62612">
        <ele>179.5</ele>
        <time>2025-05-10T17:32:52.000Z</time>
      </trkpt>
      <trkpt lat="48.60636" lon="-0.62603">
        <ele>178.9</ele>
        <time>2025-05-10T17:32:53.000Z</time>
      </trkpt>
      <trkpt lat="48.60631" lon="-0.62594">
        <ele>178.4</ele>
        <time>2025-05-10T17:32:54.000Z</time>
      </trkpt>
      <trkpt lat="48.60627" lon="-0.62585">
        <ele>178</ele>
        <time>2025-05-10T17:32:55.000Z</time>
      </trkpt>
      <trkpt lat="48.60623" lon="-0.62578">
        <ele>177.6</ele>
        <time>2025-05-10T17:32:56.000Z</time>
      </trkpt>
      <trkpt lat="48.6062" lon="-0.62572">
        <ele>177.2</ele>
        <time>2025-05-10T17:32:57.000Z</time>
      </trkpt>
      <trkpt lat="48.60617" lon="-0.62565">
        <ele>176.8</ele>
        <time>2025-05-10T17:32:58.000Z</time>
      </trkpt>
      <trkpt lat="48.60614" lon="-0.62558">
        <ele>176.4</ele>
        <time>2025-05-10T17:32:59.000Z</time>
      </trkpt>
      <trkpt lat="48.60611" lon="-0.62551">
        <ele>176</ele>
        <time>2025-05-10T17:33:00.000Z</time>
      </trkpt>
      <trkpt lat="48.60608" lon="-0.62544">
        <ele>175.7</ele>
        <time>2025-05-10T17:33:01.000Z</time>
      </trkpt>
      <trkpt lat="48.60606" lon="-0.62538">
        <ele>175.4</ele>
        <time>2025-05-10T17:33:02.000Z</time>
      </trkpt>
      <trkpt lat="48.60601" lon="-0.6253">
        <ele>174.6</ele>
        <time>2025-05-10T17:33:04.000Z</time>
      </trkpt>
      <trkpt lat="48.60598" lon="-0.62522">
        <ele>173.8</ele>
        <time>2025-05-10T17:33:07.000Z</time>
      </trkpt>
      <trkpt lat="48.60595" lon="-0.62515">
        <ele>173.3</ele>
        <time>2025-05-10T17:33:09.000Z</time>
      </trkpt>
      <trkpt lat="48.60594" lon="-0.62506">
        <ele>172.9</ele>
        <time>2025-05-10T17:33:11.000Z</time>
      </trkpt>
      <trkpt lat="48.60592" lon="-0.62493">
        <ele>172.6</ele>
        <time>2025-05-10T17:33:13.000Z</time>
      </trkpt>
      <trkpt lat="48.60591" lon="-0.62485">
        <ele>172.4</ele>
        <time>2025-05-10T17:33:14.000Z</time>
      </trkpt>
      <trkpt lat="48.6059" lon="-0.62476">
        <ele>172.2</ele>
        <time>2025-05-10T17:33:15.000Z</time>
      </trkpt>
      <trkpt lat="48.60589" lon="-0.62466">
        <ele>172</ele>
        <time>2025-05-10T17:33:16.000Z</time>
      </trkpt>
      <trkpt lat="48.60587" lon="-0.62456">
        <ele>171.8</ele>
        <time>2025-05-10T17:33:17.000Z</time>
      </trkpt>
      <trkpt lat="48.60585" lon="-0.62446">
        <ele>171.6</ele>
        <time>2025-05-10T17:33:18.000Z</time>
      </trkpt>
      <trkpt lat="48.60584" lon="-0.62436">
        <ele>171.3</ele>
        <time>2025-05-10T17:33:19.000Z</time>
      </trkpt>
      <trkpt lat="48.60582" lon="-0.62425">
        <ele>171.2</ele>
        <time>2025-05-10T17:33:20.000Z</time>
      </trkpt>
      <trkpt lat="48.6058" lon="-0.62415">
        <ele>170.9</ele>
        <time>2025-05-10T17:33:21.000Z</time>
      </trkpt>
      <trkpt lat="48.60578" lon="-0.62406">
        <ele>170.5</ele>
        <time>2025-05-10T17:33:22.000Z</time>
      </trkpt>
      <trkpt lat="48.60577" lon="-0.62398">
        <ele>170.1</ele>
        <time>2025-05-10T17:33:23.000Z</time>
      </trkpt>
      <trkpt lat="48.60574" lon="-0.62388">
        <ele>169.3</ele>
        <time>2025-05-10T17:33:25.000Z</time>
      </trkpt>
      <trkpt lat="48.60569" lon="-0.62384">
        <ele>168.5</ele>
        <time>2025-05-10T17:33:27.000Z</time>
      </trkpt>
      <trkpt lat="48.6056" lon="-0.62382">
        <ele>167.7</ele>
        <time>2025-05-10T17:33:29.000Z</time>
      </trkpt>
      <trkpt lat="48.60555" lon="-0.62381">
        <ele>167.2</ele>
        <time>2025-05-10T17:33:30.000Z</time>
      </trkpt>
      <trkpt lat="48.6055" lon="-0.62379">
        <ele>166.8</ele>
        <time>2025-05-10T17:33:31.000Z</time>
      </trkpt>
      <trkpt lat="48.60545" lon="-0.62379">
        <ele>166.3</ele>
        <time>2025-05-10T17:33:32.000Z</time>
      </trkpt>
      <trkpt lat="48.60537" lon="-0.62385">
        <ele>165.5</ele>
        <time>2025-05-10T17:33:34.000Z</time>
      </trkpt>
      <trkpt lat="48.60534" lon="-0.62391">
        <ele>165.1</ele>
        <time>2025-05-10T17:33:35.000Z</time>
      </trkpt>
      <trkpt lat="48.60532" lon="-0.62399">
        <ele>164.6</ele>
        <time>2025-05-10T17:33:36.000Z</time>
      </trkpt>
      <trkpt lat="48.6053" lon="-0.62407">
        <ele>164.1</ele>
        <time>2025-05-10T17:33:37.000Z</time>
      </trkpt>
      <trkpt lat="48.60529" lon="-0.62416">
        <ele>163.6</ele>
        <time>2025-05-10T17:33:38.000Z</time>
      </trkpt>
      <trkpt lat="48.60527" lon="-0.62425">
        <ele>163.1</ele>
        <time>2025-05-10T17:33:39.000Z</time>
      </trkpt>
      <trkpt lat="48.60525" lon="-0.62435">
        <ele>162.8</ele>
        <time>2025-05-10T17:33:40.000Z</time>
      </trkpt>
      <trkpt lat="48.60524" lon="-0.62445">
        <ele>162.3</ele>
        <time>2025-05-10T17:33:41.000Z</time>
      </trkpt>
      <trkpt lat="48.60522" lon="-0.62456">
        <ele>161.8</ele>
        <time>2025-05-10T17:33:42.000Z</time>
      </trkpt>
      <trkpt lat="48.60521" lon="-0.62467">
        <ele>161.2</ele>
        <time>2025-05-10T17:33:43.000Z</time>
      </trkpt>
      <trkpt lat="48.6052" lon="-0.62478">
        <ele>160.6</ele>
        <time>2025-05-10T17:33:44.000Z</time>
      </trkpt>
      <trkpt lat="48.60519" lon="-0.62489">
        <ele>160.1</ele>
        <time>2025-05-10T17:33:45.000Z</time>
      </trkpt>
      <trkpt lat="48.60519" lon="-0.625">
        <ele>159.7</ele>
        <time>2025-05-10T17:33:46.000Z</time>
      </trkpt>
      <trkpt lat="48.60519" lon="-0.62511">
        <ele>159.2</ele>
        <time>2025-05-10T17:33:47.000Z</time>
      </trkpt>
      <trkpt lat="48.60518" lon="-0.62521">
        <ele>158.5</ele>
        <time>2025-05-10T17:33:48.000Z</time>
      </trkpt>
      <trkpt lat="48.60517" lon="-0.62529">
        <ele>157.9</ele>
        <time>2025-05-10T17:33:49.000Z</time>
      </trkpt>
      <trkpt lat="48.60516" lon="-0.62537">
        <ele>157.3</ele>
        <time>2025-05-10T17:33:50.000Z</time>
      </trkpt>
      <trkpt lat="48.60515" lon="-0.62544">
        <ele>156.7</ele>
        <time>2025-05-10T17:33:51.000Z</time>
      </trkpt>
      <trkpt lat="48.60513" lon="-0.6255">
        <ele>156.1</ele>
        <time>2025-05-10T17:33:52.000Z</time>
      </trkpt>
      <trkpt lat="48.60506" lon="-0.62559">
        <ele>155</ele>
        <time>2025-05-10T17:33:54.000Z</time>
      </trkpt>
      <trkpt lat="48.605" lon="-0.62565">
        <ele>154.1</ele>
        <time>2025-05-10T17:33:56.000Z</time>
      </trkpt>
      <trkpt lat="48.60494" lon="-0.62571">
        <ele>153.3</ele>
        <time>2025-05-10T17:33:58.000Z</time>
      </trkpt>
      <trkpt lat="48.60489" lon="-0.6258">
        <ele>152.5</ele>
        <time>2025-05-10T17:34:00.000Z</time>
      </trkpt>
      <trkpt lat="48.60488" lon="-0.62589">
        <ele>151.9</ele>
        <time>2025-05-10T17:34:02.000Z</time>
      </trkpt>
      <trkpt lat="48.60486" lon="-0.62597">
        <ele>150.8</ele>
        <time>2025-05-10T17:34:05.000Z</time>
      </trkpt>
      <trkpt lat="48.6048" lon="-0.626">
        <ele>149.8</ele>
        <time>2025-05-10T17:34:08.000Z</time>
      </trkpt>
      <trkpt lat="48.60475" lon="-0.62599">
        <ele>148.4</ele>
        <time>2025-05-10T17:34:14.000Z</time>
      </trkpt>
      <trkpt lat="48.60469" lon="-0.626">
        <ele>147.5</ele>
        <time>2025-05-10T17:34:22.000Z</time>
      </trkpt>
      <trkpt lat="48.60465" lon="-0.62602">
        <ele>147.4</ele>
        <time>2025-05-10T17:34:30.000Z</time>
      </trkpt>
      <trkpt lat="48.6046" lon="-0.62603">
        <ele>147.4</ele>
        <time>2025-05-10T17:34:36.000Z</time>
      </trkpt>
      <trkpt lat="48.60454" lon="-0.62606">
        <ele>147.3</ele>
        <time>2025-05-10T17:34:42.000Z</time>
      </trkpt>
      <trkpt lat="48.6045" lon="-0.6261">
        <ele>147.2</ele>
        <time>2025-05-10T17:34:51.000Z</time>
      </trkpt>
      <trkpt lat="48.60445" lon="-0.6261">
        <ele>147</ele>
        <time>2025-05-10T17:34:58.000Z</time>
      </trkpt>
      <trkpt lat="48.6044" lon="-0.62611">
        <ele>146.9</ele>
        <time>2025-05-10T17:35:03.000Z</time>
      </trkpt>
      <trkpt lat="48.60436" lon="-0.62612">
        <ele>146.7</ele>
        <time>2025-05-10T17:35:11.000Z</time>
      </trkpt>
      <trkpt lat="48.60436" lon="-0.62612">
        <ele>146.7</ele>
        <time>2025-05-10T17:35:12.000Z</time>
      </trkpt>
      <trkpt lat="48.60431" lon="-0.62612">
        <ele>146.4</ele>
        <time>2025-05-10T17:35:27.000Z</time>
      </trkpt>
      <trkpt lat="48.60427" lon="-0.62609">
        <ele>146.4</ele>
        <time>2025-05-10T17:35:32.000Z</time>
      </trkpt>
      <trkpt lat="48.60422" lon="-0.6261">
        <ele>146.4</ele>
        <time>2025-05-10T17:35:37.000Z</time>
      </trkpt>
      <trkpt lat="48.60417" lon="-0.62613">
        <ele>146.7</ele>
        <time>2025-05-10T17:35:47.000Z</time>
      </trkpt>
      <trkpt lat="48.60415" lon="-0.62615">
        <ele>146.7</ele>
        <time>2025-05-10T17:35:48.000Z</time>
      </trkpt>
      <trkpt lat="48.60413" lon="-0.62618">
        <ele>146.7</ele>
        <time>2025-05-10T17:35:49.000Z</time>
      </trkpt>
      <trkpt lat="48.60411" lon="-0.6262">
        <ele>146.7</ele>
        <time>2025-05-10T17:35:50.000Z</time>
      </trkpt>
      <trkpt lat="48.60406" lon="-0.6262">
        <ele>146.8</ele>
        <time>2025-05-10T17:35:53.000Z</time>
      </trkpt>
      <trkpt lat="48.60399" lon="-0.62618">
        <ele>146.8</ele>
        <time>2025-05-10T17:35:56.000Z</time>
      </trkpt>
      <trkpt lat="48.60392" lon="-0.62618">
        <ele>146.8</ele>
        <time>2025-05-10T17:35:58.000Z</time>
      </trkpt>
      <trkpt lat="48.60385" lon="-0.62619">
        <ele>146.9</ele>
        <time>2025-05-10T17:36:00.000Z</time>
      </trkpt>
      <trkpt lat="48.60378" lon="-0.62624">
        <ele>146.9</ele>
        <time>2025-05-10T17:36:02.000Z</time>
      </trkpt>
      <trkpt lat="48.60371" lon="-0.62629">
        <ele>147</ele>
        <time>2025-05-10T17:36:04.000Z</time>
      </trkpt>
      <trkpt lat="48.60365" lon="-0.62632">
        <ele>147.1</ele>
        <time>2025-05-10T17:36:06.000Z</time>
      </trkpt>
      <trkpt lat="48.60357" lon="-0.62634">
        <ele>147.3</ele>
        <time>2025-05-10T17:36:08.000Z</time>
      </trkpt>
      <trkpt lat="48.60349" lon="-0.62636">
        <ele>147.6</ele>
        <time>2025-05-10T17:36:10.000Z</time>
      </trkpt>
      <trkpt lat="48.60342" lon="-0.62637">
        <ele>148</ele>
        <time>2025-05-10T17:36:12.000Z</time>
      </trkpt>
      <trkpt lat="48.60334" lon="-0.6264">
        <ele>148.4</ele>
        <time>2025-05-10T17:36:14.000Z</time>
      </trkpt>
      <trkpt lat="48.60326" lon="-0.62643">
        <ele>148.9</ele>
        <time>2025-05-10T17:36:16.000Z</time>
      </trkpt>
      <trkpt lat="48.60318" lon="-0.62647">
        <ele>149.5</ele>
        <time>2025-05-10T17:36:18.000Z</time>
      </trkpt>
      <trkpt lat="48.6031" lon="-0.62651">
        <ele>150.1</ele>
        <time>2025-05-10T17:36:20.000Z</time>
      </trkpt>
      <trkpt lat="48.60302" lon="-0.62655">
        <ele>150.8</ele>
        <time>2025-05-10T17:36:22.000Z</time>
      </trkpt>
      <trkpt lat="48.60296" lon="-0.62659">
        <ele>151.6</ele>
        <time>2025-05-10T17:36:24.000Z</time>
      </trkpt>
      <trkpt lat="48.60291" lon="-0.62662">
        <ele>152.4</ele>
        <time>2025-05-10T17:36:26.000Z</time>
      </trkpt>
      <trkpt lat="48.60285" lon="-0.62665">
        <ele>153.2</ele>
        <time>2025-05-10T17:36:28.000Z</time>
      </trkpt>
      <trkpt lat="48.6028" lon="-0.62669">
        <ele>154</ele>
        <time>2025-05-10T17:36:30.000Z</time>
      </trkpt>
      <trkpt lat="48.60274" lon="-0.62673">
        <ele>154.8</ele>
        <time>2025-05-10T17:36:32.000Z</time>
      </trkpt>
      <trkpt lat="48.60268" lon="-0.62677">
        <ele>155.8</ele>
        <time>2025-05-10T17:36:34.000Z</time>
      </trkpt>
      <trkpt lat="48.60262" lon="-0.62681">
        <ele>156.8</ele>
        <time>2025-05-10T17:36:36.000Z</time>
      </trkpt>
      <trkpt lat="48.60257" lon="-0.62686">
        <ele>157.9</ele>
        <time>2025-05-10T17:36:38.000Z</time>
      </trkpt>
      <trkpt lat="48.60253" lon="-0.62689">
        <ele>158.8</ele>
        <time>2025-05-10T17:36:40.000Z</time>
      </trkpt>
      <trkpt lat="48.60249" lon="-0.62695">
        <ele>159.9</ele>
        <time>2025-05-10T17:36:42.000Z</time>
      </trkpt>
      <trkpt lat="48.60246" lon="-0.62704">
        <ele>161.1</ele>
        <time>2025-05-10T17:36:44.000Z</time>
      </trkpt>
      <trkpt lat="48.60242" lon="-0.6271">
        <ele>162.2</ele>
        <time>2025-05-10T17:36:46.000Z</time>
      </trkpt>
      <trkpt lat="48.60238" lon="-0.62715">
        <ele>163.3</ele>
        <time>2025-05-10T17:36:48.000Z</time>
      </trkpt>
      <trkpt lat="48.60235" lon="-0.6272">
        <ele>164.3</ele>
        <time>2025-05-10T17:36:50.000Z</time>
      </trkpt>
      <trkpt lat="48.6023" lon="-0.62723">
        <ele>166</ele>
        <time>2025-05-10T17:36:53.000Z</time>
      </trkpt>
      <trkpt lat="48.60225" lon="-0.62726">
        <ele>167</ele>
        <time>2025-05-10T17:36:55.000Z</time>
      </trkpt>
      <trkpt lat="48.60221" lon="-0.62729">
        <ele>167.9</ele>
        <time>2025-05-10T17:36:57.000Z</time>
      </trkpt>
      <trkpt lat="48.60217" lon="-0.62733">
        <ele>168.9</ele>
        <time>2025-05-10T17:36:59.000Z</time>
      </trkpt>
      <trkpt lat="48.60213" lon="-0.62735">
        <ele>169.7</ele>
        <time>2025-05-10T17:37:01.000Z</time>
      </trkpt>
      <trkpt lat="48.60208" lon="-0.62739">
        <ele>170.7</ele>
        <time>2025-05-10T17:37:03.000Z</time>
      </trkpt>
      <trkpt lat="48.60204" lon="-0.62742">
        <ele>171.5</ele>
        <time>2025-05-10T17:37:05.000Z</time>
      </trkpt>
      <trkpt lat="48.60199" lon="-0.62746">
        <ele>172.3</ele>
        <time>2025-05-10T17:37:07.000Z</time>
      </trkpt>
      <trkpt lat="48.60194" lon="-0.6275">
        <ele>173.2</ele>
        <time>2025-05-10T17:37:09.000Z</time>
      </trkpt>
      <trkpt lat="48.6019" lon="-0.62752">
        <ele>174</ele>
        <time>2025-05-10T17:37:11.000Z</time>
      </trkpt>
      <trkpt lat="48.60185" lon="-0.62755">
        <ele>174.9</ele>
        <time>2025-05-10T17:37:13.000Z</time>
      </trkpt>
      <trkpt lat="48.6018" lon="-0.62757">
        <ele>175.7</ele>
        <time>2025-05-10T17:37:15.000Z</time>
      </trkpt>
      <trkpt lat="48.60174" lon="-0.6276">
        <ele>176.9</ele>
        <time>2025-05-10T17:37:18.000Z</time>
      </trkpt>
      <trkpt lat="48.60169" lon="-0.62761">
        <ele>177.6</ele>
        <time>2025-05-10T17:37:20.000Z</time>
      </trkpt>
      <trkpt lat="48.60164" lon="-0.62763">
        <ele>178.4</ele>
        <time>2025-05-10T17:37:22.000Z</time>
      </trkpt>
      <trkpt lat="48.60159" lon="-0.62763">
        <ele>179.2</ele>
        <time>2025-05-10T17:37:24.000Z</time>
      </trkpt>
      <trkpt lat="48.60154" lon="-0.62765">
        <ele>180</ele>
        <time>2025-05-10T17:37:26.000Z</time>
      </trkpt>
      <trkpt lat="48.60149" lon="-0.62768">
        <ele>180.9</ele>
        <time>2025-05-10T17:37:28.000Z</time>
      </trkpt>
      <trkpt lat="48.60144" lon="-0.6277">
        <ele>181.7</ele>
        <time>2025-05-10T17:37:30.000Z</time>
      </trkpt>
      <trkpt lat="48.6014" lon="-0.62772">
        <ele>182.4</ele>
        <time>2025-05-10T17:37:32.000Z</time>
      </trkpt>
      <trkpt lat="48.60134" lon="-0.62775">
        <ele>183.3</ele>
        <time>2025-05-10T17:37:34.000Z</time>
      </trkpt>
      <trkpt lat="48.60128" lon="-0.62778">
        <ele>183.9</ele>
        <time>2025-05-10T17:37:36.000Z</time>
      </trkpt>
      <trkpt lat="48.60123" lon="-0.62782">
        <ele>184.5</ele>
        <time>2025-05-10T17:37:38.000Z</time>
      </trkpt>
      <trkpt lat="48.60119" lon="-0.62786">
        <ele>185</ele>
        <time>2025-05-10T17:37:40.000Z</time>
      </trkpt>
      <trkpt lat="48.60114" lon="-0.62791">
        <ele>185.6</ele>
        <time>2025-05-10T17:37:42.000Z</time>
      </trkpt>
      <trkpt lat="48.60108" lon="-0.62795">
        <ele>186.2</ele>
        <time>2025-05-10T17:37:44.000Z</time>
      </trkpt>
      <trkpt lat="48.60103" lon="-0.628">
        <ele>186.6</ele>
        <time>2025-05-10T17:37:46.000Z</time>
      </trkpt>
      <trkpt lat="48.60098" lon="-0.62805">
        <ele>187.1</ele>
        <time>2025-05-10T17:37:48.000Z</time>
      </trkpt>
      <trkpt lat="48.60093" lon="-0.62809">
        <ele>187.5</ele>
        <time>2025-05-10T17:37:50.000Z</time>
      </trkpt>
      <trkpt lat="48.60088" lon="-0.62813">
        <ele>187.9</ele>
        <time>2025-05-10T17:37:52.000Z</time>
      </trkpt>
      <trkpt lat="48.60083" lon="-0.62817">
        <ele>188.3</ele>
        <time>2025-05-10T17:37:54.000Z</time>
      </trkpt>
      <trkpt lat="48.60077" lon="-0.6282">
        <ele>188.7</ele>
        <time>2025-05-10T17:37:56.000Z</time>
      </trkpt>
      <trkpt lat="48.60071" lon="-0.62823">
        <ele>189.1</ele>
        <time>2025-05-10T17:37:58.000Z</time>
      </trkpt>
      <trkpt lat="48.60065" lon="-0.62827">
        <ele>189.5</ele>
        <time>2025-05-10T17:38:00.000Z</time>
      </trkpt>
      <trkpt lat="48.60059" lon="-0.6283">
        <ele>189.9</ele>
        <time>2025-05-10T17:38:02.000Z</time>
      </trkpt>
      <trkpt lat="48.60053" lon="-0.62834">
        <ele>190.3</ele>
        <time>2025-05-10T17:38:04.000Z</time>
      </trkpt>
      <trkpt lat="48.60047" lon="-0.62837">
        <ele>190.7</ele>
        <time>2025-05-10T17:38:06.000Z</time>
      </trkpt>
      <trkpt lat="48.60041" lon="-0.6284">
        <ele>191.1</ele>
        <time>2025-05-10T17:38:08.000Z</time>
      </trkpt>
      <trkpt lat="48.60035" lon="-0.62843">
        <ele>191.6</ele>
        <time>2025-05-10T17:38:10.000Z</time>
      </trkpt>
      <trkpt lat="48.60029" lon="-0.62847">
        <ele>192.1</ele>
        <time>2025-05-10T17:38:12.000Z</time>
      </trkpt>
      <trkpt lat="48.60023" lon="-0.6285">
        <ele>192.7</ele>
        <time>2025-05-10T17:38:14.000Z</time>
      </trkpt>
      <trkpt lat="48.60017" lon="-0.62854">
        <ele>193.2</ele>
        <time>2025-05-10T17:38:16.000Z</time>
      </trkpt>
      <trkpt lat="48.60012" lon="-0.62857">
        <ele>193.7</ele>
        <time>2025-05-10T17:38:18.000Z</time>
      </trkpt>
      <trkpt lat="48.60006" lon="-0.6286">
        <ele>194.3</ele>
        <time>2025-05-10T17:38:20.000Z</time>
      </trkpt>
      <trkpt lat="48.6" lon="-0.62863">
        <ele>194.8</ele>
        <time>2025-05-10T17:38:22.000Z</time>
      </trkpt>
      <trkpt lat="48.59994" lon="-0.62866">
        <ele>195.4</ele>
        <time>2025-05-10T17:38:24.000Z</time>
      </trkpt>
      <trkpt lat="48.59988" lon="-0.62868">
        <ele>196</ele>
        <time>2025-05-10T17:38:26.000Z</time>
      </trkpt>
      <trkpt lat="48.59983" lon="-0.62869">
        <ele>196.5</ele>
        <time>2025-05-10T17:38:28.000Z</time>
      </trkpt>
      <trkpt lat="48.59978" lon="-0.62871">
        <ele>197</ele>
        <time>2025-05-10T17:38:30.000Z</time>
      </trkpt>
      <trkpt lat="48.59972" lon="-0.62874">
        <ele>197.7</ele>
        <time>2025-05-10T17:38:33.000Z</time>
      </trkpt>
      <trkpt lat="48.59966" lon="-0.62875">
        <ele>198.5</ele>
        <time>2025-05-10T17:38:36.000Z</time>
      </trkpt>
      <trkpt lat="48.59961" lon="-0.62877">
        <ele>199</ele>
        <time>2025-05-10T17:38:39.000Z</time>
      </trkpt>
      <trkpt lat="48.5996" lon="-0.62878">
        <ele>199.5</ele>
        <time>2025-05-10T17:38:42.000Z</time>
      </trkpt>
      <trkpt lat="48.5996" lon="-0.62877">
        <ele>199.7</ele>
        <time>2025-05-10T17:38:43.000Z</time>
      </trkpt>
      <trkpt lat="48.5996" lon="-0.62877">
        <ele>199.8</ele>
        <time>2025-05-10T17:38:44.000Z</time>
      </trkpt>
      <trkpt lat="48.59957" lon="-0.62877">
        <ele>201.1</ele>
        <time>2025-05-10T17:40:35.000Z</time>
      </trkpt>
      <trkpt lat="48.59957" lon="-0.62877">
        <ele>201.1</ele>
        <time>2025-05-10T17:40:40.000Z</time>
      </trkpt>
      <trkpt lat="48.59957" lon="-0.62877">
        <ele>201.1</ele>
        <time>2025-05-10T17:40:41.000Z</time>
      </trkpt>
      <trkpt lat="48.59954" lon="-0.62884">
        <ele>201.1</ele>
        <time>2025-05-10T17:43:00.000Z</time>
      </trkpt>
      <trkpt lat="48.59951" lon="-0.62893">
        <ele>201.1</ele>
        <time>2025-05-10T17:43:03.000Z</time>
      </trkpt>
      <trkpt lat="48.59947" lon="-0.62901">
        <ele>201.1</ele>
        <time>2025-05-10T17:43:06.000Z</time>
      </trkpt>
      <trkpt lat="48.59943" lon="-0.62908">
        <ele>201.1</ele>
        <time>2025-05-10T17:43:08.000Z</time>
      </trkpt>
      <trkpt lat="48.59941" lon="-0.62916">
        <ele>201.1</ele>
        <time>2025-05-10T17:43:10.000Z</time>
      </trkpt>
      <trkpt lat="48.59937" lon="-0.62921">
        <ele>201.1</ele>
        <time>2025-05-10T17:43:12.000Z</time>
      </trkpt>
      <trkpt lat="48.59933" lon="-0.62927">
        <ele>201.2</ele>
        <time>2025-05-10T17:43:14.000Z</time>
      </trkpt>
      <trkpt lat="48.59929" lon="-0.62934">
        <ele>201.2</ele>
        <time>2025-05-10T17:43:16.000Z</time>
      </trkpt>
      <trkpt lat="48.59925" lon="-0.6294">
        <ele>201.3</ele>
        <time>2025-05-10T17:43:18.000Z</time>
      </trkpt>
      <trkpt lat="48.5992" lon="-0.62946">
        <ele>201.5</ele>
        <time>2025-05-10T17:43:20.000Z</time>
      </trkpt>
      <trkpt lat="48.59916" lon="-0.62953">
        <ele>201.8</ele>
        <time>2025-05-10T17:43:22.000Z</time>
      </trkpt>
      <trkpt lat="48.59911" lon="-0.62961">
        <ele>202.4</ele>
        <time>2025-05-10T17:43:24.000Z</time>
      </trkpt>
      <trkpt lat="48.59907" lon="-0.62967">
        <ele>203</ele>
        <time>2025-05-10T17:43:26.000Z</time>
      </trkpt>
      <trkpt lat="48.59902" lon="-0.62974">
        <ele>203.8</ele>
        <time>2025-05-10T17:43:28.000Z</time>
      </trkpt>
      <trkpt lat="48.59897" lon="-0.62982">
        <ele>204.6</ele>
        <time>2025-05-10T17:43:30.000Z</time>
      </trkpt>
      <trkpt lat="48.59893" lon="-0.62989">
        <ele>205.4</ele>
        <time>2025-05-10T17:43:32.000Z</time>
      </trkpt>
      <trkpt lat="48.59888" lon="-0.62996">
        <ele>206.3</ele>
        <time>2025-05-10T17:43:34.000Z</time>
      </trkpt>
      <trkpt lat="48.59883" lon="-0.63004">
        <ele>207</ele>
        <time>2025-05-10T17:43:36.000Z</time>
      </trkpt>
      <trkpt lat="48.59878" lon="-0.63011">
        <ele>207.8</ele>
        <time>2025-05-10T17:43:38.000Z</time>
      </trkpt>
      <trkpt lat="48.59873" lon="-0.63019">
        <ele>208.5</ele>
        <time>2025-05-10T17:43:40.000Z</time>
      </trkpt>
      <trkpt lat="48.59868" lon="-0.63026">
        <ele>209.1</ele>
        <time>2025-05-10T17:43:42.000Z</time>
      </trkpt>
      <trkpt lat="48.59863" lon="-0.63033">
        <ele>209.7</ele>
        <time>2025-05-10T17:43:44.000Z</time>
      </trkpt>
      <trkpt lat="48.59858" lon="-0.63042">
        <ele>210.3</ele>
        <time>2025-05-10T17:43:46.000Z</time>
      </trkpt>
      <trkpt lat="48.59852" lon="-0.63049">
        <ele>211</ele>
        <time>2025-05-10T17:43:48.000Z</time>
      </trkpt>
      <trkpt lat="48.59847" lon="-0.63058">
        <ele>211.6</ele>
        <time>2025-05-10T17:43:50.000Z</time>
      </trkpt>
      <trkpt lat="48.59843" lon="-0.63066">
        <ele>212.2</ele>
        <time>2025-05-10T17:43:52.000Z</time>
      </trkpt>
      <trkpt lat="48.59838" lon="-0.63073">
        <ele>212.9</ele>
        <time>2025-05-10T17:43:54.000Z</time>
      </trkpt>
      <trkpt lat="48.59832" lon="-0.63081">
        <ele>213.5</ele>
        <time>2025-05-10T17:43:56.000Z</time>
      </trkpt>
      <trkpt lat="48.59827" lon="-0.63089">
        <ele>214.2</ele>
        <time>2025-05-10T17:43:58.000Z</time>
      </trkpt>
      <trkpt lat="48.59821" lon="-0.63096">
        <ele>214.8</ele>
        <time>2025-05-10T17:44:00.000Z</time>
      </trkpt>
      <trkpt lat="48.59815" lon="-0.63104">
        <ele>215.4</ele>
        <time>2025-05-10T17:44:02.000Z</time>
      </trkpt>
      <trkpt lat="48.59809" lon="-0.63112">
        <ele>216</ele>
        <time>2025-05-10T17:44:04.000Z</time>
      </trkpt>
      <trkpt lat="48.59803" lon="-0.63119">
        <ele>216.6</ele>
        <time>2025-05-10T17:44:06.000Z</time>
      </trkpt>
      <trkpt lat="48.59799" lon="-0.63127">
        <ele>217.4</ele>
        <time>2025-05-10T17:44:08.000Z</time>
      </trkpt>
      <trkpt lat="48.59794" lon="-0.63136">
        <ele>218.1</ele>
        <time>2025-05-10T17:44:10.000Z</time>
      </trkpt>
      <trkpt lat="48.5979" lon="-0.63145">
        <ele>218.8</ele>
        <time>2025-05-10T17:44:12.000Z</time>
      </trkpt>
      <trkpt lat="48.59786" lon="-0.63154">
        <ele>219.6</ele>
        <time>2025-05-10T17:44:14.000Z</time>
      </trkpt>
      <trkpt lat="48.59782" lon="-0.63163">
        <ele>220.3</ele>
        <time>2025-05-10T17:44:16.000Z</time>
      </trkpt>
      <trkpt lat="48.59777" lon="-0.63171">
        <ele>221.1</ele>
        <time>2025-05-10T17:44:18.000Z</time>
      </trkpt>
      <trkpt lat="48.59774" lon="-0.6318">
        <ele>221.9</ele>
        <time>2025-05-10T17:44:20.000Z</time>
      </trkpt>
      <trkpt lat="48.5977" lon="-0.63186">
        <ele>222.6</ele>
        <time>2025-05-10T17:44:22.000Z</time>
      </trkpt>
      <trkpt lat="48.59764" lon="-0.63192">
        <ele>223.4</ele>
        <time>2025-05-10T17:44:24.000Z</time>
      </trkpt>
      <trkpt lat="48.59757" lon="-0.63197">
        <ele>224.1</ele>
        <time>2025-05-10T17:44:26.000Z</time>
      </trkpt>
      <trkpt lat="48.5975" lon="-0.63201">
        <ele>225</ele>
        <time>2025-05-10T17:44:28.000Z</time>
      </trkpt>
      <trkpt lat="48.59744" lon="-0.63206">
        <ele>225.8</ele>
        <time>2025-05-10T17:44:30.000Z</time>
      </trkpt>
      <trkpt lat="48.59737" lon="-0.63211">
        <ele>226.5</ele>
        <time>2025-05-10T17:44:32.000Z</time>
      </trkpt>
      <trkpt lat="48.5973" lon="-0.63215">
        <ele>227.2</ele>
        <time>2025-05-10T17:44:34.000Z</time>
      </trkpt>
      <trkpt lat="48.59723" lon="-0.63219">
        <ele>227.8</ele>
        <time>2025-05-10T17:44:36.000Z</time>
      </trkpt>
      <trkpt lat="48.59715" lon="-0.63224">
        <ele>228.4</ele>
        <time>2025-05-10T17:44:38.000Z</time>
      </trkpt>
      <trkpt lat="48.59708" lon="-0.63228">
        <ele>229</ele>
        <time>2025-05-10T17:44:40.000Z</time>
      </trkpt>
      <trkpt lat="48.59703" lon="-0.63231">
        <ele>229.4</ele>
        <time>2025-05-10T17:44:42.000Z</time>
      </trkpt>
      <trkpt lat="48.597" lon="-0.63236">
        <ele>230.1</ele>
        <time>2025-05-10T17:44:45.000Z</time>
      </trkpt>
      <trkpt lat="48.597" lon="-0.63241">
        <ele>230.7</ele>
        <time>2025-05-10T17:44:51.000Z</time>
      </trkpt>
      <trkpt lat="48.597" lon="-0.63241">
        <ele>230.8</ele>
        <time>2025-05-10T17:44:52.000Z</time>
      </trkpt>
      <trkpt lat="48.59699" lon="-0.63243">
        <ele>231.3</ele>
        <time>2025-05-10T17:45:05.000Z</time>
      </trkpt>
      <trkpt lat="48.59699" lon="-0.63243">
        <ele>231.3</ele>
        <time>2025-05-10T17:45:06.000Z</time>
      </trkpt>
      <trkpt lat="48.59698" lon="-0.63255">
        <ele>231.3</ele>
        <time>2025-05-10T17:45:53.000Z</time>
      </trkpt>
      <trkpt lat="48.59699" lon="-0.63257">
        <ele>231.3</ele>
        <time>2025-05-10T17:45:54.000Z</time>
      </trkpt>
      <trkpt lat="48.59701" lon="-0.63266">
        <ele>231.3</ele>
        <time>2025-05-10T17:45:57.000Z</time>
      </trkpt>
      <trkpt lat="48.59704" lon="-0.63276">
        <ele>231.3</ele>
        <time>2025-05-10T17:45:59.000Z</time>
      </trkpt>
      <trkpt lat="48.59706" lon="-0.63286">
        <ele>231.2</ele>
        <time>2025-05-10T17:46:01.000Z</time>
      </trkpt>
      <trkpt lat="48.59709" lon="-0.633">
        <ele>231.2</ele>
        <time>2025-05-10T17:46:03.000Z</time>
      </trkpt>
      <trkpt lat="48.5971" lon="-0.63307">
        <ele>231.2</ele>
        <time>2025-05-10T17:46:04.000Z</time>
      </trkpt>
      <trkpt lat="48.59713" lon="-0.63316">
        <ele>231.2</ele>
        <time>2025-05-10T17:46:05.000Z</time>
      </trkpt>
      <trkpt lat="48.59714" lon="-0.63324">
        <ele>231.1</ele>
        <time>2025-05-10T17:46:06.000Z</time>
      </trkpt>
      <trkpt lat="48.59716" lon="-0.63333">
        <ele>231.1</ele>
        <time>2025-05-10T17:46:07.000Z</time>
      </trkpt>
      <trkpt lat="48.59717" lon="-0.63342">
        <ele>231.1</ele>
        <time>2025-05-10T17:46:08.000Z</time>
      </trkpt>
      <trkpt lat="48.59718" lon="-0.63352">
        <ele>231</ele>
        <time>2025-05-10T17:46:09.000Z</time>
      </trkpt>
      <trkpt lat="48.59719" lon="-0.63361">
        <ele>231</ele>
        <time>2025-05-10T17:46:10.000Z</time>
      </trkpt>
      <trkpt lat="48.5972" lon="-0.6337">
        <ele>230.9</ele>
        <time>2025-05-10T17:46:11.000Z</time>
      </trkpt>
      <trkpt lat="48.59721" lon="-0.63379">
        <ele>230.8</ele>
        <time>2025-05-10T17:46:12.000Z</time>
      </trkpt>
      <trkpt lat="48.59722" lon="-0.63389">
        <ele>230.7</ele>
        <time>2025-05-10T17:46:13.000Z</time>
      </trkpt>
      <trkpt lat="48.59724" lon="-0.63397">
        <ele>230.6</ele>
        <time>2025-05-10T17:46:14.000Z</time>
      </trkpt>
      <trkpt lat="48.59725" lon="-0.63406">
        <ele>230.5</ele>
        <time>2025-05-10T17:46:15.000Z</time>
      </trkpt>
      <trkpt lat="48.59725" lon="-0.63415">
        <ele>230.4</ele>
        <time>2025-05-10T17:46:16.000Z</time>
      </trkpt>
      <trkpt lat="48.59727" lon="-0.63423">
        <ele>230.3</ele>
        <time>2025-05-10T17:46:17.000Z</time>
      </trkpt>
      <trkpt lat="48.59728" lon="-0.63431">
        <ele>230.1</ele>
        <time>2025-05-10T17:46:18.000Z</time>
      </trkpt>
      <trkpt lat="48.59729" lon="-0.63439">
        <ele>229.9</ele>
        <time>2025-05-10T17:46:19.000Z</time>
      </trkpt>
      <trkpt lat="48.59731" lon="-0.63447">
        <ele>229.7</ele>
        <time>2025-05-10T17:46:20.000Z</time>
      </trkpt>
      <trkpt lat="48.59733" lon="-0.63455">
        <ele>229.6</ele>
        <time>2025-05-10T17:46:21.000Z</time>
      </trkpt>
      <trkpt lat="48.59735" lon="-0.63462">
        <ele>229.4</ele>
        <time>2025-05-10T17:46:22.000Z</time>
      </trkpt>
      <trkpt lat="48.59738" lon="-0.6347">
        <ele>229.2</ele>
        <time>2025-05-10T17:46:23.000Z</time>
      </trkpt>
      <trkpt lat="48.5974" lon="-0.63478">
        <ele>229</ele>
        <time>2025-05-10T17:46:24.000Z</time>
      </trkpt>
      <trkpt lat="48.59743" lon="-0.63485">
        <ele>228.9</ele>
        <time>2025-05-10T17:46:25.000Z</time>
      </trkpt>
      <trkpt lat="48.59745" lon="-0.63493">
        <ele>228.8</ele>
        <time>2025-05-10T17:46:26.000Z</time>
      </trkpt>
      <trkpt lat="48.59747" lon="-0.63501">
        <ele>228.6</ele>
        <time>2025-05-10T17:46:27.000Z</time>
      </trkpt>
      <trkpt lat="48.59748" lon="-0.63508">
        <ele>228.5</ele>
        <time>2025-05-10T17:46:28.000Z</time>
      </trkpt>
      <trkpt lat="48.59751" lon="-0.63521">
        <ele>228.3</ele>
        <time>2025-05-10T17:46:30.000Z</time>
      </trkpt>
      <trkpt lat="48.59753" lon="-0.63532">
        <ele>228.1</ele>
        <time>2025-05-10T17:46:32.000Z</time>
      </trkpt>
      <trkpt lat="48.59755" lon="-0.63542">
        <ele>228</ele>
        <time>2025-05-10T17:46:34.000Z</time>
      </trkpt>
      <trkpt lat="48.59755" lon="-0.63549">
        <ele>227.9</ele>
        <time>2025-05-10T17:46:36.000Z</time>
      </trkpt>
      <trkpt lat="48.59753" lon="-0.63555">
        <ele>227.8</ele>
        <time>2025-05-10T17:46:38.000Z</time>
      </trkpt>
      <trkpt lat="48.5975" lon="-0.63565">
        <ele>227.6</ele>
        <time>2025-05-10T17:46:41.000Z</time>
      </trkpt>
      <trkpt lat="48.59749" lon="-0.63577">
        <ele>227.4</ele>
        <time>2025-05-10T17:46:43.000Z</time>
      </trkpt>
      <trkpt lat="48.59748" lon="-0.63584">
        <ele>227.3</ele>
        <time>2025-05-10T17:46:44.000Z</time>
      </trkpt>
      <trkpt lat="48.59747" lon="-0.63591">
        <ele>227.2</ele>
        <time>2025-05-10T17:46:45.000Z</time>
      </trkpt>
      <trkpt lat="48.59746" lon="-0.63603">
        <ele>226.8</ele>
        <time>2025-05-10T17:46:47.000Z</time>
      </trkpt>
      <trkpt lat="48.59745" lon="-0.63614">
        <ele>226.2</ele>
        <time>2025-05-10T17:46:49.000Z</time>
      </trkpt>
      <trkpt lat="48.59744" lon="-0.63625">
        <ele>225.4</ele>
        <time>2025-05-10T17:46:51.000Z</time>
      </trkpt>
      <trkpt lat="48.59742" lon="-0.63636">
        <ele>224.4</ele>
        <time>2025-05-10T17:46:53.000Z</time>
      </trkpt>
      <trkpt lat="48.59741" lon="-0.63649">
        <ele>223.2</ele>
        <time>2025-05-10T17:46:55.000Z</time>
      </trkpt>
      <trkpt lat="48.5974" lon="-0.63656">
        <ele>222.5</ele>
        <time>2025-05-10T17:46:56.000Z</time>
      </trkpt>
      <trkpt lat="48.59739" lon="-0.63663">
        <ele>221.8</ele>
        <time>2025-05-10T17:46:57.000Z</time>
      </trkpt>
      <trkpt lat="48.59739" lon="-0.63671">
        <ele>221.1</ele>
        <time>2025-05-10T17:46:58.000Z</time>
      </trkpt>
      <trkpt lat="48.5974" lon="-0.63678">
        <ele>220.4</ele>
        <time>2025-05-10T17:46:59.000Z</time>
      </trkpt>
      <trkpt lat="48.5974" lon="-0.63685">
        <ele>219.9</ele>
        <time>2025-05-10T17:47:00.000Z</time>
      </trkpt>
      <trkpt lat="48.59741" lon="-0.63693">
        <ele>219.3</ele>
        <time>2025-05-10T17:47:01.000Z</time>
      </trkpt>
      <trkpt lat="48.59742" lon="-0.63704">
        <ele>218.3</ele>
        <time>2025-05-10T17:47:03.000Z</time>
      </trkpt>
      <trkpt lat="48.59739" lon="-0.63715">
        <ele>217.5</ele>
        <time>2025-05-10T17:47:05.000Z</time>
      </trkpt>
      <trkpt lat="48.59737" lon="-0.63723">
        <ele>217.1</ele>
        <time>2025-05-10T17:47:06.000Z</time>
      </trkpt>
      <trkpt lat="48.59735" lon="-0.63729">
        <ele>216.7</ele>
        <time>2025-05-10T17:47:07.000Z</time>
      </trkpt>
      <trkpt lat="48.59733" lon="-0.63736">
        <ele>216.3</ele>
        <time>2025-05-10T17:47:08.000Z</time>
      </trkpt>
      <trkpt lat="48.59731" lon="-0.63743">
        <ele>215.9</ele>
        <time>2025-05-10T17:47:09.000Z</time>
      </trkpt>
      <trkpt lat="48.59728" lon="-0.6375">
        <ele>215.6</ele>
        <time>2025-05-10T17:47:10.000Z</time>
      </trkpt>
      <trkpt lat="48.59725" lon="-0.63759">
        <ele>214.9</ele>
        <time>2025-05-10T17:47:12.000Z</time>
      </trkpt>
      <trkpt lat="48.59722" lon="-0.63766">
        <ele>214</ele>
        <time>2025-05-10T17:47:15.000Z</time>
      </trkpt>
      <trkpt lat="48.59719" lon="-0.63772">
        <ele>213.4</ele>
        <time>2025-05-10T17:47:17.000Z</time>
      </trkpt>
      <trkpt lat="48.59714" lon="-0.63778">
        <ele>212.8</ele>
        <time>2025-05-10T17:47:19.000Z</time>
      </trkpt>
      <trkpt lat="48.59709" lon="-0.63785">
        <ele>212.2</ele>
        <time>2025-05-10T17:47:21.000Z</time>
      </trkpt>
      <trkpt lat="48.59705" lon="-0.63791">
        <ele>211.6</ele>
        <time>2025-05-10T17:47:23.000Z</time>
      </trkpt>
      <trkpt lat="48.59701" lon="-0.63798">
        <ele>211</ele>
        <time>2025-05-10T17:47:25.000Z</time>
      </trkpt>
      <trkpt lat="48.59698" lon="-0.63805">
        <ele>210.4</ele>
        <time>2025-05-10T17:47:27.000Z</time>
      </trkpt>
      <trkpt lat="48.59696" lon="-0.63815">
        <ele>209.7</ele>
        <time>2025-05-10T17:47:29.000Z</time>
      </trkpt>
      <trkpt lat="48.59694" lon="-0.63826">
        <ele>209.2</ele>
        <time>2025-05-10T17:47:31.000Z</time>
      </trkpt>
      <trkpt lat="48.59691" lon="-0.63832">
        <ele>208.9</ele>
        <time>2025-05-10T17:47:32.000Z</time>
      </trkpt>
      <trkpt lat="48.59689" lon="-0.63844">
        <ele>208.2</ele>
        <time>2025-05-10T17:47:34.000Z</time>
      </trkpt>
      <trkpt lat="48.59685" lon="-0.63855">
        <ele>207.5</ele>
        <time>2025-05-10T17:47:36.000Z</time>
      </trkpt>
      <trkpt lat="48.59682" lon="-0.63864">
        <ele>206.8</ele>
        <time>2025-05-10T17:47:38.000Z</time>
      </trkpt>
      <trkpt lat="48.59679" lon="-0.63875">
        <ele>206.1</ele>
        <time>2025-05-10T17:47:40.000Z</time>
      </trkpt>
      <trkpt lat="48.59675" lon="-0.63886">
        <ele>205.4</ele>
        <time>2025-05-10T17:47:42.000Z</time>
      </trkpt>
      <trkpt lat="48.59673" lon="-0.63893">
        <ele>205</ele>
        <time>2025-05-10T17:47:43.000Z</time>
      </trkpt>
      <trkpt lat="48.59672" lon="-0.639">
        <ele>204.6</ele>
        <time>2025-05-10T17:47:44.000Z</time>
      </trkpt>
      <trkpt lat="48.59667" lon="-0.63911">
        <ele>203.8</ele>
        <time>2025-05-10T17:47:46.000Z</time>
      </trkpt>
      <trkpt lat="48.59662" lon="-0.63918">
        <ele>203</ele>
        <time>2025-05-10T17:47:48.000Z</time>
      </trkpt>
      <trkpt lat="48.59658" lon="-0.63925">
        <ele>202.1</ele>
        <time>2025-05-10T17:47:50.000Z</time>
      </trkpt>
      <trkpt lat="48.59653" lon="-0.63931">
        <ele>201.1</ele>
        <time>2025-05-10T17:47:52.000Z</time>
      </trkpt>
      <trkpt lat="48.59648" lon="-0.6394">
        <ele>200.1</ele>
        <time>2025-05-10T17:47:54.000Z</time>
      </trkpt>
      <trkpt lat="48.59646" lon="-0.63946">
        <ele>199.6</ele>
        <time>2025-05-10T17:47:55.000Z</time>
      </trkpt>
      <trkpt lat="48.59642" lon="-0.63951">
        <ele>199.1</ele>
        <time>2025-05-10T17:47:56.000Z</time>
      </trkpt>
      <trkpt lat="48.59638" lon="-0.63956">
        <ele>198.6</ele>
        <time>2025-05-10T17:47:57.000Z</time>
      </trkpt>
      <trkpt lat="48.59635" lon="-0.63962">
        <ele>197.9</ele>
        <time>2025-05-10T17:47:58.000Z</time>
      </trkpt>
      <trkpt lat="48.59631" lon="-0.63966">
        <ele>197.4</ele>
        <time>2025-05-10T17:47:59.000Z</time>
      </trkpt>
      <trkpt lat="48.59628" lon="-0.6397">
        <ele>196.8</ele>
        <time>2025-05-10T17:48:00.000Z</time>
      </trkpt>
      <trkpt lat="48.59621" lon="-0.63978">
        <ele>195.7</ele>
        <time>2025-05-10T17:48:02.000Z</time>
      </trkpt>
      <trkpt lat="48.59617" lon="-0.63982">
        <ele>194.5</ele>
        <time>2025-05-10T17:48:04.000Z</time>
      </trkpt>
      <trkpt lat="48.59611" lon="-0.63987">
        <ele>193.6</ele>
        <time>2025-05-10T17:48:06.000Z</time>
      </trkpt>
      <trkpt lat="48.59604" lon="-0.63993">
        <ele>192.4</ele>
        <time>2025-05-10T17:48:08.000Z</time>
      </trkpt>
      <trkpt lat="48.59596" lon="-0.63996">
        <ele>191.4</ele>
        <time>2025-05-10T17:48:10.000Z</time>
      </trkpt>
      <trkpt lat="48.59588" lon="-0.64001">
        <ele>190.5</ele>
        <time>2025-05-10T17:48:12.000Z</time>
      </trkpt>
      <trkpt lat="48.59584" lon="-0.64004">
        <ele>190</ele>
        <time>2025-05-10T17:48:13.000Z</time>
      </trkpt>
      <trkpt lat="48.5958" lon="-0.64008">
        <ele>189.6</ele>
        <time>2025-05-10T17:48:14.000Z</time>
      </trkpt>
      <trkpt lat="48.59576" lon="-0.64012">
        <ele>189.2</ele>
        <time>2025-05-10T17:48:15.000Z</time>
      </trkpt>
      <trkpt lat="48.59572" lon="-0.64017">
        <ele>189</ele>
        <time>2025-05-10T17:48:16.000Z</time>
      </trkpt>
      <trkpt lat="48.59568" lon="-0.64023">
        <ele>188.5</ele>
        <time>2025-05-10T17:48:18.000Z</time>
      </trkpt>
      <trkpt lat="48.5956" lon="-0.64029">
        <ele>188.1</ele>
        <time>2025-05-10T17:48:20.000Z</time>
      </trkpt>
      <trkpt lat="48.59553" lon="-0.64034">
        <ele>187.7</ele>
        <time>2025-05-10T17:48:22.000Z</time>
      </trkpt>
      <trkpt lat="48.59545" lon="-0.64037">
        <ele>187.5</ele>
        <time>2025-05-10T17:48:24.000Z</time>
      </trkpt>
      <trkpt lat="48.59537" lon="-0.64043">
        <ele>187.3</ele>
        <time>2025-05-10T17:48:26.000Z</time>
      </trkpt>
      <trkpt lat="48.5953" lon="-0.64048">
        <ele>187.1</ele>
        <time>2025-05-10T17:48:28.000Z</time>
      </trkpt>
      <trkpt lat="48.59523" lon="-0.64053">
        <ele>187</ele>
        <time>2025-05-10T17:48:30.000Z</time>
      </trkpt>
      <trkpt lat="48.59516" lon="-0.64058">
        <ele>187</ele>
        <time>2025-05-10T17:48:32.000Z</time>
      </trkpt>
      <trkpt lat="48.59511" lon="-0.64067">
        <ele>186.9</ele>
        <time>2025-05-10T17:48:34.000Z</time>
      </trkpt>
      <trkpt lat="48.59505" lon="-0.64076">
        <ele>186.9</ele>
        <time>2025-05-10T17:48:36.000Z</time>
      </trkpt>
      <trkpt lat="48.59501" lon="-0.64081">
        <ele>186.9</ele>
        <time>2025-05-10T17:48:37.000Z</time>
      </trkpt>
      <trkpt lat="48.59495" lon="-0.6409">
        <ele>187</ele>
        <time>2025-05-10T17:48:39.000Z</time>
      </trkpt>
      <trkpt lat="48.59492" lon="-0.64095">
        <ele>187</ele>
        <time>2025-05-10T17:48:40.000Z</time>
      </trkpt>
      <trkpt lat="48.59487" lon="-0.64102">
        <ele>187.1</ele>
        <time>2025-05-10T17:48:42.000Z</time>
      </trkpt>
      <trkpt lat="48.59483" lon="-0.64107">
        <ele>187.1</ele>
        <time>2025-05-10T17:48:44.000Z</time>
      </trkpt>
      <trkpt lat="48.59479" lon="-0.64111">
        <ele>187.2</ele>
        <time>2025-05-10T17:48:46.000Z</time>
      </trkpt>
      <trkpt lat="48.59477" lon="-0.64119">
        <ele>187.3</ele>
        <time>2025-05-10T17:48:48.000Z</time>
      </trkpt>
      <trkpt lat="48.59476" lon="-0.64131">
        <ele>187.5</ele>
        <time>2025-05-10T17:48:50.000Z</time>
      </trkpt>
      <trkpt lat="48.59475" lon="-0.64138">
        <ele>187.6</ele>
        <time>2025-05-10T17:48:51.000Z</time>
      </trkpt>
      <trkpt lat="48.59473" lon="-0.64145">
        <ele>187.7</ele>
        <time>2025-05-10T17:48:52.000Z</time>
      </trkpt>
      <trkpt lat="48.59471" lon="-0.64157">
        <ele>188</ele>
        <time>2025-05-10T17:48:54.000Z</time>
      </trkpt>
      <trkpt lat="48.5947" lon="-0.64164">
        <ele>188.2</ele>
        <time>2025-05-10T17:48:55.000Z</time>
      </trkpt>
      <trkpt lat="48.59468" lon="-0.64177">
        <ele>188.5</ele>
        <time>2025-05-10T17:48:57.000Z</time>
      </trkpt>
      <trkpt lat="48.59467" lon="-0.64189">
        <ele>189</ele>
        <time>2025-05-10T17:48:59.000Z</time>
      </trkpt>
      <trkpt lat="48.59464" lon="-0.64201">
        <ele>189.4</ele>
        <time>2025-05-10T17:49:01.000Z</time>
      </trkpt>
      <trkpt lat="48.59464" lon="-0.64208">
        <ele>189.6</ele>
        <time>2025-05-10T17:49:02.000Z</time>
      </trkpt>
      <trkpt lat="48.59463" lon="-0.64215">
        <ele>189.8</ele>
        <time>2025-05-10T17:49:03.000Z</time>
      </trkpt>
      <trkpt lat="48.59462" lon="-0.64222">
        <ele>190.1</ele>
        <time>2025-05-10T17:49:04.000Z</time>
      </trkpt>
      <trkpt lat="48.5946" lon="-0.64235">
        <ele>190.4</ele>
        <time>2025-05-10T17:49:06.000Z</time>
      </trkpt>
      <trkpt lat="48.59458" lon="-0.64246">
        <ele>190.8</ele>
        <time>2025-05-10T17:49:08.000Z</time>
      </trkpt>
      <trkpt lat="48.59455" lon="-0.64256">
        <ele>191.1</ele>
        <time>2025-05-10T17:49:10.000Z</time>
      </trkpt>
      <trkpt lat="48.59453" lon="-0.64265">
        <ele>191.4</ele>
        <time>2025-05-10T17:49:12.000Z</time>
      </trkpt>
      <trkpt lat="48.59452" lon="-0.64273">
        <ele>191.7</ele>
        <time>2025-05-10T17:49:14.000Z</time>
      </trkpt>
      <trkpt lat="48.5945" lon="-0.64279">
        <ele>192</ele>
        <time>2025-05-10T17:49:17.000Z</time>
      </trkpt>
      <trkpt lat="48.59448" lon="-0.64286">
        <ele>192.1</ele>
        <time>2025-05-10T17:49:19.000Z</time>
      </trkpt>
      <trkpt lat="48.59444" lon="-0.6429">
        <ele>192.3</ele>
        <time>2025-05-10T17:49:21.000Z</time>
      </trkpt>
      <trkpt lat="48.59441" lon="-0.64295">
        <ele>192.5</ele>
        <time>2025-05-10T17:49:25.000Z</time>
      </trkpt>
      <trkpt lat="48.59441" lon="-0.64296">
        <ele>192.5</ele>
        <time>2025-05-10T17:49:26.000Z</time>
      </trkpt>
      <trkpt lat="48.59441" lon="-0.64296">
        <ele>192.5</ele>
        <time>2025-05-10T17:49:27.000Z</time>
      </trkpt>
      <trkpt lat="48.59437" lon="-0.64301">
        <ele>192.7</ele>
        <time>2025-05-10T17:49:43.000Z</time>
      </trkpt>
      <trkpt lat="48.59433" lon="-0.64303">
        <ele>192.7</ele>
        <time>2025-05-10T17:49:45.000Z</time>
      </trkpt>
      <trkpt lat="48.59427" lon="-0.64309">
        <ele>192.8</ele>
        <time>2025-05-10T17:49:47.000Z</time>
      </trkpt>
      <trkpt lat="48.59423" lon="-0.64317">
        <ele>192.8</ele>
        <time>2025-05-10T17:49:49.000Z</time>
      </trkpt>
      <trkpt lat="48.59419" lon="-0.64326">
        <ele>192.9</ele>
        <time>2025-05-10T17:49:51.000Z</time>
      </trkpt>
      <trkpt lat="48.59416" lon="-0.64335">
        <ele>193</ele>
        <time>2025-05-10T17:49:53.000Z</time>
      </trkpt>
      <trkpt lat="48.59414" lon="-0.64344">
        <ele>193.1</ele>
        <time>2025-05-10T17:49:55.000Z</time>
      </trkpt>
      <trkpt lat="48.59412" lon="-0.64351">
        <ele>193.4</ele>
        <time>2025-05-10T17:49:57.000Z</time>
      </trkpt>
      <trkpt lat="48.5941" lon="-0.64358">
        <ele>193.7</ele>
        <time>2025-05-10T17:49:59.000Z</time>
      </trkpt>
      <trkpt lat="48.59409" lon="-0.64365">
        <ele>194</ele>
        <time>2025-05-10T17:50:01.000Z</time>
      </trkpt>
      <trkpt lat="48.59407" lon="-0.64373">
        <ele>194.5</ele>
        <time>2025-05-10T17:50:03.000Z</time>
      </trkpt>
      <trkpt lat="48.59405" lon="-0.64381">
        <ele>195</ele>
        <time>2025-05-10T17:50:05.000Z</time>
      </trkpt>
      <trkpt lat="48.59404" lon="-0.64388">
        <ele>195.5</ele>
        <time>2025-05-10T17:50:07.000Z</time>
      </trkpt>
      <trkpt lat="48.59401" lon="-0.64395">
        <ele>196</ele>
        <time>2025-05-10T17:50:09.000Z</time>
      </trkpt>
      <trkpt lat="48.594" lon="-0.64402">
        <ele>196.4</ele>
        <time>2025-05-10T17:50:11.000Z</time>
      </trkpt>
      <trkpt lat="48.59398" lon="-0.6441">
        <ele>196.9</ele>
        <time>2025-05-10T17:50:13.000Z</time>
      </trkpt>
      <trkpt lat="48.59396" lon="-0.64417">
        <ele>197.3</ele>
        <time>2025-05-10T17:50:15.000Z</time>
      </trkpt>
      <trkpt lat="48.59395" lon="-0.64424">
        <ele>197.6</ele>
        <time>2025-05-10T17:50:17.000Z</time>
      </trkpt>
      <trkpt lat="48.59393" lon="-0.64432">
        <ele>198.1</ele>
        <time>2025-05-10T17:50:19.000Z</time>
      </trkpt>
      <trkpt lat="48.59391" lon="-0.64439">
        <ele>198.5</ele>
        <time>2025-05-10T17:50:21.000Z</time>
      </trkpt>
      <trkpt lat="48.5939" lon="-0.64446">
        <ele>199</ele>
        <time>2025-05-10T17:50:23.000Z</time>
      </trkpt>
      <trkpt lat="48.59388" lon="-0.64453">
        <ele>199.4</ele>
        <time>2025-05-10T17:50:25.000Z</time>
      </trkpt>
      <trkpt lat="48.59386" lon="-0.6446">
        <ele>199.8</ele>
        <time>2025-05-10T17:50:27.000Z</time>
      </trkpt>
      <trkpt lat="48.59385" lon="-0.64468">
        <ele>200.2</ele>
        <time>2025-05-10T17:50:29.000Z</time>
      </trkpt>
      <trkpt lat="48.59384" lon="-0.64475">
        <ele>200.6</ele>
        <time>2025-05-10T17:50:31.000Z</time>
      </trkpt>
      <trkpt lat="48.59383" lon="-0.64483">
        <ele>200.9</ele>
        <time>2025-05-10T17:50:33.000Z</time>
      </trkpt>
      <trkpt lat="48.5938" lon="-0.6449">
        <ele>201.3</ele>
        <time>2025-05-10T17:50:35.000Z</time>
      </trkpt>
      <trkpt lat="48.59379" lon="-0.64497">
        <ele>201.6</ele>
        <time>2025-05-10T17:50:37.000Z</time>
      </trkpt>
      <trkpt lat="48.59377" lon="-0.64504">
        <ele>202</ele>
        <time>2025-05-10T17:50:39.000Z</time>
      </trkpt>
      <trkpt lat="48.59375" lon="-0.64511">
        <ele>202.3</ele>
        <time>2025-05-10T17:50:41.000Z</time>
      </trkpt>
      <trkpt lat="48.59373" lon="-0.64517">
        <ele>202.7</ele>
        <time>2025-05-10T17:50:43.000Z</time>
      </trkpt>
      <trkpt lat="48.59371" lon="-0.64523">
        <ele>203</ele>
        <time>2025-05-10T17:50:45.000Z</time>
      </trkpt>
      <trkpt lat="48.59369" lon="-0.6453">
        <ele>203.3</ele>
        <time>2025-05-10T17:50:47.000Z</time>
      </trkpt>
      <trkpt lat="48.59367" lon="-0.64536">
        <ele>203.7</ele>
        <time>2025-05-10T17:50:49.000Z</time>
      </trkpt>
      <trkpt lat="48.59363" lon="-0.64545">
        <ele>204.2</ele>
        <time>2025-05-10T17:50:52.000Z</time>
      </trkpt>
      <trkpt lat="48.5936" lon="-0.64553">
        <ele>204.6</ele>
        <time>2025-05-10T17:50:55.000Z</time>
      </trkpt>
      <trkpt lat="48.59357" lon="-0.64561">
        <ele>205.1</ele>
        <time>2025-05-10T17:50:58.000Z</time>
      </trkpt>
      <trkpt lat="48.59353" lon="-0.64568">
        <ele>205.6</ele>
        <time>2025-05-10T17:51:01.000Z</time>
      </trkpt>
      <trkpt lat="48.59347" lon="-0.64572">
        <ele>206.1</ele>
        <time>2025-05-10T17:51:04.000Z</time>
      </trkpt>
      <trkpt lat="48.59343" lon="-0.64573">
        <ele>206.4</ele>
        <time>2025-05-10T17:51:06.000Z</time>
      </trkpt>
      <trkpt lat="48.59337" lon="-0.6457">
        <ele>206.7</ele>
        <time>2025-05-10T17:51:08.000Z</time>
      </trkpt>
      <trkpt lat="48.59332" lon="-0.64567">
        <ele>206.9</ele>
        <time>2025-05-10T17:51:10.000Z</time>
      </trkpt>
      <trkpt lat="48.59328" lon="-0.64564">
        <ele>207.1</ele>
        <time>2025-05-10T17:51:12.000Z</time>
      </trkpt>
      <trkpt lat="48.59322" lon="-0.64561">
        <ele>207.3</ele>
        <time>2025-05-10T17:51:14.000Z</time>
      </trkpt>
      <trkpt lat="48.59316" lon="-0.64557">
        <ele>207.6</ele>
        <time>2025-05-10T17:51:16.000Z</time>
      </trkpt>
      <trkpt lat="48.59309" lon="-0.64554">
        <ele>207.9</ele>
        <time>2025-05-10T17:51:18.000Z</time>
      </trkpt>
      <trkpt lat="48.59303" lon="-0.64551">
        <ele>208.2</ele>
        <time>2025-05-10T17:51:20.000Z</time>
      </trkpt>
      <trkpt lat="48.59296" lon="-0.64549">
        <ele>208.6</ele>
        <time>2025-05-10T17:51:22.000Z</time>
      </trkpt>
      <trkpt lat="48.59288" lon="-0.64547">
        <ele>209</ele>
        <time>2025-05-10T17:51:24.000Z</time>
      </trkpt>
      <trkpt lat="48.59282" lon="-0.64546">
        <ele>209.4</ele>
        <time>2025-05-10T17:51:26.000Z</time>
      </trkpt>
      <trkpt lat="48.59275" lon="-0.64546">
        <ele>209.7</ele>
        <time>2025-05-10T17:51:28.000Z</time>
      </trkpt>
      <trkpt lat="48.59267" lon="-0.64546">
        <ele>210</ele>
        <time>2025-05-10T17:51:30.000Z</time>
      </trkpt>
      <trkpt lat="48.59259" lon="-0.64547">
        <ele>210.2</ele>
        <time>2025-05-10T17:51:32.000Z</time>
      </trkpt>
      <trkpt lat="48.59251" lon="-0.64547">
        <ele>210.3</ele>
        <time>2025-05-10T17:51:34.000Z</time>
      </trkpt>
      <trkpt lat="48.59246" lon="-0.64548">
        <ele>210.3</ele>
        <time>2025-05-10T17:51:35.000Z</time>
      </trkpt>
      <trkpt lat="48.59241" lon="-0.64549">
        <ele>210.4</ele>
        <time>2025-05-10T17:51:36.000Z</time>
      </trkpt>
      <trkpt lat="48.59236" lon="-0.6455">
        <ele>210.4</ele>
        <time>2025-05-10T17:51:37.000Z</time>
      </trkpt>
      <trkpt lat="48.59231" lon="-0.64551">
        <ele>210.3</ele>
        <time>2025-05-10T17:51:38.000Z</time>
      </trkpt>
      <trkpt lat="48.59226" lon="-0.64552">
        <ele>210.3</ele>
        <time>2025-05-10T17:51:39.000Z</time>
      </trkpt>
      <trkpt lat="48.59221" lon="-0.64554">
        <ele>210.3</ele>
        <time>2025-05-10T17:51:40.000Z</time>
      </trkpt>
      <trkpt lat="48.59215" lon="-0.64556">
        <ele>210.2</ele>
        <time>2025-05-10T17:51:41.000Z</time>
      </trkpt>
      <trkpt lat="48.5921" lon="-0.64558">
        <ele>210.1</ele>
        <time>2025-05-10T17:51:42.000Z</time>
      </trkpt>
      <trkpt lat="48.59205" lon="-0.64561">
        <ele>210</ele>
        <time>2025-05-10T17:51:43.000Z</time>
      </trkpt>
      <trkpt lat="48.59199" lon="-0.64565">
        <ele>209.9</ele>
        <time>2025-05-10T17:51:44.000Z</time>
      </trkpt>
      <trkpt lat="48.59194" lon="-0.6457">
        <ele>209.8</ele>
        <time>2025-05-10T17:51:45.000Z</time>
      </trkpt>
      <trkpt lat="48.59189" lon="-0.64576">
        <ele>209.6</ele>
        <time>2025-05-10T17:51:46.000Z</time>
      </trkpt>
      <trkpt lat="48.59184" lon="-0.64583">
        <ele>209.4</ele>
        <time>2025-05-10T17:51:47.000Z</time>
      </trkpt>
      <trkpt lat="48.59179" lon="-0.64589">
        <ele>209.1</ele>
        <time>2025-05-10T17:51:48.000Z</time>
      </trkpt>
      <trkpt lat="48.59174" lon="-0.64595">
        <ele>208.8</ele>
        <time>2025-05-10T17:51:49.000Z</time>
      </trkpt>
      <trkpt lat="48.59169" lon="-0.64602">
        <ele>208.4</ele>
        <time>2025-05-10T17:51:50.000Z</time>
      </trkpt>
      <trkpt lat="48.59164" lon="-0.64608">
        <ele>208</ele>
        <time>2025-05-10T17:51:51.000Z</time>
      </trkpt>
      <trkpt lat="48.59159" lon="-0.64615">
        <ele>207.6</ele>
        <time>2025-05-10T17:51:52.000Z</time>
      </trkpt>
      <trkpt lat="48.59155" lon="-0.6462">
        <ele>207</ele>
        <time>2025-05-10T17:51:53.000Z</time>
      </trkpt>
      <trkpt lat="48.5915" lon="-0.64626">
        <ele>206.5</ele>
        <time>2025-05-10T17:51:54.000Z</time>
      </trkpt>
      <trkpt lat="48.59144" lon="-0.64632">
        <ele>205.9</ele>
        <time>2025-05-10T17:51:55.000Z</time>
      </trkpt>
      <trkpt lat="48.59138" lon="-0.64636">
        <ele>205.4</ele>
        <time>2025-05-10T17:51:56.000Z</time>
      </trkpt>
      <trkpt lat="48.59132" lon="-0.6464">
        <ele>204.9</ele>
        <time>2025-05-10T17:51:57.000Z</time>
      </trkpt>
      <trkpt lat="48.59125" lon="-0.64644">
        <ele>204.3</ele>
        <time>2025-05-10T17:51:58.000Z</time>
      </trkpt>
      <trkpt lat="48.59117" lon="-0.64646">
        <ele>203.8</ele>
        <time>2025-05-10T17:51:59.000Z</time>
      </trkpt>
      <trkpt lat="48.59109" lon="-0.64649">
        <ele>203.2</ele>
        <time>2025-05-10T17:52:00.000Z</time>
      </trkpt>
      <trkpt lat="48.591" lon="-0.64651">
        <ele>202.7</ele>
        <time>2025-05-10T17:52:01.000Z</time>
      </trkpt>
      <trkpt lat="48.59091" lon="-0.6465">
        <ele>202.1</ele>
        <time>2025-05-10T17:52:02.000Z</time>
      </trkpt>
      <trkpt lat="48.59082" lon="-0.64649">
        <ele>201.4</ele>
        <time>2025-05-10T17:52:03.000Z</time>
      </trkpt>
      <trkpt lat="48.59073" lon="-0.64645">
        <ele>200.7</ele>
        <time>2025-05-10T17:52:04.000Z</time>
      </trkpt>
      <trkpt lat="48.59065" lon="-0.64641">
        <ele>200.1</ele>
        <time>2025-05-10T17:52:05.000Z</time>
      </trkpt>
      <trkpt lat="48.59057" lon="-0.64636">
        <ele>199.5</ele>
        <time>2025-05-10T17:52:06.000Z</time>
      </trkpt>
      <trkpt lat="48.59049" lon="-0.6463">
        <ele>198.8</ele>
        <time>2025-05-10T17:52:07.000Z</time>
      </trkpt>
      <trkpt lat="48.59042" lon="-0.64623">
        <ele>198</ele>
        <time>2025-05-10T17:52:08.000Z</time>
      </trkpt>
      <trkpt lat="48.59035" lon="-0.64617">
        <ele>197.3</ele>
        <time>2025-05-10T17:52:09.000Z</time>
      </trkpt>
      <trkpt lat="48.59029" lon="-0.6461">
        <ele>196.7</ele>
        <time>2025-05-10T17:52:10.000Z</time>
      </trkpt>
      <trkpt lat="48.59022" lon="-0.64604">
        <ele>196.1</ele>
        <time>2025-05-10T17:52:11.000Z</time>
      </trkpt>
      <trkpt lat="48.59017" lon="-0.64599">
        <ele>195.4</ele>
        <time>2025-05-10T17:52:12.000Z</time>
      </trkpt>
      <trkpt lat="48.59013" lon="-0.64594">
        <ele>194.8</ele>
        <time>2025-05-10T17:52:13.000Z</time>
      </trkpt>
      <trkpt lat="48.59006" lon="-0.64587">
        <ele>193.8</ele>
        <time>2025-05-10T17:52:15.000Z</time>
      </trkpt>
      <trkpt lat="48.59003" lon="-0.64583">
        <ele>193.3</ele>
        <time>2025-05-10T17:52:16.000Z</time>
      </trkpt>
      <trkpt lat="48.58999" lon="-0.64578">
        <ele>192.8</ele>
        <time>2025-05-10T17:52:17.000Z</time>
      </trkpt>
      <trkpt lat="48.58995" lon="-0.64573">
        <ele>192.3</ele>
        <time>2025-05-10T17:52:18.000Z</time>
      </trkpt>
      <trkpt lat="48.58991" lon="-0.64569">
        <ele>191.8</ele>
        <time>2025-05-10T17:52:19.000Z</time>
      </trkpt>
      <trkpt lat="48.58986" lon="-0.64564">
        <ele>191.3</ele>
        <time>2025-05-10T17:52:20.000Z</time>
      </trkpt>
      <trkpt lat="48.58982" lon="-0.64558">
        <ele>190.9</ele>
        <time>2025-05-10T17:52:21.000Z</time>
      </trkpt>
      <trkpt lat="48.58977" lon="-0.64553">
        <ele>190.5</ele>
        <time>2025-05-10T17:52:22.000Z</time>
      </trkpt>
      <trkpt lat="48.58973" lon="-0.64548">
        <ele>190.1</ele>
        <time>2025-05-10T17:52:23.000Z</time>
      </trkpt>
      <trkpt lat="48.58968" lon="-0.64543">
        <ele>189.7</ele>
        <time>2025-05-10T17:52:24.000Z</time>
      </trkpt>
      <trkpt lat="48.58963" lon="-0.64537">
        <ele>189.4</ele>
        <time>2025-05-10T17:52:25.000Z</time>
      </trkpt>
      <trkpt lat="48.58958" lon="-0.64532">
        <ele>189</ele>
        <time>2025-05-10T17:52:26.000Z</time>
      </trkpt>
      <trkpt lat="48.58953" lon="-0.64526">
        <ele>188.7</ele>
        <time>2025-05-10T17:52:27.000Z</time>
      </trkpt>
      <trkpt lat="48.58948" lon="-0.6452">
        <ele>188.3</ele>
        <time>2025-05-10T17:52:28.000Z</time>
      </trkpt>
      <trkpt lat="48.58942" lon="-0.64513">
        <ele>188</ele>
        <time>2025-05-10T17:52:29.000Z</time>
      </trkpt>
      <trkpt lat="48.58937" lon="-0.64507">
        <ele>187.6</ele>
        <time>2025-05-10T17:52:30.000Z</time>
      </trkpt>
      <trkpt lat="48.58932" lon="-0.64501">
        <ele>187.3</ele>
        <time>2025-05-10T17:52:31.000Z</time>
      </trkpt>
      <trkpt lat="48.58926" lon="-0.64495">
        <ele>187</ele>
        <time>2025-05-10T17:52:32.000Z</time>
      </trkpt>
      <trkpt lat="48.5892" lon="-0.64489">
        <ele>186.5</ele>
        <time>2025-05-10T17:52:33.000Z</time>
      </trkpt>
      <trkpt lat="48.58914" lon="-0.64483">
        <ele>186.2</ele>
        <time>2025-05-10T17:52:34.000Z</time>
      </trkpt>
      <trkpt lat="48.58908" lon="-0.64477">
        <ele>185.8</ele>
        <time>2025-05-10T17:52:35.000Z</time>
      </trkpt>
      <trkpt lat="48.58902" lon="-0.64471">
        <ele>185.4</ele>
        <time>2025-05-10T17:52:36.000Z</time>
      </trkpt>
      <trkpt lat="48.58896" lon="-0.64465">
        <ele>185</ele>
        <time>2025-05-10T17:52:37.000Z</time>
      </trkpt>
      <trkpt lat="48.5889" lon="-0.64459">
        <ele>184.6</ele>
        <time>2025-05-10T17:52:38.000Z</time>
      </trkpt>
      <trkpt lat="48.58884" lon="-0.64453">
        <ele>184.3</ele>
        <time>2025-05-10T17:52:39.000Z</time>
      </trkpt>
      <trkpt lat="48.58878" lon="-0.64447">
        <ele>183.9</ele>
        <time>2025-05-10T17:52:40.000Z</time>
      </trkpt>
      <trkpt lat="48.58871" lon="-0.64441">
        <ele>183.6</ele>
        <time>2025-05-10T17:52:41.000Z</time>
      </trkpt>
      <trkpt lat="48.58865" lon="-0.64435">
        <ele>183.2</ele>
        <time>2025-05-10T17:52:42.000Z</time>
      </trkpt>
      <trkpt lat="48.58859" lon="-0.64429">
        <ele>182.8</ele>
        <time>2025-05-10T17:52:43.000Z</time>
      </trkpt>
      <trkpt lat="48.58852" lon="-0.64424">
        <ele>182.4</ele>
        <time>2025-05-10T17:52:44.000Z</time>
      </trkpt>
      <trkpt lat="48.58846" lon="-0.64418">
        <ele>182.1</ele>
        <time>2025-05-10T17:52:45.000Z</time>
      </trkpt>
      <trkpt lat="48.58839" lon="-0.64412">
        <ele>181.7</ele>
        <time>2025-05-10T17:52:46.000Z</time>
      </trkpt>
      <trkpt lat="48.58832" lon="-0.64407">
        <ele>181.3</ele>
        <time>2025-05-10T17:52:47.000Z</time>
      </trkpt>
      <trkpt lat="48.58825" lon="-0.64401">
        <ele>180.9</ele>
        <time>2025-05-10T17:52:48.000Z</time>
      </trkpt>
      <trkpt lat="48.58818" lon="-0.64396">
        <ele>180.5</ele>
        <time>2025-05-10T17:52:49.000Z</time>
      </trkpt>
      <trkpt lat="48.58811" lon="-0.64391">
        <ele>180.1</ele>
        <time>2025-05-10T17:52:50.000Z</time>
      </trkpt>
      <trkpt lat="48.58804" lon="-0.64385">
        <ele>179.7</ele>
        <time>2025-05-10T17:52:51.000Z</time>
      </trkpt>
      <trkpt lat="48.58797" lon="-0.6438">
        <ele>179.3</ele>
        <time>2025-05-10T17:52:52.000Z</time>
      </trkpt>
      <trkpt lat="48.58789" lon="-0.64375">
        <ele>178.8</ele>
        <time>2025-05-10T17:52:53.000Z</time>
      </trkpt>
      <trkpt lat="48.58781" lon="-0.64372">
        <ele>178.4</ele>
        <time>2025-05-10T17:52:54.000Z</time>
      </trkpt>
      <trkpt lat="48.58773" lon="-0.64369">
        <ele>178</ele>
        <time>2025-05-10T17:52:55.000Z</time>
      </trkpt>
      <trkpt lat="48.58765" lon="-0.64367">
        <ele>177.5</ele>
        <time>2025-05-10T17:52:56.000Z</time>
      </trkpt>
      <trkpt lat="48.58756" lon="-0.64367">
        <ele>177</ele>
        <time>2025-05-10T17:52:57.000Z</time>
      </trkpt>
      <trkpt lat="48.58747" lon="-0.64368">
        <ele>176.4</ele>
        <time>2025-05-10T17:52:58.000Z</time>
      </trkpt>
      <trkpt lat="48.58739" lon="-0.64369">
        <ele>175.9</ele>
        <time>2025-05-10T17:52:59.000Z</time>
      </trkpt>
      <trkpt lat="48.58732" lon="-0.64372">
        <ele>175.4</ele>
        <time>2025-05-10T17:53:00.000Z</time>
      </trkpt>
      <trkpt lat="48.58727" lon="-0.64375">
        <ele>174.9</ele>
        <time>2025-05-10T17:53:01.000Z</time>
      </trkpt>
      <trkpt lat="48.58723" lon="-0.64379">
        <ele>174.4</ele>
        <time>2025-05-10T17:53:02.000Z</time>
      </trkpt>
      <trkpt lat="48.58721" lon="-0.64386">
        <ele>173.8</ele>
        <time>2025-05-10T17:53:03.000Z</time>
      </trkpt>
      <trkpt lat="48.58721" lon="-0.64393">
        <ele>173.3</ele>
        <time>2025-05-10T17:53:04.000Z</time>
      </trkpt>
      <trkpt lat="48.58723" lon="-0.644">
        <ele>172.9</ele>
        <time>2025-05-10T17:53:05.000Z</time>
      </trkpt>
      <trkpt lat="48.58725" lon="-0.64407">
        <ele>172.5</ele>
        <time>2025-05-10T17:53:06.000Z</time>
      </trkpt>
      <trkpt lat="48.58728" lon="-0.64414">
        <ele>172.1</ele>
        <time>2025-05-10T17:53:07.000Z</time>
      </trkpt>
      <trkpt lat="48.58731" lon="-0.64421">
        <ele>171.8</ele>
        <time>2025-05-10T17:53:08.000Z</time>
      </trkpt>
      <trkpt lat="48.58733" lon="-0.6443">
        <ele>171.4</ele>
        <time>2025-05-10T17:53:09.000Z</time>
      </trkpt>
      <trkpt lat="48.58736" lon="-0.64438">
        <ele>171.2</ele>
        <time>2025-05-10T17:53:10.000Z</time>
      </trkpt>
      <trkpt lat="48.58739" lon="-0.64447">
        <ele>171</ele>
        <time>2025-05-10T17:53:11.000Z</time>
      </trkpt>
      <trkpt lat="48.58742" lon="-0.64456">
        <ele>170.8</ele>
        <time>2025-05-10T17:53:12.000Z</time>
      </trkpt>
      <trkpt lat="48.58745" lon="-0.64465">
        <ele>170.5</ele>
        <time>2025-05-10T17:53:13.000Z</time>
      </trkpt>
      <trkpt lat="48.58748" lon="-0.64474">
        <ele>170.3</ele>
        <time>2025-05-10T17:53:14.000Z</time>
      </trkpt>
      <trkpt lat="48.58751" lon="-0.64484">
        <ele>170.1</ele>
        <time>2025-05-10T17:53:15.000Z</time>
      </trkpt>
      <trkpt lat="48.58755" lon="-0.64493">
        <ele>169.9</ele>
        <time>2025-05-10T17:53:16.000Z</time>
      </trkpt>
      <trkpt lat="48.58758" lon="-0.64503">
        <ele>169.7</ele>
        <time>2025-05-10T17:53:17.000Z</time>
      </trkpt>
      <trkpt lat="48.58761" lon="-0.64512">
        <ele>169.5</ele>
        <time>2025-05-10T17:53:18.000Z</time>
      </trkpt>
      <trkpt lat="48.58764" lon="-0.64523">
        <ele>169.3</ele>
        <time>2025-05-10T17:53:19.000Z</time>
      </trkpt>
      <trkpt lat="48.58768" lon="-0.64533">
        <ele>169.1</ele>
        <time>2025-05-10T17:53:20.000Z</time>
      </trkpt>
      <trkpt lat="48.58771" lon="-0.64543">
        <ele>168.9</ele>
        <time>2025-05-10T17:53:21.000Z</time>
      </trkpt>
      <trkpt lat="48.58775" lon="-0.64554">
        <ele>168.7</ele>
        <time>2025-05-10T17:53:22.000Z</time>
      </trkpt>
      <trkpt lat="48.58778" lon="-0.64565">
        <ele>168.4</ele>
        <time>2025-05-10T17:53:23.000Z</time>
      </trkpt>
      <trkpt lat="48.58782" lon="-0.64576">
        <ele>168.2</ele>
        <time>2025-05-10T17:53:24.000Z</time>
      </trkpt>
      <trkpt lat="48.58785" lon="-0.64587">
        <ele>168</ele>
        <time>2025-05-10T17:53:25.000Z</time>
      </trkpt>
      <trkpt lat="48.58789" lon="-0.64598">
        <ele>167.8</ele>
        <time>2025-05-10T17:53:26.000Z</time>
      </trkpt>
      <trkpt lat="48.58793" lon="-0.64609">
        <ele>167.6</ele>
        <time>2025-05-10T17:53:27.000Z</time>
      </trkpt>
      <trkpt lat="48.58796" lon="-0.6462">
        <ele>167.4</ele>
        <time>2025-05-10T17:53:28.000Z</time>
      </trkpt>
      <trkpt lat="48.588" lon="-0.6463">
        <ele>167.2</ele>
        <time>2025-05-10T17:53:29.000Z</time>
      </trkpt>
      <trkpt lat="48.58803" lon="-0.6464">
        <ele>167</ele>
        <time>2025-05-10T17:53:30.000Z</time>
      </trkpt>
      <trkpt lat="48.58806" lon="-0.6465">
        <ele>166.9</ele>
        <time>2025-05-10T17:53:31.000Z</time>
      </trkpt>
      <trkpt lat="48.5881" lon="-0.6466">
        <ele>166.8</ele>
        <time>2025-05-10T17:53:32.000Z</time>
      </trkpt>
      <trkpt lat="48.58813" lon="-0.6467">
        <ele>166.6</ele>
        <time>2025-05-10T17:53:33.000Z</time>
      </trkpt>
      <trkpt lat="48.58816" lon="-0.64679">
        <ele>166.5</ele>
        <time>2025-05-10T17:53:34.000Z</time>
      </trkpt>
      <trkpt lat="48.58819" lon="-0.64688">
        <ele>166.4</ele>
        <time>2025-05-10T17:53:35.000Z</time>
      </trkpt>
      <trkpt lat="48.58822" lon="-0.64697">
        <ele>166.3</ele>
        <time>2025-05-10T17:53:36.000Z</time>
      </trkpt>
      <trkpt lat="48.58825" lon="-0.64706">
        <ele>166.3</ele>
        <time>2025-05-10T17:53:37.000Z</time>
      </trkpt>
      <trkpt lat="48.58828" lon="-0.64714">
        <ele>166.2</ele>
        <time>2025-05-10T17:53:38.000Z</time>
      </trkpt>
      <trkpt lat="48.58831" lon="-0.64722">
        <ele>166.2</ele>
        <time>2025-05-10T17:53:39.000Z</time>
      </trkpt>
      <trkpt lat="48.58833" lon="-0.64731">
        <ele>166.2</ele>
        <time>2025-05-10T17:53:40.000Z</time>
      </trkpt>
      <trkpt lat="48.58836" lon="-0.64739">
        <ele>166.1</ele>
        <time>2025-05-10T17:53:41.000Z</time>
      </trkpt>
      <trkpt lat="48.58838" lon="-0.64747">
        <ele>166.1</ele>
        <time>2025-05-10T17:53:42.000Z</time>
      </trkpt>
      <trkpt lat="48.58841" lon="-0.64755">
        <ele>166.1</ele>
        <time>2025-05-10T17:53:43.000Z</time>
      </trkpt>
      <trkpt lat="48.58844" lon="-0.64763">
        <ele>166.1</ele>
        <time>2025-05-10T17:53:44.000Z</time>
      </trkpt>
      <trkpt lat="48.58846" lon="-0.64771">
        <ele>166.1</ele>
        <time>2025-05-10T17:53:45.000Z</time>
      </trkpt>
      <trkpt lat="48.58849" lon="-0.64779">
        <ele>166.1</ele>
        <time>2025-05-10T17:53:46.000Z</time>
      </trkpt>
      <trkpt lat="48.58851" lon="-0.64786">
        <ele>166.2</ele>
        <time>2025-05-10T17:53:47.000Z</time>
      </trkpt>
      <trkpt lat="48.58854" lon="-0.64794">
        <ele>166.2</ele>
        <time>2025-05-10T17:53:48.000Z</time>
      </trkpt>
      <trkpt lat="48.58856" lon="-0.64802">
        <ele>166.2</ele>
        <time>2025-05-10T17:53:49.000Z</time>
      </trkpt>
      <trkpt lat="48.58859" lon="-0.64809">
        <ele>166.2</ele>
        <time>2025-05-10T17:53:50.000Z</time>
      </trkpt>
      <trkpt lat="48.58861" lon="-0.64817">
        <ele>166.2</ele>
        <time>2025-05-10T17:53:51.000Z</time>
      </trkpt>
      <trkpt lat="48.58864" lon="-0.64824">
        <ele>166.3</ele>
        <time>2025-05-10T17:53:52.000Z</time>
      </trkpt>
      <trkpt lat="48.58866" lon="-0.64831">
        <ele>166.3</ele>
        <time>2025-05-10T17:53:53.000Z</time>
      </trkpt>
      <trkpt lat="48.58868" lon="-0.64838">
        <ele>166.3</ele>
        <time>2025-05-10T17:53:54.000Z</time>
      </trkpt>
      <trkpt lat="48.5887" lon="-0.64845">
        <ele>166.4</ele>
        <time>2025-05-10T17:53:55.000Z</time>
      </trkpt>
      <trkpt lat="48.58872" lon="-0.64852">
        <ele>166.4</ele>
        <time>2025-05-10T17:53:56.000Z</time>
      </trkpt>
      <trkpt lat="48.58875" lon="-0.64864">
        <ele>166.5</ele>
        <time>2025-05-10T17:53:58.000Z</time>
      </trkpt>
      <trkpt lat="48.58877" lon="-0.64871">
        <ele>166.5</ele>
        <time>2025-05-10T17:53:59.000Z</time>
      </trkpt>
      <trkpt lat="48.58879" lon="-0.64877">
        <ele>166.6</ele>
        <time>2025-05-10T17:54:00.000Z</time>
      </trkpt>
      <trkpt lat="48.58881" lon="-0.64884">
        <ele>166.6</ele>
        <time>2025-05-10T17:54:01.000Z</time>
      </trkpt>
      <trkpt lat="48.58883" lon="-0.64891">
        <ele>166.6</ele>
        <time>2025-05-10T17:54:02.000Z</time>
      </trkpt>
      <trkpt lat="48.58885" lon="-0.64899">
        <ele>166.7</ele>
        <time>2025-05-10T17:54:03.000Z</time>
      </trkpt>
      <trkpt lat="48.58886" lon="-0.64907">
        <ele>166.7</ele>
        <time>2025-05-10T17:54:04.000Z</time>
      </trkpt>
      <trkpt lat="48.58887" lon="-0.64914">
        <ele>166.8</ele>
        <time>2025-05-10T17:54:05.000Z</time>
      </trkpt>
      <trkpt lat="48.58888" lon="-0.64922">
        <ele>166.8</ele>
        <time>2025-05-10T17:54:06.000Z</time>
      </trkpt>
      <trkpt lat="48.5889" lon="-0.6493">
        <ele>166.9</ele>
        <time>2025-05-10T17:54:07.000Z</time>
      </trkpt>
      <trkpt lat="48.58891" lon="-0.64937">
        <ele>166.9</ele>
        <time>2025-05-10T17:54:08.000Z</time>
      </trkpt>
      <trkpt lat="48.58892" lon="-0.64945">
        <ele>167</ele>
        <time>2025-05-10T17:54:09.000Z</time>
      </trkpt>
      <trkpt lat="48.58893" lon="-0.64952">
        <ele>167</ele>
        <time>2025-05-10T17:54:10.000Z</time>
      </trkpt>
      <trkpt lat="48.58894" lon="-0.64959">
        <ele>167.1</ele>
        <time>2025-05-10T17:54:11.000Z</time>
      </trkpt>
      <trkpt lat="48.58893" lon="-0.64972">
        <ele>167.2</ele>
        <time>2025-05-10T17:54:13.000Z</time>
      </trkpt>
      <trkpt lat="48.58893" lon="-0.64984">
        <ele>167.3</ele>
        <time>2025-05-10T17:54:15.000Z</time>
      </trkpt>
      <trkpt lat="48.58894" lon="-0.64994">
        <ele>167.4</ele>
        <time>2025-05-10T17:54:17.000Z</time>
      </trkpt>
      <trkpt lat="48.58894" lon="-0.65003">
        <ele>167.5</ele>
        <time>2025-05-10T17:54:19.000Z</time>
      </trkpt>
      <trkpt lat="48.58895" lon="-0.65012">
        <ele>167.6</ele>
        <time>2025-05-10T17:54:21.000Z</time>
      </trkpt>
      <trkpt lat="48.58895" lon="-0.65022">
        <ele>167.6</ele>
        <time>2025-05-10T17:54:23.000Z</time>
      </trkpt>
      <trkpt lat="48.58893" lon="-0.65029">
        <ele>167.7</ele>
        <time>2025-05-10T17:54:25.000Z</time>
      </trkpt>
      <trkpt lat="48.58888" lon="-0.65033">
        <ele>167.7</ele>
        <time>2025-05-10T17:54:27.000Z</time>
      </trkpt>
      <trkpt lat="48.58885" lon="-0.6504">
        <ele>167.7</ele>
        <time>2025-05-10T17:54:29.000Z</time>
      </trkpt>
      <trkpt lat="48.58881" lon="-0.65048">
        <ele>167.7</ele>
        <time>2025-05-10T17:54:31.000Z</time>
      </trkpt>
      <trkpt lat="48.58877" lon="-0.65054">
        <ele>167.7</ele>
        <time>2025-05-10T17:54:33.000Z</time>
      </trkpt>
      <trkpt lat="48.58873" lon="-0.65059">
        <ele>167.6</ele>
        <time>2025-05-10T17:54:36.000Z</time>
      </trkpt>
      <trkpt lat="48.5887" lon="-0.65061">
        <ele>156.8</ele>
        <time>2025-05-10T17:54:49.000Z</time>
      </trkpt>
      <trkpt lat="48.5886" lon="-0.65069">
        <ele>155.7</ele>
        <time>2025-05-10T17:54:59.000Z</time>
      </trkpt>
      <trkpt lat="48.58856" lon="-0.65076">
        <ele>155.6</ele>
        <time>2025-05-10T17:55:01.000Z</time>
      </trkpt>
      <trkpt lat="48.5885" lon="-0.65084">
        <ele>155</ele>
        <time>2025-05-10T17:55:03.000Z</time>
      </trkpt>
      <trkpt lat="48.58847" lon="-0.65093">
        <ele>154.3</ele>
        <time>2025-05-10T17:55:04.000Z</time>
      </trkpt>
      <trkpt lat="48.58844" lon="-0.65103">
        <ele>153.8</ele>
        <time>2025-05-10T17:55:05.000Z</time>
      </trkpt>
      <trkpt lat="48.58838" lon="-0.65112">
        <ele>153.3</ele>
        <time>2025-05-10T17:55:07.000Z</time>
      </trkpt>
      <trkpt lat="48.58832" lon="-0.65122">
        <ele>152.4</ele>
        <time>2025-05-10T17:55:08.000Z</time>
      </trkpt>
      <trkpt lat="48.58827" lon="-0.6513">
        <ele>151.6</ele>
        <time>2025-05-10T17:55:10.000Z</time>
      </trkpt>
      <trkpt lat="48.58824" lon="-0.65141">
        <ele>164.3</ele>
        <time>2025-05-10T17:55:11.000Z</time>
      </trkpt>
      <trkpt lat="48.58813" lon="-0.65157">
        <ele>163.3</ele>
        <time>2025-05-10T17:55:13.000Z</time>
      </trkpt>
      <trkpt lat="48.58807" lon="-0.65162">
        <ele>162.8</ele>
        <time>2025-05-10T17:55:14.000Z</time>
      </trkpt>
      <trkpt lat="48.58801" lon="-0.65163">
        <ele>162.2</ele>
        <time>2025-05-10T17:55:15.000Z</time>
      </trkpt>
      <trkpt lat="48.58794" lon="-0.65163">
        <ele>161.6</ele>
        <time>2025-05-10T17:55:16.000Z</time>
      </trkpt>
      <trkpt lat="48.58789" lon="-0.65161">
        <ele>161.1</ele>
        <time>2025-05-10T17:55:17.000Z</time>
      </trkpt>
      <trkpt lat="48.58781" lon="-0.65159">
        <ele>160</ele>
        <time>2025-05-10T17:55:19.000Z</time>
      </trkpt>
      <trkpt lat="48.58775" lon="-0.65151">
        <ele>146.9</ele>
        <time>2025-05-10T17:55:21.000Z</time>
      </trkpt>
    </trkseg>
  </trk>
</gpx>